<?xml version="1.0" encoding="UTF-8" standalone="no" ?>
<gpx xmlns="http://www.topografix.com/GPX/1/1" xmlns:xsi="http://www.w3.org/2001/XMLSchema-instance" xsi:schemaLocation="http://www.topografix.com/GPX/1/1 http://www.topografix.com/GPX/1/1/gpx.xsd" version="1.1" creator="VisuGPX - https://www.visugpx.com">
  <metadata>
    <name>Peyrieu - Rallye avril 2015</name>
    <desc><![CDATA[Ballade d'une journée avec de nombreux galops sur des chemins en herbe]]></desc>
  </metadata>
  <trk>
    <name><![CDATA[Peyrieu - Rallye avril 2015_1]]></name>
    <trkseg>
      <trkpt lat="45.676" lon="5.67907">
        <ele>258.6</ele>
        <time>2015-04-26T09:44:03Z</time>
      </trkpt>
      <trkpt lat="45.67594" lon="5.67938">
        <ele>233.71825</ele>
        <time>2015-04-26T09:44:08Z</time>
      </trkpt>
      <trkpt lat="45.676" lon="5.67933">
        <ele>233.71825</ele>
        <time>2015-04-26T09:44:13Z</time>
      </trkpt>
      <trkpt lat="45.67604" lon="5.67928">
        <ele>236.41945</ele>
        <time>2015-04-26T09:44:18Z</time>
      </trkpt>
      <trkpt lat="45.67611" lon="5.67919">
        <ele>238.64253</ele>
        <time>2015-04-26T09:44:23Z</time>
      </trkpt>
      <trkpt lat="45.67617" lon="5.67914">
        <ele>238.64253</ele>
        <time>2015-04-26T09:44:28Z</time>
      </trkpt>
      <trkpt lat="45.67623" lon="5.67912">
        <ele>241.69601</ele>
        <time>2015-04-26T09:44:33Z</time>
      </trkpt>
      <trkpt lat="45.67629" lon="5.67913">
        <ele>241.69601</ele>
        <time>2015-04-26T09:44:38Z</time>
      </trkpt>
      <trkpt lat="45.67634" lon="5.67909">
        <ele>243.989</ele>
        <time>2015-04-26T09:44:43Z</time>
      </trkpt>
      <trkpt lat="45.67637" lon="5.67901">
        <ele>243.989</ele>
        <time>2015-04-26T09:44:48Z</time>
      </trkpt>
      <trkpt lat="45.6764" lon="5.67901">
        <ele>246.04886</ele>
        <time>2015-04-26T09:44:53Z</time>
      </trkpt>
      <trkpt lat="45.67648" lon="5.67899">
        <ele>246.04886</ele>
        <time>2015-04-26T09:44:58Z</time>
      </trkpt>
      <trkpt lat="45.67655" lon="5.67899">
        <ele>247.63748</ele>
        <time>2015-04-26T09:45:03Z</time>
      </trkpt>
      <trkpt lat="45.67664" lon="5.67897">
        <ele>247.63748</ele>
        <time>2015-04-26T09:45:08Z</time>
      </trkpt>
      <trkpt lat="45.6767" lon="5.67895">
        <ele>248.53177</ele>
        <time>2015-04-26T09:45:13Z</time>
      </trkpt>
      <trkpt lat="45.67675" lon="5.67894">
        <ele>248.53177</ele>
        <time>2015-04-26T09:45:18Z</time>
      </trkpt>
      <trkpt lat="45.67685" lon="5.67902">
        <ele>248.88354</ele>
        <time>2015-04-26T09:45:23Z</time>
      </trkpt>
      <trkpt lat="45.67693" lon="5.67907">
        <ele>248.88354</ele>
        <time>2015-04-26T09:45:28Z</time>
      </trkpt>
      <trkpt lat="45.67696" lon="5.67901">
        <ele>249.14111</ele>
        <time>2015-04-26T09:45:33Z</time>
      </trkpt>
      <trkpt lat="45.67696" lon="5.679">
        <ele>249.14111</ele>
        <time>2015-04-26T09:45:38Z</time>
      </trkpt>
      <trkpt lat="45.67698" lon="5.67901">
        <ele>249.14111</ele>
        <time>2015-04-26T09:45:43Z</time>
      </trkpt>
      <trkpt lat="45.67698" lon="5.67899">
        <ele>249.14111</ele>
        <time>2015-04-26T09:45:48Z</time>
      </trkpt>
      <trkpt lat="45.67699" lon="5.67897">
        <ele>249.14111</ele>
        <time>2015-04-26T09:45:53Z</time>
      </trkpt>
      <trkpt lat="45.677" lon="5.67895">
        <ele>249.14111</ele>
        <time>2015-04-26T09:45:58Z</time>
      </trkpt>
      <trkpt lat="45.67706" lon="5.67886">
        <ele>250.25073</ele>
        <time>2015-04-26T09:46:03Z</time>
      </trkpt>
      <trkpt lat="45.67707" lon="5.67875">
        <ele>250.25073</ele>
        <time>2015-04-26T09:46:08Z</time>
      </trkpt>
      <trkpt lat="45.67708" lon="5.67868">
        <ele>251.14255</ele>
        <time>2015-04-26T09:46:13Z</time>
      </trkpt>
      <trkpt lat="45.67704" lon="5.67862">
        <ele>251.14255</ele>
        <time>2015-04-26T09:46:18Z</time>
      </trkpt>
      <trkpt lat="45.67698" lon="5.67855">
        <ele>252.07567</ele>
        <time>2015-04-26T09:46:23Z</time>
      </trkpt>
      <trkpt lat="45.67693" lon="5.67844">
        <ele>253.03957</ele>
        <time>2015-04-26T09:46:28Z</time>
      </trkpt>
      <trkpt lat="45.67688" lon="5.67834">
        <ele>253.03957</ele>
        <time>2015-04-26T09:46:33Z</time>
      </trkpt>
      <trkpt lat="45.67686" lon="5.67825">
        <ele>253.90787</ele>
        <time>2015-04-26T09:46:38Z</time>
      </trkpt>
      <trkpt lat="45.67684" lon="5.67815">
        <ele>253.90787</ele>
        <time>2015-04-26T09:46:43Z</time>
      </trkpt>
      <trkpt lat="45.67681" lon="5.67808">
        <ele>254.666</ele>
        <time>2015-04-26T09:46:48Z</time>
      </trkpt>
      <trkpt lat="45.67677" lon="5.678">
        <ele>254.666</ele>
        <time>2015-04-26T09:46:53Z</time>
      </trkpt>
      <trkpt lat="45.67672" lon="5.67791">
        <ele>255.1707</ele>
        <time>2015-04-26T09:46:58Z</time>
      </trkpt>
      <trkpt lat="45.67669" lon="5.67782">
        <ele>255.1707</ele>
        <time>2015-04-26T09:47:03Z</time>
      </trkpt>
      <trkpt lat="45.67668" lon="5.67774">
        <ele>255.68428</ele>
        <time>2015-04-26T09:47:08Z</time>
      </trkpt>
      <trkpt lat="45.67672" lon="5.67763">
        <ele>255.68428</ele>
        <time>2015-04-26T09:47:13Z</time>
      </trkpt>
      <trkpt lat="45.67675" lon="5.67755">
        <ele>255.41708</ele>
        <time>2015-04-26T09:47:18Z</time>
      </trkpt>
      <trkpt lat="45.67677" lon="5.67747">
        <ele>255.41708</ele>
        <time>2015-04-26T09:47:23Z</time>
      </trkpt>
      <trkpt lat="45.6768" lon="5.67739">
        <ele>255.18939</ele>
        <time>2015-04-26T09:47:29Z</time>
      </trkpt>
      <trkpt lat="45.67683" lon="5.67732">
        <ele>255.18939</ele>
        <time>2015-04-26T09:47:35Z</time>
      </trkpt>
      <trkpt lat="45.67687" lon="5.67726">
        <ele>255.20503</ele>
        <time>2015-04-26T09:47:40Z</time>
      </trkpt>
      <trkpt lat="45.67692" lon="5.67718">
        <ele>255.20503</ele>
        <time>2015-04-26T09:47:45Z</time>
      </trkpt>
      <trkpt lat="45.67695" lon="5.67713">
        <ele>254.71039</ele>
        <time>2015-04-26T09:47:49Z</time>
      </trkpt>
      <trkpt lat="45.677" lon="5.67711">
        <ele>254.71039</ele>
        <time>2015-04-26T09:47:55Z</time>
      </trkpt>
      <trkpt lat="45.67701" lon="5.6771">
        <ele>254.71039</ele>
        <time>2015-04-26T09:47:59Z</time>
      </trkpt>
      <trkpt lat="45.67701" lon="5.6771">
        <ele>254.71039</ele>
        <time>2015-04-26T09:48:05Z</time>
      </trkpt>
      <trkpt lat="45.67702" lon="5.6771">
        <ele>254.71039</ele>
        <time>2015-04-26T09:48:10Z</time>
      </trkpt>
      <trkpt lat="45.67703" lon="5.6771">
        <ele>254.71039</ele>
        <time>2015-04-26T09:48:14Z</time>
      </trkpt>
      <trkpt lat="45.67707" lon="5.67705">
        <ele>253.97777</ele>
        <time>2015-04-26T09:48:20Z</time>
      </trkpt>
      <trkpt lat="45.67714" lon="5.67698">
        <ele>253.97777</ele>
        <time>2015-04-26T09:48:24Z</time>
      </trkpt>
      <trkpt lat="45.67722" lon="5.67694">
        <ele>253.99727</ele>
        <time>2015-04-26T09:48:29Z</time>
      </trkpt>
      <trkpt lat="45.67731" lon="5.67689">
        <ele>254.25102</ele>
        <time>2015-04-26T09:48:35Z</time>
      </trkpt>
      <trkpt lat="45.67736" lon="5.67683">
        <ele>254.25102</ele>
        <time>2015-04-26T09:48:39Z</time>
      </trkpt>
      <trkpt lat="45.67742" lon="5.67679">
        <ele>254.4267</ele>
        <time>2015-04-26T09:48:45Z</time>
      </trkpt>
      <trkpt lat="45.67748" lon="5.67674">
        <ele>254.4267</ele>
        <time>2015-04-26T09:48:49Z</time>
      </trkpt>
      <trkpt lat="45.67755" lon="5.67671">
        <ele>254.95944</ele>
        <time>2015-04-26T09:48:55Z</time>
      </trkpt>
      <trkpt lat="45.67762" lon="5.67666">
        <ele>254.95944</ele>
        <time>2015-04-26T09:49:00Z</time>
      </trkpt>
      <trkpt lat="45.67768" lon="5.67661">
        <ele>255.89908</ele>
        <time>2015-04-26T09:49:04Z</time>
      </trkpt>
      <trkpt lat="45.67769" lon="5.6766">
        <ele>255.89908</ele>
        <time>2015-04-26T09:49:09Z</time>
      </trkpt>
      <trkpt lat="45.67775" lon="5.6765">
        <ele>256.03046</ele>
        <time>2015-04-26T09:49:14Z</time>
      </trkpt>
      <trkpt lat="45.67779" lon="5.67644">
        <ele>256.03046</ele>
        <time>2015-04-26T09:49:19Z</time>
      </trkpt>
      <trkpt lat="45.67784" lon="5.67638">
        <ele>255.8835</ele>
        <time>2015-04-26T09:49:24Z</time>
      </trkpt>
      <trkpt lat="45.6779" lon="5.67634">
        <ele>255.8835</ele>
        <time>2015-04-26T09:49:29Z</time>
      </trkpt>
      <trkpt lat="45.67796" lon="5.67631">
        <ele>255.55006</ele>
        <time>2015-04-26T09:49:33Z</time>
      </trkpt>
      <trkpt lat="45.67801" lon="5.67625">
        <ele>255.55006</ele>
        <time>2015-04-26T09:49:38Z</time>
      </trkpt>
      <trkpt lat="45.67805" lon="5.67618">
        <ele>255.09975</ele>
        <time>2015-04-26T09:49:43Z</time>
      </trkpt>
      <trkpt lat="45.67813" lon="5.67615">
        <ele>255.09975</ele>
        <time>2015-04-26T09:49:49Z</time>
      </trkpt>
      <trkpt lat="45.67818" lon="5.6761">
        <ele>254.44402</ele>
        <time>2015-04-26T09:49:54Z</time>
      </trkpt>
      <trkpt lat="45.67825" lon="5.67608">
        <ele>254.44402</ele>
        <time>2015-04-26T09:50:00Z</time>
      </trkpt>
      <trkpt lat="45.67827" lon="5.67598">
        <ele>252.819</ele>
        <time>2015-04-26T09:50:04Z</time>
      </trkpt>
      <trkpt lat="45.67828" lon="5.67598">
        <ele>252.819</ele>
        <time>2015-04-26T09:50:10Z</time>
      </trkpt>
      <trkpt lat="45.67825" lon="5.6759">
        <ele>252.819</ele>
        <time>2015-04-26T09:50:14Z</time>
      </trkpt>
      <trkpt lat="45.67823" lon="5.67582">
        <ele>251.50401</ele>
        <time>2015-04-26T09:50:19Z</time>
      </trkpt>
      <trkpt lat="45.67822" lon="5.67579">
        <ele>251.50401</ele>
        <time>2015-04-26T09:50:24Z</time>
      </trkpt>
      <trkpt lat="45.67822" lon="5.67579">
        <ele>251.50401</ele>
        <time>2015-04-26T09:50:29Z</time>
      </trkpt>
      <trkpt lat="45.67822" lon="5.67579">
        <ele>251.50401</ele>
        <time>2015-04-26T09:50:35Z</time>
      </trkpt>
      <trkpt lat="45.67823" lon="5.67579">
        <ele>251.50401</ele>
        <time>2015-04-26T09:50:38Z</time>
      </trkpt>
      <trkpt lat="45.67823" lon="5.67577">
        <ele>251.50401</ele>
        <time>2015-04-26T09:50:44Z</time>
      </trkpt>
      <trkpt lat="45.67822" lon="5.67579">
        <ele>251.50401</ele>
        <time>2015-04-26T09:50:48Z</time>
      </trkpt>
      <trkpt lat="45.67823" lon="5.67577">
        <ele>251.50401</ele>
        <time>2015-04-26T09:50:54Z</time>
      </trkpt>
      <trkpt lat="45.67822" lon="5.67577">
        <ele>251.50401</ele>
        <time>2015-04-26T09:51:00Z</time>
      </trkpt>
      <trkpt lat="45.67822" lon="5.67577">
        <ele>251.50401</ele>
        <time>2015-04-26T09:51:03Z</time>
      </trkpt>
      <trkpt lat="45.67822" lon="5.67577">
        <ele>251.50401</ele>
        <time>2015-04-26T09:51:10Z</time>
      </trkpt>
      <trkpt lat="45.67822" lon="5.67577">
        <ele>251.50401</ele>
        <time>2015-04-26T09:51:15Z</time>
      </trkpt>
      <trkpt lat="45.67822" lon="5.67577">
        <ele>251.50401</ele>
        <time>2015-04-26T09:51:20Z</time>
      </trkpt>
      <trkpt lat="45.67822" lon="5.67578">
        <ele>251.50401</ele>
        <time>2015-04-26T09:51:24Z</time>
      </trkpt>
      <trkpt lat="45.67822" lon="5.67577">
        <ele>250.44092</ele>
        <time>2015-04-26T09:51:29Z</time>
      </trkpt>
      <trkpt lat="45.67822" lon="5.67578">
        <ele>250.44092</ele>
        <time>2015-04-26T09:51:34Z</time>
      </trkpt>
      <trkpt lat="45.67822" lon="5.67578">
        <ele>250.44092</ele>
        <time>2015-04-26T09:51:39Z</time>
      </trkpt>
      <trkpt lat="45.67821" lon="5.67577">
        <ele>250.44092</ele>
        <time>2015-04-26T09:51:45Z</time>
      </trkpt>
      <trkpt lat="45.67822" lon="5.67576">
        <ele>250.44092</ele>
        <time>2015-04-26T09:51:49Z</time>
      </trkpt>
      <trkpt lat="45.67822" lon="5.67575">
        <ele>250.44092</ele>
        <time>2015-04-26T09:51:54Z</time>
      </trkpt>
      <trkpt lat="45.67824" lon="5.67577">
        <ele>250.44092</ele>
        <time>2015-04-26T09:52:00Z</time>
      </trkpt>
      <trkpt lat="45.67823" lon="5.67577">
        <ele>250.44092</ele>
        <time>2015-04-26T09:52:04Z</time>
      </trkpt>
      <trkpt lat="45.6782" lon="5.67578">
        <ele>249.46326</ele>
        <time>2015-04-26T09:52:10Z</time>
      </trkpt>
      <trkpt lat="45.67822" lon="5.6758">
        <ele>249.46326</ele>
        <time>2015-04-26T09:52:15Z</time>
      </trkpt>
      <trkpt lat="45.67822" lon="5.67579">
        <ele>249.46326</ele>
        <time>2015-04-26T09:52:20Z</time>
      </trkpt>
      <trkpt lat="45.67823" lon="5.67577">
        <ele>249.46326</ele>
        <time>2015-04-26T09:52:24Z</time>
      </trkpt>
      <trkpt lat="45.67823" lon="5.67576">
        <ele>249.46326</ele>
        <time>2015-04-26T09:52:29Z</time>
      </trkpt>
      <trkpt lat="45.67822" lon="5.67577">
        <ele>249.46326</ele>
        <time>2015-04-26T09:52:35Z</time>
      </trkpt>
      <trkpt lat="45.67824" lon="5.67576">
        <ele>249.46326</ele>
        <time>2015-04-26T09:52:39Z</time>
      </trkpt>
      <trkpt lat="45.67826" lon="5.67571">
        <ele>248.8255</ele>
        <time>2015-04-26T09:52:44Z</time>
      </trkpt>
      <trkpt lat="45.67825" lon="5.67563">
        <ele>248.8255</ele>
        <time>2015-04-26T09:52:50Z</time>
      </trkpt>
      <trkpt lat="45.67824" lon="5.67553">
        <ele>248.21231</ele>
        <time>2015-04-26T09:52:54Z</time>
      </trkpt>
      <trkpt lat="45.67824" lon="5.67547">
        <ele>248.21231</ele>
        <time>2015-04-26T09:52:59Z</time>
      </trkpt>
      <trkpt lat="45.67823" lon="5.67535">
        <ele>247.7124</ele>
        <time>2015-04-26T09:53:05Z</time>
      </trkpt>
      <trkpt lat="45.67827" lon="5.67527">
        <ele>247.7124</ele>
        <time>2015-04-26T09:53:10Z</time>
      </trkpt>
      <trkpt lat="45.67831" lon="5.67522">
        <ele>247.25064</ele>
        <time>2015-04-26T09:53:15Z</time>
      </trkpt>
      <trkpt lat="45.67837" lon="5.67516">
        <ele>247.25064</ele>
        <time>2015-04-26T09:53:19Z</time>
      </trkpt>
      <trkpt lat="45.67841" lon="5.67509">
        <ele>246.87195</ele>
        <time>2015-04-26T09:53:24Z</time>
      </trkpt>
      <trkpt lat="45.67845" lon="5.67501">
        <ele>246.87195</ele>
        <time>2015-04-26T09:53:29Z</time>
      </trkpt>
      <trkpt lat="45.67849" lon="5.6749">
        <ele>246.32526</ele>
        <time>2015-04-26T09:53:34Z</time>
      </trkpt>
      <trkpt lat="45.67851" lon="5.67479">
        <ele>246.32526</ele>
        <time>2015-04-26T09:53:40Z</time>
      </trkpt>
      <trkpt lat="45.67852" lon="5.67469">
        <ele>245.62413</ele>
        <time>2015-04-26T09:53:45Z</time>
      </trkpt>
      <trkpt lat="45.67853" lon="5.67461">
        <ele>245.62413</ele>
        <time>2015-04-26T09:53:48Z</time>
      </trkpt>
      <trkpt lat="45.67856" lon="5.6745">
        <ele>245.90918</ele>
        <time>2015-04-26T09:53:53Z</time>
      </trkpt>
      <trkpt lat="45.67859" lon="5.67439">
        <ele>245.90918</ele>
        <time>2015-04-26T09:53:58Z</time>
      </trkpt>
      <trkpt lat="45.67862" lon="5.6743">
        <ele>246.2685</ele>
        <time>2015-04-26T09:54:03Z</time>
      </trkpt>
      <trkpt lat="45.67865" lon="5.6742">
        <ele>246.2685</ele>
        <time>2015-04-26T09:54:08Z</time>
      </trkpt>
      <trkpt lat="45.67866" lon="5.67411">
        <ele>246.87561</ele>
        <time>2015-04-26T09:54:13Z</time>
      </trkpt>
      <trkpt lat="45.67867" lon="5.674">
        <ele>246.87561</ele>
        <time>2015-04-26T09:54:18Z</time>
      </trkpt>
      <trkpt lat="45.67867" lon="5.6739">
        <ele>247.53154</ele>
        <time>2015-04-26T09:54:23Z</time>
      </trkpt>
      <trkpt lat="45.67866" lon="5.67383">
        <ele>247.53154</ele>
        <time>2015-04-26T09:54:28Z</time>
      </trkpt>
      <trkpt lat="45.67865" lon="5.67372">
        <ele>247.92949</ele>
        <time>2015-04-26T09:54:33Z</time>
      </trkpt>
      <trkpt lat="45.67864" lon="5.67364">
        <ele>247.92949</ele>
        <time>2015-04-26T09:54:38Z</time>
      </trkpt>
      <trkpt lat="45.67862" lon="5.67353">
        <ele>248.9003</ele>
        <time>2015-04-26T09:54:43Z</time>
      </trkpt>
      <trkpt lat="45.67862" lon="5.67343">
        <ele>248.9003</ele>
        <time>2015-04-26T09:54:48Z</time>
      </trkpt>
      <trkpt lat="45.67864" lon="5.67335">
        <ele>249.67421</ele>
        <time>2015-04-26T09:54:53Z</time>
      </trkpt>
      <trkpt lat="45.67864" lon="5.67325">
        <ele>249.67421</ele>
        <time>2015-04-26T09:54:58Z</time>
      </trkpt>
      <trkpt lat="45.67867" lon="5.6732">
        <ele>250.32355</ele>
        <time>2015-04-26T09:55:03Z</time>
      </trkpt>
      <trkpt lat="45.6787" lon="5.67309">
        <ele>250.32355</ele>
        <time>2015-04-26T09:55:08Z</time>
      </trkpt>
      <trkpt lat="45.67872" lon="5.673">
        <ele>251.67085</ele>
        <time>2015-04-26T09:55:13Z</time>
      </trkpt>
      <trkpt lat="45.67877" lon="5.67291">
        <ele>251.67085</ele>
        <time>2015-04-26T09:55:18Z</time>
      </trkpt>
      <trkpt lat="45.67881" lon="5.67284">
        <ele>253.53673</ele>
        <time>2015-04-26T09:55:23Z</time>
      </trkpt>
      <trkpt lat="45.67888" lon="5.67278">
        <ele>253.53673</ele>
        <time>2015-04-26T09:55:28Z</time>
      </trkpt>
      <trkpt lat="45.67894" lon="5.67274">
        <ele>255.24092</ele>
        <time>2015-04-26T09:55:33Z</time>
      </trkpt>
      <trkpt lat="45.679" lon="5.67272">
        <ele>255.24092</ele>
        <time>2015-04-26T09:55:38Z</time>
      </trkpt>
      <trkpt lat="45.67905" lon="5.67267">
        <ele>256.3393</ele>
        <time>2015-04-26T09:55:43Z</time>
      </trkpt>
      <trkpt lat="45.6791" lon="5.67262">
        <ele>256.3393</ele>
        <time>2015-04-26T09:55:49Z</time>
      </trkpt>
      <trkpt lat="45.67911" lon="5.6726">
        <ele>256.3393</ele>
        <time>2015-04-26T09:55:54Z</time>
      </trkpt>
      <trkpt lat="45.67914" lon="5.67254">
        <ele>257.91437</ele>
        <time>2015-04-26T09:56:00Z</time>
      </trkpt>
      <trkpt lat="45.67915" lon="5.67253">
        <ele>257.91437</ele>
        <time>2015-04-26T09:56:04Z</time>
      </trkpt>
      <trkpt lat="45.67917" lon="5.6725">
        <ele>257.91437</ele>
        <time>2015-04-26T09:56:10Z</time>
      </trkpt>
      <trkpt lat="45.67921" lon="5.67246">
        <ele>258.9933</ele>
        <time>2015-04-26T09:56:15Z</time>
      </trkpt>
      <trkpt lat="45.67923" lon="5.67239">
        <ele>258.9933</ele>
        <time>2015-04-26T09:56:18Z</time>
      </trkpt>
      <trkpt lat="45.6793" lon="5.67227">
        <ele>261.52933</ele>
        <time>2015-04-26T09:56:25Z</time>
      </trkpt>
      <trkpt lat="45.67935" lon="5.6722">
        <ele>261.52933</ele>
        <time>2015-04-26T09:56:29Z</time>
      </trkpt>
      <trkpt lat="45.67941" lon="5.6721">
        <ele>265.12778</ele>
        <time>2015-04-26T09:56:34Z</time>
      </trkpt>
      <trkpt lat="45.67945" lon="5.67204">
        <ele>265.12778</ele>
        <time>2015-04-26T09:56:40Z</time>
      </trkpt>
      <trkpt lat="45.67949" lon="5.67198">
        <ele>268.08337</ele>
        <time>2015-04-26T09:56:45Z</time>
      </trkpt>
      <trkpt lat="45.67957" lon="5.67196">
        <ele>268.08337</ele>
        <time>2015-04-26T09:56:49Z</time>
      </trkpt>
      <trkpt lat="45.67964" lon="5.67189">
        <ele>271.28806</ele>
        <time>2015-04-26T09:56:54Z</time>
      </trkpt>
      <trkpt lat="45.67967" lon="5.67181">
        <ele>271.28806</ele>
        <time>2015-04-26T09:56:58Z</time>
      </trkpt>
      <trkpt lat="45.67968" lon="5.67184">
        <ele>271.28806</ele>
        <time>2015-04-26T09:57:03Z</time>
      </trkpt>
      <trkpt lat="45.67973" lon="5.67192">
        <ele>274.34308</ele>
        <time>2015-04-26T09:57:09Z</time>
      </trkpt>
      <trkpt lat="45.6798" lon="5.6719">
        <ele>274.34308</ele>
        <time>2015-04-26T09:57:13Z</time>
      </trkpt>
      <trkpt lat="45.67984" lon="5.67189">
        <ele>276.82474</ele>
        <time>2015-04-26T09:57:18Z</time>
      </trkpt>
      <trkpt lat="45.67996" lon="5.67183">
        <ele>279.0397</ele>
        <time>2015-04-26T09:57:23Z</time>
      </trkpt>
      <trkpt lat="45.68" lon="5.67177">
        <ele>279.0397</ele>
        <time>2015-04-26T09:57:28Z</time>
      </trkpt>
      <trkpt lat="45.68006" lon="5.67172">
        <ele>279.85748</ele>
        <time>2015-04-26T09:57:33Z</time>
      </trkpt>
      <trkpt lat="45.68013" lon="5.67168">
        <ele>279.85748</ele>
        <time>2015-04-26T09:57:38Z</time>
      </trkpt>
      <trkpt lat="45.68022" lon="5.67164">
        <ele>281.87067</ele>
        <time>2015-04-26T09:57:43Z</time>
      </trkpt>
      <trkpt lat="45.68028" lon="5.6716">
        <ele>281.87067</ele>
        <time>2015-04-26T09:57:48Z</time>
      </trkpt>
      <trkpt lat="45.68035" lon="5.67153">
        <ele>283.66122</ele>
        <time>2015-04-26T09:57:53Z</time>
      </trkpt>
      <trkpt lat="45.6804" lon="5.67147">
        <ele>283.66122</ele>
        <time>2015-04-26T09:57:58Z</time>
      </trkpt>
      <trkpt lat="45.68047" lon="5.67143">
        <ele>285.68237</ele>
        <time>2015-04-26T09:58:03Z</time>
      </trkpt>
      <trkpt lat="45.68054" lon="5.67139">
        <ele>285.68237</ele>
        <time>2015-04-26T09:58:08Z</time>
      </trkpt>
      <trkpt lat="45.68062" lon="5.67135">
        <ele>286.70123</ele>
        <time>2015-04-26T09:58:13Z</time>
      </trkpt>
      <trkpt lat="45.68068" lon="5.6713">
        <ele>286.70123</ele>
        <time>2015-04-26T09:58:18Z</time>
      </trkpt>
      <trkpt lat="45.68074" lon="5.67125">
        <ele>287.7134</ele>
        <time>2015-04-26T09:58:23Z</time>
      </trkpt>
      <trkpt lat="45.68082" lon="5.6712">
        <ele>287.7134</ele>
        <time>2015-04-26T09:58:28Z</time>
      </trkpt>
      <trkpt lat="45.68089" lon="5.67117">
        <ele>288.70404</ele>
        <time>2015-04-26T09:58:33Z</time>
      </trkpt>
      <trkpt lat="45.68094" lon="5.67113">
        <ele>288.70404</ele>
        <time>2015-04-26T09:58:38Z</time>
      </trkpt>
      <trkpt lat="45.681" lon="5.67109">
        <ele>289.06418</ele>
        <time>2015-04-26T09:58:43Z</time>
      </trkpt>
      <trkpt lat="45.68108" lon="5.67106">
        <ele>289.06418</ele>
        <time>2015-04-26T09:58:48Z</time>
      </trkpt>
      <trkpt lat="45.68114" lon="5.671">
        <ele>289.5397</ele>
        <time>2015-04-26T09:58:53Z</time>
      </trkpt>
      <trkpt lat="45.68121" lon="5.67097">
        <ele>289.5397</ele>
        <time>2015-04-26T09:58:58Z</time>
      </trkpt>
      <trkpt lat="45.68127" lon="5.67091">
        <ele>289.86176</ele>
        <time>2015-04-26T09:59:03Z</time>
      </trkpt>
      <trkpt lat="45.68134" lon="5.67086">
        <ele>289.86176</ele>
        <time>2015-04-26T09:59:08Z</time>
      </trkpt>
      <trkpt lat="45.68139" lon="5.67082">
        <ele>289.76837</ele>
        <time>2015-04-26T09:59:13Z</time>
      </trkpt>
      <trkpt lat="45.68146" lon="5.67078">
        <ele>289.76837</ele>
        <time>2015-04-26T09:59:20Z</time>
      </trkpt>
      <trkpt lat="45.68154" lon="5.67078">
        <ele>290.2191</ele>
        <time>2015-04-26T09:59:24Z</time>
      </trkpt>
      <trkpt lat="45.68161" lon="5.67077">
        <ele>290.2191</ele>
        <time>2015-04-26T09:59:29Z</time>
      </trkpt>
      <trkpt lat="45.68168" lon="5.67076">
        <ele>290.88486</ele>
        <time>2015-04-26T09:59:35Z</time>
      </trkpt>
      <trkpt lat="45.68175" lon="5.67077">
        <ele>290.88486</ele>
        <time>2015-04-26T09:59:40Z</time>
      </trkpt>
      <trkpt lat="45.68183" lon="5.67083">
        <ele>291.46136</ele>
        <time>2015-04-26T09:59:45Z</time>
      </trkpt>
      <trkpt lat="45.68187" lon="5.67091">
        <ele>291.46136</ele>
        <time>2015-04-26T09:59:50Z</time>
      </trkpt>
      <trkpt lat="45.68193" lon="5.67088">
        <ele>292.17276</ele>
        <time>2015-04-26T09:59:55Z</time>
      </trkpt>
      <trkpt lat="45.68198" lon="5.67082">
        <ele>292.17276</ele>
        <time>2015-04-26T10:00:00Z</time>
      </trkpt>
      <trkpt lat="45.68198" lon="5.67073">
        <ele>292.93753</ele>
        <time>2015-04-26T10:00:05Z</time>
      </trkpt>
      <trkpt lat="45.68191" lon="5.67063">
        <ele>293.55038</ele>
        <time>2015-04-26T10:00:10Z</time>
      </trkpt>
      <trkpt lat="45.68177" lon="5.67056">
        <ele>294.38416</ele>
        <time>2015-04-26T10:00:15Z</time>
      </trkpt>
      <trkpt lat="45.68172" lon="5.67056">
        <ele>294.38416</ele>
        <time>2015-04-26T10:00:20Z</time>
      </trkpt>
      <trkpt lat="45.68161" lon="5.67054">
        <ele>295.20673</ele>
        <time>2015-04-26T10:00:24Z</time>
      </trkpt>
      <trkpt lat="45.68153" lon="5.67051">
        <ele>295.20673</ele>
        <time>2015-04-26T10:00:28Z</time>
      </trkpt>
      <trkpt lat="45.68157" lon="5.67041">
        <ele>296.63947</ele>
        <time>2015-04-26T10:00:34Z</time>
      </trkpt>
      <trkpt lat="45.68161" lon="5.67039">
        <ele>296.63947</ele>
        <time>2015-04-26T10:00:40Z</time>
      </trkpt>
      <trkpt lat="45.68169" lon="5.67042">
        <ele>297.94427</ele>
        <time>2015-04-26T10:00:44Z</time>
      </trkpt>
      <trkpt lat="45.68175" lon="5.67041">
        <ele>297.94427</ele>
        <time>2015-04-26T10:00:50Z</time>
      </trkpt>
      <trkpt lat="45.68181" lon="5.67041">
        <ele>299.2452</ele>
        <time>2015-04-26T10:00:55Z</time>
      </trkpt>
      <trkpt lat="45.68183" lon="5.67041">
        <ele>299.2452</ele>
        <time>2015-04-26T10:01:01Z</time>
      </trkpt>
      <trkpt lat="45.68184" lon="5.67041">
        <ele>299.2452</ele>
        <time>2015-04-26T10:01:05Z</time>
      </trkpt>
      <trkpt lat="45.68189" lon="5.67039">
        <ele>299.2452</ele>
        <time>2015-04-26T10:01:10Z</time>
      </trkpt>
      <trkpt lat="45.68194" lon="5.67039">
        <ele>300.6284</ele>
        <time>2015-04-26T10:01:15Z</time>
      </trkpt>
      <trkpt lat="45.68203" lon="5.6704">
        <ele>300.6284</ele>
        <time>2015-04-26T10:01:20Z</time>
      </trkpt>
      <trkpt lat="45.6821" lon="5.67041">
        <ele>301.7264</ele>
        <time>2015-04-26T10:01:24Z</time>
      </trkpt>
      <trkpt lat="45.68217" lon="5.67045">
        <ele>301.7264</ele>
        <time>2015-04-26T10:01:28Z</time>
      </trkpt>
      <trkpt lat="45.68223" lon="5.67051">
        <ele>303.1369</ele>
        <time>2015-04-26T10:01:33Z</time>
      </trkpt>
      <trkpt lat="45.68228" lon="5.67059">
        <ele>303.1369</ele>
        <time>2015-04-26T10:01:38Z</time>
      </trkpt>
      <trkpt lat="45.68232" lon="5.67069">
        <ele>304.8504</ele>
        <time>2015-04-26T10:01:43Z</time>
      </trkpt>
      <trkpt lat="45.68234" lon="5.67078">
        <ele>304.8504</ele>
        <time>2015-04-26T10:01:48Z</time>
      </trkpt>
      <trkpt lat="45.68238" lon="5.67086">
        <ele>306.5978</ele>
        <time>2015-04-26T10:01:53Z</time>
      </trkpt>
      <trkpt lat="45.68244" lon="5.67084">
        <ele>306.5978</ele>
        <time>2015-04-26T10:01:58Z</time>
      </trkpt>
      <trkpt lat="45.68249" lon="5.67077">
        <ele>308.2306</ele>
        <time>2015-04-26T10:02:03Z</time>
      </trkpt>
      <trkpt lat="45.68248" lon="5.67066">
        <ele>308.2306</ele>
        <time>2015-04-26T10:02:08Z</time>
      </trkpt>
      <trkpt lat="45.68246" lon="5.67056">
        <ele>309.6259</ele>
        <time>2015-04-26T10:02:13Z</time>
      </trkpt>
      <trkpt lat="45.68245" lon="5.67046">
        <ele>309.6259</ele>
        <time>2015-04-26T10:02:18Z</time>
      </trkpt>
      <trkpt lat="45.68245" lon="5.67038">
        <ele>310.80032</ele>
        <time>2015-04-26T10:02:23Z</time>
      </trkpt>
      <trkpt lat="45.68248" lon="5.67031">
        <ele>310.80032</ele>
        <time>2015-04-26T10:02:28Z</time>
      </trkpt>
      <trkpt lat="45.68252" lon="5.67029">
        <ele>311.5104</ele>
        <time>2015-04-26T10:02:33Z</time>
      </trkpt>
      <trkpt lat="45.68254" lon="5.67023">
        <ele>311.5104</ele>
        <time>2015-04-26T10:02:38Z</time>
      </trkpt>
      <trkpt lat="45.68257" lon="5.67017">
        <ele>311.1856</ele>
        <time>2015-04-26T10:02:43Z</time>
      </trkpt>
      <trkpt lat="45.6826" lon="5.67015">
        <ele>311.1856</ele>
        <time>2015-04-26T10:02:48Z</time>
      </trkpt>
      <trkpt lat="45.68264" lon="5.67012">
        <ele>311.1856</ele>
        <time>2015-04-26T10:02:53Z</time>
      </trkpt>
      <trkpt lat="45.68264" lon="5.6701">
        <ele>311.1856</ele>
        <time>2015-04-26T10:02:58Z</time>
      </trkpt>
      <trkpt lat="45.68268" lon="5.67001">
        <ele>310.68503</ele>
        <time>2015-04-26T10:03:03Z</time>
      </trkpt>
      <trkpt lat="45.68271" lon="5.66989">
        <ele>310.68503</ele>
        <time>2015-04-26T10:03:08Z</time>
      </trkpt>
      <trkpt lat="45.68274" lon="5.66979">
        <ele>309.68005</ele>
        <time>2015-04-26T10:03:13Z</time>
      </trkpt>
      <trkpt lat="45.68276" lon="5.66966">
        <ele>309.68005</ele>
        <time>2015-04-26T10:03:18Z</time>
      </trkpt>
      <trkpt lat="45.6828" lon="5.66958">
        <ele>308.47348</ele>
        <time>2015-04-26T10:03:23Z</time>
      </trkpt>
      <trkpt lat="45.68283" lon="5.66957">
        <ele>308.47348</ele>
        <time>2015-04-26T10:03:28Z</time>
      </trkpt>
      <trkpt lat="45.68282" lon="5.66954">
        <ele>308.47348</ele>
        <time>2015-04-26T10:03:34Z</time>
      </trkpt>
      <trkpt lat="45.68282" lon="5.66953">
        <ele>308.47348</ele>
        <time>2015-04-26T10:03:40Z</time>
      </trkpt>
      <trkpt lat="45.68284" lon="5.66942">
        <ele>309.0917</ele>
        <time>2015-04-26T10:03:44Z</time>
      </trkpt>
      <trkpt lat="45.68281" lon="5.6693">
        <ele>309.0917</ele>
        <time>2015-04-26T10:03:49Z</time>
      </trkpt>
      <trkpt lat="45.68283" lon="5.66921">
        <ele>310.86832</ele>
        <time>2015-04-26T10:03:55Z</time>
      </trkpt>
      <trkpt lat="45.68284" lon="5.66915">
        <ele>310.86832</ele>
        <time>2015-04-26T10:03:59Z</time>
      </trkpt>
      <trkpt lat="45.68284" lon="5.66915">
        <ele>310.86832</ele>
        <time>2015-04-26T10:04:05Z</time>
      </trkpt>
      <trkpt lat="45.68286" lon="5.66915">
        <ele>310.86832</ele>
        <time>2015-04-26T10:04:10Z</time>
      </trkpt>
      <trkpt lat="45.68285" lon="5.66911">
        <ele>310.86832</ele>
        <time>2015-04-26T10:04:14Z</time>
      </trkpt>
      <trkpt lat="45.68285" lon="5.66909">
        <ele>314.07678</ele>
        <time>2015-04-26T10:04:20Z</time>
      </trkpt>
      <trkpt lat="45.68284" lon="5.669">
        <ele>314.07678</ele>
        <time>2015-04-26T10:04:24Z</time>
      </trkpt>
      <trkpt lat="45.68287" lon="5.66892">
        <ele>315.28842</ele>
        <time>2015-04-26T10:04:29Z</time>
      </trkpt>
      <trkpt lat="45.68291" lon="5.66888">
        <ele>315.28842</ele>
        <time>2015-04-26T10:04:34Z</time>
      </trkpt>
      <trkpt lat="45.68294" lon="5.66879">
        <ele>315.70273</ele>
        <time>2015-04-26T10:04:39Z</time>
      </trkpt>
      <trkpt lat="45.683" lon="5.66874">
        <ele>315.70273</ele>
        <time>2015-04-26T10:04:44Z</time>
      </trkpt>
      <trkpt lat="45.68304" lon="5.66869">
        <ele>315.3803</ele>
        <time>2015-04-26T10:04:49Z</time>
      </trkpt>
      <trkpt lat="45.68305" lon="5.66857">
        <ele>315.3803</ele>
        <time>2015-04-26T10:04:54Z</time>
      </trkpt>
      <trkpt lat="45.68309" lon="5.66852">
        <ele>317.48</ele>
        <time>2015-04-26T10:04:58Z</time>
      </trkpt>
      <trkpt lat="45.68316" lon="5.66842">
        <ele>321.8062</ele>
        <time>2015-04-26T10:05:03Z</time>
      </trkpt>
      <trkpt lat="45.6832" lon="5.66835">
        <ele>321.8062</ele>
        <time>2015-04-26T10:05:08Z</time>
      </trkpt>
      <trkpt lat="45.68321" lon="5.66828">
        <ele>324.58078</ele>
        <time>2015-04-26T10:05:13Z</time>
      </trkpt>
      <trkpt lat="45.68326" lon="5.66823">
        <ele>324.58078</ele>
        <time>2015-04-26T10:05:18Z</time>
      </trkpt>
      <trkpt lat="45.68328" lon="5.66819">
        <ele>324.96152</ele>
        <time>2015-04-26T10:05:23Z</time>
      </trkpt>
      <trkpt lat="45.68329" lon="5.66817">
        <ele>324.96152</ele>
        <time>2015-04-26T10:05:28Z</time>
      </trkpt>
      <trkpt lat="45.6833" lon="5.66816">
        <ele>324.96152</ele>
        <time>2015-04-26T10:05:33Z</time>
      </trkpt>
      <trkpt lat="45.6833" lon="5.66815">
        <ele>324.96152</ele>
        <time>2015-04-26T10:05:38Z</time>
      </trkpt>
      <trkpt lat="45.6833" lon="5.66815">
        <ele>324.96152</ele>
        <time>2015-04-26T10:05:43Z</time>
      </trkpt>
      <trkpt lat="45.6833" lon="5.66815">
        <ele>324.96152</ele>
        <time>2015-04-26T10:05:48Z</time>
      </trkpt>
      <trkpt lat="45.6833" lon="5.66815">
        <ele>324.96152</ele>
        <time>2015-04-26T10:05:53Z</time>
      </trkpt>
      <trkpt lat="45.68329" lon="5.66813">
        <ele>324.96152</ele>
        <time>2015-04-26T10:05:58Z</time>
      </trkpt>
      <trkpt lat="45.68333" lon="5.66807">
        <ele>325.50574</ele>
        <time>2015-04-26T10:06:03Z</time>
      </trkpt>
      <trkpt lat="45.68339" lon="5.66801">
        <ele>325.50574</ele>
        <time>2015-04-26T10:06:08Z</time>
      </trkpt>
      <trkpt lat="45.68344" lon="5.66795">
        <ele>328.4954</ele>
        <time>2015-04-26T10:06:13Z</time>
      </trkpt>
      <trkpt lat="45.68347" lon="5.66788">
        <ele>328.4954</ele>
        <time>2015-04-26T10:06:18Z</time>
      </trkpt>
      <trkpt lat="45.68351" lon="5.66785">
        <ele>330.3715</ele>
        <time>2015-04-26T10:06:23Z</time>
      </trkpt>
      <trkpt lat="45.68353" lon="5.66786">
        <ele>330.3715</ele>
        <time>2015-04-26T10:06:28Z</time>
      </trkpt>
      <trkpt lat="45.68356" lon="5.66786">
        <ele>330.3715</ele>
        <time>2015-04-26T10:06:33Z</time>
      </trkpt>
      <trkpt lat="45.6836" lon="5.66785">
        <ele>333.7368</ele>
        <time>2015-04-26T10:06:38Z</time>
      </trkpt>
      <trkpt lat="45.68363" lon="5.66784">
        <ele>333.7368</ele>
        <time>2015-04-26T10:06:43Z</time>
      </trkpt>
      <trkpt lat="45.68368" lon="5.66782">
        <ele>333.7368</ele>
        <time>2015-04-26T10:06:48Z</time>
      </trkpt>
      <trkpt lat="45.68375" lon="5.66778">
        <ele>337.27884</ele>
        <time>2015-04-26T10:06:53Z</time>
      </trkpt>
      <trkpt lat="45.68376" lon="5.66777">
        <ele>337.27884</ele>
        <time>2015-04-26T10:06:58Z</time>
      </trkpt>
      <trkpt lat="45.68376" lon="5.66777">
        <ele>337.27884</ele>
        <time>2015-04-26T10:07:05Z</time>
      </trkpt>
      <trkpt lat="45.68379" lon="5.66776">
        <ele>337.27884</ele>
        <time>2015-04-26T10:07:10Z</time>
      </trkpt>
      <trkpt lat="45.68388" lon="5.66775">
        <ele>341.95816</ele>
        <time>2015-04-26T10:07:15Z</time>
      </trkpt>
      <trkpt lat="45.68396" lon="5.66775">
        <ele>341.95816</ele>
        <time>2015-04-26T10:07:20Z</time>
      </trkpt>
      <trkpt lat="45.68405" lon="5.66774">
        <ele>346.61453</ele>
        <time>2015-04-26T10:07:24Z</time>
      </trkpt>
      <trkpt lat="45.68411" lon="5.66771">
        <ele>346.61453</ele>
        <time>2015-04-26T10:07:30Z</time>
      </trkpt>
      <trkpt lat="45.68417" lon="5.6677">
        <ele>350.62012</ele>
        <time>2015-04-26T10:07:35Z</time>
      </trkpt>
      <trkpt lat="45.68422" lon="5.66768">
        <ele>350.62012</ele>
        <time>2015-04-26T10:07:40Z</time>
      </trkpt>
      <trkpt lat="45.68429" lon="5.66767">
        <ele>354.44748</ele>
        <time>2015-04-26T10:07:45Z</time>
      </trkpt>
      <trkpt lat="45.68439" lon="5.66769">
        <ele>358.6647</ele>
        <time>2015-04-26T10:07:50Z</time>
      </trkpt>
      <trkpt lat="45.68445" lon="5.66767">
        <ele>358.6647</ele>
        <time>2015-04-26T10:07:55Z</time>
      </trkpt>
      <trkpt lat="45.68452" lon="5.66766">
        <ele>362.35583</ele>
        <time>2015-04-26T10:07:59Z</time>
      </trkpt>
      <trkpt lat="45.68459" lon="5.66764">
        <ele>362.35583</ele>
        <time>2015-04-26T10:08:05Z</time>
      </trkpt>
      <trkpt lat="45.68464" lon="5.66765">
        <ele>365.95663</ele>
        <time>2015-04-26T10:08:08Z</time>
      </trkpt>
      <trkpt lat="45.68468" lon="5.66763">
        <ele>365.95663</ele>
        <time>2015-04-26T10:08:13Z</time>
      </trkpt>
      <trkpt lat="45.68471" lon="5.66762">
        <ele>365.95663</ele>
        <time>2015-04-26T10:08:19Z</time>
      </trkpt>
      <trkpt lat="45.68479" lon="5.66761">
        <ele>368.9777</ele>
        <time>2015-04-26T10:08:23Z</time>
      </trkpt>
      <trkpt lat="45.68486" lon="5.66761">
        <ele>368.9777</ele>
        <time>2015-04-26T10:08:28Z</time>
      </trkpt>
      <trkpt lat="45.68492" lon="5.66757">
        <ele>371.48615</ele>
        <time>2015-04-26T10:08:33Z</time>
      </trkpt>
      <trkpt lat="45.68498" lon="5.66755">
        <ele>371.48615</ele>
        <time>2015-04-26T10:08:38Z</time>
      </trkpt>
      <trkpt lat="45.68504" lon="5.66752">
        <ele>373.99258</ele>
        <time>2015-04-26T10:08:43Z</time>
      </trkpt>
      <trkpt lat="45.6851" lon="5.66751">
        <ele>373.99258</ele>
        <time>2015-04-26T10:08:48Z</time>
      </trkpt>
      <trkpt lat="45.68515" lon="5.66747">
        <ele>375.9182</ele>
        <time>2015-04-26T10:08:53Z</time>
      </trkpt>
      <trkpt lat="45.68521" lon="5.66744">
        <ele>375.9182</ele>
        <time>2015-04-26T10:08:58Z</time>
      </trkpt>
      <trkpt lat="45.68527" lon="5.66741">
        <ele>377.4635</ele>
        <time>2015-04-26T10:09:03Z</time>
      </trkpt>
      <trkpt lat="45.68533" lon="5.66737">
        <ele>377.4635</ele>
        <time>2015-04-26T10:09:08Z</time>
      </trkpt>
      <trkpt lat="45.68536" lon="5.66733">
        <ele>378.36862</ele>
        <time>2015-04-26T10:09:13Z</time>
      </trkpt>
      <trkpt lat="45.68543" lon="5.66731">
        <ele>378.36862</ele>
        <time>2015-04-26T10:09:18Z</time>
      </trkpt>
      <trkpt lat="45.6855" lon="5.66728">
        <ele>379.25952</ele>
        <time>2015-04-26T10:09:23Z</time>
      </trkpt>
      <trkpt lat="45.68558" lon="5.66725">
        <ele>379.25952</ele>
        <time>2015-04-26T10:09:28Z</time>
      </trkpt>
      <trkpt lat="45.68567" lon="5.66721">
        <ele>380.48566</ele>
        <time>2015-04-26T10:09:33Z</time>
      </trkpt>
      <trkpt lat="45.68574" lon="5.66719">
        <ele>380.48566</ele>
        <time>2015-04-26T10:09:38Z</time>
      </trkpt>
      <trkpt lat="45.68583" lon="5.66715">
        <ele>381.2171</ele>
        <time>2015-04-26T10:09:43Z</time>
      </trkpt>
      <trkpt lat="45.68593" lon="5.66712">
        <ele>381.69516</ele>
        <time>2015-04-26T10:09:48Z</time>
      </trkpt>
      <trkpt lat="45.68602" lon="5.6671">
        <ele>382.30273</ele>
        <time>2015-04-26T10:09:53Z</time>
      </trkpt>
      <trkpt lat="45.68609" lon="5.6671">
        <ele>382.30273</ele>
        <time>2015-04-26T10:09:58Z</time>
      </trkpt>
      <trkpt lat="45.68614" lon="5.66703">
        <ele>382.52957</ele>
        <time>2015-04-26T10:10:03Z</time>
      </trkpt>
      <trkpt lat="45.68617" lon="5.66698">
        <ele>382.52957</ele>
        <time>2015-04-26T10:10:08Z</time>
      </trkpt>
      <trkpt lat="45.68622" lon="5.66695">
        <ele>382.5958</ele>
        <time>2015-04-26T10:10:13Z</time>
      </trkpt>
      <trkpt lat="45.6862" lon="5.66693">
        <ele>382.5958</ele>
        <time>2015-04-26T10:10:18Z</time>
      </trkpt>
      <trkpt lat="45.68617" lon="5.66684">
        <ele>381.5961</ele>
        <time>2015-04-26T10:10:23Z</time>
      </trkpt>
      <trkpt lat="45.68614" lon="5.66676">
        <ele>381.5961</ele>
        <time>2015-04-26T10:10:28Z</time>
      </trkpt>
      <trkpt lat="45.68609" lon="5.66666">
        <ele>379.89087</ele>
        <time>2015-04-26T10:10:34Z</time>
      </trkpt>
      <trkpt lat="45.68608" lon="5.66659">
        <ele>379.89087</ele>
        <time>2015-04-26T10:10:38Z</time>
      </trkpt>
      <trkpt lat="45.68604" lon="5.66649">
        <ele>378.08978</ele>
        <time>2015-04-26T10:10:43Z</time>
      </trkpt>
      <trkpt lat="45.68603" lon="5.66641">
        <ele>378.08978</ele>
        <time>2015-04-26T10:10:48Z</time>
      </trkpt>
      <trkpt lat="45.68601" lon="5.6663">
        <ele>375.96527</ele>
        <time>2015-04-26T10:10:53Z</time>
      </trkpt>
      <trkpt lat="45.686" lon="5.66623">
        <ele>375.96527</ele>
        <time>2015-04-26T10:10:58Z</time>
      </trkpt>
      <trkpt lat="45.68598" lon="5.66615">
        <ele>374.5035</ele>
        <time>2015-04-26T10:11:03Z</time>
      </trkpt>
      <trkpt lat="45.68593" lon="5.66606">
        <ele>374.5035</ele>
        <time>2015-04-26T10:11:08Z</time>
      </trkpt>
      <trkpt lat="45.68594" lon="5.66598">
        <ele>372.58423</ele>
        <time>2015-04-26T10:11:13Z</time>
      </trkpt>
      <trkpt lat="45.68592" lon="5.6659">
        <ele>372.58423</ele>
        <time>2015-04-26T10:11:18Z</time>
      </trkpt>
      <trkpt lat="45.6859" lon="5.66576">
        <ele>370.46765</ele>
        <time>2015-04-26T10:11:23Z</time>
      </trkpt>
      <trkpt lat="45.68588" lon="5.66565">
        <ele>370.46765</ele>
        <time>2015-04-26T10:11:28Z</time>
      </trkpt>
      <trkpt lat="45.68585" lon="5.66553">
        <ele>368.5106</ele>
        <time>2015-04-26T10:11:33Z</time>
      </trkpt>
      <trkpt lat="45.68582" lon="5.66543">
        <ele>368.5106</ele>
        <time>2015-04-26T10:11:38Z</time>
      </trkpt>
      <trkpt lat="45.68579" lon="5.66532">
        <ele>367.43216</ele>
        <time>2015-04-26T10:11:43Z</time>
      </trkpt>
      <trkpt lat="45.68574" lon="5.66524">
        <ele>367.43216</ele>
        <time>2015-04-26T10:11:48Z</time>
      </trkpt>
      <trkpt lat="45.68569" lon="5.66513">
        <ele>367.1177</ele>
        <time>2015-04-26T10:11:53Z</time>
      </trkpt>
      <trkpt lat="45.68563" lon="5.66504">
        <ele>367.1177</ele>
        <time>2015-04-26T10:11:58Z</time>
      </trkpt>
      <trkpt lat="45.6856" lon="5.665">
        <ele>367.31467</ele>
        <time>2015-04-26T10:12:03Z</time>
      </trkpt>
      <trkpt lat="45.68554" lon="5.66491">
        <ele>367.31467</ele>
        <time>2015-04-26T10:12:08Z</time>
      </trkpt>
      <trkpt lat="45.68548" lon="5.66483">
        <ele>367.8593</ele>
        <time>2015-04-26T10:12:13Z</time>
      </trkpt>
      <trkpt lat="45.68544" lon="5.66477">
        <ele>367.8593</ele>
        <time>2015-04-26T10:12:18Z</time>
      </trkpt>
      <trkpt lat="45.68539" lon="5.66471">
        <ele>368.1954</ele>
        <time>2015-04-26T10:12:23Z</time>
      </trkpt>
      <trkpt lat="45.68531" lon="5.66463">
        <ele>368.8311</ele>
        <time>2015-04-26T10:12:28Z</time>
      </trkpt>
      <trkpt lat="45.68525" lon="5.66455">
        <ele>368.8311</ele>
        <time>2015-04-26T10:12:33Z</time>
      </trkpt>
      <trkpt lat="45.68523" lon="5.66448">
        <ele>369.06882</ele>
        <time>2015-04-26T10:12:38Z</time>
      </trkpt>
      <trkpt lat="45.6852" lon="5.66441">
        <ele>369.06882</ele>
        <time>2015-04-26T10:12:43Z</time>
      </trkpt>
      <trkpt lat="45.68516" lon="5.66433">
        <ele>368.91183</ele>
        <time>2015-04-26T10:12:48Z</time>
      </trkpt>
      <trkpt lat="45.68514" lon="5.66426">
        <ele>368.91183</ele>
        <time>2015-04-26T10:12:53Z</time>
      </trkpt>
      <trkpt lat="45.68511" lon="5.6642">
        <ele>368.40723</ele>
        <time>2015-04-26T10:12:58Z</time>
      </trkpt>
      <trkpt lat="45.68508" lon="5.66412">
        <ele>368.40723</ele>
        <time>2015-04-26T10:13:03Z</time>
      </trkpt>
      <trkpt lat="45.68505" lon="5.66404">
        <ele>367.94534</ele>
        <time>2015-04-26T10:13:08Z</time>
      </trkpt>
      <trkpt lat="45.68501" lon="5.66397">
        <ele>367.94534</ele>
        <time>2015-04-26T10:13:13Z</time>
      </trkpt>
      <trkpt lat="45.68498" lon="5.66389">
        <ele>367.49847</ele>
        <time>2015-04-26T10:13:18Z</time>
      </trkpt>
      <trkpt lat="45.68495" lon="5.66382">
        <ele>367.49847</ele>
        <time>2015-04-26T10:13:23Z</time>
      </trkpt>
      <trkpt lat="45.68491" lon="5.66376">
        <ele>366.82455</ele>
        <time>2015-04-26T10:13:28Z</time>
      </trkpt>
      <trkpt lat="45.68487" lon="5.66371">
        <ele>366.82455</ele>
        <time>2015-04-26T10:13:33Z</time>
      </trkpt>
      <trkpt lat="45.68483" lon="5.66364">
        <ele>365.74298</ele>
        <time>2015-04-26T10:13:38Z</time>
      </trkpt>
      <trkpt lat="45.68479" lon="5.66356">
        <ele>365.74298</ele>
        <time>2015-04-26T10:13:43Z</time>
      </trkpt>
      <trkpt lat="45.68475" lon="5.66347">
        <ele>364.67825</ele>
        <time>2015-04-26T10:13:48Z</time>
      </trkpt>
      <trkpt lat="45.6847" lon="5.66337">
        <ele>364.67825</ele>
        <time>2015-04-26T10:13:53Z</time>
      </trkpt>
      <trkpt lat="45.68467" lon="5.66327">
        <ele>364.35498</ele>
        <time>2015-04-26T10:13:58Z</time>
      </trkpt>
      <trkpt lat="45.68468" lon="5.66328">
        <ele>364.35498</ele>
        <time>2015-04-26T10:14:03Z</time>
      </trkpt>
      <trkpt lat="45.68469" lon="5.66327">
        <ele>364.35498</ele>
        <time>2015-04-26T10:14:08Z</time>
      </trkpt>
      <trkpt lat="45.68471" lon="5.66318">
        <ele>364.35498</ele>
        <time>2015-04-26T10:14:13Z</time>
      </trkpt>
      <trkpt lat="45.6847" lon="5.66314">
        <ele>364.11642</ele>
        <time>2015-04-26T10:14:18Z</time>
      </trkpt>
      <trkpt lat="45.68468" lon="5.66309">
        <ele>364.11642</ele>
        <time>2015-04-26T10:14:23Z</time>
      </trkpt>
      <trkpt lat="45.68462" lon="5.66294">
        <ele>364.08865</ele>
        <time>2015-04-26T10:14:28Z</time>
      </trkpt>
      <trkpt lat="45.68462" lon="5.66284">
        <ele>364.08865</ele>
        <time>2015-04-26T10:14:33Z</time>
      </trkpt>
      <trkpt lat="45.68461" lon="5.66273">
        <ele>364.28683</ele>
        <time>2015-04-26T10:14:38Z</time>
      </trkpt>
      <trkpt lat="45.68459" lon="5.66261">
        <ele>364.28683</ele>
        <time>2015-04-26T10:14:43Z</time>
      </trkpt>
      <trkpt lat="45.68458" lon="5.66249">
        <ele>365.05573</ele>
        <time>2015-04-26T10:14:48Z</time>
      </trkpt>
      <trkpt lat="45.68456" lon="5.66238">
        <ele>365.05573</ele>
        <time>2015-04-26T10:14:53Z</time>
      </trkpt>
      <trkpt lat="45.68454" lon="5.66228">
        <ele>365.68973</ele>
        <time>2015-04-26T10:14:58Z</time>
      </trkpt>
      <trkpt lat="45.68454" lon="5.66218">
        <ele>365.68973</ele>
        <time>2015-04-26T10:15:03Z</time>
      </trkpt>
      <trkpt lat="45.68454" lon="5.66207">
        <ele>366.7316</ele>
        <time>2015-04-26T10:15:08Z</time>
      </trkpt>
      <trkpt lat="45.68452" lon="5.662">
        <ele>366.7316</ele>
        <time>2015-04-26T10:15:13Z</time>
      </trkpt>
      <trkpt lat="45.68453" lon="5.66202">
        <ele>366.7316</ele>
        <time>2015-04-26T10:15:18Z</time>
      </trkpt>
      <trkpt lat="45.68454" lon="5.66203">
        <ele>366.7316</ele>
        <time>2015-04-26T10:15:23Z</time>
      </trkpt>
      <trkpt lat="45.68454" lon="5.66203">
        <ele>366.7316</ele>
        <time>2015-04-26T10:15:28Z</time>
      </trkpt>
      <trkpt lat="45.68454" lon="5.66203">
        <ele>366.7316</ele>
        <time>2015-04-26T10:15:33Z</time>
      </trkpt>
      <trkpt lat="45.68454" lon="5.66203">
        <ele>366.7316</ele>
        <time>2015-04-26T10:15:38Z</time>
      </trkpt>
      <trkpt lat="45.68454" lon="5.66203">
        <ele>366.7316</ele>
        <time>2015-04-26T10:15:43Z</time>
      </trkpt>
      <trkpt lat="45.68454" lon="5.66203">
        <ele>366.7316</ele>
        <time>2015-04-26T10:15:49Z</time>
      </trkpt>
      <trkpt lat="45.68454" lon="5.66203">
        <ele>366.7316</ele>
        <time>2015-04-26T10:15:53Z</time>
      </trkpt>
      <trkpt lat="45.68454" lon="5.66203">
        <ele>366.7316</ele>
        <time>2015-04-26T10:15:58Z</time>
      </trkpt>
      <trkpt lat="45.68454" lon="5.66203">
        <ele>366.7316</ele>
        <time>2015-04-26T10:16:03Z</time>
      </trkpt>
      <trkpt lat="45.68454" lon="5.66201">
        <ele>367.5443</ele>
        <time>2015-04-26T10:16:08Z</time>
      </trkpt>
      <trkpt lat="45.68454" lon="5.66197">
        <ele>367.5443</ele>
        <time>2015-04-26T10:16:13Z</time>
      </trkpt>
      <trkpt lat="45.68455" lon="5.66189">
        <ele>367.5443</ele>
        <time>2015-04-26T10:16:18Z</time>
      </trkpt>
      <trkpt lat="45.68455" lon="5.66178">
        <ele>367.8986</ele>
        <time>2015-04-26T10:16:23Z</time>
      </trkpt>
      <trkpt lat="45.68455" lon="5.66172">
        <ele>367.8986</ele>
        <time>2015-04-26T10:16:28Z</time>
      </trkpt>
      <trkpt lat="45.68454" lon="5.66161">
        <ele>368.34686</ele>
        <time>2015-04-26T10:16:33Z</time>
      </trkpt>
      <trkpt lat="45.68453" lon="5.66153">
        <ele>368.34686</ele>
        <time>2015-04-26T10:16:38Z</time>
      </trkpt>
      <trkpt lat="45.68454" lon="5.66141">
        <ele>369.1701</ele>
        <time>2015-04-26T10:16:43Z</time>
      </trkpt>
      <trkpt lat="45.68458" lon="5.66138">
        <ele>369.1701</ele>
        <time>2015-04-26T10:16:48Z</time>
      </trkpt>
      <trkpt lat="45.68463" lon="5.66139">
        <ele>370.15192</ele>
        <time>2015-04-26T10:16:54Z</time>
      </trkpt>
      <trkpt lat="45.68468" lon="5.66137">
        <ele>370.15192</ele>
        <time>2015-04-26T10:16:58Z</time>
      </trkpt>
      <trkpt lat="45.68472" lon="5.66133">
        <ele>370.06818</ele>
        <time>2015-04-26T10:17:03Z</time>
      </trkpt>
      <trkpt lat="45.68479" lon="5.66132">
        <ele>370.06818</ele>
        <time>2015-04-26T10:17:08Z</time>
      </trkpt>
      <trkpt lat="45.68486" lon="5.66131">
        <ele>370.1509</ele>
        <time>2015-04-26T10:17:13Z</time>
      </trkpt>
      <trkpt lat="45.6849" lon="5.66131">
        <ele>370.1509</ele>
        <time>2015-04-26T10:17:18Z</time>
      </trkpt>
      <trkpt lat="45.68497" lon="5.6613">
        <ele>369.76865</ele>
        <time>2015-04-26T10:17:23Z</time>
      </trkpt>
      <trkpt lat="45.68504" lon="5.66129">
        <ele>369.76865</ele>
        <time>2015-04-26T10:17:28Z</time>
      </trkpt>
      <trkpt lat="45.68508" lon="5.66128">
        <ele>369.85065</ele>
        <time>2015-04-26T10:17:33Z</time>
      </trkpt>
      <trkpt lat="45.68514" lon="5.66126">
        <ele>369.85065</ele>
        <time>2015-04-26T10:17:38Z</time>
      </trkpt>
      <trkpt lat="45.68517" lon="5.66124">
        <ele>370.3631</ele>
        <time>2015-04-26T10:17:43Z</time>
      </trkpt>
      <trkpt lat="45.68523" lon="5.66119">
        <ele>370.3631</ele>
        <time>2015-04-26T10:17:48Z</time>
      </trkpt>
      <trkpt lat="45.6853" lon="5.66116">
        <ele>371.0861</ele>
        <time>2015-04-26T10:17:53Z</time>
      </trkpt>
      <trkpt lat="45.68533" lon="5.66114">
        <ele>371.0861</ele>
        <time>2015-04-26T10:17:58Z</time>
      </trkpt>
      <trkpt lat="45.68537" lon="5.6611">
        <ele>371.0861</ele>
        <time>2015-04-26T10:18:03Z</time>
      </trkpt>
      <trkpt lat="45.68543" lon="5.66106">
        <ele>370.89288</ele>
        <time>2015-04-26T10:18:08Z</time>
      </trkpt>
      <trkpt lat="45.68551" lon="5.66104">
        <ele>370.89288</ele>
        <time>2015-04-26T10:18:13Z</time>
      </trkpt>
      <trkpt lat="45.68556" lon="5.66103">
        <ele>370.5146</ele>
        <time>2015-04-26T10:18:18Z</time>
      </trkpt>
      <trkpt lat="45.68562" lon="5.66101">
        <ele>370.5146</ele>
        <time>2015-04-26T10:18:23Z</time>
      </trkpt>
      <trkpt lat="45.68568" lon="5.66099">
        <ele>369.38983</ele>
        <time>2015-04-26T10:18:28Z</time>
      </trkpt>
      <trkpt lat="45.68574" lon="5.66097">
        <ele>369.38983</ele>
        <time>2015-04-26T10:18:33Z</time>
      </trkpt>
      <trkpt lat="45.68579" lon="5.66098">
        <ele>367.73535</ele>
        <time>2015-04-26T10:18:38Z</time>
      </trkpt>
      <trkpt lat="45.68581" lon="5.66097">
        <ele>367.73535</ele>
        <time>2015-04-26T10:18:43Z</time>
      </trkpt>
      <trkpt lat="45.68587" lon="5.66095">
        <ele>367.73535</ele>
        <time>2015-04-26T10:18:48Z</time>
      </trkpt>
      <trkpt lat="45.68596" lon="5.66095">
        <ele>367.09375</ele>
        <time>2015-04-26T10:18:53Z</time>
      </trkpt>
      <trkpt lat="45.68601" lon="5.66096">
        <ele>367.09375</ele>
        <time>2015-04-26T10:18:58Z</time>
      </trkpt>
      <trkpt lat="45.68615" lon="5.66099">
        <ele>368.4014</ele>
        <time>2015-04-26T10:19:03Z</time>
      </trkpt>
      <trkpt lat="45.68635" lon="5.66095">
        <ele>369.9696</ele>
        <time>2015-04-26T10:19:08Z</time>
      </trkpt>
      <trkpt lat="45.68642" lon="5.66092">
        <ele>369.9696</ele>
        <time>2015-04-26T10:19:13Z</time>
      </trkpt>
      <trkpt lat="45.68643" lon="5.66088">
        <ele>369.6853</ele>
        <time>2015-04-26T10:19:18Z</time>
      </trkpt>
      <trkpt lat="45.68655" lon="5.66085">
        <ele>369.70306</ele>
        <time>2015-04-26T10:19:23Z</time>
      </trkpt>
      <trkpt lat="45.68666" lon="5.66082">
        <ele>370.7356</ele>
        <time>2015-04-26T10:19:28Z</time>
      </trkpt>
      <trkpt lat="45.68677" lon="5.66077">
        <ele>371.65353</ele>
        <time>2015-04-26T10:19:33Z</time>
      </trkpt>
      <trkpt lat="45.68681" lon="5.66072">
        <ele>371.65353</ele>
        <time>2015-04-26T10:19:38Z</time>
      </trkpt>
      <trkpt lat="45.68687" lon="5.66069">
        <ele>373.41385</ele>
        <time>2015-04-26T10:19:44Z</time>
      </trkpt>
      <trkpt lat="45.68691" lon="5.66068">
        <ele>373.41385</ele>
        <time>2015-04-26T10:19:48Z</time>
      </trkpt>
      <trkpt lat="45.68696" lon="5.66063">
        <ele>375.57504</ele>
        <time>2015-04-26T10:19:54Z</time>
      </trkpt>
      <trkpt lat="45.68699" lon="5.66061">
        <ele>375.57504</ele>
        <time>2015-04-26T10:19:59Z</time>
      </trkpt>
      <trkpt lat="45.68703" lon="5.66056">
        <ele>375.57504</ele>
        <time>2015-04-26T10:20:04Z</time>
      </trkpt>
      <trkpt lat="45.68707" lon="5.66053">
        <ele>376.30023</ele>
        <time>2015-04-26T10:20:09Z</time>
      </trkpt>
      <trkpt lat="45.68717" lon="5.66049">
        <ele>376.7017</ele>
        <time>2015-04-26T10:20:13Z</time>
      </trkpt>
      <trkpt lat="45.68721" lon="5.66044">
        <ele>376.7017</ele>
        <time>2015-04-26T10:20:20Z</time>
      </trkpt>
      <trkpt lat="45.68724" lon="5.6604">
        <ele>376.7017</ele>
        <time>2015-04-26T10:20:24Z</time>
      </trkpt>
      <trkpt lat="45.68735" lon="5.66037">
        <ele>376.54272</ele>
        <time>2015-04-26T10:20:28Z</time>
      </trkpt>
      <trkpt lat="45.68746" lon="5.66035">
        <ele>377.00357</ele>
        <time>2015-04-26T10:20:33Z</time>
      </trkpt>
      <trkpt lat="45.68753" lon="5.66035">
        <ele>377.00357</ele>
        <time>2015-04-26T10:20:38Z</time>
      </trkpt>
      <trkpt lat="45.68763" lon="5.66036">
        <ele>377.73486</ele>
        <time>2015-04-26T10:20:43Z</time>
      </trkpt>
      <trkpt lat="45.6877" lon="5.66036">
        <ele>377.73486</ele>
        <time>2015-04-26T10:20:48Z</time>
      </trkpt>
      <trkpt lat="45.68776" lon="5.66035">
        <ele>377.93665</ele>
        <time>2015-04-26T10:20:53Z</time>
      </trkpt>
      <trkpt lat="45.68779" lon="5.66036">
        <ele>377.93665</ele>
        <time>2015-04-26T10:20:58Z</time>
      </trkpt>
      <trkpt lat="45.68786" lon="5.66037">
        <ele>377.27274</ele>
        <time>2015-04-26T10:21:03Z</time>
      </trkpt>
      <trkpt lat="45.68789" lon="5.66034">
        <ele>377.27274</ele>
        <time>2015-04-26T10:21:08Z</time>
      </trkpt>
      <trkpt lat="45.68798" lon="5.66034">
        <ele>376.12585</ele>
        <time>2015-04-26T10:21:13Z</time>
      </trkpt>
      <trkpt lat="45.68801" lon="5.66033">
        <ele>376.12585</ele>
        <time>2015-04-26T10:21:18Z</time>
      </trkpt>
      <trkpt lat="45.68809" lon="5.66032">
        <ele>376.5381</ele>
        <time>2015-04-26T10:21:24Z</time>
      </trkpt>
      <trkpt lat="45.68815" lon="5.66029">
        <ele>376.5381</ele>
        <time>2015-04-26T10:21:28Z</time>
      </trkpt>
      <trkpt lat="45.68825" lon="5.66028">
        <ele>377.96167</ele>
        <time>2015-04-26T10:21:33Z</time>
      </trkpt>
      <trkpt lat="45.68828" lon="5.66028">
        <ele>377.96167</ele>
        <time>2015-04-26T10:21:38Z</time>
      </trkpt>
      <trkpt lat="45.68839" lon="5.66029">
        <ele>379.79974</ele>
        <time>2015-04-26T10:21:43Z</time>
      </trkpt>
      <trkpt lat="45.68844" lon="5.66027">
        <ele>379.79974</ele>
        <time>2015-04-26T10:21:48Z</time>
      </trkpt>
      <trkpt lat="45.68855" lon="5.66028">
        <ele>382.10352</ele>
        <time>2015-04-26T10:21:53Z</time>
      </trkpt>
      <trkpt lat="45.68862" lon="5.66028">
        <ele>382.10352</ele>
        <time>2015-04-26T10:21:58Z</time>
      </trkpt>
      <trkpt lat="45.68869" lon="5.66031">
        <ele>384.96234</ele>
        <time>2015-04-26T10:22:03Z</time>
      </trkpt>
      <trkpt lat="45.68874" lon="5.66032">
        <ele>384.96234</ele>
        <time>2015-04-26T10:22:08Z</time>
      </trkpt>
      <trkpt lat="45.68889" lon="5.6603">
        <ele>387.56403</ele>
        <time>2015-04-26T10:22:14Z</time>
      </trkpt>
      <trkpt lat="45.6889" lon="5.66029">
        <ele>387.56403</ele>
        <time>2015-04-26T10:22:18Z</time>
      </trkpt>
      <trkpt lat="45.68896" lon="5.66026">
        <ele>387.56403</ele>
        <time>2015-04-26T10:22:24Z</time>
      </trkpt>
      <trkpt lat="45.68901" lon="5.66026">
        <ele>389.7765</ele>
        <time>2015-04-26T10:22:28Z</time>
      </trkpt>
      <trkpt lat="45.68906" lon="5.66019">
        <ele>389.7765</ele>
        <time>2015-04-26T10:22:34Z</time>
      </trkpt>
      <trkpt lat="45.68909" lon="5.66016">
        <ele>392.34323</ele>
        <time>2015-04-26T10:22:39Z</time>
      </trkpt>
      <trkpt lat="45.68913" lon="5.66015">
        <ele>392.34323</ele>
        <time>2015-04-26T10:22:43Z</time>
      </trkpt>
      <trkpt lat="45.68919" lon="5.66015">
        <ele>394.79935</ele>
        <time>2015-04-26T10:22:49Z</time>
      </trkpt>
      <trkpt lat="45.68923" lon="5.66015">
        <ele>394.79935</ele>
        <time>2015-04-26T10:22:53Z</time>
      </trkpt>
      <trkpt lat="45.68928" lon="5.66014">
        <ele>396.84415</ele>
        <time>2015-04-26T10:22:58Z</time>
      </trkpt>
      <trkpt lat="45.68934" lon="5.66013">
        <ele>396.84415</ele>
        <time>2015-04-26T10:23:03Z</time>
      </trkpt>
      <trkpt lat="45.68938" lon="5.66009">
        <ele>398.6039</ele>
        <time>2015-04-26T10:23:08Z</time>
      </trkpt>
      <trkpt lat="45.68949" lon="5.66008">
        <ele>399.9947</ele>
        <time>2015-04-26T10:23:13Z</time>
      </trkpt>
      <trkpt lat="45.68957" lon="5.66006">
        <ele>399.9947</ele>
        <time>2015-04-26T10:23:18Z</time>
      </trkpt>
      <trkpt lat="45.68965" lon="5.66007">
        <ele>400.4932</ele>
        <time>2015-04-26T10:23:23Z</time>
      </trkpt>
      <trkpt lat="45.6897" lon="5.66007">
        <ele>400.4932</ele>
        <time>2015-04-26T10:23:28Z</time>
      </trkpt>
      <trkpt lat="45.68974" lon="5.66008">
        <ele>400.4932</ele>
        <time>2015-04-26T10:23:33Z</time>
      </trkpt>
      <trkpt lat="45.68982" lon="5.66007">
        <ele>400.7845</ele>
        <time>2015-04-26T10:23:38Z</time>
      </trkpt>
      <trkpt lat="45.68986" lon="5.66007">
        <ele>400.7845</ele>
        <time>2015-04-26T10:23:44Z</time>
      </trkpt>
      <trkpt lat="45.68994" lon="5.66007">
        <ele>401.5328</ele>
        <time>2015-04-26T10:23:49Z</time>
      </trkpt>
      <trkpt lat="45.68997" lon="5.66008">
        <ele>401.5328</ele>
        <time>2015-04-26T10:23:55Z</time>
      </trkpt>
      <trkpt lat="45.69002" lon="5.66008">
        <ele>401.5328</ele>
        <time>2015-04-26T10:24:00Z</time>
      </trkpt>
      <trkpt lat="45.69008" lon="5.66007">
        <ele>401.96896</ele>
        <time>2015-04-26T10:24:03Z</time>
      </trkpt>
      <trkpt lat="45.69012" lon="5.66006">
        <ele>401.96896</ele>
        <time>2015-04-26T10:24:08Z</time>
      </trkpt>
      <trkpt lat="45.6902" lon="5.66003">
        <ele>402.7215</ele>
        <time>2015-04-26T10:24:13Z</time>
      </trkpt>
      <trkpt lat="45.69026" lon="5.65999">
        <ele>402.7215</ele>
        <time>2015-04-26T10:24:20Z</time>
      </trkpt>
      <trkpt lat="45.69033" lon="5.65997">
        <ele>403.68024</ele>
        <time>2015-04-26T10:24:24Z</time>
      </trkpt>
      <trkpt lat="45.69032" lon="5.65997">
        <ele>403.68024</ele>
        <time>2015-04-26T10:24:28Z</time>
      </trkpt>
      <trkpt lat="45.69035" lon="5.65997">
        <ele>403.68024</ele>
        <time>2015-04-26T10:24:33Z</time>
      </trkpt>
      <trkpt lat="45.69036" lon="5.65993">
        <ele>403.68024</ele>
        <time>2015-04-26T10:24:38Z</time>
      </trkpt>
      <trkpt lat="45.69041" lon="5.65988">
        <ele>404.65613</ele>
        <time>2015-04-26T10:24:43Z</time>
      </trkpt>
      <trkpt lat="45.69046" lon="5.65983">
        <ele>404.65613</ele>
        <time>2015-04-26T10:24:48Z</time>
      </trkpt>
      <trkpt lat="45.69049" lon="5.65979">
        <ele>405.5894</ele>
        <time>2015-04-26T10:24:53Z</time>
      </trkpt>
      <trkpt lat="45.69051" lon="5.65975">
        <ele>405.5894</ele>
        <time>2015-04-26T10:24:58Z</time>
      </trkpt>
      <trkpt lat="45.69053" lon="5.65972">
        <ele>405.5894</ele>
        <time>2015-04-26T10:25:03Z</time>
      </trkpt>
      <trkpt lat="45.69059" lon="5.65971">
        <ele>406.0356</ele>
        <time>2015-04-26T10:25:08Z</time>
      </trkpt>
      <trkpt lat="45.69064" lon="5.65971">
        <ele>406.0356</ele>
        <time>2015-04-26T10:25:13Z</time>
      </trkpt>
      <trkpt lat="45.69068" lon="5.65969">
        <ele>406.11783</ele>
        <time>2015-04-26T10:25:18Z</time>
      </trkpt>
      <trkpt lat="45.69073" lon="5.65966">
        <ele>406.11783</ele>
        <time>2015-04-26T10:25:23Z</time>
      </trkpt>
      <trkpt lat="45.69077" lon="5.65965">
        <ele>405.82132</ele>
        <time>2015-04-26T10:25:28Z</time>
      </trkpt>
      <trkpt lat="45.69083" lon="5.65964">
        <ele>405.82132</ele>
        <time>2015-04-26T10:25:33Z</time>
      </trkpt>
      <trkpt lat="45.69087" lon="5.65964">
        <ele>405.43622</ele>
        <time>2015-04-26T10:25:38Z</time>
      </trkpt>
      <trkpt lat="45.69089" lon="5.65963">
        <ele>405.43622</ele>
        <time>2015-04-26T10:25:43Z</time>
      </trkpt>
      <trkpt lat="45.69094" lon="5.65963">
        <ele>405.43622</ele>
        <time>2015-04-26T10:25:48Z</time>
      </trkpt>
      <trkpt lat="45.69097" lon="5.65961">
        <ele>403.8914</ele>
        <time>2015-04-26T10:25:53Z</time>
      </trkpt>
      <trkpt lat="45.691" lon="5.6596">
        <ele>403.8914</ele>
        <time>2015-04-26T10:25:58Z</time>
      </trkpt>
      <trkpt lat="45.691" lon="5.65956">
        <ele>403.8914</ele>
        <time>2015-04-26T10:26:03Z</time>
      </trkpt>
      <trkpt lat="45.69103" lon="5.65952">
        <ele>401.19208</ele>
        <time>2015-04-26T10:26:08Z</time>
      </trkpt>
      <trkpt lat="45.69107" lon="5.65948">
        <ele>401.19208</ele>
        <time>2015-04-26T10:26:13Z</time>
      </trkpt>
      <trkpt lat="45.6911" lon="5.65945">
        <ele>401.19208</ele>
        <time>2015-04-26T10:26:18Z</time>
      </trkpt>
      <trkpt lat="45.69111" lon="5.65945">
        <ele>398.85953</ele>
        <time>2015-04-26T10:26:23Z</time>
      </trkpt>
      <trkpt lat="45.69114" lon="5.65944">
        <ele>398.85953</ele>
        <time>2015-04-26T10:26:28Z</time>
      </trkpt>
      <trkpt lat="45.69118" lon="5.65943">
        <ele>398.85953</ele>
        <time>2015-04-26T10:26:33Z</time>
      </trkpt>
      <trkpt lat="45.69124" lon="5.65939">
        <ele>395.99634</ele>
        <time>2015-04-26T10:26:40Z</time>
      </trkpt>
      <trkpt lat="45.69128" lon="5.65936">
        <ele>395.99634</ele>
        <time>2015-04-26T10:26:44Z</time>
      </trkpt>
      <trkpt lat="45.69134" lon="5.65935">
        <ele>393.15607</ele>
        <time>2015-04-26T10:26:49Z</time>
      </trkpt>
      <trkpt lat="45.69139" lon="5.65934">
        <ele>393.15607</ele>
        <time>2015-04-26T10:26:55Z</time>
      </trkpt>
      <trkpt lat="45.69144" lon="5.65931">
        <ele>390.24606</ele>
        <time>2015-04-26T10:26:59Z</time>
      </trkpt>
      <trkpt lat="45.6915" lon="5.65929">
        <ele>390.24606</ele>
        <time>2015-04-26T10:27:03Z</time>
      </trkpt>
      <trkpt lat="45.69154" lon="5.65928">
        <ele>387.1519</ele>
        <time>2015-04-26T10:27:10Z</time>
      </trkpt>
      <trkpt lat="45.69156" lon="5.65927">
        <ele>387.1519</ele>
        <time>2015-04-26T10:27:15Z</time>
      </trkpt>
      <trkpt lat="45.69159" lon="5.65929">
        <ele>387.1519</ele>
        <time>2015-04-26T10:27:20Z</time>
      </trkpt>
      <trkpt lat="45.69164" lon="5.65928">
        <ele>383.71017</ele>
        <time>2015-04-26T10:27:24Z</time>
      </trkpt>
      <trkpt lat="45.6917" lon="5.65927">
        <ele>383.71017</ele>
        <time>2015-04-26T10:27:29Z</time>
      </trkpt>
      <trkpt lat="45.69175" lon="5.65926">
        <ele>380.2748</ele>
        <time>2015-04-26T10:27:33Z</time>
      </trkpt>
      <trkpt lat="45.69179" lon="5.65924">
        <ele>380.2748</ele>
        <time>2015-04-26T10:27:38Z</time>
      </trkpt>
      <trkpt lat="45.69183" lon="5.6592">
        <ele>376.43854</ele>
        <time>2015-04-26T10:27:44Z</time>
      </trkpt>
      <trkpt lat="45.69187" lon="5.65918">
        <ele>376.43854</ele>
        <time>2015-04-26T10:27:48Z</time>
      </trkpt>
      <trkpt lat="45.69194" lon="5.65915">
        <ele>372.8193</ele>
        <time>2015-04-26T10:27:53Z</time>
      </trkpt>
      <trkpt lat="45.69202" lon="5.65913">
        <ele>372.8193</ele>
        <time>2015-04-26T10:27:58Z</time>
      </trkpt>
      <trkpt lat="45.69212" lon="5.65907">
        <ele>370.32028</ele>
        <time>2015-04-26T10:28:04Z</time>
      </trkpt>
      <trkpt lat="45.6922" lon="5.65904">
        <ele>370.32028</ele>
        <time>2015-04-26T10:28:09Z</time>
      </trkpt>
      <trkpt lat="45.69225" lon="5.659">
        <ele>368.2186</ele>
        <time>2015-04-26T10:28:13Z</time>
      </trkpt>
      <trkpt lat="45.69229" lon="5.65893">
        <ele>368.2186</ele>
        <time>2015-04-26T10:28:19Z</time>
      </trkpt>
      <trkpt lat="45.69234" lon="5.65889">
        <ele>365.54044</ele>
        <time>2015-04-26T10:28:24Z</time>
      </trkpt>
      <trkpt lat="45.69238" lon="5.65883">
        <ele>365.54044</ele>
        <time>2015-04-26T10:28:29Z</time>
      </trkpt>
      <trkpt lat="45.69243" lon="5.65879">
        <ele>362.01904</ele>
        <time>2015-04-26T10:28:34Z</time>
      </trkpt>
      <trkpt lat="45.69245" lon="5.65874">
        <ele>362.01904</ele>
        <time>2015-04-26T10:28:38Z</time>
      </trkpt>
      <trkpt lat="45.69253" lon="5.65869">
        <ele>358.54782</ele>
        <time>2015-04-26T10:28:43Z</time>
      </trkpt>
      <trkpt lat="45.69259" lon="5.65865">
        <ele>358.54782</ele>
        <time>2015-04-26T10:28:49Z</time>
      </trkpt>
      <trkpt lat="45.69265" lon="5.65859">
        <ele>355.11832</ele>
        <time>2015-04-26T10:28:53Z</time>
      </trkpt>
      <trkpt lat="45.69273" lon="5.65852">
        <ele>355.11832</ele>
        <time>2015-04-26T10:28:59Z</time>
      </trkpt>
      <trkpt lat="45.69276" lon="5.65851">
        <ele>351.362</ele>
        <time>2015-04-26T10:29:04Z</time>
      </trkpt>
      <trkpt lat="45.6928" lon="5.65847">
        <ele>351.362</ele>
        <time>2015-04-26T10:29:09Z</time>
      </trkpt>
      <trkpt lat="45.69287" lon="5.65843">
        <ele>347.83157</ele>
        <time>2015-04-26T10:29:14Z</time>
      </trkpt>
      <trkpt lat="45.69292" lon="5.65837">
        <ele>347.83157</ele>
        <time>2015-04-26T10:29:19Z</time>
      </trkpt>
      <trkpt lat="45.69302" lon="5.65831">
        <ele>346.04706</ele>
        <time>2015-04-26T10:29:24Z</time>
      </trkpt>
      <trkpt lat="45.69305" lon="5.65828">
        <ele>346.04706</ele>
        <time>2015-04-26T10:29:29Z</time>
      </trkpt>
      <trkpt lat="45.69311" lon="5.65822">
        <ele>343.99615</ele>
        <time>2015-04-26T10:29:34Z</time>
      </trkpt>
      <trkpt lat="45.6932" lon="5.65818">
        <ele>342.5962</ele>
        <time>2015-04-26T10:29:39Z</time>
      </trkpt>
      <trkpt lat="45.69332" lon="5.6581">
        <ele>341.3836</ele>
        <time>2015-04-26T10:29:44Z</time>
      </trkpt>
      <trkpt lat="45.69343" lon="5.65803">
        <ele>340.33167</ele>
        <time>2015-04-26T10:29:49Z</time>
      </trkpt>
      <trkpt lat="45.6935" lon="5.658">
        <ele>340.33167</ele>
        <time>2015-04-26T10:29:54Z</time>
      </trkpt>
      <trkpt lat="45.69356" lon="5.65794">
        <ele>339.90488</ele>
        <time>2015-04-26T10:29:59Z</time>
      </trkpt>
      <trkpt lat="45.69362" lon="5.6579">
        <ele>339.90488</ele>
        <time>2015-04-26T10:30:04Z</time>
      </trkpt>
      <trkpt lat="45.69371" lon="5.65781">
        <ele>339.69577</ele>
        <time>2015-04-26T10:30:09Z</time>
      </trkpt>
      <trkpt lat="45.69392" lon="5.65758">
        <ele>339.87363</ele>
        <time>2015-04-26T10:30:15Z</time>
      </trkpt>
      <trkpt lat="45.69411" lon="5.6573">
        <ele>340.40677</ele>
        <time>2015-04-26T10:30:19Z</time>
      </trkpt>
      <trkpt lat="45.69434" lon="5.65703">
        <ele>341.0916</ele>
        <time>2015-04-26T10:30:24Z</time>
      </trkpt>
      <trkpt lat="45.69443" lon="5.6569">
        <ele>342.0129</ele>
        <time>2015-04-26T10:30:28Z</time>
      </trkpt>
      <trkpt lat="45.69448" lon="5.65682">
        <ele>342.0129</ele>
        <time>2015-04-26T10:30:33Z</time>
      </trkpt>
      <trkpt lat="45.69453" lon="5.65676">
        <ele>343.1619</ele>
        <time>2015-04-26T10:30:38Z</time>
      </trkpt>
      <trkpt lat="45.6946" lon="5.6567">
        <ele>343.1619</ele>
        <time>2015-04-26T10:30:43Z</time>
      </trkpt>
      <trkpt lat="45.69466" lon="5.65664">
        <ele>344.37122</ele>
        <time>2015-04-26T10:30:48Z</time>
      </trkpt>
      <trkpt lat="45.69474" lon="5.65662">
        <ele>344.37122</ele>
        <time>2015-04-26T10:30:53Z</time>
      </trkpt>
      <trkpt lat="45.69493" lon="5.65674">
        <ele>345.84586</ele>
        <time>2015-04-26T10:30:58Z</time>
      </trkpt>
      <trkpt lat="45.69515" lon="5.65686">
        <ele>347.5444</ele>
        <time>2015-04-26T10:31:03Z</time>
      </trkpt>
      <trkpt lat="45.69529" lon="5.65687">
        <ele>349.26935</ele>
        <time>2015-04-26T10:31:08Z</time>
      </trkpt>
      <trkpt lat="45.69536" lon="5.65685">
        <ele>349.26935</ele>
        <time>2015-04-26T10:31:13Z</time>
      </trkpt>
      <trkpt lat="45.69542" lon="5.65683">
        <ele>350.77994</ele>
        <time>2015-04-26T10:31:18Z</time>
      </trkpt>
      <trkpt lat="45.69549" lon="5.65682">
        <ele>350.77994</ele>
        <time>2015-04-26T10:31:24Z</time>
      </trkpt>
      <trkpt lat="45.69557" lon="5.6568">
        <ele>352.30054</ele>
        <time>2015-04-26T10:31:29Z</time>
      </trkpt>
      <trkpt lat="45.69563" lon="5.65678">
        <ele>352.30054</ele>
        <time>2015-04-26T10:31:34Z</time>
      </trkpt>
      <trkpt lat="45.69569" lon="5.65675">
        <ele>353.56348</ele>
        <time>2015-04-26T10:31:38Z</time>
      </trkpt>
      <trkpt lat="45.69576" lon="5.65672">
        <ele>353.56348</ele>
        <time>2015-04-26T10:31:43Z</time>
      </trkpt>
      <trkpt lat="45.69585" lon="5.65666">
        <ele>354.53775</ele>
        <time>2015-04-26T10:31:48Z</time>
      </trkpt>
      <trkpt lat="45.69591" lon="5.65661">
        <ele>354.53775</ele>
        <time>2015-04-26T10:31:53Z</time>
      </trkpt>
      <trkpt lat="45.69598" lon="5.65655">
        <ele>355.6278</ele>
        <time>2015-04-26T10:31:58Z</time>
      </trkpt>
      <trkpt lat="45.69605" lon="5.65651">
        <ele>355.6278</ele>
        <time>2015-04-26T10:32:04Z</time>
      </trkpt>
      <trkpt lat="45.69609" lon="5.65647">
        <ele>356.71826</ele>
        <time>2015-04-26T10:32:09Z</time>
      </trkpt>
      <trkpt lat="45.69616" lon="5.65642">
        <ele>356.71826</ele>
        <time>2015-04-26T10:32:14Z</time>
      </trkpt>
      <trkpt lat="45.69618" lon="5.65638">
        <ele>357.97604</ele>
        <time>2015-04-26T10:32:19Z</time>
      </trkpt>
      <trkpt lat="45.69627" lon="5.65636">
        <ele>357.97604</ele>
        <time>2015-04-26T10:32:24Z</time>
      </trkpt>
      <trkpt lat="45.69627" lon="5.65635">
        <ele>358.56116</ele>
        <time>2015-04-26T10:32:29Z</time>
      </trkpt>
      <trkpt lat="45.69637" lon="5.65625">
        <ele>359.4123</ele>
        <time>2015-04-26T10:32:34Z</time>
      </trkpt>
      <trkpt lat="45.69644" lon="5.65622">
        <ele>359.4123</ele>
        <time>2015-04-26T10:32:40Z</time>
      </trkpt>
      <trkpt lat="45.69649" lon="5.65619">
        <ele>360.44736</ele>
        <time>2015-04-26T10:32:44Z</time>
      </trkpt>
      <trkpt lat="45.69655" lon="5.65616">
        <ele>360.44736</ele>
        <time>2015-04-26T10:32:49Z</time>
      </trkpt>
      <trkpt lat="45.69659" lon="5.65612">
        <ele>361.20087</ele>
        <time>2015-04-26T10:32:54Z</time>
      </trkpt>
      <trkpt lat="45.69668" lon="5.65604">
        <ele>361.8045</ele>
        <time>2015-04-26T10:33:00Z</time>
      </trkpt>
      <trkpt lat="45.69671" lon="5.656">
        <ele>361.8045</ele>
        <time>2015-04-26T10:33:04Z</time>
      </trkpt>
      <trkpt lat="45.69677" lon="5.65597">
        <ele>362.5105</ele>
        <time>2015-04-26T10:33:09Z</time>
      </trkpt>
      <trkpt lat="45.69685" lon="5.65591">
        <ele>362.5105</ele>
        <time>2015-04-26T10:33:15Z</time>
      </trkpt>
      <trkpt lat="45.69689" lon="5.65589">
        <ele>362.904</ele>
        <time>2015-04-26T10:33:19Z</time>
      </trkpt>
      <trkpt lat="45.69692" lon="5.65587">
        <ele>362.904</ele>
        <time>2015-04-26T10:33:25Z</time>
      </trkpt>
      <trkpt lat="45.69699" lon="5.65583">
        <ele>363.26443</ele>
        <time>2015-04-26T10:33:29Z</time>
      </trkpt>
      <trkpt lat="45.69707" lon="5.65579">
        <ele>363.26443</ele>
        <time>2015-04-26T10:33:34Z</time>
      </trkpt>
      <trkpt lat="45.69711" lon="5.65576">
        <ele>363.40433</ele>
        <time>2015-04-26T10:33:39Z</time>
      </trkpt>
      <trkpt lat="45.69717" lon="5.65574">
        <ele>363.40433</ele>
        <time>2015-04-26T10:33:44Z</time>
      </trkpt>
      <trkpt lat="45.69721" lon="5.65571">
        <ele>363.79913</ele>
        <time>2015-04-26T10:33:49Z</time>
      </trkpt>
      <trkpt lat="45.69726" lon="5.65569">
        <ele>363.79913</ele>
        <time>2015-04-26T10:33:54Z</time>
      </trkpt>
      <trkpt lat="45.69737" lon="5.65566">
        <ele>363.99542</ele>
        <time>2015-04-26T10:33:59Z</time>
      </trkpt>
      <trkpt lat="45.69742" lon="5.65565">
        <ele>363.99542</ele>
        <time>2015-04-26T10:34:04Z</time>
      </trkpt>
      <trkpt lat="45.6975" lon="5.65563">
        <ele>364.38068</ele>
        <time>2015-04-26T10:34:09Z</time>
      </trkpt>
      <trkpt lat="45.69753" lon="5.65562">
        <ele>364.38068</ele>
        <time>2015-04-26T10:34:14Z</time>
      </trkpt>
      <trkpt lat="45.69757" lon="5.65562">
        <ele>364.38068</ele>
        <time>2015-04-26T10:34:19Z</time>
      </trkpt>
      <trkpt lat="45.69767" lon="5.65559">
        <ele>364.99655</ele>
        <time>2015-04-26T10:34:24Z</time>
      </trkpt>
      <trkpt lat="45.69772" lon="5.65558">
        <ele>364.99655</ele>
        <time>2015-04-26T10:34:29Z</time>
      </trkpt>
      <trkpt lat="45.69776" lon="5.65557">
        <ele>364.95874</ele>
        <time>2015-04-26T10:34:35Z</time>
      </trkpt>
      <trkpt lat="45.69782" lon="5.65554">
        <ele>364.95874</ele>
        <time>2015-04-26T10:34:40Z</time>
      </trkpt>
      <trkpt lat="45.69788" lon="5.65552">
        <ele>364.9487</ele>
        <time>2015-04-26T10:34:44Z</time>
      </trkpt>
      <trkpt lat="45.69794" lon="5.6555">
        <ele>364.9487</ele>
        <time>2015-04-26T10:34:49Z</time>
      </trkpt>
      <trkpt lat="45.69799" lon="5.65548">
        <ele>364.64664</ele>
        <time>2015-04-26T10:34:54Z</time>
      </trkpt>
      <trkpt lat="45.69806" lon="5.65543">
        <ele>364.64664</ele>
        <time>2015-04-26T10:34:59Z</time>
      </trkpt>
      <trkpt lat="45.69811" lon="5.65539">
        <ele>363.9013</ele>
        <time>2015-04-26T10:35:04Z</time>
      </trkpt>
      <trkpt lat="45.6982" lon="5.65532">
        <ele>363.25134</ele>
        <time>2015-04-26T10:35:09Z</time>
      </trkpt>
      <trkpt lat="45.69828" lon="5.65531">
        <ele>363.25134</ele>
        <time>2015-04-26T10:35:14Z</time>
      </trkpt>
      <trkpt lat="45.69831" lon="5.65528">
        <ele>361.75436</ele>
        <time>2015-04-26T10:35:19Z</time>
      </trkpt>
      <trkpt lat="45.69836" lon="5.6552">
        <ele>361.75436</ele>
        <time>2015-04-26T10:35:23Z</time>
      </trkpt>
      <trkpt lat="45.69839" lon="5.65511">
        <ele>360.1682</ele>
        <time>2015-04-26T10:35:28Z</time>
      </trkpt>
      <trkpt lat="45.69842" lon="5.655">
        <ele>360.1682</ele>
        <time>2015-04-26T10:35:33Z</time>
      </trkpt>
      <trkpt lat="45.69847" lon="5.65492">
        <ele>358.90717</ele>
        <time>2015-04-26T10:35:38Z</time>
      </trkpt>
      <trkpt lat="45.69852" lon="5.65489">
        <ele>358.90717</ele>
        <time>2015-04-26T10:35:43Z</time>
      </trkpt>
      <trkpt lat="45.69857" lon="5.65478">
        <ele>357.84976</ele>
        <time>2015-04-26T10:35:48Z</time>
      </trkpt>
      <trkpt lat="45.6986" lon="5.65464">
        <ele>357.272</ele>
        <time>2015-04-26T10:35:53Z</time>
      </trkpt>
      <trkpt lat="45.69862" lon="5.65458">
        <ele>357.272</ele>
        <time>2015-04-26T10:35:58Z</time>
      </trkpt>
      <trkpt lat="45.69864" lon="5.65458">
        <ele>357.272</ele>
        <time>2015-04-26T10:36:03Z</time>
      </trkpt>
      <trkpt lat="45.69863" lon="5.65458">
        <ele>357.272</ele>
        <time>2015-04-26T10:36:08Z</time>
      </trkpt>
      <trkpt lat="45.69862" lon="5.65457">
        <ele>357.272</ele>
        <time>2015-04-26T10:36:13Z</time>
      </trkpt>
      <trkpt lat="45.69863" lon="5.65456">
        <ele>357.38516</ele>
        <time>2015-04-26T10:36:18Z</time>
      </trkpt>
      <trkpt lat="45.69864" lon="5.65456">
        <ele>357.38516</ele>
        <time>2015-04-26T10:36:23Z</time>
      </trkpt>
      <trkpt lat="45.69868" lon="5.6545">
        <ele>357.38516</ele>
        <time>2015-04-26T10:36:28Z</time>
      </trkpt>
      <trkpt lat="45.69873" lon="5.65444">
        <ele>358.03708</ele>
        <time>2015-04-26T10:36:33Z</time>
      </trkpt>
      <trkpt lat="45.69876" lon="5.65439">
        <ele>358.03708</ele>
        <time>2015-04-26T10:36:38Z</time>
      </trkpt>
      <trkpt lat="45.69877" lon="5.65438">
        <ele>358.03708</ele>
        <time>2015-04-26T10:36:43Z</time>
      </trkpt>
      <trkpt lat="45.69878" lon="5.65431">
        <ele>358.3648</ele>
        <time>2015-04-26T10:36:48Z</time>
      </trkpt>
      <trkpt lat="45.69883" lon="5.65426">
        <ele>358.3648</ele>
        <time>2015-04-26T10:36:53Z</time>
      </trkpt>
      <trkpt lat="45.69888" lon="5.6542">
        <ele>359.21255</ele>
        <time>2015-04-26T10:36:58Z</time>
      </trkpt>
      <trkpt lat="45.69889" lon="5.65417">
        <ele>359.21255</ele>
        <time>2015-04-26T10:37:03Z</time>
      </trkpt>
      <trkpt lat="45.69889" lon="5.65417">
        <ele>359.21255</ele>
        <time>2015-04-26T10:37:08Z</time>
      </trkpt>
      <trkpt lat="45.69889" lon="5.65416">
        <ele>359.21255</ele>
        <time>2015-04-26T10:37:13Z</time>
      </trkpt>
      <trkpt lat="45.6989" lon="5.65416">
        <ele>359.21255</ele>
        <time>2015-04-26T10:37:18Z</time>
      </trkpt>
      <trkpt lat="45.69891" lon="5.65415">
        <ele>359.21255</ele>
        <time>2015-04-26T10:37:23Z</time>
      </trkpt>
      <trkpt lat="45.69892" lon="5.65415">
        <ele>359.21255</ele>
        <time>2015-04-26T10:37:28Z</time>
      </trkpt>
      <trkpt lat="45.69892" lon="5.65415">
        <ele>359.21255</ele>
        <time>2015-04-26T10:37:33Z</time>
      </trkpt>
      <trkpt lat="45.69891" lon="5.65411">
        <ele>359.21255</ele>
        <time>2015-04-26T10:37:38Z</time>
      </trkpt>
      <trkpt lat="45.6989" lon="5.65406">
        <ele>359.63177</ele>
        <time>2015-04-26T10:37:43Z</time>
      </trkpt>
      <trkpt lat="45.69891" lon="5.65404">
        <ele>359.63177</ele>
        <time>2015-04-26T10:37:48Z</time>
      </trkpt>
      <trkpt lat="45.69893" lon="5.65401">
        <ele>359.63177</ele>
        <time>2015-04-26T10:37:53Z</time>
      </trkpt>
      <trkpt lat="45.69894" lon="5.65395">
        <ele>359.63177</ele>
        <time>2015-04-26T10:37:58Z</time>
      </trkpt>
      <trkpt lat="45.69895" lon="5.6539">
        <ele>358.77356</ele>
        <time>2015-04-26T10:38:03Z</time>
      </trkpt>
      <trkpt lat="45.69898" lon="5.65388">
        <ele>358.77356</ele>
        <time>2015-04-26T10:38:08Z</time>
      </trkpt>
      <trkpt lat="45.69901" lon="5.65384">
        <ele>358.77356</ele>
        <time>2015-04-26T10:38:13Z</time>
      </trkpt>
      <trkpt lat="45.69901" lon="5.65382">
        <ele>358.77356</ele>
        <time>2015-04-26T10:38:18Z</time>
      </trkpt>
      <trkpt lat="45.69903" lon="5.65379">
        <ele>356.95032</ele>
        <time>2015-04-26T10:38:23Z</time>
      </trkpt>
      <trkpt lat="45.69906" lon="5.6537">
        <ele>356.95032</ele>
        <time>2015-04-26T10:38:28Z</time>
      </trkpt>
      <trkpt lat="45.69915" lon="5.6536">
        <ele>355.05942</ele>
        <time>2015-04-26T10:38:33Z</time>
      </trkpt>
      <trkpt lat="45.69918" lon="5.65355">
        <ele>355.05942</ele>
        <time>2015-04-26T10:38:38Z</time>
      </trkpt>
      <trkpt lat="45.69922" lon="5.65351">
        <ele>352.99585</ele>
        <time>2015-04-26T10:38:43Z</time>
      </trkpt>
      <trkpt lat="45.69925" lon="5.65342">
        <ele>352.99585</ele>
        <time>2015-04-26T10:38:48Z</time>
      </trkpt>
      <trkpt lat="45.69927" lon="5.65334">
        <ele>351.35443</ele>
        <time>2015-04-26T10:38:53Z</time>
      </trkpt>
      <trkpt lat="45.69925" lon="5.65329">
        <ele>351.35443</ele>
        <time>2015-04-26T10:38:58Z</time>
      </trkpt>
      <trkpt lat="45.69925" lon="5.6532">
        <ele>349.60428</ele>
        <time>2015-04-26T10:39:03Z</time>
      </trkpt>
      <trkpt lat="45.69927" lon="5.65315">
        <ele>349.60428</ele>
        <time>2015-04-26T10:39:08Z</time>
      </trkpt>
      <trkpt lat="45.69933" lon="5.65309">
        <ele>347.55643</ele>
        <time>2015-04-26T10:39:13Z</time>
      </trkpt>
      <trkpt lat="45.69936" lon="5.65306">
        <ele>347.55643</ele>
        <time>2015-04-26T10:39:18Z</time>
      </trkpt>
      <trkpt lat="45.69943" lon="5.65303">
        <ele>345.1663</ele>
        <time>2015-04-26T10:39:23Z</time>
      </trkpt>
      <trkpt lat="45.69945" lon="5.65302">
        <ele>345.1663</ele>
        <time>2015-04-26T10:39:28Z</time>
      </trkpt>
      <trkpt lat="45.69952" lon="5.65297">
        <ele>342.95538</ele>
        <time>2015-04-26T10:39:33Z</time>
      </trkpt>
      <trkpt lat="45.69957" lon="5.65288">
        <ele>342.95538</ele>
        <time>2015-04-26T10:39:38Z</time>
      </trkpt>
      <trkpt lat="45.69958" lon="5.65286">
        <ele>341.0029</ele>
        <time>2015-04-26T10:39:43Z</time>
      </trkpt>
      <trkpt lat="45.69962" lon="5.65282">
        <ele>341.0029</ele>
        <time>2015-04-26T10:39:48Z</time>
      </trkpt>
      <trkpt lat="45.69967" lon="5.65276">
        <ele>338.25735</ele>
        <time>2015-04-26T10:39:53Z</time>
      </trkpt>
      <trkpt lat="45.69967" lon="5.6527">
        <ele>338.25735</ele>
        <time>2015-04-26T10:39:58Z</time>
      </trkpt>
      <trkpt lat="45.69967" lon="5.65267">
        <ele>338.25735</ele>
        <time>2015-04-26T10:40:03Z</time>
      </trkpt>
      <trkpt lat="45.69969" lon="5.65267">
        <ele>338.25735</ele>
        <time>2015-04-26T10:40:08Z</time>
      </trkpt>
      <trkpt lat="45.69967" lon="5.65265">
        <ele>334.6256</ele>
        <time>2015-04-26T10:40:13Z</time>
      </trkpt>
      <trkpt lat="45.69973" lon="5.65259">
        <ele>334.6256</ele>
        <time>2015-04-26T10:40:18Z</time>
      </trkpt>
      <trkpt lat="45.69977" lon="5.65258">
        <ele>331.73877</ele>
        <time>2015-04-26T10:40:23Z</time>
      </trkpt>
      <trkpt lat="45.69981" lon="5.65255">
        <ele>331.73877</ele>
        <time>2015-04-26T10:40:28Z</time>
      </trkpt>
      <trkpt lat="45.69987" lon="5.6525">
        <ele>328.98734</ele>
        <time>2015-04-26T10:40:33Z</time>
      </trkpt>
      <trkpt lat="45.69994" lon="5.65244">
        <ele>328.98734</ele>
        <time>2015-04-26T10:40:38Z</time>
      </trkpt>
      <trkpt lat="45.69996" lon="5.6524">
        <ele>325.96472</ele>
        <time>2015-04-26T10:40:44Z</time>
      </trkpt>
      <trkpt lat="45.69999" lon="5.65235">
        <ele>325.96472</ele>
        <time>2015-04-26T10:40:49Z</time>
      </trkpt>
      <trkpt lat="45.70005" lon="5.6523">
        <ele>323.2747</ele>
        <time>2015-04-26T10:40:54Z</time>
      </trkpt>
      <trkpt lat="45.7001" lon="5.65222">
        <ele>323.2747</ele>
        <time>2015-04-26T10:40:59Z</time>
      </trkpt>
      <trkpt lat="45.70013" lon="5.65214">
        <ele>320.84143</ele>
        <time>2015-04-26T10:41:03Z</time>
      </trkpt>
      <trkpt lat="45.7002" lon="5.65206">
        <ele>320.84143</ele>
        <time>2015-04-26T10:41:08Z</time>
      </trkpt>
      <trkpt lat="45.70023" lon="5.65196">
        <ele>318.91095</ele>
        <time>2015-04-26T10:41:14Z</time>
      </trkpt>
      <trkpt lat="45.70027" lon="5.65195">
        <ele>318.91095</ele>
        <time>2015-04-26T10:41:18Z</time>
      </trkpt>
      <trkpt lat="45.70031" lon="5.65185">
        <ele>316.93134</ele>
        <time>2015-04-26T10:41:23Z</time>
      </trkpt>
      <trkpt lat="45.70034" lon="5.65179">
        <ele>316.93134</ele>
        <time>2015-04-26T10:41:28Z</time>
      </trkpt>
      <trkpt lat="45.70038" lon="5.65174">
        <ele>315.42877</ele>
        <time>2015-04-26T10:41:33Z</time>
      </trkpt>
      <trkpt lat="45.70043" lon="5.65168">
        <ele>315.42877</ele>
        <time>2015-04-26T10:41:38Z</time>
      </trkpt>
      <trkpt lat="45.70046" lon="5.65163">
        <ele>314.58673</ele>
        <time>2015-04-26T10:41:43Z</time>
      </trkpt>
      <trkpt lat="45.70051" lon="5.65154">
        <ele>314.58673</ele>
        <time>2015-04-26T10:41:48Z</time>
      </trkpt>
      <trkpt lat="45.70054" lon="5.65146">
        <ele>313.8381</ele>
        <time>2015-04-26T10:41:53Z</time>
      </trkpt>
      <trkpt lat="45.70058" lon="5.65141">
        <ele>313.8381</ele>
        <time>2015-04-26T10:41:58Z</time>
      </trkpt>
      <trkpt lat="45.70065" lon="5.65138">
        <ele>312.48422</ele>
        <time>2015-04-26T10:42:03Z</time>
      </trkpt>
      <trkpt lat="45.70069" lon="5.6513">
        <ele>312.48422</ele>
        <time>2015-04-26T10:42:08Z</time>
      </trkpt>
      <trkpt lat="45.70074" lon="5.65122">
        <ele>311.43558</ele>
        <time>2015-04-26T10:42:13Z</time>
      </trkpt>
      <trkpt lat="45.70077" lon="5.65114">
        <ele>311.43558</ele>
        <time>2015-04-26T10:42:18Z</time>
      </trkpt>
      <trkpt lat="45.70082" lon="5.65109">
        <ele>311.00168</ele>
        <time>2015-04-26T10:42:23Z</time>
      </trkpt>
      <trkpt lat="45.70086" lon="5.65102">
        <ele>311.00168</ele>
        <time>2015-04-26T10:42:28Z</time>
      </trkpt>
      <trkpt lat="45.70089" lon="5.65094">
        <ele>311.07825</ele>
        <time>2015-04-26T10:42:33Z</time>
      </trkpt>
      <trkpt lat="45.70096" lon="5.65091">
        <ele>311.07825</ele>
        <time>2015-04-26T10:42:38Z</time>
      </trkpt>
      <trkpt lat="45.70098" lon="5.65087">
        <ele>310.544</ele>
        <time>2015-04-26T10:42:43Z</time>
      </trkpt>
      <trkpt lat="45.70104" lon="5.65084">
        <ele>310.544</ele>
        <time>2015-04-26T10:42:48Z</time>
      </trkpt>
      <trkpt lat="45.70111" lon="5.65078">
        <ele>310.72507</ele>
        <time>2015-04-26T10:42:53Z</time>
      </trkpt>
      <trkpt lat="45.70116" lon="5.65075">
        <ele>310.72507</ele>
        <time>2015-04-26T10:42:58Z</time>
      </trkpt>
      <trkpt lat="45.7012" lon="5.65073">
        <ele>310.8017</ele>
        <time>2015-04-26T10:43:03Z</time>
      </trkpt>
      <trkpt lat="45.70119" lon="5.65073">
        <ele>310.8017</ele>
        <time>2015-04-26T10:43:08Z</time>
      </trkpt>
      <trkpt lat="45.70119" lon="5.65072">
        <ele>310.8017</ele>
        <time>2015-04-26T10:43:13Z</time>
      </trkpt>
      <trkpt lat="45.70121" lon="5.65072">
        <ele>310.8017</ele>
        <time>2015-04-26T10:43:18Z</time>
      </trkpt>
      <trkpt lat="45.70121" lon="5.65071">
        <ele>310.8017</ele>
        <time>2015-04-26T10:43:23Z</time>
      </trkpt>
      <trkpt lat="45.70121" lon="5.65071">
        <ele>310.8017</ele>
        <time>2015-04-26T10:43:29Z</time>
      </trkpt>
      <trkpt lat="45.70121" lon="5.65071">
        <ele>310.8017</ele>
        <time>2015-04-26T10:43:33Z</time>
      </trkpt>
      <trkpt lat="45.70121" lon="5.65071">
        <ele>310.8017</ele>
        <time>2015-04-26T10:43:38Z</time>
      </trkpt>
      <trkpt lat="45.70122" lon="5.6507">
        <ele>310.8017</ele>
        <time>2015-04-26T10:43:43Z</time>
      </trkpt>
      <trkpt lat="45.70123" lon="5.65071">
        <ele>310.8017</ele>
        <time>2015-04-26T10:43:48Z</time>
      </trkpt>
      <trkpt lat="45.70123" lon="5.65071">
        <ele>310.8017</ele>
        <time>2015-04-26T10:43:53Z</time>
      </trkpt>
      <trkpt lat="45.70124" lon="5.6507">
        <ele>311.51324</ele>
        <time>2015-04-26T10:43:58Z</time>
      </trkpt>
      <trkpt lat="45.70124" lon="5.65069">
        <ele>311.51324</ele>
        <time>2015-04-26T10:44:03Z</time>
      </trkpt>
      <trkpt lat="45.70124" lon="5.65069">
        <ele>311.51324</ele>
        <time>2015-04-26T10:44:08Z</time>
      </trkpt>
      <trkpt lat="45.70124" lon="5.65069">
        <ele>311.51324</ele>
        <time>2015-04-26T10:44:13Z</time>
      </trkpt>
      <trkpt lat="45.70124" lon="5.65069">
        <ele>311.51324</ele>
        <time>2015-04-26T10:44:18Z</time>
      </trkpt>
      <trkpt lat="45.70124" lon="5.65069">
        <ele>311.51324</ele>
        <time>2015-04-26T10:44:23Z</time>
      </trkpt>
      <trkpt lat="45.70124" lon="5.65069">
        <ele>311.51324</ele>
        <time>2015-04-26T10:44:28Z</time>
      </trkpt>
      <trkpt lat="45.70124" lon="5.65069">
        <ele>311.51324</ele>
        <time>2015-04-26T10:44:33Z</time>
      </trkpt>
      <trkpt lat="45.70124" lon="5.65069">
        <ele>311.51324</ele>
        <time>2015-04-26T10:44:38Z</time>
      </trkpt>
      <trkpt lat="45.70124" lon="5.65069">
        <ele>311.51324</ele>
        <time>2015-04-26T10:44:43Z</time>
      </trkpt>
      <trkpt lat="45.70124" lon="5.65069">
        <ele>311.51324</ele>
        <time>2015-04-26T10:44:48Z</time>
      </trkpt>
      <trkpt lat="45.70124" lon="5.65069">
        <ele>311.51324</ele>
        <time>2015-04-26T10:44:53Z</time>
      </trkpt>
      <trkpt lat="45.70124" lon="5.65069">
        <ele>311.51324</ele>
        <time>2015-04-26T10:44:58Z</time>
      </trkpt>
      <trkpt lat="45.70124" lon="5.65069">
        <ele>311.51324</ele>
        <time>2015-04-26T10:45:03Z</time>
      </trkpt>
      <trkpt lat="45.70123" lon="5.65068">
        <ele>311.51324</ele>
        <time>2015-04-26T10:45:08Z</time>
      </trkpt>
      <trkpt lat="45.70124" lon="5.65066">
        <ele>311.51324</ele>
        <time>2015-04-26T10:45:13Z</time>
      </trkpt>
      <trkpt lat="45.70125" lon="5.6506">
        <ele>311.51324</ele>
        <time>2015-04-26T10:45:18Z</time>
      </trkpt>
      <trkpt lat="45.70123" lon="5.6505">
        <ele>312.11636</ele>
        <time>2015-04-26T10:45:23Z</time>
      </trkpt>
      <trkpt lat="45.70118" lon="5.65045">
        <ele>312.11636</ele>
        <time>2015-04-26T10:45:28Z</time>
      </trkpt>
      <trkpt lat="45.70113" lon="5.65038">
        <ele>312.42685</ele>
        <time>2015-04-26T10:45:33Z</time>
      </trkpt>
      <trkpt lat="45.70107" lon="5.65031">
        <ele>312.42685</ele>
        <time>2015-04-26T10:45:38Z</time>
      </trkpt>
      <trkpt lat="45.70103" lon="5.65024">
        <ele>312.909</ele>
        <time>2015-04-26T10:45:43Z</time>
      </trkpt>
      <trkpt lat="45.70099" lon="5.65018">
        <ele>312.909</ele>
        <time>2015-04-26T10:45:49Z</time>
      </trkpt>
      <trkpt lat="45.70092" lon="5.65009">
        <ele>313.28638</ele>
        <time>2015-04-26T10:45:54Z</time>
      </trkpt>
      <trkpt lat="45.70086" lon="5.65003">
        <ele>313.28638</ele>
        <time>2015-04-26T10:45:59Z</time>
      </trkpt>
      <trkpt lat="45.70084" lon="5.64998">
        <ele>313.7066</ele>
        <time>2015-04-26T10:46:04Z</time>
      </trkpt>
      <trkpt lat="45.70079" lon="5.64992">
        <ele>313.7066</ele>
        <time>2015-04-26T10:46:09Z</time>
      </trkpt>
      <trkpt lat="45.70072" lon="5.64983">
        <ele>314.047</ele>
        <time>2015-04-26T10:46:14Z</time>
      </trkpt>
      <trkpt lat="45.70068" lon="5.64976">
        <ele>314.047</ele>
        <time>2015-04-26T10:46:19Z</time>
      </trkpt>
      <trkpt lat="45.70063" lon="5.64969">
        <ele>314.61206</ele>
        <time>2015-04-26T10:46:23Z</time>
      </trkpt>
      <trkpt lat="45.70058" lon="5.64962">
        <ele>314.61206</ele>
        <time>2015-04-26T10:46:28Z</time>
      </trkpt>
      <trkpt lat="45.70053" lon="5.64957">
        <ele>314.81873</ele>
        <time>2015-04-26T10:46:33Z</time>
      </trkpt>
      <trkpt lat="45.70048" lon="5.64953">
        <ele>314.81873</ele>
        <time>2015-04-26T10:46:38Z</time>
      </trkpt>
      <trkpt lat="45.70041" lon="5.64949">
        <ele>315.09326</ele>
        <time>2015-04-26T10:46:43Z</time>
      </trkpt>
      <trkpt lat="45.70037" lon="5.64945">
        <ele>315.09326</ele>
        <time>2015-04-26T10:46:48Z</time>
      </trkpt>
      <trkpt lat="45.70028" lon="5.64942">
        <ele>315.09558</ele>
        <time>2015-04-26T10:46:53Z</time>
      </trkpt>
      <trkpt lat="45.70021" lon="5.64939">
        <ele>315.09558</ele>
        <time>2015-04-26T10:46:58Z</time>
      </trkpt>
      <trkpt lat="45.70017" lon="5.64935">
        <ele>314.92935</ele>
        <time>2015-04-26T10:47:03Z</time>
      </trkpt>
      <trkpt lat="45.70011" lon="5.64931">
        <ele>314.92935</ele>
        <time>2015-04-26T10:47:08Z</time>
      </trkpt>
      <trkpt lat="45.70007" lon="5.64931">
        <ele>315.12344</ele>
        <time>2015-04-26T10:47:13Z</time>
      </trkpt>
      <trkpt lat="45.7" lon="5.64937">
        <ele>315.12344</ele>
        <time>2015-04-26T10:47:18Z</time>
      </trkpt>
      <trkpt lat="45.69994" lon="5.64936">
        <ele>315.43204</ele>
        <time>2015-04-26T10:47:23Z</time>
      </trkpt>
      <trkpt lat="45.69993" lon="5.64934">
        <ele>315.43204</ele>
        <time>2015-04-26T10:47:28Z</time>
      </trkpt>
      <trkpt lat="45.69993" lon="5.64932">
        <ele>315.43204</ele>
        <time>2015-04-26T10:47:33Z</time>
      </trkpt>
      <trkpt lat="45.69991" lon="5.64923">
        <ele>315.49738</ele>
        <time>2015-04-26T10:47:38Z</time>
      </trkpt>
      <trkpt lat="45.69991" lon="5.64916">
        <ele>315.49738</ele>
        <time>2015-04-26T10:47:43Z</time>
      </trkpt>
      <trkpt lat="45.69992" lon="5.64908">
        <ele>315.78137</ele>
        <time>2015-04-26T10:47:48Z</time>
      </trkpt>
      <trkpt lat="45.69991" lon="5.649">
        <ele>315.78137</ele>
        <time>2015-04-26T10:47:53Z</time>
      </trkpt>
      <trkpt lat="45.6999" lon="5.64899">
        <ele>315.78137</ele>
        <time>2015-04-26T10:47:58Z</time>
      </trkpt>
      <trkpt lat="45.6999" lon="5.64899">
        <ele>315.78137</ele>
        <time>2015-04-26T10:48:03Z</time>
      </trkpt>
      <trkpt lat="45.69991" lon="5.64898">
        <ele>316.03415</ele>
        <time>2015-04-26T10:48:08Z</time>
      </trkpt>
      <trkpt lat="45.69989" lon="5.64892">
        <ele>316.03415</ele>
        <time>2015-04-26T10:48:13Z</time>
      </trkpt>
      <trkpt lat="45.69984" lon="5.64887">
        <ele>316.11087</ele>
        <time>2015-04-26T10:48:18Z</time>
      </trkpt>
      <trkpt lat="45.69979" lon="5.64883">
        <ele>316.11087</ele>
        <time>2015-04-26T10:48:23Z</time>
      </trkpt>
      <trkpt lat="45.69973" lon="5.64878">
        <ele>315.99313</ele>
        <time>2015-04-26T10:48:28Z</time>
      </trkpt>
      <trkpt lat="45.69967" lon="5.64872">
        <ele>315.99313</ele>
        <time>2015-04-26T10:48:33Z</time>
      </trkpt>
      <trkpt lat="45.69961" lon="5.64867">
        <ele>316.16895</ele>
        <time>2015-04-26T10:48:38Z</time>
      </trkpt>
      <trkpt lat="45.69956" lon="5.64861">
        <ele>316.16895</ele>
        <time>2015-04-26T10:48:43Z</time>
      </trkpt>
      <trkpt lat="45.69952" lon="5.64858">
        <ele>316.31155</ele>
        <time>2015-04-26T10:48:48Z</time>
      </trkpt>
      <trkpt lat="45.6995" lon="5.64857">
        <ele>316.31155</ele>
        <time>2015-04-26T10:48:53Z</time>
      </trkpt>
      <trkpt lat="45.6995" lon="5.64856">
        <ele>316.31155</ele>
        <time>2015-04-26T10:48:58Z</time>
      </trkpt>
      <trkpt lat="45.69949" lon="5.64855">
        <ele>316.31155</ele>
        <time>2015-04-26T10:49:03Z</time>
      </trkpt>
      <trkpt lat="45.69949" lon="5.64854">
        <ele>316.31155</ele>
        <time>2015-04-26T10:49:08Z</time>
      </trkpt>
      <trkpt lat="45.69949" lon="5.64854">
        <ele>316.31155</ele>
        <time>2015-04-26T10:49:13Z</time>
      </trkpt>
      <trkpt lat="45.69946" lon="5.64854">
        <ele>316.31155</ele>
        <time>2015-04-26T10:49:18Z</time>
      </trkpt>
      <trkpt lat="45.69941" lon="5.64851">
        <ele>316.83896</ele>
        <time>2015-04-26T10:49:23Z</time>
      </trkpt>
      <trkpt lat="45.69936" lon="5.64846">
        <ele>316.83896</ele>
        <time>2015-04-26T10:49:28Z</time>
      </trkpt>
      <trkpt lat="45.69931" lon="5.6484">
        <ele>317.11417</ele>
        <time>2015-04-26T10:49:33Z</time>
      </trkpt>
      <trkpt lat="45.69924" lon="5.64834">
        <ele>317.11417</ele>
        <time>2015-04-26T10:49:38Z</time>
      </trkpt>
      <trkpt lat="45.69919" lon="5.6483">
        <ele>317.10995</ele>
        <time>2015-04-26T10:49:43Z</time>
      </trkpt>
      <trkpt lat="45.69914" lon="5.64824">
        <ele>317.10995</ele>
        <time>2015-04-26T10:49:48Z</time>
      </trkpt>
      <trkpt lat="45.69909" lon="5.64819">
        <ele>316.83072</ele>
        <time>2015-04-26T10:49:53Z</time>
      </trkpt>
      <trkpt lat="45.69905" lon="5.64813">
        <ele>316.83072</ele>
        <time>2015-04-26T10:49:58Z</time>
      </trkpt>
      <trkpt lat="45.699" lon="5.64808">
        <ele>316.6417</ele>
        <time>2015-04-26T10:50:04Z</time>
      </trkpt>
      <trkpt lat="45.699" lon="5.64802">
        <ele>316.6417</ele>
        <time>2015-04-26T10:50:09Z</time>
      </trkpt>
      <trkpt lat="45.69901" lon="5.64802">
        <ele>316.6417</ele>
        <time>2015-04-26T10:50:15Z</time>
      </trkpt>
      <trkpt lat="45.699" lon="5.64802">
        <ele>316.6417</ele>
        <time>2015-04-26T10:50:19Z</time>
      </trkpt>
      <trkpt lat="45.699" lon="5.64805">
        <ele>316.6417</ele>
        <time>2015-04-26T10:50:24Z</time>
      </trkpt>
      <trkpt lat="45.69899" lon="5.64805">
        <ele>317.0396</ele>
        <time>2015-04-26T10:50:30Z</time>
      </trkpt>
      <trkpt lat="45.69899" lon="5.64803">
        <ele>317.0396</ele>
        <time>2015-04-26T10:50:34Z</time>
      </trkpt>
      <trkpt lat="45.69898" lon="5.64802">
        <ele>317.0396</ele>
        <time>2015-04-26T10:50:39Z</time>
      </trkpt>
      <trkpt lat="45.69898" lon="5.64799">
        <ele>317.0396</ele>
        <time>2015-04-26T10:50:43Z</time>
      </trkpt>
      <trkpt lat="45.69896" lon="5.64799">
        <ele>317.0396</ele>
        <time>2015-04-26T10:50:49Z</time>
      </trkpt>
      <trkpt lat="45.69896" lon="5.64798">
        <ele>317.0396</ele>
        <time>2015-04-26T10:50:53Z</time>
      </trkpt>
      <trkpt lat="45.69893" lon="5.64791">
        <ele>317.7338</ele>
        <time>2015-04-26T10:50:58Z</time>
      </trkpt>
      <trkpt lat="45.6989" lon="5.64784">
        <ele>317.7338</ele>
        <time>2015-04-26T10:51:04Z</time>
      </trkpt>
      <trkpt lat="45.69888" lon="5.6478">
        <ele>318.25247</ele>
        <time>2015-04-26T10:51:08Z</time>
      </trkpt>
      <trkpt lat="45.69885" lon="5.64773">
        <ele>318.25247</ele>
        <time>2015-04-26T10:51:13Z</time>
      </trkpt>
      <trkpt lat="45.69881" lon="5.64766">
        <ele>318.6778</ele>
        <time>2015-04-26T10:51:18Z</time>
      </trkpt>
      <trkpt lat="45.69877" lon="5.6476">
        <ele>318.6778</ele>
        <time>2015-04-26T10:51:23Z</time>
      </trkpt>
      <trkpt lat="45.69874" lon="5.6475">
        <ele>319.07193</ele>
        <time>2015-04-26T10:51:28Z</time>
      </trkpt>
      <trkpt lat="45.6987" lon="5.64743">
        <ele>319.07193</ele>
        <time>2015-04-26T10:51:33Z</time>
      </trkpt>
      <trkpt lat="45.69866" lon="5.64734">
        <ele>319.53586</ele>
        <time>2015-04-26T10:51:38Z</time>
      </trkpt>
      <trkpt lat="45.69862" lon="5.64725">
        <ele>319.53586</ele>
        <time>2015-04-26T10:51:43Z</time>
      </trkpt>
      <trkpt lat="45.69857" lon="5.64718">
        <ele>319.8315</ele>
        <time>2015-04-26T10:51:48Z</time>
      </trkpt>
      <trkpt lat="45.69853" lon="5.6471">
        <ele>319.8315</ele>
        <time>2015-04-26T10:51:53Z</time>
      </trkpt>
      <trkpt lat="45.69848" lon="5.64703">
        <ele>319.8831</ele>
        <time>2015-04-26T10:51:58Z</time>
      </trkpt>
      <trkpt lat="45.69844" lon="5.64697">
        <ele>319.8831</ele>
        <time>2015-04-26T10:52:03Z</time>
      </trkpt>
      <trkpt lat="45.6984" lon="5.64691">
        <ele>319.60666</ele>
        <time>2015-04-26T10:52:08Z</time>
      </trkpt>
      <trkpt lat="45.69833" lon="5.64686">
        <ele>319.60666</ele>
        <time>2015-04-26T10:52:13Z</time>
      </trkpt>
      <trkpt lat="45.69828" lon="5.64682">
        <ele>319.17044</ele>
        <time>2015-04-26T10:52:18Z</time>
      </trkpt>
      <trkpt lat="45.69823" lon="5.64679">
        <ele>319.17044</ele>
        <time>2015-04-26T10:52:23Z</time>
      </trkpt>
      <trkpt lat="45.69817" lon="5.64672">
        <ele>318.50027</ele>
        <time>2015-04-26T10:52:28Z</time>
      </trkpt>
      <trkpt lat="45.69814" lon="5.64663">
        <ele>318.50027</ele>
        <time>2015-04-26T10:52:33Z</time>
      </trkpt>
      <trkpt lat="45.69811" lon="5.64656">
        <ele>317.6002</ele>
        <time>2015-04-26T10:52:38Z</time>
      </trkpt>
      <trkpt lat="45.69808" lon="5.64652">
        <ele>317.6002</ele>
        <time>2015-04-26T10:52:43Z</time>
      </trkpt>
      <trkpt lat="45.69806" lon="5.64644">
        <ele>316.73407</ele>
        <time>2015-04-26T10:52:48Z</time>
      </trkpt>
      <trkpt lat="45.69806" lon="5.64635">
        <ele>316.73407</ele>
        <time>2015-04-26T10:52:53Z</time>
      </trkpt>
      <trkpt lat="45.69806" lon="5.64625">
        <ele>315.91574</ele>
        <time>2015-04-26T10:52:58Z</time>
      </trkpt>
      <trkpt lat="45.69808" lon="5.64614">
        <ele>315.91574</ele>
        <time>2015-04-26T10:53:03Z</time>
      </trkpt>
      <trkpt lat="45.69812" lon="5.64608">
        <ele>314.91302</ele>
        <time>2015-04-26T10:53:08Z</time>
      </trkpt>
      <trkpt lat="45.69816" lon="5.646">
        <ele>314.91302</ele>
        <time>2015-04-26T10:53:13Z</time>
      </trkpt>
      <trkpt lat="45.69822" lon="5.64593">
        <ele>313.94354</ele>
        <time>2015-04-26T10:53:18Z</time>
      </trkpt>
      <trkpt lat="45.69827" lon="5.64585">
        <ele>313.94354</ele>
        <time>2015-04-26T10:53:23Z</time>
      </trkpt>
      <trkpt lat="45.69831" lon="5.64577">
        <ele>313.0649</ele>
        <time>2015-04-26T10:53:28Z</time>
      </trkpt>
      <trkpt lat="45.69835" lon="5.64567">
        <ele>313.0649</ele>
        <time>2015-04-26T10:53:33Z</time>
      </trkpt>
      <trkpt lat="45.69839" lon="5.64558">
        <ele>312.4598</ele>
        <time>2015-04-26T10:53:38Z</time>
      </trkpt>
      <trkpt lat="45.69844" lon="5.64551">
        <ele>312.4598</ele>
        <time>2015-04-26T10:53:43Z</time>
      </trkpt>
      <trkpt lat="45.69847" lon="5.64543">
        <ele>312.03745</ele>
        <time>2015-04-26T10:53:48Z</time>
      </trkpt>
      <trkpt lat="45.69849" lon="5.6454">
        <ele>312.03745</ele>
        <time>2015-04-26T10:53:53Z</time>
      </trkpt>
      <trkpt lat="45.69849" lon="5.64539">
        <ele>312.03745</ele>
        <time>2015-04-26T10:53:58Z</time>
      </trkpt>
      <trkpt lat="45.69852" lon="5.64533">
        <ele>312.03745</ele>
        <time>2015-04-26T10:54:03Z</time>
      </trkpt>
      <trkpt lat="45.69857" lon="5.64525">
        <ele>311.66992</ele>
        <time>2015-04-26T10:54:08Z</time>
      </trkpt>
      <trkpt lat="45.69861" lon="5.64517">
        <ele>311.66992</ele>
        <time>2015-04-26T10:54:13Z</time>
      </trkpt>
      <trkpt lat="45.69865" lon="5.64509">
        <ele>311.25302</ele>
        <time>2015-04-26T10:54:18Z</time>
      </trkpt>
      <trkpt lat="45.6987" lon="5.64501">
        <ele>311.25302</ele>
        <time>2015-04-26T10:54:23Z</time>
      </trkpt>
      <trkpt lat="45.69875" lon="5.64494">
        <ele>310.92084</ele>
        <time>2015-04-26T10:54:28Z</time>
      </trkpt>
      <trkpt lat="45.69878" lon="5.64489">
        <ele>310.92084</ele>
        <time>2015-04-26T10:54:33Z</time>
      </trkpt>
      <trkpt lat="45.69883" lon="5.6448">
        <ele>310.76862</ele>
        <time>2015-04-26T10:54:38Z</time>
      </trkpt>
      <trkpt lat="45.69888" lon="5.64472">
        <ele>310.76862</ele>
        <time>2015-04-26T10:54:43Z</time>
      </trkpt>
      <trkpt lat="45.69889" lon="5.64471">
        <ele>310.76862</ele>
        <time>2015-04-26T10:54:48Z</time>
      </trkpt>
      <trkpt lat="45.69891" lon="5.64468">
        <ele>310.91287</ele>
        <time>2015-04-26T10:54:53Z</time>
      </trkpt>
      <trkpt lat="45.69894" lon="5.6446">
        <ele>310.91287</ele>
        <time>2015-04-26T10:54:58Z</time>
      </trkpt>
      <trkpt lat="45.69896" lon="5.64452">
        <ele>311.02838</ele>
        <time>2015-04-26T10:55:03Z</time>
      </trkpt>
      <trkpt lat="45.69899" lon="5.64446">
        <ele>311.02838</ele>
        <time>2015-04-26T10:55:08Z</time>
      </trkpt>
      <trkpt lat="45.69903" lon="5.64438">
        <ele>311.10217</ele>
        <time>2015-04-26T10:55:13Z</time>
      </trkpt>
      <trkpt lat="45.69906" lon="5.64428">
        <ele>311.10217</ele>
        <time>2015-04-26T10:55:18Z</time>
      </trkpt>
      <trkpt lat="45.69909" lon="5.64419">
        <ele>311.12228</ele>
        <time>2015-04-26T10:55:23Z</time>
      </trkpt>
      <trkpt lat="45.69912" lon="5.64409">
        <ele>311.12228</ele>
        <time>2015-04-26T10:55:28Z</time>
      </trkpt>
      <trkpt lat="45.69916" lon="5.64402">
        <ele>311.1787</ele>
        <time>2015-04-26T10:55:33Z</time>
      </trkpt>
      <trkpt lat="45.6992" lon="5.64393">
        <ele>311.1787</ele>
        <time>2015-04-26T10:55:38Z</time>
      </trkpt>
      <trkpt lat="45.69924" lon="5.64386">
        <ele>311.15292</ele>
        <time>2015-04-26T10:55:43Z</time>
      </trkpt>
      <trkpt lat="45.69929" lon="5.64377">
        <ele>311.15292</ele>
        <time>2015-04-26T10:55:48Z</time>
      </trkpt>
      <trkpt lat="45.69932" lon="5.64368">
        <ele>311.16595</ele>
        <time>2015-04-26T10:55:53Z</time>
      </trkpt>
      <trkpt lat="45.69935" lon="5.64359">
        <ele>311.16595</ele>
        <time>2015-04-26T10:55:58Z</time>
      </trkpt>
      <trkpt lat="45.69939" lon="5.6435">
        <ele>311.24338</ele>
        <time>2015-04-26T10:56:03Z</time>
      </trkpt>
      <trkpt lat="45.69942" lon="5.6434">
        <ele>311.24338</ele>
        <time>2015-04-26T10:56:08Z</time>
      </trkpt>
      <trkpt lat="45.69945" lon="5.6433">
        <ele>311.53836</ele>
        <time>2015-04-26T10:56:13Z</time>
      </trkpt>
      <trkpt lat="45.69949" lon="5.64319">
        <ele>311.53836</ele>
        <time>2015-04-26T10:56:18Z</time>
      </trkpt>
      <trkpt lat="45.69953" lon="5.64309">
        <ele>312.23553</ele>
        <time>2015-04-26T10:56:23Z</time>
      </trkpt>
      <trkpt lat="45.69956" lon="5.643">
        <ele>312.23553</ele>
        <time>2015-04-26T10:56:28Z</time>
      </trkpt>
      <trkpt lat="45.6996" lon="5.64295">
        <ele>313.15894</ele>
        <time>2015-04-26T10:56:33Z</time>
      </trkpt>
      <trkpt lat="45.69964" lon="5.64291">
        <ele>313.15894</ele>
        <time>2015-04-26T10:56:38Z</time>
      </trkpt>
      <trkpt lat="45.69964" lon="5.64287">
        <ele>313.15894</ele>
        <time>2015-04-26T10:56:43Z</time>
      </trkpt>
      <trkpt lat="45.69967" lon="5.64282">
        <ele>314.0584</ele>
        <time>2015-04-26T10:56:48Z</time>
      </trkpt>
      <trkpt lat="45.69971" lon="5.64275">
        <ele>314.0584</ele>
        <time>2015-04-26T10:56:53Z</time>
      </trkpt>
      <trkpt lat="45.69975" lon="5.64267">
        <ele>315.077</ele>
        <time>2015-04-26T10:56:58Z</time>
      </trkpt>
      <trkpt lat="45.69979" lon="5.6426">
        <ele>315.077</ele>
        <time>2015-04-26T10:57:03Z</time>
      </trkpt>
      <trkpt lat="45.69984" lon="5.6425">
        <ele>316.17404</ele>
        <time>2015-04-26T10:57:09Z</time>
      </trkpt>
      <trkpt lat="45.69989" lon="5.64239">
        <ele>317.10983</ele>
        <time>2015-04-26T10:57:15Z</time>
      </trkpt>
      <trkpt lat="45.69992" lon="5.64229">
        <ele>317.10983</ele>
        <time>2015-04-26T10:57:20Z</time>
      </trkpt>
      <trkpt lat="45.69996" lon="5.6422">
        <ele>318.06635</ele>
        <time>2015-04-26T10:57:25Z</time>
      </trkpt>
      <trkpt lat="45.7" lon="5.64211">
        <ele>318.06635</ele>
        <time>2015-04-26T10:57:30Z</time>
      </trkpt>
      <trkpt lat="45.70004" lon="5.64203">
        <ele>319.01044</ele>
        <time>2015-04-26T10:57:33Z</time>
      </trkpt>
      <trkpt lat="45.70007" lon="5.64195">
        <ele>319.01044</ele>
        <time>2015-04-26T10:57:39Z</time>
      </trkpt>
      <trkpt lat="45.70011" lon="5.64188">
        <ele>319.88257</ele>
        <time>2015-04-26T10:57:43Z</time>
      </trkpt>
      <trkpt lat="45.70014" lon="5.6418">
        <ele>319.88257</ele>
        <time>2015-04-26T10:57:50Z</time>
      </trkpt>
      <trkpt lat="45.70018" lon="5.64171">
        <ele>320.8153</ele>
        <time>2015-04-26T10:57:53Z</time>
      </trkpt>
      <trkpt lat="45.7002" lon="5.64162">
        <ele>320.8153</ele>
        <time>2015-04-26T10:58:00Z</time>
      </trkpt>
      <trkpt lat="45.70024" lon="5.64153">
        <ele>321.6575</ele>
        <time>2015-04-26T10:58:05Z</time>
      </trkpt>
      <trkpt lat="45.70028" lon="5.64145">
        <ele>321.6575</ele>
        <time>2015-04-26T10:58:10Z</time>
      </trkpt>
      <trkpt lat="45.70033" lon="5.64136">
        <ele>322.25494</ele>
        <time>2015-04-26T10:58:14Z</time>
      </trkpt>
      <trkpt lat="45.70036" lon="5.6413">
        <ele>322.25494</ele>
        <time>2015-04-26T10:58:19Z</time>
      </trkpt>
      <trkpt lat="45.70041" lon="5.64121">
        <ele>322.49448</ele>
        <time>2015-04-26T10:58:24Z</time>
      </trkpt>
      <trkpt lat="45.70045" lon="5.64113">
        <ele>322.49448</ele>
        <time>2015-04-26T10:58:30Z</time>
      </trkpt>
      <trkpt lat="45.70048" lon="5.64107">
        <ele>322.7045</ele>
        <time>2015-04-26T10:58:34Z</time>
      </trkpt>
      <trkpt lat="45.70053" lon="5.641">
        <ele>322.7045</ele>
        <time>2015-04-26T10:58:40Z</time>
      </trkpt>
      <trkpt lat="45.70058" lon="5.64094">
        <ele>322.72842</ele>
        <time>2015-04-26T10:58:45Z</time>
      </trkpt>
      <trkpt lat="45.70062" lon="5.64086">
        <ele>322.72842</ele>
        <time>2015-04-26T10:58:49Z</time>
      </trkpt>
      <trkpt lat="45.70066" lon="5.64077">
        <ele>322.7675</ele>
        <time>2015-04-26T10:58:54Z</time>
      </trkpt>
      <trkpt lat="45.7007" lon="5.6407">
        <ele>322.7675</ele>
        <time>2015-04-26T10:59:00Z</time>
      </trkpt>
      <trkpt lat="45.70073" lon="5.64062">
        <ele>322.60468</ele>
        <time>2015-04-26T10:59:03Z</time>
      </trkpt>
      <trkpt lat="45.70071" lon="5.64053">
        <ele>322.60468</ele>
        <time>2015-04-26T10:59:10Z</time>
      </trkpt>
      <trkpt lat="45.70068" lon="5.64049">
        <ele>322.1693</ele>
        <time>2015-04-26T10:59:13Z</time>
      </trkpt>
      <trkpt lat="45.70064" lon="5.64043">
        <ele>322.1693</ele>
        <time>2015-04-26T10:59:19Z</time>
      </trkpt>
      <trkpt lat="45.70062" lon="5.64036">
        <ele>321.4687</ele>
        <time>2015-04-26T10:59:24Z</time>
      </trkpt>
      <trkpt lat="45.70058" lon="5.64024">
        <ele>320.6977</ele>
        <time>2015-04-26T10:59:29Z</time>
      </trkpt>
      <trkpt lat="45.70058" lon="5.64016">
        <ele>320.6977</ele>
        <time>2015-04-26T10:59:34Z</time>
      </trkpt>
      <trkpt lat="45.7006" lon="5.64004">
        <ele>319.7777</ele>
        <time>2015-04-26T10:59:39Z</time>
      </trkpt>
      <trkpt lat="45.70064" lon="5.63991">
        <ele>319.11197</ele>
        <time>2015-04-26T10:59:45Z</time>
      </trkpt>
      <trkpt lat="45.70066" lon="5.63985">
        <ele>319.11197</ele>
        <time>2015-04-26T10:59:49Z</time>
      </trkpt>
      <trkpt lat="45.70068" lon="5.63976">
        <ele>318.58328</ele>
        <time>2015-04-26T10:59:54Z</time>
      </trkpt>
      <trkpt lat="45.70072" lon="5.63965">
        <ele>318.58328</ele>
        <time>2015-04-26T10:59:59Z</time>
      </trkpt>
      <trkpt lat="45.70072" lon="5.63963">
        <ele>318.47186</ele>
        <time>2015-04-26T11:00:03Z</time>
      </trkpt>
      <trkpt lat="45.70072" lon="5.63963">
        <ele>318.47186</ele>
        <time>2015-04-26T11:00:08Z</time>
      </trkpt>
      <trkpt lat="45.70071" lon="5.6396">
        <ele>318.47186</ele>
        <time>2015-04-26T11:00:13Z</time>
      </trkpt>
      <trkpt lat="45.70071" lon="5.63951">
        <ele>317.98416</ele>
        <time>2015-04-26T11:00:20Z</time>
      </trkpt>
      <trkpt lat="45.70073" lon="5.63941">
        <ele>317.98416</ele>
        <time>2015-04-26T11:00:25Z</time>
      </trkpt>
      <trkpt lat="45.70076" lon="5.63931">
        <ele>317.26495</ele>
        <time>2015-04-26T11:00:30Z</time>
      </trkpt>
      <trkpt lat="45.70079" lon="5.63922">
        <ele>317.26495</ele>
        <time>2015-04-26T11:00:35Z</time>
      </trkpt>
      <trkpt lat="45.70081" lon="5.63912">
        <ele>316.62204</ele>
        <time>2015-04-26T11:00:39Z</time>
      </trkpt>
      <trkpt lat="45.70083" lon="5.63905">
        <ele>316.62204</ele>
        <time>2015-04-26T11:00:45Z</time>
      </trkpt>
      <trkpt lat="45.70085" lon="5.63901">
        <ele>316.62204</ele>
        <time>2015-04-26T11:00:50Z</time>
      </trkpt>
      <trkpt lat="45.70084" lon="5.63899">
        <ele>316.26822</ele>
        <time>2015-04-26T11:00:55Z</time>
      </trkpt>
      <trkpt lat="45.70085" lon="5.63899">
        <ele>316.26822</ele>
        <time>2015-04-26T11:01:00Z</time>
      </trkpt>
      <trkpt lat="45.70085" lon="5.63899">
        <ele>316.26822</ele>
        <time>2015-04-26T11:01:05Z</time>
      </trkpt>
      <trkpt lat="45.70085" lon="5.63899">
        <ele>316.26822</ele>
        <time>2015-04-26T11:01:10Z</time>
      </trkpt>
      <trkpt lat="45.70085" lon="5.63899">
        <ele>316.26822</ele>
        <time>2015-04-26T11:01:13Z</time>
      </trkpt>
      <trkpt lat="45.70085" lon="5.63899">
        <ele>316.26822</ele>
        <time>2015-04-26T11:01:19Z</time>
      </trkpt>
      <trkpt lat="45.70085" lon="5.63899">
        <ele>316.26822</ele>
        <time>2015-04-26T11:01:23Z</time>
      </trkpt>
      <trkpt lat="45.70085" lon="5.63899">
        <ele>316.26822</ele>
        <time>2015-04-26T11:01:28Z</time>
      </trkpt>
      <trkpt lat="45.70085" lon="5.63899">
        <ele>316.26822</ele>
        <time>2015-04-26T11:01:33Z</time>
      </trkpt>
      <trkpt lat="45.70085" lon="5.63899">
        <ele>316.26822</ele>
        <time>2015-04-26T11:01:38Z</time>
      </trkpt>
      <trkpt lat="45.70086" lon="5.63898">
        <ele>316.26822</ele>
        <time>2015-04-26T11:01:43Z</time>
      </trkpt>
      <trkpt lat="45.70087" lon="5.63891">
        <ele>316.26822</ele>
        <time>2015-04-26T11:01:50Z</time>
      </trkpt>
      <trkpt lat="45.70091" lon="5.63867">
        <ele>316.08292</ele>
        <time>2015-04-26T11:01:53Z</time>
      </trkpt>
      <trkpt lat="45.701" lon="5.6384">
        <ele>316.7896</ele>
        <time>2015-04-26T11:02:00Z</time>
      </trkpt>
      <trkpt lat="45.70102" lon="5.63831">
        <ele>316.7896</ele>
        <time>2015-04-26T11:02:05Z</time>
      </trkpt>
      <trkpt lat="45.70104" lon="5.63826">
        <ele>316.92337</ele>
        <time>2015-04-26T11:02:09Z</time>
      </trkpt>
      <trkpt lat="45.70106" lon="5.63815">
        <ele>316.92337</ele>
        <time>2015-04-26T11:02:15Z</time>
      </trkpt>
      <trkpt lat="45.70109" lon="5.63808">
        <ele>316.9874</ele>
        <time>2015-04-26T11:02:19Z</time>
      </trkpt>
      <trkpt lat="45.70108" lon="5.63796">
        <ele>316.9874</ele>
        <time>2015-04-26T11:02:25Z</time>
      </trkpt>
      <trkpt lat="45.7011" lon="5.63787">
        <ele>316.26648</ele>
        <time>2015-04-26T11:02:30Z</time>
      </trkpt>
      <trkpt lat="45.70112" lon="5.63778">
        <ele>316.26648</ele>
        <time>2015-04-26T11:02:35Z</time>
      </trkpt>
      <trkpt lat="45.70115" lon="5.63769">
        <ele>315.4259</ele>
        <time>2015-04-26T11:02:40Z</time>
      </trkpt>
      <trkpt lat="45.70117" lon="5.63759">
        <ele>315.4259</ele>
        <time>2015-04-26T11:02:45Z</time>
      </trkpt>
      <trkpt lat="45.70121" lon="5.63751">
        <ele>314.3618</ele>
        <time>2015-04-26T11:02:50Z</time>
      </trkpt>
      <trkpt lat="45.70124" lon="5.63741">
        <ele>314.3618</ele>
        <time>2015-04-26T11:02:55Z</time>
      </trkpt>
      <trkpt lat="45.70127" lon="5.6373">
        <ele>313.31</ele>
        <time>2015-04-26T11:02:59Z</time>
      </trkpt>
      <trkpt lat="45.70131" lon="5.6372">
        <ele>313.31</ele>
        <time>2015-04-26T11:03:05Z</time>
      </trkpt>
      <trkpt lat="45.70133" lon="5.63707">
        <ele>313.07986</ele>
        <time>2015-04-26T11:03:10Z</time>
      </trkpt>
      <trkpt lat="45.70135" lon="5.63698">
        <ele>313.07986</ele>
        <time>2015-04-26T11:03:15Z</time>
      </trkpt>
      <trkpt lat="45.70134" lon="5.63691">
        <ele>313.0642</ele>
        <time>2015-04-26T11:03:20Z</time>
      </trkpt>
      <trkpt lat="45.70133" lon="5.63685">
        <ele>313.0642</ele>
        <time>2015-04-26T11:03:25Z</time>
      </trkpt>
      <trkpt lat="45.70134" lon="5.63673">
        <ele>313.11777</ele>
        <time>2015-04-26T11:03:29Z</time>
      </trkpt>
      <trkpt lat="45.70135" lon="5.63661">
        <ele>313.11777</ele>
        <time>2015-04-26T11:03:35Z</time>
      </trkpt>
      <trkpt lat="45.70135" lon="5.63653">
        <ele>312.6878</ele>
        <time>2015-04-26T11:03:40Z</time>
      </trkpt>
      <trkpt lat="45.70136" lon="5.63646">
        <ele>312.6878</ele>
        <time>2015-04-26T11:03:45Z</time>
      </trkpt>
      <trkpt lat="45.70136" lon="5.63637">
        <ele>311.9264</ele>
        <time>2015-04-26T11:03:50Z</time>
      </trkpt>
      <trkpt lat="45.70134" lon="5.6363">
        <ele>311.9264</ele>
        <time>2015-04-26T11:03:55Z</time>
      </trkpt>
      <trkpt lat="45.70136" lon="5.63618">
        <ele>310.4421</ele>
        <time>2015-04-26T11:04:00Z</time>
      </trkpt>
      <trkpt lat="45.70139" lon="5.63607">
        <ele>310.4421</ele>
        <time>2015-04-26T11:04:04Z</time>
      </trkpt>
      <trkpt lat="45.70142" lon="5.63597">
        <ele>309.30096</ele>
        <time>2015-04-26T11:04:10Z</time>
      </trkpt>
      <trkpt lat="45.70146" lon="5.63587">
        <ele>309.30096</ele>
        <time>2015-04-26T11:04:14Z</time>
      </trkpt>
      <trkpt lat="45.70149" lon="5.63579">
        <ele>308.7547</ele>
        <time>2015-04-26T11:04:19Z</time>
      </trkpt>
      <trkpt lat="45.70149" lon="5.63578">
        <ele>308.7547</ele>
        <time>2015-04-26T11:04:24Z</time>
      </trkpt>
      <trkpt lat="45.7015" lon="5.63575">
        <ele>308.7547</ele>
        <time>2015-04-26T11:04:30Z</time>
      </trkpt>
      <trkpt lat="45.7015" lon="5.63571">
        <ele>308.7547</ele>
        <time>2015-04-26T11:04:35Z</time>
      </trkpt>
      <trkpt lat="45.70151" lon="5.63566">
        <ele>309.0204</ele>
        <time>2015-04-26T11:04:40Z</time>
      </trkpt>
      <trkpt lat="45.70151" lon="5.63564">
        <ele>309.0204</ele>
        <time>2015-04-26T11:04:45Z</time>
      </trkpt>
      <trkpt lat="45.70149" lon="5.63561">
        <ele>309.0204</ele>
        <time>2015-04-26T11:04:50Z</time>
      </trkpt>
      <trkpt lat="45.70146" lon="5.63556">
        <ele>309.0204</ele>
        <time>2015-04-26T11:04:55Z</time>
      </trkpt>
      <trkpt lat="45.70144" lon="5.63552">
        <ele>309.36017</ele>
        <time>2015-04-26T11:04:59Z</time>
      </trkpt>
      <trkpt lat="45.7014" lon="5.6355">
        <ele>309.36017</ele>
        <time>2015-04-26T11:05:05Z</time>
      </trkpt>
      <trkpt lat="45.70136" lon="5.63543">
        <ele>309.46472</ele>
        <time>2015-04-26T11:05:10Z</time>
      </trkpt>
      <trkpt lat="45.70135" lon="5.63539">
        <ele>309.46472</ele>
        <time>2015-04-26T11:05:15Z</time>
      </trkpt>
      <trkpt lat="45.7013" lon="5.63533">
        <ele>309.59583</ele>
        <time>2015-04-26T11:05:20Z</time>
      </trkpt>
      <trkpt lat="45.70125" lon="5.63528">
        <ele>309.59583</ele>
        <time>2015-04-26T11:05:25Z</time>
      </trkpt>
      <trkpt lat="45.7012" lon="5.63519">
        <ele>309.5346</ele>
        <time>2015-04-26T11:05:30Z</time>
      </trkpt>
      <trkpt lat="45.70116" lon="5.63511">
        <ele>309.5346</ele>
        <time>2015-04-26T11:05:35Z</time>
      </trkpt>
      <trkpt lat="45.70111" lon="5.63502">
        <ele>309.3527</ele>
        <time>2015-04-26T11:05:40Z</time>
      </trkpt>
      <trkpt lat="45.70108" lon="5.63493">
        <ele>309.3527</ele>
        <time>2015-04-26T11:05:44Z</time>
      </trkpt>
      <trkpt lat="45.70105" lon="5.63484">
        <ele>308.497</ele>
        <time>2015-04-26T11:05:49Z</time>
      </trkpt>
      <trkpt lat="45.70102" lon="5.63465">
        <ele>307.76843</ele>
        <time>2015-04-26T11:05:55Z</time>
      </trkpt>
      <trkpt lat="45.70102" lon="5.63455">
        <ele>307.76843</ele>
        <time>2015-04-26T11:06:00Z</time>
      </trkpt>
      <trkpt lat="45.70103" lon="5.63452">
        <ele>307.57718</ele>
        <time>2015-04-26T11:06:04Z</time>
      </trkpt>
      <trkpt lat="45.70104" lon="5.63449">
        <ele>307.57718</ele>
        <time>2015-04-26T11:06:10Z</time>
      </trkpt>
      <trkpt lat="45.70104" lon="5.63448">
        <ele>307.57718</ele>
        <time>2015-04-26T11:06:15Z</time>
      </trkpt>
      <trkpt lat="45.70104" lon="5.63441">
        <ele>307.57718</ele>
        <time>2015-04-26T11:06:20Z</time>
      </trkpt>
      <trkpt lat="45.70105" lon="5.63433">
        <ele>307.59555</ele>
        <time>2015-04-26T11:06:25Z</time>
      </trkpt>
      <trkpt lat="45.70105" lon="5.63426">
        <ele>307.59555</ele>
        <time>2015-04-26T11:06:30Z</time>
      </trkpt>
      <trkpt lat="45.70107" lon="5.63419">
        <ele>307.07263</ele>
        <time>2015-04-26T11:06:34Z</time>
      </trkpt>
      <trkpt lat="45.70111" lon="5.63406">
        <ele>307.6776</ele>
        <time>2015-04-26T11:06:41Z</time>
      </trkpt>
      <trkpt lat="45.70112" lon="5.63402">
        <ele>307.6776</ele>
        <time>2015-04-26T11:06:45Z</time>
      </trkpt>
      <trkpt lat="45.70112" lon="5.63396">
        <ele>307.6776</ele>
        <time>2015-04-26T11:06:50Z</time>
      </trkpt>
      <trkpt lat="45.70112" lon="5.63389">
        <ele>307.40866</ele>
        <time>2015-04-26T11:06:55Z</time>
      </trkpt>
      <trkpt lat="45.70112" lon="5.63378">
        <ele>307.40866</ele>
        <time>2015-04-26T11:06:58Z</time>
      </trkpt>
      <trkpt lat="45.7011" lon="5.63374">
        <ele>307.61273</ele>
        <time>2015-04-26T11:07:03Z</time>
      </trkpt>
      <trkpt lat="45.70108" lon="5.63359">
        <ele>307.93686</ele>
        <time>2015-04-26T11:07:08Z</time>
      </trkpt>
      <trkpt lat="45.70101" lon="5.63342">
        <ele>309.03363</ele>
        <time>2015-04-26T11:07:13Z</time>
      </trkpt>
      <trkpt lat="45.70097" lon="5.63325">
        <ele>310.78494</ele>
        <time>2015-04-26T11:07:18Z</time>
      </trkpt>
      <trkpt lat="45.70093" lon="5.63318">
        <ele>310.78494</ele>
        <time>2015-04-26T11:07:23Z</time>
      </trkpt>
      <trkpt lat="45.70091" lon="5.63304">
        <ele>313.166</ele>
        <time>2015-04-26T11:07:28Z</time>
      </trkpt>
      <trkpt lat="45.70084" lon="5.63297">
        <ele>313.166</ele>
        <time>2015-04-26T11:07:33Z</time>
      </trkpt>
      <trkpt lat="45.70077" lon="5.63297">
        <ele>315.35947</ele>
        <time>2015-04-26T11:07:38Z</time>
      </trkpt>
      <trkpt lat="45.70069" lon="5.63298">
        <ele>315.35947</ele>
        <time>2015-04-26T11:07:43Z</time>
      </trkpt>
      <trkpt lat="45.70062" lon="5.633">
        <ele>317.31485</ele>
        <time>2015-04-26T11:07:48Z</time>
      </trkpt>
      <trkpt lat="45.70054" lon="5.63303">
        <ele>317.31485</ele>
        <time>2015-04-26T11:07:53Z</time>
      </trkpt>
      <trkpt lat="45.70048" lon="5.63304">
        <ele>318.84183</ele>
        <time>2015-04-26T11:07:58Z</time>
      </trkpt>
      <trkpt lat="45.70036" lon="5.6331">
        <ele>320.54367</ele>
        <time>2015-04-26T11:08:03Z</time>
      </trkpt>
      <trkpt lat="45.70011" lon="5.63323">
        <ele>322.5897</ele>
        <time>2015-04-26T11:08:08Z</time>
      </trkpt>
      <trkpt lat="45.69994" lon="5.63325">
        <ele>324.9919</ele>
        <time>2015-04-26T11:08:13Z</time>
      </trkpt>
      <trkpt lat="45.69989" lon="5.63317">
        <ele>324.9919</ele>
        <time>2015-04-26T11:08:18Z</time>
      </trkpt>
      <trkpt lat="45.69983" lon="5.63306">
        <ele>327.60196</ele>
        <time>2015-04-26T11:08:23Z</time>
      </trkpt>
      <trkpt lat="45.69978" lon="5.63296">
        <ele>327.60196</ele>
        <time>2015-04-26T11:08:28Z</time>
      </trkpt>
      <trkpt lat="45.69976" lon="5.63285">
        <ele>330.52695</ele>
        <time>2015-04-26T11:08:33Z</time>
      </trkpt>
      <trkpt lat="45.69975" lon="5.63275">
        <ele>330.52695</ele>
        <time>2015-04-26T11:08:38Z</time>
      </trkpt>
      <trkpt lat="45.69974" lon="5.63263">
        <ele>333.6635</ele>
        <time>2015-04-26T11:08:43Z</time>
      </trkpt>
      <trkpt lat="45.69972" lon="5.6325">
        <ele>336.81467</ele>
        <time>2015-04-26T11:08:48Z</time>
      </trkpt>
      <trkpt lat="45.69969" lon="5.63238">
        <ele>336.81467</ele>
        <time>2015-04-26T11:08:53Z</time>
      </trkpt>
      <trkpt lat="45.69967" lon="5.63226">
        <ele>340.2879</ele>
        <time>2015-04-26T11:08:58Z</time>
      </trkpt>
      <trkpt lat="45.69963" lon="5.63216">
        <ele>340.2879</ele>
        <time>2015-04-26T11:09:03Z</time>
      </trkpt>
      <trkpt lat="45.69962" lon="5.63206">
        <ele>343.7334</ele>
        <time>2015-04-26T11:09:08Z</time>
      </trkpt>
      <trkpt lat="45.69959" lon="5.63197">
        <ele>343.7334</ele>
        <time>2015-04-26T11:09:13Z</time>
      </trkpt>
      <trkpt lat="45.69955" lon="5.63189">
        <ele>346.71188</ele>
        <time>2015-04-26T11:09:18Z</time>
      </trkpt>
      <trkpt lat="45.69953" lon="5.63184">
        <ele>346.71188</ele>
        <time>2015-04-26T11:09:23Z</time>
      </trkpt>
      <trkpt lat="45.69954" lon="5.63183">
        <ele>346.71188</ele>
        <time>2015-04-26T11:09:31Z</time>
      </trkpt>
      <trkpt lat="45.69953" lon="5.63181">
        <ele>346.71188</ele>
        <time>2015-04-26T11:09:35Z</time>
      </trkpt>
      <trkpt lat="45.6995" lon="5.63173">
        <ele>349.72586</ele>
        <time>2015-04-26T11:09:39Z</time>
      </trkpt>
      <trkpt lat="45.6995" lon="5.6316">
        <ele>352.54922</ele>
        <time>2015-04-26T11:09:45Z</time>
      </trkpt>
      <trkpt lat="45.69951" lon="5.63148">
        <ele>352.54922</ele>
        <time>2015-04-26T11:09:50Z</time>
      </trkpt>
      <trkpt lat="45.69953" lon="5.63137">
        <ele>355.665</ele>
        <time>2015-04-26T11:09:55Z</time>
      </trkpt>
      <trkpt lat="45.69955" lon="5.63129">
        <ele>355.665</ele>
        <time>2015-04-26T11:10:00Z</time>
      </trkpt>
      <trkpt lat="45.69955" lon="5.63122">
        <ele>358.3096</ele>
        <time>2015-04-26T11:10:04Z</time>
      </trkpt>
      <trkpt lat="45.69955" lon="5.63113">
        <ele>358.3096</ele>
        <time>2015-04-26T11:10:10Z</time>
      </trkpt>
      <trkpt lat="45.69955" lon="5.63105">
        <ele>361.54962</ele>
        <time>2015-04-26T11:10:13Z</time>
      </trkpt>
      <trkpt lat="45.69953" lon="5.63095">
        <ele>361.54962</ele>
        <time>2015-04-26T11:10:18Z</time>
      </trkpt>
      <trkpt lat="45.69951" lon="5.63087">
        <ele>365.01715</ele>
        <time>2015-04-26T11:10:24Z</time>
      </trkpt>
      <trkpt lat="45.6995" lon="5.63084">
        <ele>365.01715</ele>
        <time>2015-04-26T11:10:30Z</time>
      </trkpt>
      <trkpt lat="45.69949" lon="5.63081">
        <ele>365.01715</ele>
        <time>2015-04-26T11:10:34Z</time>
      </trkpt>
      <trkpt lat="45.69944" lon="5.63071">
        <ele>368.02515</ele>
        <time>2015-04-26T11:10:40Z</time>
      </trkpt>
      <trkpt lat="45.69941" lon="5.63062">
        <ele>368.02515</ele>
        <time>2015-04-26T11:10:44Z</time>
      </trkpt>
      <trkpt lat="45.69937" lon="5.63054">
        <ele>370.64462</ele>
        <time>2015-04-26T11:10:50Z</time>
      </trkpt>
      <trkpt lat="45.69932" lon="5.63045">
        <ele>370.64462</ele>
        <time>2015-04-26T11:10:53Z</time>
      </trkpt>
      <trkpt lat="45.69927" lon="5.63038">
        <ele>373.04358</ele>
        <time>2015-04-26T11:10:58Z</time>
      </trkpt>
      <trkpt lat="45.69921" lon="5.63031">
        <ele>373.04358</ele>
        <time>2015-04-26T11:11:03Z</time>
      </trkpt>
      <trkpt lat="45.69915" lon="5.63024">
        <ele>375.27768</ele>
        <time>2015-04-26T11:11:08Z</time>
      </trkpt>
      <trkpt lat="45.6991" lon="5.63017">
        <ele>375.27768</ele>
        <time>2015-04-26T11:11:13Z</time>
      </trkpt>
      <trkpt lat="45.69906" lon="5.6301">
        <ele>377.2694</ele>
        <time>2015-04-26T11:11:19Z</time>
      </trkpt>
      <trkpt lat="45.69901" lon="5.63001">
        <ele>377.2694</ele>
        <time>2015-04-26T11:11:23Z</time>
      </trkpt>
      <trkpt lat="45.69899" lon="5.62995">
        <ele>379.45227</ele>
        <time>2015-04-26T11:11:28Z</time>
      </trkpt>
      <trkpt lat="45.69895" lon="5.62986">
        <ele>379.45227</ele>
        <time>2015-04-26T11:11:33Z</time>
      </trkpt>
      <trkpt lat="45.69892" lon="5.62979">
        <ele>381.60797</ele>
        <time>2015-04-26T11:11:38Z</time>
      </trkpt>
      <trkpt lat="45.6989" lon="5.62971">
        <ele>381.60797</ele>
        <time>2015-04-26T11:11:43Z</time>
      </trkpt>
      <trkpt lat="45.69886" lon="5.62962">
        <ele>383.47678</ele>
        <time>2015-04-26T11:11:48Z</time>
      </trkpt>
      <trkpt lat="45.69883" lon="5.62953">
        <ele>383.47678</ele>
        <time>2015-04-26T11:11:53Z</time>
      </trkpt>
      <trkpt lat="45.69878" lon="5.6294">
        <ele>385.25143</ele>
        <time>2015-04-26T11:11:58Z</time>
      </trkpt>
      <trkpt lat="45.69875" lon="5.6293">
        <ele>385.25143</ele>
        <time>2015-04-26T11:12:03Z</time>
      </trkpt>
      <trkpt lat="45.69872" lon="5.62922">
        <ele>386.693</ele>
        <time>2015-04-26T11:12:08Z</time>
      </trkpt>
      <trkpt lat="45.69869" lon="5.62913">
        <ele>386.693</ele>
        <time>2015-04-26T11:12:13Z</time>
      </trkpt>
      <trkpt lat="45.69865" lon="5.62912">
        <ele>388.0424</ele>
        <time>2015-04-26T11:12:18Z</time>
      </trkpt>
      <trkpt lat="45.69859" lon="5.62912">
        <ele>388.0424</ele>
        <time>2015-04-26T11:12:23Z</time>
      </trkpt>
      <trkpt lat="45.69854" lon="5.62913">
        <ele>389.17734</ele>
        <time>2015-04-26T11:12:28Z</time>
      </trkpt>
      <trkpt lat="45.69848" lon="5.62916">
        <ele>389.17734</ele>
        <time>2015-04-26T11:12:33Z</time>
      </trkpt>
      <trkpt lat="45.69844" lon="5.62915">
        <ele>389.29355</ele>
        <time>2015-04-26T11:12:38Z</time>
      </trkpt>
      <trkpt lat="45.69838" lon="5.62914">
        <ele>389.29355</ele>
        <time>2015-04-26T11:12:43Z</time>
      </trkpt>
      <trkpt lat="45.69833" lon="5.62911">
        <ele>388.85938</ele>
        <time>2015-04-26T11:12:48Z</time>
      </trkpt>
      <trkpt lat="45.69828" lon="5.62908">
        <ele>388.85938</ele>
        <time>2015-04-26T11:12:53Z</time>
      </trkpt>
      <trkpt lat="45.69822" lon="5.62903">
        <ele>388.0077</ele>
        <time>2015-04-26T11:12:58Z</time>
      </trkpt>
      <trkpt lat="45.69816" lon="5.62898">
        <ele>388.0077</ele>
        <time>2015-04-26T11:13:03Z</time>
      </trkpt>
      <trkpt lat="45.69815" lon="5.62892">
        <ele>387.25204</ele>
        <time>2015-04-26T11:13:08Z</time>
      </trkpt>
      <trkpt lat="45.69818" lon="5.62886">
        <ele>387.25204</ele>
        <time>2015-04-26T11:13:13Z</time>
      </trkpt>
      <trkpt lat="45.69823" lon="5.6288">
        <ele>386.20334</ele>
        <time>2015-04-26T11:13:18Z</time>
      </trkpt>
      <trkpt lat="45.69826" lon="5.6287">
        <ele>386.20334</ele>
        <time>2015-04-26T11:13:23Z</time>
      </trkpt>
      <trkpt lat="45.69827" lon="5.62861">
        <ele>385.00626</ele>
        <time>2015-04-26T11:13:28Z</time>
      </trkpt>
      <trkpt lat="45.69829" lon="5.62851">
        <ele>385.00626</ele>
        <time>2015-04-26T11:13:33Z</time>
      </trkpt>
      <trkpt lat="45.6983" lon="5.62842">
        <ele>383.59354</ele>
        <time>2015-04-26T11:13:38Z</time>
      </trkpt>
      <trkpt lat="45.6983" lon="5.62833">
        <ele>383.59354</ele>
        <time>2015-04-26T11:13:43Z</time>
      </trkpt>
      <trkpt lat="45.69831" lon="5.62824">
        <ele>381.9323</ele>
        <time>2015-04-26T11:13:48Z</time>
      </trkpt>
      <trkpt lat="45.69832" lon="5.62816">
        <ele>381.9323</ele>
        <time>2015-04-26T11:13:53Z</time>
      </trkpt>
      <trkpt lat="45.69833" lon="5.62807">
        <ele>380.23764</ele>
        <time>2015-04-26T11:13:58Z</time>
      </trkpt>
      <trkpt lat="45.69833" lon="5.62797">
        <ele>380.23764</ele>
        <time>2015-04-26T11:14:03Z</time>
      </trkpt>
      <trkpt lat="45.69832" lon="5.62787">
        <ele>378.3919</ele>
        <time>2015-04-26T11:14:08Z</time>
      </trkpt>
      <trkpt lat="45.69832" lon="5.62776">
        <ele>378.3919</ele>
        <time>2015-04-26T11:14:13Z</time>
      </trkpt>
      <trkpt lat="45.69832" lon="5.62766">
        <ele>376.8051</ele>
        <time>2015-04-26T11:14:18Z</time>
      </trkpt>
      <trkpt lat="45.69832" lon="5.62757">
        <ele>376.8051</ele>
        <time>2015-04-26T11:14:23Z</time>
      </trkpt>
      <trkpt lat="45.69832" lon="5.62745">
        <ele>375.32318</ele>
        <time>2015-04-26T11:14:28Z</time>
      </trkpt>
      <trkpt lat="45.69831" lon="5.62734">
        <ele>375.32318</ele>
        <time>2015-04-26T11:14:33Z</time>
      </trkpt>
      <trkpt lat="45.69832" lon="5.62724">
        <ele>373.62997</ele>
        <time>2015-04-26T11:14:38Z</time>
      </trkpt>
      <trkpt lat="45.69834" lon="5.62714">
        <ele>373.62997</ele>
        <time>2015-04-26T11:14:43Z</time>
      </trkpt>
      <trkpt lat="45.69836" lon="5.62706">
        <ele>371.76447</ele>
        <time>2015-04-26T11:14:48Z</time>
      </trkpt>
      <trkpt lat="45.69837" lon="5.62696">
        <ele>371.76447</ele>
        <time>2015-04-26T11:14:53Z</time>
      </trkpt>
      <trkpt lat="45.69838" lon="5.62689">
        <ele>369.83505</ele>
        <time>2015-04-26T11:14:58Z</time>
      </trkpt>
      <trkpt lat="45.69839" lon="5.62679">
        <ele>369.83505</ele>
        <time>2015-04-26T11:15:03Z</time>
      </trkpt>
      <trkpt lat="45.69841" lon="5.62671">
        <ele>367.81262</ele>
        <time>2015-04-26T11:15:08Z</time>
      </trkpt>
      <trkpt lat="45.69843" lon="5.62661">
        <ele>367.81262</ele>
        <time>2015-04-26T11:15:13Z</time>
      </trkpt>
      <trkpt lat="45.69845" lon="5.6265">
        <ele>365.6557</ele>
        <time>2015-04-26T11:15:18Z</time>
      </trkpt>
      <trkpt lat="45.69846" lon="5.62644">
        <ele>365.6557</ele>
        <time>2015-04-26T11:15:23Z</time>
      </trkpt>
      <trkpt lat="45.69847" lon="5.62634">
        <ele>363.16757</ele>
        <time>2015-04-26T11:15:28Z</time>
      </trkpt>
      <trkpt lat="45.69849" lon="5.6262">
        <ele>361.07455</ele>
        <time>2015-04-26T11:15:33Z</time>
      </trkpt>
      <trkpt lat="45.69849" lon="5.62608">
        <ele>361.07455</ele>
        <time>2015-04-26T11:15:38Z</time>
      </trkpt>
      <trkpt lat="45.69849" lon="5.62599">
        <ele>359.09717</ele>
        <time>2015-04-26T11:15:43Z</time>
      </trkpt>
      <trkpt lat="45.69849" lon="5.62588">
        <ele>359.09717</ele>
        <time>2015-04-26T11:15:48Z</time>
      </trkpt>
      <trkpt lat="45.69848" lon="5.62578">
        <ele>356.97586</ele>
        <time>2015-04-26T11:15:53Z</time>
      </trkpt>
      <trkpt lat="45.69847" lon="5.62567">
        <ele>356.97586</ele>
        <time>2015-04-26T11:15:58Z</time>
      </trkpt>
      <trkpt lat="45.69846" lon="5.62558">
        <ele>355.30612</ele>
        <time>2015-04-26T11:16:03Z</time>
      </trkpt>
      <trkpt lat="45.69845" lon="5.62547">
        <ele>355.30612</ele>
        <time>2015-04-26T11:16:08Z</time>
      </trkpt>
      <trkpt lat="45.69841" lon="5.62536">
        <ele>353.87445</ele>
        <time>2015-04-26T11:16:13Z</time>
      </trkpt>
      <trkpt lat="45.69837" lon="5.62527">
        <ele>353.87445</ele>
        <time>2015-04-26T11:16:18Z</time>
      </trkpt>
      <trkpt lat="45.69834" lon="5.62517">
        <ele>352.5829</ele>
        <time>2015-04-26T11:16:23Z</time>
      </trkpt>
      <trkpt lat="45.69832" lon="5.62507">
        <ele>352.5829</ele>
        <time>2015-04-26T11:16:28Z</time>
      </trkpt>
      <trkpt lat="45.69828" lon="5.62491">
        <ele>351.29684</ele>
        <time>2015-04-26T11:16:33Z</time>
      </trkpt>
      <trkpt lat="45.69824" lon="5.62456">
        <ele>350.30927</ele>
        <time>2015-04-26T11:16:38Z</time>
      </trkpt>
      <trkpt lat="45.69822" lon="5.62433">
        <ele>349.63107</ele>
        <time>2015-04-26T11:16:43Z</time>
      </trkpt>
      <trkpt lat="45.69821" lon="5.62418">
        <ele>349.38657</ele>
        <time>2015-04-26T11:16:48Z</time>
      </trkpt>
      <trkpt lat="45.69818" lon="5.62403">
        <ele>349.27155</ele>
        <time>2015-04-26T11:16:54Z</time>
      </trkpt>
      <trkpt lat="45.69815" lon="5.62394">
        <ele>349.27155</ele>
        <time>2015-04-26T11:16:58Z</time>
      </trkpt>
      <trkpt lat="45.69809" lon="5.62384">
        <ele>349.3062</ele>
        <time>2015-04-26T11:17:03Z</time>
      </trkpt>
      <trkpt lat="45.69806" lon="5.62372">
        <ele>349.3062</ele>
        <time>2015-04-26T11:17:08Z</time>
      </trkpt>
      <trkpt lat="45.69805" lon="5.62359">
        <ele>349.29248</ele>
        <time>2015-04-26T11:17:13Z</time>
      </trkpt>
      <trkpt lat="45.69803" lon="5.62345">
        <ele>349.42145</ele>
        <time>2015-04-26T11:17:18Z</time>
      </trkpt>
      <trkpt lat="45.69801" lon="5.62332">
        <ele>349.58136</ele>
        <time>2015-04-26T11:17:23Z</time>
      </trkpt>
      <trkpt lat="45.698" lon="5.62322">
        <ele>349.58136</ele>
        <time>2015-04-26T11:17:28Z</time>
      </trkpt>
      <trkpt lat="45.69797" lon="5.6231">
        <ele>349.76935</ele>
        <time>2015-04-26T11:17:33Z</time>
      </trkpt>
      <trkpt lat="45.69794" lon="5.62297">
        <ele>350.22745</ele>
        <time>2015-04-26T11:17:38Z</time>
      </trkpt>
      <trkpt lat="45.69792" lon="5.62286">
        <ele>350.22745</ele>
        <time>2015-04-26T11:17:43Z</time>
      </trkpt>
      <trkpt lat="45.69789" lon="5.62274">
        <ele>350.7179</ele>
        <time>2015-04-26T11:17:48Z</time>
      </trkpt>
      <trkpt lat="45.6979" lon="5.62265">
        <ele>350.7179</ele>
        <time>2015-04-26T11:17:53Z</time>
      </trkpt>
      <trkpt lat="45.69794" lon="5.62257">
        <ele>351.02023</ele>
        <time>2015-04-26T11:17:58Z</time>
      </trkpt>
      <trkpt lat="45.69798" lon="5.62248">
        <ele>351.02023</ele>
        <time>2015-04-26T11:18:03Z</time>
      </trkpt>
      <trkpt lat="45.69805" lon="5.62246">
        <ele>351.16107</ele>
        <time>2015-04-26T11:18:08Z</time>
      </trkpt>
      <trkpt lat="45.69811" lon="5.62242">
        <ele>351.16107</ele>
        <time>2015-04-26T11:18:13Z</time>
      </trkpt>
      <trkpt lat="45.69818" lon="5.62237">
        <ele>351.15115</ele>
        <time>2015-04-26T11:18:18Z</time>
      </trkpt>
      <trkpt lat="45.69824" lon="5.62232">
        <ele>351.15115</ele>
        <time>2015-04-26T11:18:23Z</time>
      </trkpt>
      <trkpt lat="45.6983" lon="5.62232">
        <ele>351.15924</ele>
        <time>2015-04-26T11:18:28Z</time>
      </trkpt>
      <trkpt lat="45.69833" lon="5.62234">
        <ele>351.15924</ele>
        <time>2015-04-26T11:18:33Z</time>
      </trkpt>
      <trkpt lat="45.69838" lon="5.62234">
        <ele>351.15924</ele>
        <time>2015-04-26T11:18:38Z</time>
      </trkpt>
      <trkpt lat="45.69841" lon="5.62234">
        <ele>351.31268</ele>
        <time>2015-04-26T11:18:43Z</time>
      </trkpt>
      <trkpt lat="45.69848" lon="5.62234">
        <ele>351.31268</ele>
        <time>2015-04-26T11:18:48Z</time>
      </trkpt>
      <trkpt lat="45.69851" lon="5.62235">
        <ele>351.31122</ele>
        <time>2015-04-26T11:18:53Z</time>
      </trkpt>
      <trkpt lat="45.69851" lon="5.62235">
        <ele>351.31122</ele>
        <time>2015-04-26T11:18:58Z</time>
      </trkpt>
      <trkpt lat="45.69854" lon="5.62235">
        <ele>351.31122</ele>
        <time>2015-04-26T11:19:03Z</time>
      </trkpt>
      <trkpt lat="45.69856" lon="5.62234">
        <ele>351.31122</ele>
        <time>2015-04-26T11:19:08Z</time>
      </trkpt>
      <trkpt lat="45.69859" lon="5.62233">
        <ele>351.31122</ele>
        <time>2015-04-26T11:19:13Z</time>
      </trkpt>
      <trkpt lat="45.69866" lon="5.62233">
        <ele>351.65506</ele>
        <time>2015-04-26T11:19:18Z</time>
      </trkpt>
      <trkpt lat="45.69872" lon="5.62228">
        <ele>351.65506</ele>
        <time>2015-04-26T11:19:23Z</time>
      </trkpt>
      <trkpt lat="45.69879" lon="5.62224">
        <ele>352.36008</ele>
        <time>2015-04-26T11:19:28Z</time>
      </trkpt>
      <trkpt lat="45.69887" lon="5.62224">
        <ele>352.36008</ele>
        <time>2015-04-26T11:19:34Z</time>
      </trkpt>
      <trkpt lat="45.6989" lon="5.62226">
        <ele>354.0595</ele>
        <time>2015-04-26T11:19:38Z</time>
      </trkpt>
      <trkpt lat="45.69893" lon="5.62227">
        <ele>354.0595</ele>
        <time>2015-04-26T11:19:45Z</time>
      </trkpt>
      <trkpt lat="45.69896" lon="5.62226">
        <ele>354.0595</ele>
        <time>2015-04-26T11:19:48Z</time>
      </trkpt>
      <trkpt lat="45.69897" lon="5.62225">
        <ele>354.0595</ele>
        <time>2015-04-26T11:19:54Z</time>
      </trkpt>
      <trkpt lat="45.69898" lon="5.62226">
        <ele>354.0595</ele>
        <time>2015-04-26T11:19:59Z</time>
      </trkpt>
      <trkpt lat="45.699" lon="5.62223">
        <ele>355.5647</ele>
        <time>2015-04-26T11:20:04Z</time>
      </trkpt>
      <trkpt lat="45.69901" lon="5.62224">
        <ele>355.5647</ele>
        <time>2015-04-26T11:20:09Z</time>
      </trkpt>
      <trkpt lat="45.69902" lon="5.62222">
        <ele>355.5647</ele>
        <time>2015-04-26T11:20:14Z</time>
      </trkpt>
      <trkpt lat="45.69902" lon="5.62222">
        <ele>355.5647</ele>
        <time>2015-04-26T11:20:18Z</time>
      </trkpt>
      <trkpt lat="45.69904" lon="5.62219">
        <ele>355.5647</ele>
        <time>2015-04-26T11:20:23Z</time>
      </trkpt>
      <trkpt lat="45.69907" lon="5.62208">
        <ele>357.2448</ele>
        <time>2015-04-26T11:20:29Z</time>
      </trkpt>
      <trkpt lat="45.69909" lon="5.622">
        <ele>357.2448</ele>
        <time>2015-04-26T11:20:34Z</time>
      </trkpt>
      <trkpt lat="45.69912" lon="5.62191">
        <ele>359.26846</ele>
        <time>2015-04-26T11:20:39Z</time>
      </trkpt>
      <trkpt lat="45.69922" lon="5.6219">
        <ele>361.60364</ele>
        <time>2015-04-26T11:20:44Z</time>
      </trkpt>
      <trkpt lat="45.69927" lon="5.62187">
        <ele>361.60364</ele>
        <time>2015-04-26T11:20:49Z</time>
      </trkpt>
      <trkpt lat="45.69932" lon="5.62184">
        <ele>364.17657</ele>
        <time>2015-04-26T11:20:54Z</time>
      </trkpt>
      <trkpt lat="45.69939" lon="5.62181">
        <ele>364.17657</ele>
        <time>2015-04-26T11:21:00Z</time>
      </trkpt>
      <trkpt lat="45.69945" lon="5.62178">
        <ele>366.81747</ele>
        <time>2015-04-26T11:21:04Z</time>
      </trkpt>
      <trkpt lat="45.6995" lon="5.62171">
        <ele>366.81747</ele>
        <time>2015-04-26T11:21:09Z</time>
      </trkpt>
      <trkpt lat="45.69956" lon="5.62165">
        <ele>369.26797</ele>
        <time>2015-04-26T11:21:13Z</time>
      </trkpt>
      <trkpt lat="45.69963" lon="5.62167">
        <ele>369.26797</ele>
        <time>2015-04-26T11:21:18Z</time>
      </trkpt>
      <trkpt lat="45.69964" lon="5.62168">
        <ele>369.26797</ele>
        <time>2015-04-26T11:21:23Z</time>
      </trkpt>
      <trkpt lat="45.69971" lon="5.62168">
        <ele>372.00998</ele>
        <time>2015-04-26T11:21:28Z</time>
      </trkpt>
      <trkpt lat="45.69976" lon="5.62159">
        <ele>372.00998</ele>
        <time>2015-04-26T11:21:34Z</time>
      </trkpt>
      <trkpt lat="45.6998" lon="5.62151">
        <ele>374.14902</ele>
        <time>2015-04-26T11:21:38Z</time>
      </trkpt>
      <trkpt lat="45.69983" lon="5.62146">
        <ele>374.14902</ele>
        <time>2015-04-26T11:21:43Z</time>
      </trkpt>
      <trkpt lat="45.69988" lon="5.62141">
        <ele>376.47214</ele>
        <time>2015-04-26T11:21:48Z</time>
      </trkpt>
      <trkpt lat="45.69988" lon="5.62141">
        <ele>376.47214</ele>
        <time>2015-04-26T11:21:54Z</time>
      </trkpt>
      <trkpt lat="45.69988" lon="5.62141">
        <ele>376.47214</ele>
        <time>2015-04-26T11:21:59Z</time>
      </trkpt>
      <trkpt lat="45.69988" lon="5.62141">
        <ele>376.47214</ele>
        <time>2015-04-26T11:22:04Z</time>
      </trkpt>
      <trkpt lat="45.69988" lon="5.6214">
        <ele>376.47214</ele>
        <time>2015-04-26T11:22:09Z</time>
      </trkpt>
      <trkpt lat="45.69988" lon="5.6214">
        <ele>376.47214</ele>
        <time>2015-04-26T11:22:14Z</time>
      </trkpt>
      <trkpt lat="45.69989" lon="5.62138">
        <ele>376.47214</ele>
        <time>2015-04-26T11:22:19Z</time>
      </trkpt>
      <trkpt lat="45.69991" lon="5.62131">
        <ele>376.47214</ele>
        <time>2015-04-26T11:22:24Z</time>
      </trkpt>
      <trkpt lat="45.69995" lon="5.62121">
        <ele>378.8292</ele>
        <time>2015-04-26T11:22:29Z</time>
      </trkpt>
      <trkpt lat="45.69997" lon="5.62113">
        <ele>378.8292</ele>
        <time>2015-04-26T11:22:34Z</time>
      </trkpt>
      <trkpt lat="45.69999" lon="5.62103">
        <ele>381.09555</ele>
        <time>2015-04-26T11:22:39Z</time>
      </trkpt>
      <trkpt lat="45.70005" lon="5.62095">
        <ele>381.09555</ele>
        <time>2015-04-26T11:22:43Z</time>
      </trkpt>
      <trkpt lat="45.70011" lon="5.62091">
        <ele>382.83902</ele>
        <time>2015-04-26T11:22:48Z</time>
      </trkpt>
      <trkpt lat="45.70016" lon="5.62082">
        <ele>382.83902</ele>
        <time>2015-04-26T11:22:53Z</time>
      </trkpt>
      <trkpt lat="45.70019" lon="5.62075">
        <ele>385.98108</ele>
        <time>2015-04-26T11:22:58Z</time>
      </trkpt>
      <trkpt lat="45.7002" lon="5.62071">
        <ele>385.98108</ele>
        <time>2015-04-26T11:23:03Z</time>
      </trkpt>
      <trkpt lat="45.7002" lon="5.62071">
        <ele>385.98108</ele>
        <time>2015-04-26T11:23:08Z</time>
      </trkpt>
      <trkpt lat="45.7002" lon="5.6207">
        <ele>385.98108</ele>
        <time>2015-04-26T11:23:13Z</time>
      </trkpt>
      <trkpt lat="45.70022" lon="5.62067">
        <ele>385.98108</ele>
        <time>2015-04-26T11:23:18Z</time>
      </trkpt>
      <trkpt lat="45.70024" lon="5.62061">
        <ele>389.28632</ele>
        <time>2015-04-26T11:23:23Z</time>
      </trkpt>
      <trkpt lat="45.70029" lon="5.62055">
        <ele>389.28632</ele>
        <time>2015-04-26T11:23:28Z</time>
      </trkpt>
      <trkpt lat="45.70032" lon="5.62051">
        <ele>391.3937</ele>
        <time>2015-04-26T11:23:33Z</time>
      </trkpt>
      <trkpt lat="45.70036" lon="5.62046">
        <ele>391.3937</ele>
        <time>2015-04-26T11:23:38Z</time>
      </trkpt>
      <trkpt lat="45.7004" lon="5.62041">
        <ele>392.78943</ele>
        <time>2015-04-26T11:23:43Z</time>
      </trkpt>
      <trkpt lat="45.70045" lon="5.62036">
        <ele>392.78943</ele>
        <time>2015-04-26T11:23:48Z</time>
      </trkpt>
      <trkpt lat="45.70049" lon="5.6203">
        <ele>393.82532</ele>
        <time>2015-04-26T11:23:53Z</time>
      </trkpt>
      <trkpt lat="45.70054" lon="5.62025">
        <ele>393.82532</ele>
        <time>2015-04-26T11:23:58Z</time>
      </trkpt>
      <trkpt lat="45.70059" lon="5.62019">
        <ele>394.92938</ele>
        <time>2015-04-26T11:24:03Z</time>
      </trkpt>
      <trkpt lat="45.70064" lon="5.62013">
        <ele>394.92938</ele>
        <time>2015-04-26T11:24:08Z</time>
      </trkpt>
      <trkpt lat="45.70067" lon="5.62011">
        <ele>396.02264</ele>
        <time>2015-04-26T11:24:13Z</time>
      </trkpt>
      <trkpt lat="45.70069" lon="5.62011">
        <ele>396.02264</ele>
        <time>2015-04-26T11:24:18Z</time>
      </trkpt>
      <trkpt lat="45.70072" lon="5.62008">
        <ele>396.02264</ele>
        <time>2015-04-26T11:24:23Z</time>
      </trkpt>
      <trkpt lat="45.70078" lon="5.62004">
        <ele>396.78717</ele>
        <time>2015-04-26T11:24:28Z</time>
      </trkpt>
      <trkpt lat="45.70083" lon="5.62">
        <ele>396.78717</ele>
        <time>2015-04-26T11:24:33Z</time>
      </trkpt>
      <trkpt lat="45.70088" lon="5.6199">
        <ele>397.16003</ele>
        <time>2015-04-26T11:24:38Z</time>
      </trkpt>
      <trkpt lat="45.70098" lon="5.61986">
        <ele>397.96326</ele>
        <time>2015-04-26T11:24:44Z</time>
      </trkpt>
      <trkpt lat="45.70101" lon="5.6199">
        <ele>397.96326</ele>
        <time>2015-04-26T11:24:48Z</time>
      </trkpt>
      <trkpt lat="45.70104" lon="5.61999">
        <ele>398.86215</ele>
        <time>2015-04-26T11:24:53Z</time>
      </trkpt>
      <trkpt lat="45.70107" lon="5.62">
        <ele>398.86215</ele>
        <time>2015-04-26T11:24:58Z</time>
      </trkpt>
      <trkpt lat="45.7011" lon="5.62005">
        <ele>398.86215</ele>
        <time>2015-04-26T11:25:03Z</time>
      </trkpt>
      <trkpt lat="45.70114" lon="5.62012">
        <ele>400.03647</ele>
        <time>2015-04-26T11:25:08Z</time>
      </trkpt>
      <trkpt lat="45.70122" lon="5.62015">
        <ele>400.03647</ele>
        <time>2015-04-26T11:25:13Z</time>
      </trkpt>
      <trkpt lat="45.70123" lon="5.62017">
        <ele>400.71542</ele>
        <time>2015-04-26T11:25:18Z</time>
      </trkpt>
      <trkpt lat="45.70134" lon="5.62022">
        <ele>401.8292</ele>
        <time>2015-04-26T11:25:23Z</time>
      </trkpt>
      <trkpt lat="45.70143" lon="5.62027">
        <ele>402.9703</ele>
        <time>2015-04-26T11:25:28Z</time>
      </trkpt>
      <trkpt lat="45.70145" lon="5.62028">
        <ele>402.9703</ele>
        <time>2015-04-26T11:25:33Z</time>
      </trkpt>
      <trkpt lat="45.70145" lon="5.62028">
        <ele>402.9703</ele>
        <time>2015-04-26T11:25:38Z</time>
      </trkpt>
      <trkpt lat="45.70146" lon="5.62032">
        <ele>402.9703</ele>
        <time>2015-04-26T11:25:43Z</time>
      </trkpt>
      <trkpt lat="45.70149" lon="5.6204">
        <ele>403.6028</ele>
        <time>2015-04-26T11:25:48Z</time>
      </trkpt>
      <trkpt lat="45.70153" lon="5.62047">
        <ele>403.6028</ele>
        <time>2015-04-26T11:25:53Z</time>
      </trkpt>
      <trkpt lat="45.70156" lon="5.62054">
        <ele>403.93774</ele>
        <time>2015-04-26T11:25:58Z</time>
      </trkpt>
      <trkpt lat="45.7016" lon="5.62063">
        <ele>403.93774</ele>
        <time>2015-04-26T11:26:03Z</time>
      </trkpt>
      <trkpt lat="45.70167" lon="5.62074">
        <ele>404.2868</ele>
        <time>2015-04-26T11:26:08Z</time>
      </trkpt>
      <trkpt lat="45.70171" lon="5.62084">
        <ele>404.2868</ele>
        <time>2015-04-26T11:26:13Z</time>
      </trkpt>
      <trkpt lat="45.70175" lon="5.62091">
        <ele>404.69394</ele>
        <time>2015-04-26T11:26:18Z</time>
      </trkpt>
      <trkpt lat="45.70181" lon="5.62097">
        <ele>404.69394</ele>
        <time>2015-04-26T11:26:23Z</time>
      </trkpt>
      <trkpt lat="45.70186" lon="5.62105">
        <ele>405.02676</ele>
        <time>2015-04-26T11:26:28Z</time>
      </trkpt>
      <trkpt lat="45.70191" lon="5.62112">
        <ele>405.02676</ele>
        <time>2015-04-26T11:26:33Z</time>
      </trkpt>
      <trkpt lat="45.70193" lon="5.62115">
        <ele>405.03323</ele>
        <time>2015-04-26T11:26:38Z</time>
      </trkpt>
      <trkpt lat="45.70195" lon="5.62116">
        <ele>405.03323</ele>
        <time>2015-04-26T11:26:43Z</time>
      </trkpt>
      <trkpt lat="45.70199" lon="5.62121">
        <ele>405.03323</ele>
        <time>2015-04-26T11:26:48Z</time>
      </trkpt>
      <trkpt lat="45.70202" lon="5.62123">
        <ele>405.3742</ele>
        <time>2015-04-26T11:26:53Z</time>
      </trkpt>
      <trkpt lat="45.70204" lon="5.62119">
        <ele>405.3742</ele>
        <time>2015-04-26T11:26:58Z</time>
      </trkpt>
      <trkpt lat="45.70207" lon="5.62106">
        <ele>405.2344</ele>
        <time>2015-04-26T11:27:03Z</time>
      </trkpt>
      <trkpt lat="45.7021" lon="5.62098">
        <ele>405.2344</ele>
        <time>2015-04-26T11:27:08Z</time>
      </trkpt>
      <trkpt lat="45.70214" lon="5.6209">
        <ele>404.6525</ele>
        <time>2015-04-26T11:27:13Z</time>
      </trkpt>
      <trkpt lat="45.70217" lon="5.6208">
        <ele>404.6525</ele>
        <time>2015-04-26T11:27:18Z</time>
      </trkpt>
      <trkpt lat="45.70219" lon="5.62069">
        <ele>404.5013</ele>
        <time>2015-04-26T11:27:23Z</time>
      </trkpt>
      <trkpt lat="45.70224" lon="5.62057">
        <ele>404.43552</ele>
        <time>2015-04-26T11:27:28Z</time>
      </trkpt>
      <trkpt lat="45.70228" lon="5.62049">
        <ele>404.43552</ele>
        <time>2015-04-26T11:27:33Z</time>
      </trkpt>
      <trkpt lat="45.70233" lon="5.62043">
        <ele>404.1349</ele>
        <time>2015-04-26T11:27:38Z</time>
      </trkpt>
      <trkpt lat="45.70238" lon="5.62037">
        <ele>404.1349</ele>
        <time>2015-04-26T11:27:43Z</time>
      </trkpt>
      <trkpt lat="45.70241" lon="5.62029">
        <ele>403.33218</ele>
        <time>2015-04-26T11:27:48Z</time>
      </trkpt>
      <trkpt lat="45.70245" lon="5.62021">
        <ele>403.33218</ele>
        <time>2015-04-26T11:27:53Z</time>
      </trkpt>
      <trkpt lat="45.70249" lon="5.62013">
        <ele>402.127</ele>
        <time>2015-04-26T11:27:58Z</time>
      </trkpt>
      <trkpt lat="45.70253" lon="5.62004">
        <ele>402.127</ele>
        <time>2015-04-26T11:28:03Z</time>
      </trkpt>
      <trkpt lat="45.70256" lon="5.61994">
        <ele>401.10278</ele>
        <time>2015-04-26T11:28:08Z</time>
      </trkpt>
      <trkpt lat="45.70261" lon="5.61987">
        <ele>401.10278</ele>
        <time>2015-04-26T11:28:13Z</time>
      </trkpt>
      <trkpt lat="45.70264" lon="5.61974">
        <ele>400.2518</ele>
        <time>2015-04-26T11:28:19Z</time>
      </trkpt>
      <trkpt lat="45.70264" lon="5.61972">
        <ele>400.2518</ele>
        <time>2015-04-26T11:28:23Z</time>
      </trkpt>
      <trkpt lat="45.70269" lon="5.61964">
        <ele>400.2518</ele>
        <time>2015-04-26T11:28:28Z</time>
      </trkpt>
      <trkpt lat="45.70272" lon="5.61956">
        <ele>399.26376</ele>
        <time>2015-04-26T11:28:33Z</time>
      </trkpt>
      <trkpt lat="45.70274" lon="5.61949">
        <ele>399.26376</ele>
        <time>2015-04-26T11:28:38Z</time>
      </trkpt>
      <trkpt lat="45.70275" lon="5.61937">
        <ele>398.42795</ele>
        <time>2015-04-26T11:28:43Z</time>
      </trkpt>
      <trkpt lat="45.70276" lon="5.61925">
        <ele>398.42795</ele>
        <time>2015-04-26T11:28:48Z</time>
      </trkpt>
      <trkpt lat="45.70278" lon="5.61917">
        <ele>397.3201</ele>
        <time>2015-04-26T11:28:53Z</time>
      </trkpt>
      <trkpt lat="45.7028" lon="5.61911">
        <ele>397.3201</ele>
        <time>2015-04-26T11:28:58Z</time>
      </trkpt>
      <trkpt lat="45.70281" lon="5.61903">
        <ele>395.86484</ele>
        <time>2015-04-26T11:29:03Z</time>
      </trkpt>
      <trkpt lat="45.70279" lon="5.61887">
        <ele>394.88666</ele>
        <time>2015-04-26T11:29:08Z</time>
      </trkpt>
      <trkpt lat="45.70278" lon="5.61875">
        <ele>394.88666</ele>
        <time>2015-04-26T11:29:13Z</time>
      </trkpt>
      <trkpt lat="45.70278" lon="5.61866">
        <ele>393.93756</ele>
        <time>2015-04-26T11:29:18Z</time>
      </trkpt>
      <trkpt lat="45.70277" lon="5.6186">
        <ele>393.93756</ele>
        <time>2015-04-26T11:29:23Z</time>
      </trkpt>
      <trkpt lat="45.70276" lon="5.6185">
        <ele>392.90482</ele>
        <time>2015-04-26T11:29:28Z</time>
      </trkpt>
      <trkpt lat="45.70272" lon="5.61844">
        <ele>392.90482</ele>
        <time>2015-04-26T11:29:33Z</time>
      </trkpt>
      <trkpt lat="45.70271" lon="5.61838">
        <ele>391.78497</ele>
        <time>2015-04-26T11:29:38Z</time>
      </trkpt>
      <trkpt lat="45.70268" lon="5.61834">
        <ele>391.78497</ele>
        <time>2015-04-26T11:29:43Z</time>
      </trkpt>
      <trkpt lat="45.70266" lon="5.61829">
        <ele>391.78497</ele>
        <time>2015-04-26T11:29:48Z</time>
      </trkpt>
      <trkpt lat="45.70264" lon="5.61826">
        <ele>390.08502</ele>
        <time>2015-04-26T11:29:53Z</time>
      </trkpt>
      <trkpt lat="45.70264" lon="5.61819">
        <ele>390.08502</ele>
        <time>2015-04-26T11:29:58Z</time>
      </trkpt>
      <trkpt lat="45.70265" lon="5.6181">
        <ele>389.49683</ele>
        <time>2015-04-26T11:30:03Z</time>
      </trkpt>
      <trkpt lat="45.70267" lon="5.61801">
        <ele>389.49683</ele>
        <time>2015-04-26T11:30:08Z</time>
      </trkpt>
      <trkpt lat="45.7027" lon="5.61792">
        <ele>388.97635</ele>
        <time>2015-04-26T11:30:13Z</time>
      </trkpt>
      <trkpt lat="45.70272" lon="5.61784">
        <ele>388.97635</ele>
        <time>2015-04-26T11:30:18Z</time>
      </trkpt>
      <trkpt lat="45.70274" lon="5.61775">
        <ele>388.66556</ele>
        <time>2015-04-26T11:30:23Z</time>
      </trkpt>
      <trkpt lat="45.70278" lon="5.61769">
        <ele>388.66556</ele>
        <time>2015-04-26T11:30:28Z</time>
      </trkpt>
      <trkpt lat="45.70284" lon="5.61764">
        <ele>387.4271</ele>
        <time>2015-04-26T11:30:33Z</time>
      </trkpt>
      <trkpt lat="45.7029" lon="5.61755">
        <ele>387.4271</ele>
        <time>2015-04-26T11:30:38Z</time>
      </trkpt>
      <trkpt lat="45.70293" lon="5.61744">
        <ele>386.0686</ele>
        <time>2015-04-26T11:30:43Z</time>
      </trkpt>
      <trkpt lat="45.70298" lon="5.61732">
        <ele>385.0216</ele>
        <time>2015-04-26T11:30:48Z</time>
      </trkpt>
      <trkpt lat="45.70299" lon="5.61725">
        <ele>385.0216</ele>
        <time>2015-04-26T11:30:53Z</time>
      </trkpt>
      <trkpt lat="45.70299" lon="5.61723">
        <ele>385.0216</ele>
        <time>2015-04-26T11:30:58Z</time>
      </trkpt>
      <trkpt lat="45.703" lon="5.61719">
        <ele>383.7625</ele>
        <time>2015-04-26T11:31:03Z</time>
      </trkpt>
      <trkpt lat="45.70302" lon="5.61715">
        <ele>383.7625</ele>
        <time>2015-04-26T11:31:08Z</time>
      </trkpt>
      <trkpt lat="45.70305" lon="5.61709">
        <ele>381.5041</ele>
        <time>2015-04-26T11:31:13Z</time>
      </trkpt>
      <trkpt lat="45.70308" lon="5.61697">
        <ele>381.5041</ele>
        <time>2015-04-26T11:31:18Z</time>
      </trkpt>
      <trkpt lat="45.70311" lon="5.61684">
        <ele>379.8974</ele>
        <time>2015-04-26T11:31:23Z</time>
      </trkpt>
      <trkpt lat="45.70312" lon="5.61675">
        <ele>379.8974</ele>
        <time>2015-04-26T11:31:28Z</time>
      </trkpt>
      <trkpt lat="45.70315" lon="5.61669">
        <ele>378.32297</ele>
        <time>2015-04-26T11:31:33Z</time>
      </trkpt>
      <trkpt lat="45.70319" lon="5.61664">
        <ele>378.32297</ele>
        <time>2015-04-26T11:31:38Z</time>
      </trkpt>
      <trkpt lat="45.70324" lon="5.61657">
        <ele>376.1633</ele>
        <time>2015-04-26T11:31:43Z</time>
      </trkpt>
      <trkpt lat="45.70337" lon="5.61641">
        <ele>374.28897</ele>
        <time>2015-04-26T11:31:48Z</time>
      </trkpt>
      <trkpt lat="45.70351" lon="5.61625">
        <ele>372.5688</ele>
        <time>2015-04-26T11:31:53Z</time>
      </trkpt>
      <trkpt lat="45.7037" lon="5.61606">
        <ele>371.55798</ele>
        <time>2015-04-26T11:31:58Z</time>
      </trkpt>
      <trkpt lat="45.70379" lon="5.61592">
        <ele>371.0627</ele>
        <time>2015-04-26T11:32:04Z</time>
      </trkpt>
      <trkpt lat="45.70383" lon="5.61588">
        <ele>371.0627</ele>
        <time>2015-04-26T11:32:09Z</time>
      </trkpt>
      <trkpt lat="45.70387" lon="5.61574">
        <ele>370.93054</ele>
        <time>2015-04-26T11:32:13Z</time>
      </trkpt>
      <trkpt lat="45.7039" lon="5.61565">
        <ele>370.93054</ele>
        <time>2015-04-26T11:32:18Z</time>
      </trkpt>
      <trkpt lat="45.70393" lon="5.61556">
        <ele>371.29288</ele>
        <time>2015-04-26T11:32:23Z</time>
      </trkpt>
      <trkpt lat="45.704" lon="5.61547">
        <ele>371.67917</ele>
        <time>2015-04-26T11:32:28Z</time>
      </trkpt>
      <trkpt lat="45.70405" lon="5.61542">
        <ele>371.67917</ele>
        <time>2015-04-26T11:32:33Z</time>
      </trkpt>
      <trkpt lat="45.70408" lon="5.6154">
        <ele>371.50903</ele>
        <time>2015-04-26T11:32:38Z</time>
      </trkpt>
      <trkpt lat="45.70411" lon="5.61531">
        <ele>371.50903</ele>
        <time>2015-04-26T11:32:43Z</time>
      </trkpt>
      <trkpt lat="45.70416" lon="5.61527">
        <ele>370.7794</ele>
        <time>2015-04-26T11:32:48Z</time>
      </trkpt>
      <trkpt lat="45.7042" lon="5.61524">
        <ele>370.7794</ele>
        <time>2015-04-26T11:32:53Z</time>
      </trkpt>
      <trkpt lat="45.70422" lon="5.61516">
        <ele>369.561</ele>
        <time>2015-04-26T11:32:58Z</time>
      </trkpt>
      <trkpt lat="45.70424" lon="5.61516">
        <ele>369.561</ele>
        <time>2015-04-26T11:33:03Z</time>
      </trkpt>
      <trkpt lat="45.70428" lon="5.61514">
        <ele>369.561</ele>
        <time>2015-04-26T11:33:10Z</time>
      </trkpt>
      <trkpt lat="45.7043" lon="5.6151">
        <ele>367.56033</ele>
        <time>2015-04-26T11:33:14Z</time>
      </trkpt>
      <trkpt lat="45.70433" lon="5.61506">
        <ele>367.56033</ele>
        <time>2015-04-26T11:33:19Z</time>
      </trkpt>
      <trkpt lat="45.70438" lon="5.61499">
        <ele>365.7901</ele>
        <time>2015-04-26T11:33:25Z</time>
      </trkpt>
      <trkpt lat="45.70444" lon="5.61492">
        <ele>365.7901</ele>
        <time>2015-04-26T11:33:29Z</time>
      </trkpt>
      <trkpt lat="45.7045" lon="5.61485">
        <ele>364.68356</ele>
        <time>2015-04-26T11:33:35Z</time>
      </trkpt>
      <trkpt lat="45.70453" lon="5.61477">
        <ele>364.68356</ele>
        <time>2015-04-26T11:33:40Z</time>
      </trkpt>
      <trkpt lat="45.70455" lon="5.61469">
        <ele>363.8043</ele>
        <time>2015-04-26T11:33:44Z</time>
      </trkpt>
      <trkpt lat="45.70457" lon="5.61462">
        <ele>363.8043</ele>
        <time>2015-04-26T11:33:50Z</time>
      </trkpt>
      <trkpt lat="45.7046" lon="5.61458">
        <ele>363.65512</ele>
        <time>2015-04-26T11:33:54Z</time>
      </trkpt>
      <trkpt lat="45.70462" lon="5.61456">
        <ele>363.65512</ele>
        <time>2015-04-26T11:33:59Z</time>
      </trkpt>
      <trkpt lat="45.70463" lon="5.61454">
        <ele>363.65512</ele>
        <time>2015-04-26T11:34:04Z</time>
      </trkpt>
      <trkpt lat="45.70472" lon="5.61451">
        <ele>363.8495</ele>
        <time>2015-04-26T11:34:09Z</time>
      </trkpt>
      <trkpt lat="45.70476" lon="5.61446">
        <ele>363.8495</ele>
        <time>2015-04-26T11:34:14Z</time>
      </trkpt>
      <trkpt lat="45.7048" lon="5.61446">
        <ele>363.8495</ele>
        <time>2015-04-26T11:34:19Z</time>
      </trkpt>
      <trkpt lat="45.70485" lon="5.61443">
        <ele>363.16364</ele>
        <time>2015-04-26T11:34:24Z</time>
      </trkpt>
      <trkpt lat="45.70491" lon="5.6144">
        <ele>363.16364</ele>
        <time>2015-04-26T11:34:29Z</time>
      </trkpt>
      <trkpt lat="45.70501" lon="5.61429">
        <ele>363.40585</ele>
        <time>2015-04-26T11:34:34Z</time>
      </trkpt>
      <trkpt lat="45.70506" lon="5.61421">
        <ele>363.40585</ele>
        <time>2015-04-26T11:34:39Z</time>
      </trkpt>
      <trkpt lat="45.7051" lon="5.61414">
        <ele>363.72705</ele>
        <time>2015-04-26T11:34:44Z</time>
      </trkpt>
      <trkpt lat="45.70513" lon="5.61408">
        <ele>363.72705</ele>
        <time>2015-04-26T11:34:50Z</time>
      </trkpt>
      <trkpt lat="45.70517" lon="5.61402">
        <ele>363.9311</ele>
        <time>2015-04-26T11:34:54Z</time>
      </trkpt>
      <trkpt lat="45.70519" lon="5.614">
        <ele>363.9311</ele>
        <time>2015-04-26T11:34:59Z</time>
      </trkpt>
      <trkpt lat="45.70523" lon="5.61395">
        <ele>363.9311</ele>
        <time>2015-04-26T11:35:04Z</time>
      </trkpt>
      <trkpt lat="45.7053" lon="5.61389">
        <ele>362.9142</ele>
        <time>2015-04-26T11:35:09Z</time>
      </trkpt>
      <trkpt lat="45.70534" lon="5.61383">
        <ele>362.9142</ele>
        <time>2015-04-26T11:35:13Z</time>
      </trkpt>
      <trkpt lat="45.7054" lon="5.61378">
        <ele>361.99173</ele>
        <time>2015-04-26T11:35:20Z</time>
      </trkpt>
      <trkpt lat="45.70547" lon="5.61373">
        <ele>361.99173</ele>
        <time>2015-04-26T11:35:25Z</time>
      </trkpt>
      <trkpt lat="45.7055" lon="5.61371">
        <ele>361.4165</ele>
        <time>2015-04-26T11:35:29Z</time>
      </trkpt>
      <trkpt lat="45.70553" lon="5.61372">
        <ele>361.4165</ele>
        <time>2015-04-26T11:35:34Z</time>
      </trkpt>
      <trkpt lat="45.70554" lon="5.61374">
        <ele>361.4165</ele>
        <time>2015-04-26T11:35:39Z</time>
      </trkpt>
      <trkpt lat="45.70556" lon="5.61372">
        <ele>361.4165</ele>
        <time>2015-04-26T11:35:45Z</time>
      </trkpt>
      <trkpt lat="45.70558" lon="5.61371">
        <ele>362.4594</ele>
        <time>2015-04-26T11:35:49Z</time>
      </trkpt>
      <trkpt lat="45.70559" lon="5.6137">
        <ele>362.4594</ele>
        <time>2015-04-26T11:35:54Z</time>
      </trkpt>
      <trkpt lat="45.70559" lon="5.6137">
        <ele>362.4594</ele>
        <time>2015-04-26T11:35:59Z</time>
      </trkpt>
      <trkpt lat="45.70561" lon="5.61368">
        <ele>362.4594</ele>
        <time>2015-04-26T11:36:06Z</time>
      </trkpt>
      <trkpt lat="45.70565" lon="5.61365">
        <ele>362.4594</ele>
        <time>2015-04-26T11:36:09Z</time>
      </trkpt>
      <trkpt lat="45.70571" lon="5.61361">
        <ele>363.23828</ele>
        <time>2015-04-26T11:36:14Z</time>
      </trkpt>
      <trkpt lat="45.70576" lon="5.61354">
        <ele>363.23828</ele>
        <time>2015-04-26T11:36:19Z</time>
      </trkpt>
      <trkpt lat="45.70581" lon="5.61347">
        <ele>364.1284</ele>
        <time>2015-04-26T11:36:25Z</time>
      </trkpt>
      <trkpt lat="45.70587" lon="5.61343">
        <ele>364.1284</ele>
        <time>2015-04-26T11:36:29Z</time>
      </trkpt>
      <trkpt lat="45.70589" lon="5.61342">
        <ele>364.1284</ele>
        <time>2015-04-26T11:36:34Z</time>
      </trkpt>
      <trkpt lat="45.70592" lon="5.61339">
        <ele>365.18887</ele>
        <time>2015-04-26T11:36:38Z</time>
      </trkpt>
      <trkpt lat="45.70599" lon="5.61333">
        <ele>365.18887</ele>
        <time>2015-04-26T11:36:43Z</time>
      </trkpt>
      <trkpt lat="45.70603" lon="5.61327">
        <ele>365.71033</ele>
        <time>2015-04-26T11:36:50Z</time>
      </trkpt>
      <trkpt lat="45.7061" lon="5.61324">
        <ele>365.71033</ele>
        <time>2015-04-26T11:36:54Z</time>
      </trkpt>
      <trkpt lat="45.70616" lon="5.61319">
        <ele>365.95932</ele>
        <time>2015-04-26T11:37:00Z</time>
      </trkpt>
      <trkpt lat="45.70618" lon="5.61311">
        <ele>365.95932</ele>
        <time>2015-04-26T11:37:05Z</time>
      </trkpt>
      <trkpt lat="45.70622" lon="5.61307">
        <ele>366.7312</ele>
        <time>2015-04-26T11:37:09Z</time>
      </trkpt>
      <trkpt lat="45.70626" lon="5.61305">
        <ele>366.7312</ele>
        <time>2015-04-26T11:37:14Z</time>
      </trkpt>
      <trkpt lat="45.70632" lon="5.613">
        <ele>367.5078</ele>
        <time>2015-04-26T11:37:20Z</time>
      </trkpt>
      <trkpt lat="45.70637" lon="5.61296">
        <ele>367.5078</ele>
        <time>2015-04-26T11:37:25Z</time>
      </trkpt>
      <trkpt lat="45.70644" lon="5.61292">
        <ele>368.54398</ele>
        <time>2015-04-26T11:37:30Z</time>
      </trkpt>
      <trkpt lat="45.70649" lon="5.6129">
        <ele>368.54398</ele>
        <time>2015-04-26T11:37:35Z</time>
      </trkpt>
      <trkpt lat="45.70652" lon="5.6129">
        <ele>368.54398</ele>
        <time>2015-04-26T11:37:39Z</time>
      </trkpt>
      <trkpt lat="45.70655" lon="5.61289">
        <ele>369.1673</ele>
        <time>2015-04-26T11:37:45Z</time>
      </trkpt>
      <trkpt lat="45.70659" lon="5.61287">
        <ele>369.1673</ele>
        <time>2015-04-26T11:37:50Z</time>
      </trkpt>
      <trkpt lat="45.70668" lon="5.61282">
        <ele>370.0386</ele>
        <time>2015-04-26T11:37:54Z</time>
      </trkpt>
      <trkpt lat="45.70678" lon="5.61276">
        <ele>370.80396</ele>
        <time>2015-04-26T11:37:59Z</time>
      </trkpt>
      <trkpt lat="45.70691" lon="5.61262">
        <ele>371.36642</ele>
        <time>2015-04-26T11:38:04Z</time>
      </trkpt>
      <trkpt lat="45.70712" lon="5.61246">
        <ele>371.31985</ele>
        <time>2015-04-26T11:38:10Z</time>
      </trkpt>
      <trkpt lat="45.70731" lon="5.61233">
        <ele>371.08224</ele>
        <time>2015-04-26T11:38:14Z</time>
      </trkpt>
      <trkpt lat="45.70751" lon="5.61227">
        <ele>370.00397</ele>
        <time>2015-04-26T11:38:19Z</time>
      </trkpt>
      <trkpt lat="45.70768" lon="5.61226">
        <ele>369.09964</ele>
        <time>2015-04-26T11:38:25Z</time>
      </trkpt>
      <trkpt lat="45.70781" lon="5.61222">
        <ele>368.9774</ele>
        <time>2015-04-26T11:38:29Z</time>
      </trkpt>
      <trkpt lat="45.70789" lon="5.61219">
        <ele>368.9774</ele>
        <time>2015-04-26T11:38:34Z</time>
      </trkpt>
      <trkpt lat="45.70795" lon="5.61216">
        <ele>368.6855</ele>
        <time>2015-04-26T11:38:39Z</time>
      </trkpt>
      <trkpt lat="45.70805" lon="5.61215">
        <ele>368.5963</ele>
        <time>2015-04-26T11:38:45Z</time>
      </trkpt>
      <trkpt lat="45.70814" lon="5.61208">
        <ele>368.49246</ele>
        <time>2015-04-26T11:38:49Z</time>
      </trkpt>
      <trkpt lat="45.70821" lon="5.61202">
        <ele>368.49246</ele>
        <time>2015-04-26T11:38:55Z</time>
      </trkpt>
      <trkpt lat="45.70827" lon="5.612">
        <ele>368.27338</ele>
        <time>2015-04-26T11:38:59Z</time>
      </trkpt>
      <trkpt lat="45.70831" lon="5.61194">
        <ele>368.27338</ele>
        <time>2015-04-26T11:39:05Z</time>
      </trkpt>
      <trkpt lat="45.70835" lon="5.61188">
        <ele>367.45724</ele>
        <time>2015-04-26T11:39:09Z</time>
      </trkpt>
      <trkpt lat="45.70839" lon="5.6118">
        <ele>367.45724</ele>
        <time>2015-04-26T11:39:14Z</time>
      </trkpt>
      <trkpt lat="45.70843" lon="5.61176">
        <ele>366.59366</ele>
        <time>2015-04-26T11:39:18Z</time>
      </trkpt>
      <trkpt lat="45.70846" lon="5.61174">
        <ele>366.59366</ele>
        <time>2015-04-26T11:39:23Z</time>
      </trkpt>
      <trkpt lat="45.70852" lon="5.61174">
        <ele>366.3218</ele>
        <time>2015-04-26T11:39:30Z</time>
      </trkpt>
      <trkpt lat="45.70856" lon="5.61174">
        <ele>366.3218</ele>
        <time>2015-04-26T11:39:35Z</time>
      </trkpt>
      <trkpt lat="45.70861" lon="5.61176">
        <ele>366.35318</ele>
        <time>2015-04-26T11:39:38Z</time>
      </trkpt>
      <trkpt lat="45.70874" lon="5.61176">
        <ele>366.69342</ele>
        <time>2015-04-26T11:39:43Z</time>
      </trkpt>
      <trkpt lat="45.70878" lon="5.61178">
        <ele>366.69342</ele>
        <time>2015-04-26T11:39:48Z</time>
      </trkpt>
      <trkpt lat="45.70881" lon="5.61178">
        <ele>366.69342</ele>
        <time>2015-04-26T11:39:53Z</time>
      </trkpt>
      <trkpt lat="45.70884" lon="5.61181">
        <ele>366.9579</ele>
        <time>2015-04-26T11:39:58Z</time>
      </trkpt>
      <trkpt lat="45.70889" lon="5.61183">
        <ele>366.9579</ele>
        <time>2015-04-26T11:40:03Z</time>
      </trkpt>
      <trkpt lat="45.70892" lon="5.61183">
        <ele>366.9579</ele>
        <time>2015-04-26T11:40:08Z</time>
      </trkpt>
      <trkpt lat="45.70898" lon="5.61184">
        <ele>367.38126</ele>
        <time>2015-04-26T11:40:13Z</time>
      </trkpt>
      <trkpt lat="45.70905" lon="5.61185">
        <ele>367.38126</ele>
        <time>2015-04-26T11:40:18Z</time>
      </trkpt>
      <trkpt lat="45.70908" lon="5.61185">
        <ele>367.143</ele>
        <time>2015-04-26T11:40:23Z</time>
      </trkpt>
      <trkpt lat="45.70912" lon="5.61186">
        <ele>367.143</ele>
        <time>2015-04-26T11:40:28Z</time>
      </trkpt>
      <trkpt lat="45.70914" lon="5.61188">
        <ele>367.143</ele>
        <time>2015-04-26T11:40:33Z</time>
      </trkpt>
      <trkpt lat="45.70917" lon="5.61189">
        <ele>367.6608</ele>
        <time>2015-04-26T11:40:38Z</time>
      </trkpt>
      <trkpt lat="45.70923" lon="5.61188">
        <ele>367.6608</ele>
        <time>2015-04-26T11:40:43Z</time>
      </trkpt>
      <trkpt lat="45.70934" lon="5.61185">
        <ele>366.88834</ele>
        <time>2015-04-26T11:40:48Z</time>
      </trkpt>
      <trkpt lat="45.70941" lon="5.6119">
        <ele>366.88834</ele>
        <time>2015-04-26T11:40:53Z</time>
      </trkpt>
      <trkpt lat="45.70953" lon="5.61191">
        <ele>366.3775</ele>
        <time>2015-04-26T11:40:58Z</time>
      </trkpt>
      <trkpt lat="45.70963" lon="5.61199">
        <ele>365.5336</ele>
        <time>2015-04-26T11:41:03Z</time>
      </trkpt>
      <trkpt lat="45.70977" lon="5.61204">
        <ele>365.0314</ele>
        <time>2015-04-26T11:41:08Z</time>
      </trkpt>
      <trkpt lat="45.70991" lon="5.61209">
        <ele>365.33676</ele>
        <time>2015-04-26T11:41:13Z</time>
      </trkpt>
      <trkpt lat="45.71" lon="5.61214">
        <ele>365.6973</ele>
        <time>2015-04-26T11:41:18Z</time>
      </trkpt>
      <trkpt lat="45.7101" lon="5.61219">
        <ele>366.46777</ele>
        <time>2015-04-26T11:41:23Z</time>
      </trkpt>
      <trkpt lat="45.71012" lon="5.61227">
        <ele>366.46777</ele>
        <time>2015-04-26T11:41:28Z</time>
      </trkpt>
      <trkpt lat="45.71013" lon="5.61232">
        <ele>366.41937</ele>
        <time>2015-04-26T11:41:33Z</time>
      </trkpt>
      <trkpt lat="45.71012" lon="5.61243">
        <ele>366.41937</ele>
        <time>2015-04-26T11:41:38Z</time>
      </trkpt>
      <trkpt lat="45.71018" lon="5.61258">
        <ele>367.37018</ele>
        <time>2015-04-26T11:41:44Z</time>
      </trkpt>
      <trkpt lat="45.71022" lon="5.61268">
        <ele>367.37018</ele>
        <time>2015-04-26T11:41:50Z</time>
      </trkpt>
      <trkpt lat="45.71027" lon="5.61276">
        <ele>368.46555</ele>
        <time>2015-04-26T11:41:55Z</time>
      </trkpt>
      <trkpt lat="45.7103" lon="5.61281">
        <ele>368.46555</ele>
        <time>2015-04-26T11:42:00Z</time>
      </trkpt>
      <trkpt lat="45.71033" lon="5.61288">
        <ele>368.75473</ele>
        <time>2015-04-26T11:42:04Z</time>
      </trkpt>
      <trkpt lat="45.71035" lon="5.61307">
        <ele>369.90988</ele>
        <time>2015-04-26T11:42:09Z</time>
      </trkpt>
      <trkpt lat="45.71036" lon="5.61325">
        <ele>370.79755</ele>
        <time>2015-04-26T11:42:13Z</time>
      </trkpt>
      <trkpt lat="45.71039" lon="5.61334">
        <ele>370.79755</ele>
        <time>2015-04-26T11:42:18Z</time>
      </trkpt>
      <trkpt lat="45.71041" lon="5.61346">
        <ele>372.5587</ele>
        <time>2015-04-26T11:42:23Z</time>
      </trkpt>
      <trkpt lat="45.71042" lon="5.61351">
        <ele>372.5587</ele>
        <time>2015-04-26T11:42:28Z</time>
      </trkpt>
      <trkpt lat="45.71042" lon="5.61354">
        <ele>372.5587</ele>
        <time>2015-04-26T11:42:33Z</time>
      </trkpt>
      <trkpt lat="45.71043" lon="5.61363">
        <ele>374.77823</ele>
        <time>2015-04-26T11:42:38Z</time>
      </trkpt>
      <trkpt lat="45.71044" lon="5.61371">
        <ele>374.77823</ele>
        <time>2015-04-26T11:42:43Z</time>
      </trkpt>
      <trkpt lat="45.71047" lon="5.61381">
        <ele>376.6524</ele>
        <time>2015-04-26T11:42:48Z</time>
      </trkpt>
      <trkpt lat="45.71051" lon="5.61388">
        <ele>376.6524</ele>
        <time>2015-04-26T11:42:53Z</time>
      </trkpt>
      <trkpt lat="45.71054" lon="5.61393">
        <ele>377.62488</ele>
        <time>2015-04-26T11:42:58Z</time>
      </trkpt>
      <trkpt lat="45.71056" lon="5.61395">
        <ele>377.62488</ele>
        <time>2015-04-26T11:43:03Z</time>
      </trkpt>
      <trkpt lat="45.71056" lon="5.61395">
        <ele>377.62488</ele>
        <time>2015-04-26T11:43:08Z</time>
      </trkpt>
      <trkpt lat="45.71057" lon="5.61397">
        <ele>377.62488</ele>
        <time>2015-04-26T11:43:13Z</time>
      </trkpt>
      <trkpt lat="45.71057" lon="5.61397">
        <ele>377.62488</ele>
        <time>2015-04-26T11:43:18Z</time>
      </trkpt>
      <trkpt lat="45.71057" lon="5.61397">
        <ele>377.62488</ele>
        <time>2015-04-26T11:43:23Z</time>
      </trkpt>
      <trkpt lat="45.71058" lon="5.61398">
        <ele>377.62488</ele>
        <time>2015-04-26T11:43:28Z</time>
      </trkpt>
      <trkpt lat="45.71056" lon="5.61408">
        <ele>379.07068</ele>
        <time>2015-04-26T11:43:33Z</time>
      </trkpt>
      <trkpt lat="45.71054" lon="5.61416">
        <ele>379.07068</ele>
        <time>2015-04-26T11:43:38Z</time>
      </trkpt>
      <trkpt lat="45.71052" lon="5.61419">
        <ele>379.07068</ele>
        <time>2015-04-26T11:43:43Z</time>
      </trkpt>
      <trkpt lat="45.71052" lon="5.61417">
        <ele>380.59085</ele>
        <time>2015-04-26T11:43:48Z</time>
      </trkpt>
      <trkpt lat="45.7105" lon="5.6142">
        <ele>380.59085</ele>
        <time>2015-04-26T11:43:53Z</time>
      </trkpt>
      <trkpt lat="45.71052" lon="5.61427">
        <ele>380.59085</ele>
        <time>2015-04-26T11:43:58Z</time>
      </trkpt>
      <trkpt lat="45.71053" lon="5.61434">
        <ele>381.90216</ele>
        <time>2015-04-26T11:44:03Z</time>
      </trkpt>
      <trkpt lat="45.71053" lon="5.61443">
        <ele>381.90216</ele>
        <time>2015-04-26T11:44:09Z</time>
      </trkpt>
      <trkpt lat="45.71053" lon="5.61444">
        <ele>381.90216</ele>
        <time>2015-04-26T11:44:13Z</time>
      </trkpt>
      <trkpt lat="45.71053" lon="5.61444">
        <ele>381.90216</ele>
        <time>2015-04-26T11:44:20Z</time>
      </trkpt>
      <trkpt lat="45.71053" lon="5.61446">
        <ele>382.56985</ele>
        <time>2015-04-26T11:44:25Z</time>
      </trkpt>
      <trkpt lat="45.71053" lon="5.61449">
        <ele>382.56985</ele>
        <time>2015-04-26T11:44:30Z</time>
      </trkpt>
      <trkpt lat="45.71055" lon="5.61456">
        <ele>382.56985</ele>
        <time>2015-04-26T11:44:35Z</time>
      </trkpt>
      <trkpt lat="45.71057" lon="5.61463">
        <ele>382.0346</ele>
        <time>2015-04-26T11:44:38Z</time>
      </trkpt>
      <trkpt lat="45.71058" lon="5.61468">
        <ele>382.0346</ele>
        <time>2015-04-26T11:44:45Z</time>
      </trkpt>
      <trkpt lat="45.71063" lon="5.61475">
        <ele>382.08728</ele>
        <time>2015-04-26T11:44:49Z</time>
      </trkpt>
      <trkpt lat="45.71066" lon="5.61477">
        <ele>382.08728</ele>
        <time>2015-04-26T11:44:53Z</time>
      </trkpt>
      <trkpt lat="45.71067" lon="5.6148">
        <ele>382.08728</ele>
        <time>2015-04-26T11:45:00Z</time>
      </trkpt>
      <trkpt lat="45.71066" lon="5.61483">
        <ele>382.08728</ele>
        <time>2015-04-26T11:45:04Z</time>
      </trkpt>
      <trkpt lat="45.71064" lon="5.61489">
        <ele>381.27298</ele>
        <time>2015-04-26T11:45:10Z</time>
      </trkpt>
      <trkpt lat="45.71061" lon="5.61499">
        <ele>381.27298</ele>
        <time>2015-04-26T11:45:15Z</time>
      </trkpt>
      <trkpt lat="45.7106" lon="5.61504">
        <ele>379.7592</ele>
        <time>2015-04-26T11:45:19Z</time>
      </trkpt>
      <trkpt lat="45.7106" lon="5.61515">
        <ele>379.7592</ele>
        <time>2015-04-26T11:45:25Z</time>
      </trkpt>
      <trkpt lat="45.71067" lon="5.61523">
        <ele>378.65436</ele>
        <time>2015-04-26T11:45:30Z</time>
      </trkpt>
      <trkpt lat="45.7107" lon="5.61529">
        <ele>378.65436</ele>
        <time>2015-04-26T11:45:35Z</time>
      </trkpt>
      <trkpt lat="45.71074" lon="5.61536">
        <ele>377.21182</ele>
        <time>2015-04-26T11:45:40Z</time>
      </trkpt>
      <trkpt lat="45.71076" lon="5.61539">
        <ele>377.21182</ele>
        <time>2015-04-26T11:45:45Z</time>
      </trkpt>
      <trkpt lat="45.71077" lon="5.61544">
        <ele>377.21182</ele>
        <time>2015-04-26T11:45:50Z</time>
      </trkpt>
      <trkpt lat="45.7108" lon="5.61546">
        <ele>375.1442</ele>
        <time>2015-04-26T11:45:54Z</time>
      </trkpt>
      <trkpt lat="45.71082" lon="5.6155">
        <ele>375.1442</ele>
        <time>2015-04-26T11:45:59Z</time>
      </trkpt>
      <trkpt lat="45.71085" lon="5.61559">
        <ele>372.93643</ele>
        <time>2015-04-26T11:46:05Z</time>
      </trkpt>
      <trkpt lat="45.71086" lon="5.6156">
        <ele>372.93643</ele>
        <time>2015-04-26T11:46:08Z</time>
      </trkpt>
      <trkpt lat="45.7109" lon="5.61565">
        <ele>372.93643</ele>
        <time>2015-04-26T11:46:15Z</time>
      </trkpt>
      <trkpt lat="45.71093" lon="5.61566">
        <ele>370.87964</ele>
        <time>2015-04-26T11:46:20Z</time>
      </trkpt>
      <trkpt lat="45.71092" lon="5.61567">
        <ele>370.87964</ele>
        <time>2015-04-26T11:46:24Z</time>
      </trkpt>
      <trkpt lat="45.71093" lon="5.61568">
        <ele>370.87964</ele>
        <time>2015-04-26T11:46:29Z</time>
      </trkpt>
      <trkpt lat="45.71091" lon="5.61568">
        <ele>370.87964</ele>
        <time>2015-04-26T11:46:33Z</time>
      </trkpt>
      <trkpt lat="45.7109" lon="5.61576">
        <ele>368.24875</ele>
        <time>2015-04-26T11:46:38Z</time>
      </trkpt>
      <trkpt lat="45.71094" lon="5.61583">
        <ele>368.24875</ele>
        <time>2015-04-26T11:46:45Z</time>
      </trkpt>
      <trkpt lat="45.71097" lon="5.61592">
        <ele>365.46878</ele>
        <time>2015-04-26T11:46:50Z</time>
      </trkpt>
      <trkpt lat="45.711" lon="5.616">
        <ele>365.46878</ele>
        <time>2015-04-26T11:46:55Z</time>
      </trkpt>
      <trkpt lat="45.71103" lon="5.61606">
        <ele>363.20767</ele>
        <time>2015-04-26T11:46:59Z</time>
      </trkpt>
      <trkpt lat="45.71112" lon="5.61617">
        <ele>361.8954</ele>
        <time>2015-04-26T11:47:05Z</time>
      </trkpt>
      <trkpt lat="45.71111" lon="5.61619">
        <ele>361.8954</ele>
        <time>2015-04-26T11:47:09Z</time>
      </trkpt>
      <trkpt lat="45.71112" lon="5.61618">
        <ele>361.8954</ele>
        <time>2015-04-26T11:47:16Z</time>
      </trkpt>
      <trkpt lat="45.71111" lon="5.61619">
        <ele>361.8954</ele>
        <time>2015-04-26T11:47:19Z</time>
      </trkpt>
      <trkpt lat="45.7111" lon="5.61619">
        <ele>361.8954</ele>
        <time>2015-04-26T11:47:24Z</time>
      </trkpt>
      <trkpt lat="45.7111" lon="5.61619">
        <ele>361.8954</ele>
        <time>2015-04-26T11:47:29Z</time>
      </trkpt>
      <trkpt lat="45.7111" lon="5.61619">
        <ele>361.8954</ele>
        <time>2015-04-26T11:47:35Z</time>
      </trkpt>
      <trkpt lat="45.7111" lon="5.61619">
        <ele>361.8954</ele>
        <time>2015-04-26T11:47:40Z</time>
      </trkpt>
      <trkpt lat="45.7111" lon="5.61619">
        <ele>361.8954</ele>
        <time>2015-04-26T11:47:45Z</time>
      </trkpt>
      <trkpt lat="45.7111" lon="5.61619">
        <ele>361.8954</ele>
        <time>2015-04-26T11:47:50Z</time>
      </trkpt>
      <trkpt lat="45.71112" lon="5.61618">
        <ele>361.8954</ele>
        <time>2015-04-26T11:47:55Z</time>
      </trkpt>
      <trkpt lat="45.71116" lon="5.61615">
        <ele>360.58734</ele>
        <time>2015-04-26T11:47:58Z</time>
      </trkpt>
      <trkpt lat="45.71121" lon="5.61611">
        <ele>360.58734</ele>
        <time>2015-04-26T11:48:05Z</time>
      </trkpt>
      <trkpt lat="45.71123" lon="5.61611">
        <ele>360.58734</ele>
        <time>2015-04-26T11:48:09Z</time>
      </trkpt>
      <trkpt lat="45.71126" lon="5.61612">
        <ele>358.7541</ele>
        <time>2015-04-26T11:48:14Z</time>
      </trkpt>
      <trkpt lat="45.71129" lon="5.61611">
        <ele>358.7541</ele>
        <time>2015-04-26T11:48:20Z</time>
      </trkpt>
      <trkpt lat="45.71133" lon="5.61612">
        <ele>358.7541</ele>
        <time>2015-04-26T11:48:25Z</time>
      </trkpt>
      <trkpt lat="45.71142" lon="5.61613">
        <ele>357.00165</ele>
        <time>2015-04-26T11:48:28Z</time>
      </trkpt>
      <trkpt lat="45.71147" lon="5.61616">
        <ele>357.00165</ele>
        <time>2015-04-26T11:48:33Z</time>
      </trkpt>
      <trkpt lat="45.71148" lon="5.61617">
        <ele>357.00165</ele>
        <time>2015-04-26T11:48:38Z</time>
      </trkpt>
      <trkpt lat="45.71151" lon="5.61618">
        <ele>355.48773</ele>
        <time>2015-04-26T11:48:43Z</time>
      </trkpt>
      <trkpt lat="45.71151" lon="5.61618">
        <ele>355.48773</ele>
        <time>2015-04-26T11:48:48Z</time>
      </trkpt>
      <trkpt lat="45.71157" lon="5.61616">
        <ele>355.48773</ele>
        <time>2015-04-26T11:48:53Z</time>
      </trkpt>
      <trkpt lat="45.71162" lon="5.61616">
        <ele>354.34317</ele>
        <time>2015-04-26T11:48:58Z</time>
      </trkpt>
      <trkpt lat="45.71163" lon="5.61617">
        <ele>354.34317</ele>
        <time>2015-04-26T11:49:03Z</time>
      </trkpt>
      <trkpt lat="45.71175" lon="5.61614">
        <ele>352.39105</ele>
        <time>2015-04-26T11:49:08Z</time>
      </trkpt>
      <trkpt lat="45.71179" lon="5.61612">
        <ele>352.39105</ele>
        <time>2015-04-26T11:49:13Z</time>
      </trkpt>
      <trkpt lat="45.71182" lon="5.61612">
        <ele>352.39105</ele>
        <time>2015-04-26T11:49:18Z</time>
      </trkpt>
      <trkpt lat="45.71187" lon="5.6161">
        <ele>349.76804</ele>
        <time>2015-04-26T11:49:23Z</time>
      </trkpt>
      <trkpt lat="45.71192" lon="5.61609">
        <ele>349.76804</ele>
        <time>2015-04-26T11:49:28Z</time>
      </trkpt>
      <trkpt lat="45.71198" lon="5.61607">
        <ele>347.25095</ele>
        <time>2015-04-26T11:49:33Z</time>
      </trkpt>
      <trkpt lat="45.71201" lon="5.61605">
        <ele>347.25095</ele>
        <time>2015-04-26T11:49:38Z</time>
      </trkpt>
      <trkpt lat="45.7121" lon="5.616">
        <ele>344.50708</ele>
        <time>2015-04-26T11:49:43Z</time>
      </trkpt>
      <trkpt lat="45.71214" lon="5.61598">
        <ele>344.50708</ele>
        <time>2015-04-26T11:49:48Z</time>
      </trkpt>
      <trkpt lat="45.71219" lon="5.61597">
        <ele>341.1422</ele>
        <time>2015-04-26T11:49:53Z</time>
      </trkpt>
      <trkpt lat="45.71221" lon="5.61598">
        <ele>341.1422</ele>
        <time>2015-04-26T11:49:58Z</time>
      </trkpt>
      <trkpt lat="45.71225" lon="5.61597">
        <ele>341.1422</ele>
        <time>2015-04-26T11:50:03Z</time>
      </trkpt>
      <trkpt lat="45.71229" lon="5.61593">
        <ele>338.17612</ele>
        <time>2015-04-26T11:50:08Z</time>
      </trkpt>
      <trkpt lat="45.71238" lon="5.61593">
        <ele>335.875</ele>
        <time>2015-04-26T11:50:13Z</time>
      </trkpt>
      <trkpt lat="45.71244" lon="5.61592">
        <ele>335.875</ele>
        <time>2015-04-26T11:50:18Z</time>
      </trkpt>
      <trkpt lat="45.71245" lon="5.61591">
        <ele>335.875</ele>
        <time>2015-04-26T11:50:23Z</time>
      </trkpt>
      <trkpt lat="45.71249" lon="5.6159">
        <ele>334.58444</ele>
        <time>2015-04-26T11:50:28Z</time>
      </trkpt>
      <trkpt lat="45.71262" lon="5.61585">
        <ele>331.19162</ele>
        <time>2015-04-26T11:50:33Z</time>
      </trkpt>
      <trkpt lat="45.71273" lon="5.61583">
        <ele>326.65158</ele>
        <time>2015-04-26T11:50:38Z</time>
      </trkpt>
      <trkpt lat="45.71282" lon="5.61577">
        <ele>322.58716</ele>
        <time>2015-04-26T11:50:43Z</time>
      </trkpt>
      <trkpt lat="45.71295" lon="5.61576">
        <ele>319.13132</ele>
        <time>2015-04-26T11:50:48Z</time>
      </trkpt>
      <trkpt lat="45.71301" lon="5.61572">
        <ele>319.13132</ele>
        <time>2015-04-26T11:50:53Z</time>
      </trkpt>
      <trkpt lat="45.71306" lon="5.61567">
        <ele>317.25568</ele>
        <time>2015-04-26T11:50:58Z</time>
      </trkpt>
      <trkpt lat="45.71311" lon="5.61563">
        <ele>317.25568</ele>
        <time>2015-04-26T11:51:03Z</time>
      </trkpt>
      <trkpt lat="45.71316" lon="5.61558">
        <ele>315.1897</ele>
        <time>2015-04-26T11:51:08Z</time>
      </trkpt>
      <trkpt lat="45.71323" lon="5.61559">
        <ele>315.1897</ele>
        <time>2015-04-26T11:51:13Z</time>
      </trkpt>
      <trkpt lat="45.71326" lon="5.61554">
        <ele>311.98502</ele>
        <time>2015-04-26T11:51:20Z</time>
      </trkpt>
      <trkpt lat="45.71328" lon="5.61547">
        <ele>311.98502</ele>
        <time>2015-04-26T11:51:25Z</time>
      </trkpt>
      <trkpt lat="45.71331" lon="5.61541">
        <ele>309.7778</ele>
        <time>2015-04-26T11:51:29Z</time>
      </trkpt>
      <trkpt lat="45.71334" lon="5.61537">
        <ele>309.7778</ele>
        <time>2015-04-26T11:51:34Z</time>
      </trkpt>
      <trkpt lat="45.71341" lon="5.61531">
        <ele>307.93585</ele>
        <time>2015-04-26T11:51:38Z</time>
      </trkpt>
      <trkpt lat="45.71344" lon="5.61529">
        <ele>307.93585</ele>
        <time>2015-04-26T11:51:44Z</time>
      </trkpt>
      <trkpt lat="45.71347" lon="5.61527">
        <ele>307.93585</ele>
        <time>2015-04-26T11:51:49Z</time>
      </trkpt>
      <trkpt lat="45.7135" lon="5.61526">
        <ele>306.90985</ele>
        <time>2015-04-26T11:51:53Z</time>
      </trkpt>
      <trkpt lat="45.71357" lon="5.6152">
        <ele>306.90985</ele>
        <time>2015-04-26T11:52:00Z</time>
      </trkpt>
      <trkpt lat="45.71364" lon="5.61519">
        <ele>305.29904</ele>
        <time>2015-04-26T11:52:04Z</time>
      </trkpt>
      <trkpt lat="45.71368" lon="5.61519">
        <ele>305.29904</ele>
        <time>2015-04-26T11:52:09Z</time>
      </trkpt>
      <trkpt lat="45.71374" lon="5.61518">
        <ele>304.04074</ele>
        <time>2015-04-26T11:52:15Z</time>
      </trkpt>
      <trkpt lat="45.71375" lon="5.61518">
        <ele>304.04074</ele>
        <time>2015-04-26T11:52:20Z</time>
      </trkpt>
      <trkpt lat="45.7138" lon="5.61517">
        <ele>304.04074</ele>
        <time>2015-04-26T11:52:25Z</time>
      </trkpt>
      <trkpt lat="45.71391" lon="5.61513">
        <ele>302.3306</ele>
        <time>2015-04-26T11:52:29Z</time>
      </trkpt>
      <trkpt lat="45.71402" lon="5.61512">
        <ele>300.86554</ele>
        <time>2015-04-26T11:52:35Z</time>
      </trkpt>
      <trkpt lat="45.71412" lon="5.61508">
        <ele>299.9302</ele>
        <time>2015-04-26T11:52:40Z</time>
      </trkpt>
      <trkpt lat="45.71416" lon="5.61507">
        <ele>299.9302</ele>
        <time>2015-04-26T11:52:44Z</time>
      </trkpt>
      <trkpt lat="45.7142" lon="5.61506">
        <ele>299.9302</ele>
        <time>2015-04-26T11:52:50Z</time>
      </trkpt>
      <trkpt lat="45.71429" lon="5.61503">
        <ele>299.06613</ele>
        <time>2015-04-26T11:52:55Z</time>
      </trkpt>
      <trkpt lat="45.71437" lon="5.61502">
        <ele>299.06613</ele>
        <time>2015-04-26T11:53:00Z</time>
      </trkpt>
      <trkpt lat="45.71442" lon="5.61501">
        <ele>297.89148</ele>
        <time>2015-04-26T11:53:04Z</time>
      </trkpt>
      <trkpt lat="45.71454" lon="5.615">
        <ele>297.01874</ele>
        <time>2015-04-26T11:53:08Z</time>
      </trkpt>
      <trkpt lat="45.7146" lon="5.61497">
        <ele>297.01874</ele>
        <time>2015-04-26T11:53:14Z</time>
      </trkpt>
      <trkpt lat="45.71474" lon="5.61496">
        <ele>296.74066</ele>
        <time>2015-04-26T11:53:20Z</time>
      </trkpt>
      <trkpt lat="45.71481" lon="5.61495">
        <ele>296.74066</ele>
        <time>2015-04-26T11:53:24Z</time>
      </trkpt>
      <trkpt lat="45.7149" lon="5.61495">
        <ele>297.0097</ele>
        <time>2015-04-26T11:53:30Z</time>
      </trkpt>
      <trkpt lat="45.71495" lon="5.61495">
        <ele>297.0097</ele>
        <time>2015-04-26T11:53:34Z</time>
      </trkpt>
      <trkpt lat="45.71503" lon="5.61491">
        <ele>297.175</ele>
        <time>2015-04-26T11:53:40Z</time>
      </trkpt>
      <trkpt lat="45.71508" lon="5.61491">
        <ele>297.175</ele>
        <time>2015-04-26T11:53:44Z</time>
      </trkpt>
      <trkpt lat="45.71514" lon="5.61491">
        <ele>297.0948</ele>
        <time>2015-04-26T11:53:50Z</time>
      </trkpt>
      <trkpt lat="45.71522" lon="5.6149">
        <ele>297.0948</ele>
        <time>2015-04-26T11:53:55Z</time>
      </trkpt>
      <trkpt lat="45.71527" lon="5.61487">
        <ele>297.24377</ele>
        <time>2015-04-26T11:53:59Z</time>
      </trkpt>
      <trkpt lat="45.7153" lon="5.61486">
        <ele>297.24377</ele>
        <time>2015-04-26T11:54:04Z</time>
      </trkpt>
      <trkpt lat="45.71537" lon="5.61487">
        <ele>296.98026</ele>
        <time>2015-04-26T11:54:10Z</time>
      </trkpt>
      <trkpt lat="45.71546" lon="5.61482">
        <ele>297.22397</ele>
        <time>2015-04-26T11:54:15Z</time>
      </trkpt>
      <trkpt lat="45.71554" lon="5.61479">
        <ele>297.84583</ele>
        <time>2015-04-26T11:54:20Z</time>
      </trkpt>
      <trkpt lat="45.71563" lon="5.61476">
        <ele>297.84583</ele>
        <time>2015-04-26T11:54:24Z</time>
      </trkpt>
      <trkpt lat="45.7157" lon="5.61473">
        <ele>298.653</ele>
        <time>2015-04-26T11:54:29Z</time>
      </trkpt>
      <trkpt lat="45.71577" lon="5.6147">
        <ele>298.653</ele>
        <time>2015-04-26T11:54:34Z</time>
      </trkpt>
      <trkpt lat="45.71583" lon="5.61467">
        <ele>299.45212</ele>
        <time>2015-04-26T11:54:40Z</time>
      </trkpt>
      <trkpt lat="45.7159" lon="5.61465">
        <ele>299.45212</ele>
        <time>2015-04-26T11:54:45Z</time>
      </trkpt>
      <trkpt lat="45.71597" lon="5.61463">
        <ele>300.7413</ele>
        <time>2015-04-26T11:54:48Z</time>
      </trkpt>
      <trkpt lat="45.71606" lon="5.6146">
        <ele>300.7413</ele>
        <time>2015-04-26T11:54:53Z</time>
      </trkpt>
      <trkpt lat="45.71616" lon="5.61457">
        <ele>301.68384</ele>
        <time>2015-04-26T11:54:58Z</time>
      </trkpt>
      <trkpt lat="45.71622" lon="5.61451">
        <ele>301.68384</ele>
        <time>2015-04-26T11:55:03Z</time>
      </trkpt>
      <trkpt lat="45.71628" lon="5.61447">
        <ele>302.41345</ele>
        <time>2015-04-26T11:55:08Z</time>
      </trkpt>
      <trkpt lat="45.71634" lon="5.61442">
        <ele>302.41345</ele>
        <time>2015-04-26T11:55:13Z</time>
      </trkpt>
      <trkpt lat="45.71641" lon="5.61438">
        <ele>303.05472</ele>
        <time>2015-04-26T11:55:18Z</time>
      </trkpt>
      <trkpt lat="45.71646" lon="5.61434">
        <ele>303.05472</ele>
        <time>2015-04-26T11:55:23Z</time>
      </trkpt>
      <trkpt lat="45.71652" lon="5.61429">
        <ele>303.42087</ele>
        <time>2015-04-26T11:55:28Z</time>
      </trkpt>
      <trkpt lat="45.71656" lon="5.61423">
        <ele>303.42087</ele>
        <time>2015-04-26T11:55:33Z</time>
      </trkpt>
      <trkpt lat="45.71665" lon="5.6142">
        <ele>303.51266</ele>
        <time>2015-04-26T11:55:38Z</time>
      </trkpt>
      <trkpt lat="45.71671" lon="5.61414">
        <ele>303.51266</ele>
        <time>2015-04-26T11:55:43Z</time>
      </trkpt>
      <trkpt lat="45.71675" lon="5.61403">
        <ele>304.0378</ele>
        <time>2015-04-26T11:55:48Z</time>
      </trkpt>
      <trkpt lat="45.71687" lon="5.61385">
        <ele>304.7143</ele>
        <time>2015-04-26T11:55:53Z</time>
      </trkpt>
      <trkpt lat="45.71701" lon="5.61367">
        <ele>305.82816</ele>
        <time>2015-04-26T11:55:58Z</time>
      </trkpt>
      <trkpt lat="45.71712" lon="5.61357">
        <ele>307.23984</ele>
        <time>2015-04-26T11:56:03Z</time>
      </trkpt>
      <trkpt lat="45.71724" lon="5.61347">
        <ele>308.97784</ele>
        <time>2015-04-26T11:56:08Z</time>
      </trkpt>
      <trkpt lat="45.71743" lon="5.61343">
        <ele>310.88055</ele>
        <time>2015-04-26T11:56:13Z</time>
      </trkpt>
      <trkpt lat="45.71761" lon="5.61346">
        <ele>313.01407</ele>
        <time>2015-04-26T11:56:18Z</time>
      </trkpt>
      <trkpt lat="45.71777" lon="5.61339">
        <ele>314.86276</ele>
        <time>2015-04-26T11:56:23Z</time>
      </trkpt>
      <trkpt lat="45.71807" lon="5.61323">
        <ele>316.32452</ele>
        <time>2015-04-26T11:56:28Z</time>
      </trkpt>
      <trkpt lat="45.71832" lon="5.61312">
        <ele>318.05548</ele>
        <time>2015-04-26T11:56:33Z</time>
      </trkpt>
      <trkpt lat="45.71853" lon="5.61296">
        <ele>319.5389</ele>
        <time>2015-04-26T11:56:38Z</time>
      </trkpt>
      <trkpt lat="45.71872" lon="5.61283">
        <ele>321.16165</ele>
        <time>2015-04-26T11:56:43Z</time>
      </trkpt>
      <trkpt lat="45.71883" lon="5.61271">
        <ele>322.76312</ele>
        <time>2015-04-26T11:56:48Z</time>
      </trkpt>
      <trkpt lat="45.71887" lon="5.61267">
        <ele>322.76312</ele>
        <time>2015-04-26T11:56:53Z</time>
      </trkpt>
      <trkpt lat="45.71894" lon="5.61263">
        <ele>324.43988</ele>
        <time>2015-04-26T11:56:58Z</time>
      </trkpt>
      <trkpt lat="45.71899" lon="5.6126">
        <ele>324.43988</ele>
        <time>2015-04-26T11:57:03Z</time>
      </trkpt>
      <trkpt lat="45.71907" lon="5.61255">
        <ele>325.8634</ele>
        <time>2015-04-26T11:57:09Z</time>
      </trkpt>
      <trkpt lat="45.71912" lon="5.61249">
        <ele>325.8634</ele>
        <time>2015-04-26T11:57:14Z</time>
      </trkpt>
      <trkpt lat="45.71916" lon="5.61247">
        <ele>326.5573</ele>
        <time>2015-04-26T11:57:20Z</time>
      </trkpt>
      <trkpt lat="45.71923" lon="5.61242">
        <ele>326.5573</ele>
        <time>2015-04-26T11:57:24Z</time>
      </trkpt>
      <trkpt lat="45.71926" lon="5.61238">
        <ele>326.7743</ele>
        <time>2015-04-26T11:57:28Z</time>
      </trkpt>
      <trkpt lat="45.71934" lon="5.61233">
        <ele>326.7743</ele>
        <time>2015-04-26T11:57:35Z</time>
      </trkpt>
      <trkpt lat="45.7194" lon="5.61227">
        <ele>327.29755</ele>
        <time>2015-04-26T11:57:40Z</time>
      </trkpt>
      <trkpt lat="45.71944" lon="5.61223">
        <ele>327.29755</ele>
        <time>2015-04-26T11:57:43Z</time>
      </trkpt>
      <trkpt lat="45.71948" lon="5.6122">
        <ele>326.7481</ele>
        <time>2015-04-26T11:57:50Z</time>
      </trkpt>
      <trkpt lat="45.71954" lon="5.61218">
        <ele>326.7481</ele>
        <time>2015-04-26T11:57:54Z</time>
      </trkpt>
      <trkpt lat="45.71958" lon="5.61214">
        <ele>326.08524</ele>
        <time>2015-04-26T11:57:59Z</time>
      </trkpt>
      <trkpt lat="45.71962" lon="5.61208">
        <ele>326.08524</ele>
        <time>2015-04-26T11:58:05Z</time>
      </trkpt>
      <trkpt lat="45.71963" lon="5.612">
        <ele>324.33914</ele>
        <time>2015-04-26T11:58:09Z</time>
      </trkpt>
      <trkpt lat="45.71967" lon="5.61189">
        <ele>324.33914</ele>
        <time>2015-04-26T11:58:13Z</time>
      </trkpt>
      <trkpt lat="45.71971" lon="5.61174">
        <ele>323.02115</ele>
        <time>2015-04-26T11:58:18Z</time>
      </trkpt>
      <trkpt lat="45.71975" lon="5.61159">
        <ele>321.78674</ele>
        <time>2015-04-26T11:58:23Z</time>
      </trkpt>
      <trkpt lat="45.71978" lon="5.61145">
        <ele>320.84982</ele>
        <time>2015-04-26T11:58:28Z</time>
      </trkpt>
      <trkpt lat="45.71983" lon="5.61133">
        <ele>319.8313</ele>
        <time>2015-04-26T11:58:33Z</time>
      </trkpt>
      <trkpt lat="45.71988" lon="5.61123">
        <ele>319.8313</ele>
        <time>2015-04-26T11:58:38Z</time>
      </trkpt>
      <trkpt lat="45.71993" lon="5.61116">
        <ele>318.68295</ele>
        <time>2015-04-26T11:58:43Z</time>
      </trkpt>
      <trkpt lat="45.72" lon="5.61109">
        <ele>318.68295</ele>
        <time>2015-04-26T11:58:48Z</time>
      </trkpt>
      <trkpt lat="45.72003" lon="5.61102">
        <ele>317.4758</ele>
        <time>2015-04-26T11:58:53Z</time>
      </trkpt>
      <trkpt lat="45.72011" lon="5.61098">
        <ele>317.4758</ele>
        <time>2015-04-26T11:58:58Z</time>
      </trkpt>
      <trkpt lat="45.72013" lon="5.61089">
        <ele>316.564</ele>
        <time>2015-04-26T11:59:03Z</time>
      </trkpt>
      <trkpt lat="45.72016" lon="5.61085">
        <ele>316.564</ele>
        <time>2015-04-26T11:59:08Z</time>
      </trkpt>
      <trkpt lat="45.72019" lon="5.61079">
        <ele>315.00677</ele>
        <time>2015-04-26T11:59:13Z</time>
      </trkpt>
      <trkpt lat="45.72023" lon="5.61074">
        <ele>315.00677</ele>
        <time>2015-04-26T11:59:18Z</time>
      </trkpt>
      <trkpt lat="45.72026" lon="5.61067">
        <ele>313.36096</ele>
        <time>2015-04-26T11:59:23Z</time>
      </trkpt>
      <trkpt lat="45.72032" lon="5.61056">
        <ele>312.89215</ele>
        <time>2015-04-26T11:59:28Z</time>
      </trkpt>
      <trkpt lat="45.72038" lon="5.61049">
        <ele>312.89215</ele>
        <time>2015-04-26T11:59:33Z</time>
      </trkpt>
      <trkpt lat="45.72048" lon="5.61044">
        <ele>313.21317</ele>
        <time>2015-04-26T11:59:38Z</time>
      </trkpt>
      <trkpt lat="45.72059" lon="5.6104">
        <ele>313.73254</ele>
        <time>2015-04-26T11:59:43Z</time>
      </trkpt>
      <trkpt lat="45.72069" lon="5.61036">
        <ele>314.46365</ele>
        <time>2015-04-26T11:59:48Z</time>
      </trkpt>
      <trkpt lat="45.72075" lon="5.61034">
        <ele>314.46365</ele>
        <time>2015-04-26T11:59:53Z</time>
      </trkpt>
      <trkpt lat="45.72081" lon="5.61032">
        <ele>315.02924</ele>
        <time>2015-04-26T11:59:58Z</time>
      </trkpt>
      <trkpt lat="45.72085" lon="5.6103">
        <ele>315.02924</ele>
        <time>2015-04-26T12:00:03Z</time>
      </trkpt>
      <trkpt lat="45.7209" lon="5.61029">
        <ele>315.57013</ele>
        <time>2015-04-26T12:00:08Z</time>
      </trkpt>
      <trkpt lat="45.72098" lon="5.61026">
        <ele>315.57013</ele>
        <time>2015-04-26T12:00:13Z</time>
      </trkpt>
      <trkpt lat="45.72102" lon="5.61024">
        <ele>315.8999</ele>
        <time>2015-04-26T12:00:18Z</time>
      </trkpt>
      <trkpt lat="45.72109" lon="5.61021">
        <ele>315.8999</ele>
        <time>2015-04-26T12:00:23Z</time>
      </trkpt>
      <trkpt lat="45.7212" lon="5.61015">
        <ele>316.10568</ele>
        <time>2015-04-26T12:00:28Z</time>
      </trkpt>
      <trkpt lat="45.72131" lon="5.6101">
        <ele>316.34076</ele>
        <time>2015-04-26T12:00:33Z</time>
      </trkpt>
      <trkpt lat="45.7214" lon="5.61005">
        <ele>316.8046</ele>
        <time>2015-04-26T12:00:38Z</time>
      </trkpt>
      <trkpt lat="45.72144" lon="5.61002">
        <ele>316.8046</ele>
        <time>2015-04-26T12:00:44Z</time>
      </trkpt>
      <trkpt lat="45.7215" lon="5.60996">
        <ele>317.422</ele>
        <time>2015-04-26T12:00:50Z</time>
      </trkpt>
      <trkpt lat="45.72156" lon="5.60991">
        <ele>317.422</ele>
        <time>2015-04-26T12:00:55Z</time>
      </trkpt>
      <trkpt lat="45.72164" lon="5.60986">
        <ele>318.1373</ele>
        <time>2015-04-26T12:00:58Z</time>
      </trkpt>
      <trkpt lat="45.72178" lon="5.60978">
        <ele>318.81216</ele>
        <time>2015-04-26T12:01:05Z</time>
      </trkpt>
      <trkpt lat="45.72184" lon="5.60974">
        <ele>318.81216</ele>
        <time>2015-04-26T12:01:08Z</time>
      </trkpt>
      <trkpt lat="45.72188" lon="5.60966">
        <ele>319.2465</ele>
        <time>2015-04-26T12:01:15Z</time>
      </trkpt>
      <trkpt lat="45.72194" lon="5.60954">
        <ele>319.58698</ele>
        <time>2015-04-26T12:01:19Z</time>
      </trkpt>
      <trkpt lat="45.72198" lon="5.60944">
        <ele>319.58698</ele>
        <time>2015-04-26T12:01:25Z</time>
      </trkpt>
      <trkpt lat="45.72203" lon="5.60935">
        <ele>319.49435</ele>
        <time>2015-04-26T12:01:29Z</time>
      </trkpt>
      <trkpt lat="45.72206" lon="5.60927">
        <ele>319.49435</ele>
        <time>2015-04-26T12:01:35Z</time>
      </trkpt>
      <trkpt lat="45.72208" lon="5.60922">
        <ele>319.15976</ele>
        <time>2015-04-26T12:01:39Z</time>
      </trkpt>
      <trkpt lat="45.72213" lon="5.60915">
        <ele>319.15976</ele>
        <time>2015-04-26T12:01:45Z</time>
      </trkpt>
      <trkpt lat="45.7222" lon="5.60908">
        <ele>318.86197</ele>
        <time>2015-04-26T12:01:50Z</time>
      </trkpt>
      <trkpt lat="45.72226" lon="5.60903">
        <ele>318.86197</ele>
        <time>2015-04-26T12:01:55Z</time>
      </trkpt>
      <trkpt lat="45.72232" lon="5.60898">
        <ele>319.30582</ele>
        <time>2015-04-26T12:01:59Z</time>
      </trkpt>
      <trkpt lat="45.72237" lon="5.60891">
        <ele>319.30582</ele>
        <time>2015-04-26T12:02:03Z</time>
      </trkpt>
      <trkpt lat="45.7224" lon="5.60886">
        <ele>319.90305</ele>
        <time>2015-04-26T12:02:08Z</time>
      </trkpt>
      <trkpt lat="45.72243" lon="5.60882">
        <ele>319.90305</ele>
        <time>2015-04-26T12:02:13Z</time>
      </trkpt>
      <trkpt lat="45.72252" lon="5.60876">
        <ele>320.2954</ele>
        <time>2015-04-26T12:02:18Z</time>
      </trkpt>
      <trkpt lat="45.72259" lon="5.60873">
        <ele>320.2954</ele>
        <time>2015-04-26T12:02:23Z</time>
      </trkpt>
      <trkpt lat="45.7226" lon="5.60871">
        <ele>321.33337</ele>
        <time>2015-04-26T12:02:28Z</time>
      </trkpt>
      <trkpt lat="45.72262" lon="5.60866">
        <ele>321.33337</ele>
        <time>2015-04-26T12:02:33Z</time>
      </trkpt>
      <trkpt lat="45.72273" lon="5.60862">
        <ele>322.40518</ele>
        <time>2015-04-26T12:02:38Z</time>
      </trkpt>
      <trkpt lat="45.72282" lon="5.60856">
        <ele>323.36188</ele>
        <time>2015-04-26T12:02:43Z</time>
      </trkpt>
      <trkpt lat="45.72292" lon="5.60852">
        <ele>324.3828</ele>
        <time>2015-04-26T12:02:48Z</time>
      </trkpt>
      <trkpt lat="45.723" lon="5.60848">
        <ele>324.3828</ele>
        <time>2015-04-26T12:02:53Z</time>
      </trkpt>
      <trkpt lat="45.72307" lon="5.60841">
        <ele>326.03754</ele>
        <time>2015-04-26T12:02:58Z</time>
      </trkpt>
      <trkpt lat="45.7231" lon="5.60835">
        <ele>326.03754</ele>
        <time>2015-04-26T12:03:03Z</time>
      </trkpt>
      <trkpt lat="45.72313" lon="5.60831">
        <ele>327.46854</ele>
        <time>2015-04-26T12:03:08Z</time>
      </trkpt>
      <trkpt lat="45.7232" lon="5.60825">
        <ele>327.46854</ele>
        <time>2015-04-26T12:03:13Z</time>
      </trkpt>
      <trkpt lat="45.72325" lon="5.6082">
        <ele>328.84753</ele>
        <time>2015-04-26T12:03:18Z</time>
      </trkpt>
      <trkpt lat="45.72329" lon="5.60815">
        <ele>328.84753</ele>
        <time>2015-04-26T12:03:23Z</time>
      </trkpt>
      <trkpt lat="45.72334" lon="5.6081">
        <ele>330.3626</ele>
        <time>2015-04-26T12:03:28Z</time>
      </trkpt>
      <trkpt lat="45.72341" lon="5.60808">
        <ele>330.3626</ele>
        <time>2015-04-26T12:03:33Z</time>
      </trkpt>
      <trkpt lat="45.72351" lon="5.60804">
        <ele>332.25977</ele>
        <time>2015-04-26T12:03:38Z</time>
      </trkpt>
      <trkpt lat="45.72359" lon="5.60799">
        <ele>332.25977</ele>
        <time>2015-04-26T12:03:43Z</time>
      </trkpt>
      <trkpt lat="45.72366" lon="5.60793">
        <ele>333.85797</ele>
        <time>2015-04-26T12:03:48Z</time>
      </trkpt>
      <trkpt lat="45.72372" lon="5.60787">
        <ele>333.85797</ele>
        <time>2015-04-26T12:03:53Z</time>
      </trkpt>
      <trkpt lat="45.72377" lon="5.60782">
        <ele>335.1469</ele>
        <time>2015-04-26T12:03:58Z</time>
      </trkpt>
      <trkpt lat="45.7238" lon="5.60776">
        <ele>335.1469</ele>
        <time>2015-04-26T12:04:03Z</time>
      </trkpt>
      <trkpt lat="45.72384" lon="5.60769">
        <ele>336.0458</ele>
        <time>2015-04-26T12:04:09Z</time>
      </trkpt>
      <trkpt lat="45.72389" lon="5.60765">
        <ele>336.0458</ele>
        <time>2015-04-26T12:04:14Z</time>
      </trkpt>
      <trkpt lat="45.72394" lon="5.60761">
        <ele>336.62515</ele>
        <time>2015-04-26T12:04:19Z</time>
      </trkpt>
      <trkpt lat="45.72402" lon="5.60757">
        <ele>336.62515</ele>
        <time>2015-04-26T12:04:24Z</time>
      </trkpt>
      <trkpt lat="45.72409" lon="5.60751">
        <ele>337.47</ele>
        <time>2015-04-26T12:04:30Z</time>
      </trkpt>
      <trkpt lat="45.72413" lon="5.60746">
        <ele>337.47</ele>
        <time>2015-04-26T12:04:35Z</time>
      </trkpt>
      <trkpt lat="45.72416" lon="5.60741">
        <ele>338.0265</ele>
        <time>2015-04-26T12:04:38Z</time>
      </trkpt>
      <trkpt lat="45.72424" lon="5.60734">
        <ele>339.09378</ele>
        <time>2015-04-26T12:04:43Z</time>
      </trkpt>
      <trkpt lat="45.7243" lon="5.60728">
        <ele>339.09378</ele>
        <time>2015-04-26T12:04:48Z</time>
      </trkpt>
      <trkpt lat="45.72435" lon="5.6072">
        <ele>339.92657</ele>
        <time>2015-04-26T12:04:53Z</time>
      </trkpt>
      <trkpt lat="45.72441" lon="5.60714">
        <ele>339.92657</ele>
        <time>2015-04-26T12:04:58Z</time>
      </trkpt>
      <trkpt lat="45.72446" lon="5.60706">
        <ele>341.3338</ele>
        <time>2015-04-26T12:05:03Z</time>
      </trkpt>
      <trkpt lat="45.7245" lon="5.60701">
        <ele>341.3338</ele>
        <time>2015-04-26T12:05:08Z</time>
      </trkpt>
      <trkpt lat="45.72453" lon="5.60695">
        <ele>341.5271</ele>
        <time>2015-04-26T12:05:13Z</time>
      </trkpt>
      <trkpt lat="45.72456" lon="5.60688">
        <ele>341.5271</ele>
        <time>2015-04-26T12:05:18Z</time>
      </trkpt>
      <trkpt lat="45.72458" lon="5.60683">
        <ele>341.12985</ele>
        <time>2015-04-26T12:05:23Z</time>
      </trkpt>
      <trkpt lat="45.72462" lon="5.60673">
        <ele>341.12985</ele>
        <time>2015-04-26T12:05:28Z</time>
      </trkpt>
      <trkpt lat="45.72464" lon="5.60664">
        <ele>340.90872</ele>
        <time>2015-04-26T12:05:33Z</time>
      </trkpt>
      <trkpt lat="45.72466" lon="5.60656">
        <ele>340.90872</ele>
        <time>2015-04-26T12:05:38Z</time>
      </trkpt>
      <trkpt lat="45.72472" lon="5.60648">
        <ele>340.3919</ele>
        <time>2015-04-26T12:05:43Z</time>
      </trkpt>
      <trkpt lat="45.72478" lon="5.60636">
        <ele>340.39682</ele>
        <time>2015-04-26T12:05:48Z</time>
      </trkpt>
      <trkpt lat="45.72481" lon="5.60625">
        <ele>340.39682</ele>
        <time>2015-04-26T12:05:53Z</time>
      </trkpt>
      <trkpt lat="45.72485" lon="5.60616">
        <ele>341.05978</ele>
        <time>2015-04-26T12:05:58Z</time>
      </trkpt>
      <trkpt lat="45.72488" lon="5.60608">
        <ele>341.05978</ele>
        <time>2015-04-26T12:06:03Z</time>
      </trkpt>
      <trkpt lat="45.72494" lon="5.606">
        <ele>341.85678</ele>
        <time>2015-04-26T12:06:08Z</time>
      </trkpt>
      <trkpt lat="45.72499" lon="5.60592">
        <ele>341.85678</ele>
        <time>2015-04-26T12:06:13Z</time>
      </trkpt>
      <trkpt lat="45.72502" lon="5.60585">
        <ele>342.60452</ele>
        <time>2015-04-26T12:06:18Z</time>
      </trkpt>
      <trkpt lat="45.72504" lon="5.60584">
        <ele>342.60452</ele>
        <time>2015-04-26T12:06:23Z</time>
      </trkpt>
      <trkpt lat="45.72505" lon="5.60585">
        <ele>342.60452</ele>
        <time>2015-04-26T12:06:28Z</time>
      </trkpt>
      <trkpt lat="45.72507" lon="5.60582">
        <ele>342.60452</ele>
        <time>2015-04-26T12:06:33Z</time>
      </trkpt>
      <trkpt lat="45.72512" lon="5.60577">
        <ele>343.3351</ele>
        <time>2015-04-26T12:06:38Z</time>
      </trkpt>
      <trkpt lat="45.72517" lon="5.60572">
        <ele>343.3351</ele>
        <time>2015-04-26T12:06:43Z</time>
      </trkpt>
      <trkpt lat="45.72521" lon="5.60568">
        <ele>344.3954</ele>
        <time>2015-04-26T12:06:48Z</time>
      </trkpt>
      <trkpt lat="45.72527" lon="5.60563">
        <ele>344.3954</ele>
        <time>2015-04-26T12:06:53Z</time>
      </trkpt>
      <trkpt lat="45.72528" lon="5.60562">
        <ele>344.3954</ele>
        <time>2015-04-26T12:06:58Z</time>
      </trkpt>
      <trkpt lat="45.72533" lon="5.60561">
        <ele>344.85205</ele>
        <time>2015-04-26T12:07:03Z</time>
      </trkpt>
      <trkpt lat="45.7254" lon="5.60564">
        <ele>344.85205</ele>
        <time>2015-04-26T12:07:08Z</time>
      </trkpt>
      <trkpt lat="45.72543" lon="5.60569">
        <ele>344.77875</ele>
        <time>2015-04-26T12:07:13Z</time>
      </trkpt>
      <trkpt lat="45.72542" lon="5.6057">
        <ele>344.77875</ele>
        <time>2015-04-26T12:07:18Z</time>
      </trkpt>
      <trkpt lat="45.72542" lon="5.6057">
        <ele>344.77875</ele>
        <time>2015-04-26T12:07:23Z</time>
      </trkpt>
      <trkpt lat="45.72542" lon="5.60572">
        <ele>344.77875</ele>
        <time>2015-04-26T12:07:28Z</time>
      </trkpt>
      <trkpt lat="45.72542" lon="5.60572">
        <ele>344.77875</ele>
        <time>2015-04-26T12:07:33Z</time>
      </trkpt>
      <trkpt lat="45.72545" lon="5.60581">
        <ele>345.10992</ele>
        <time>2015-04-26T12:07:39Z</time>
      </trkpt>
      <trkpt lat="45.72549" lon="5.60592">
        <ele>345.10992</ele>
        <time>2015-04-26T12:07:44Z</time>
      </trkpt>
      <trkpt lat="45.72553" lon="5.60599">
        <ele>345.5862</ele>
        <time>2015-04-26T12:07:48Z</time>
      </trkpt>
      <trkpt lat="45.72555" lon="5.6061">
        <ele>345.5862</ele>
        <time>2015-04-26T12:07:53Z</time>
      </trkpt>
      <trkpt lat="45.72557" lon="5.6062">
        <ele>345.9956</ele>
        <time>2015-04-26T12:07:58Z</time>
      </trkpt>
      <trkpt lat="45.72558" lon="5.60629">
        <ele>345.9956</ele>
        <time>2015-04-26T12:08:03Z</time>
      </trkpt>
      <trkpt lat="45.72561" lon="5.60635">
        <ele>346.1276</ele>
        <time>2015-04-26T12:08:08Z</time>
      </trkpt>
      <trkpt lat="45.72563" lon="5.60643">
        <ele>346.1276</ele>
        <time>2015-04-26T12:08:13Z</time>
      </trkpt>
      <trkpt lat="45.72569" lon="5.6065">
        <ele>345.87427</ele>
        <time>2015-04-26T12:08:18Z</time>
      </trkpt>
      <trkpt lat="45.72572" lon="5.60659">
        <ele>345.87427</ele>
        <time>2015-04-26T12:08:23Z</time>
      </trkpt>
      <trkpt lat="45.72579" lon="5.60668">
        <ele>345.64114</ele>
        <time>2015-04-26T12:08:28Z</time>
      </trkpt>
      <trkpt lat="45.72587" lon="5.60676">
        <ele>345.48682</ele>
        <time>2015-04-26T12:08:33Z</time>
      </trkpt>
      <trkpt lat="45.72593" lon="5.60684">
        <ele>345.48682</ele>
        <time>2015-04-26T12:08:38Z</time>
      </trkpt>
      <trkpt lat="45.72599" lon="5.60692">
        <ele>345.71036</ele>
        <time>2015-04-26T12:08:43Z</time>
      </trkpt>
      <trkpt lat="45.72603" lon="5.60698">
        <ele>345.71036</ele>
        <time>2015-04-26T12:08:48Z</time>
      </trkpt>
      <trkpt lat="45.72609" lon="5.60706">
        <ele>346.0546</ele>
        <time>2015-04-26T12:08:53Z</time>
      </trkpt>
      <trkpt lat="45.72614" lon="5.60713">
        <ele>346.0546</ele>
        <time>2015-04-26T12:08:58Z</time>
      </trkpt>
      <trkpt lat="45.72619" lon="5.6072">
        <ele>346.5258</ele>
        <time>2015-04-26T12:09:03Z</time>
      </trkpt>
      <trkpt lat="45.72622" lon="5.60727">
        <ele>346.5258</ele>
        <time>2015-04-26T12:09:08Z</time>
      </trkpt>
      <trkpt lat="45.72619" lon="5.60735">
        <ele>346.25034</ele>
        <time>2015-04-26T12:09:13Z</time>
      </trkpt>
      <trkpt lat="45.72614" lon="5.60742">
        <ele>346.25034</ele>
        <time>2015-04-26T12:09:18Z</time>
      </trkpt>
      <trkpt lat="45.7261" lon="5.60749">
        <ele>345.99173</ele>
        <time>2015-04-26T12:09:23Z</time>
      </trkpt>
      <trkpt lat="45.72607" lon="5.60758">
        <ele>345.99173</ele>
        <time>2015-04-26T12:09:28Z</time>
      </trkpt>
      <trkpt lat="45.72603" lon="5.60767">
        <ele>345.33313</ele>
        <time>2015-04-26T12:09:33Z</time>
      </trkpt>
      <trkpt lat="45.72599" lon="5.60775">
        <ele>345.33313</ele>
        <time>2015-04-26T12:09:38Z</time>
      </trkpt>
      <trkpt lat="45.72597" lon="5.60785">
        <ele>344.7974</ele>
        <time>2015-04-26T12:09:43Z</time>
      </trkpt>
      <trkpt lat="45.72597" lon="5.60796">
        <ele>344.7974</ele>
        <time>2015-04-26T12:09:48Z</time>
      </trkpt>
      <trkpt lat="45.72595" lon="5.60806">
        <ele>344.68115</ele>
        <time>2015-04-26T12:09:54Z</time>
      </trkpt>
      <trkpt lat="45.72595" lon="5.60813">
        <ele>344.68115</ele>
        <time>2015-04-26T12:10:00Z</time>
      </trkpt>
      <trkpt lat="45.72594" lon="5.60824">
        <ele>344.91226</ele>
        <time>2015-04-26T12:10:05Z</time>
      </trkpt>
      <trkpt lat="45.72593" lon="5.60834">
        <ele>344.91226</ele>
        <time>2015-04-26T12:10:10Z</time>
      </trkpt>
      <trkpt lat="45.72593" lon="5.60844">
        <ele>345.13455</ele>
        <time>2015-04-26T12:10:14Z</time>
      </trkpt>
      <trkpt lat="45.72593" lon="5.60854">
        <ele>345.13455</ele>
        <time>2015-04-26T12:10:18Z</time>
      </trkpt>
      <trkpt lat="45.72593" lon="5.60868">
        <ele>345.83942</ele>
        <time>2015-04-26T12:10:25Z</time>
      </trkpt>
      <trkpt lat="45.72591" lon="5.6088">
        <ele>345.83942</ele>
        <time>2015-04-26T12:10:29Z</time>
      </trkpt>
      <trkpt lat="45.72592" lon="5.60887">
        <ele>346.64496</ele>
        <time>2015-04-26T12:10:35Z</time>
      </trkpt>
      <trkpt lat="45.72592" lon="5.60896">
        <ele>346.64496</ele>
        <time>2015-04-26T12:10:39Z</time>
      </trkpt>
      <trkpt lat="45.72592" lon="5.60911">
        <ele>347.21143</ele>
        <time>2015-04-26T12:10:45Z</time>
      </trkpt>
      <trkpt lat="45.72591" lon="5.6092">
        <ele>347.21143</ele>
        <time>2015-04-26T12:10:49Z</time>
      </trkpt>
      <trkpt lat="45.72591" lon="5.60929">
        <ele>347.167</ele>
        <time>2015-04-26T12:10:55Z</time>
      </trkpt>
      <trkpt lat="45.72591" lon="5.60941">
        <ele>347.167</ele>
        <time>2015-04-26T12:11:00Z</time>
      </trkpt>
      <trkpt lat="45.7259" lon="5.60951">
        <ele>346.9614</ele>
        <time>2015-04-26T12:11:03Z</time>
      </trkpt>
      <trkpt lat="45.7259" lon="5.60961">
        <ele>346.9614</ele>
        <time>2015-04-26T12:11:10Z</time>
      </trkpt>
      <trkpt lat="45.72589" lon="5.60968">
        <ele>346.63712</ele>
        <time>2015-04-26T12:11:14Z</time>
      </trkpt>
      <trkpt lat="45.72586" lon="5.6098">
        <ele>346.63712</ele>
        <time>2015-04-26T12:11:20Z</time>
      </trkpt>
      <trkpt lat="45.72584" lon="5.60988">
        <ele>345.70056</ele>
        <time>2015-04-26T12:11:25Z</time>
      </trkpt>
      <trkpt lat="45.72584" lon="5.60995">
        <ele>345.70056</ele>
        <time>2015-04-26T12:11:29Z</time>
      </trkpt>
      <trkpt lat="45.72583" lon="5.61003">
        <ele>344.44547</ele>
        <time>2015-04-26T12:11:34Z</time>
      </trkpt>
      <trkpt lat="45.72583" lon="5.61009">
        <ele>344.44547</ele>
        <time>2015-04-26T12:11:39Z</time>
      </trkpt>
      <trkpt lat="45.7258" lon="5.61019">
        <ele>342.85663</ele>
        <time>2015-04-26T12:11:44Z</time>
      </trkpt>
      <trkpt lat="45.72582" lon="5.61025">
        <ele>342.85663</ele>
        <time>2015-04-26T12:11:49Z</time>
      </trkpt>
      <trkpt lat="45.72581" lon="5.61034">
        <ele>341.4108</ele>
        <time>2015-04-26T12:11:55Z</time>
      </trkpt>
      <trkpt lat="45.72582" lon="5.6104">
        <ele>341.4108</ele>
        <time>2015-04-26T12:11:59Z</time>
      </trkpt>
      <trkpt lat="45.72584" lon="5.61047">
        <ele>339.30984</ele>
        <time>2015-04-26T12:12:05Z</time>
      </trkpt>
      <trkpt lat="45.72588" lon="5.61056">
        <ele>339.30984</ele>
        <time>2015-04-26T12:12:09Z</time>
      </trkpt>
      <trkpt lat="45.72596" lon="5.61062">
        <ele>337.4301</ele>
        <time>2015-04-26T12:12:13Z</time>
      </trkpt>
      <trkpt lat="45.72602" lon="5.61068">
        <ele>337.4301</ele>
        <time>2015-04-26T12:12:18Z</time>
      </trkpt>
      <trkpt lat="45.7261" lon="5.61076">
        <ele>335.67493</ele>
        <time>2015-04-26T12:12:23Z</time>
      </trkpt>
      <trkpt lat="45.72616" lon="5.61085">
        <ele>335.67493</ele>
        <time>2015-04-26T12:12:28Z</time>
      </trkpt>
      <trkpt lat="45.72619" lon="5.61095">
        <ele>333.34897</ele>
        <time>2015-04-26T12:12:35Z</time>
      </trkpt>
      <trkpt lat="45.7262" lon="5.61101">
        <ele>333.34897</ele>
        <time>2015-04-26T12:12:39Z</time>
      </trkpt>
      <trkpt lat="45.72626" lon="5.61115">
        <ele>330.6022</ele>
        <time>2015-04-26T12:12:45Z</time>
      </trkpt>
      <trkpt lat="45.72626" lon="5.61125">
        <ele>330.6022</ele>
        <time>2015-04-26T12:12:50Z</time>
      </trkpt>
      <trkpt lat="45.72624" lon="5.61133">
        <ele>328.1221</ele>
        <time>2015-04-26T12:12:54Z</time>
      </trkpt>
      <trkpt lat="45.72619" lon="5.61147">
        <ele>325.93958</ele>
        <time>2015-04-26T12:13:00Z</time>
      </trkpt>
      <trkpt lat="45.72614" lon="5.61157">
        <ele>325.93958</ele>
        <time>2015-04-26T12:13:05Z</time>
      </trkpt>
      <trkpt lat="45.72611" lon="5.61166">
        <ele>324.48578</ele>
        <time>2015-04-26T12:13:09Z</time>
      </trkpt>
      <trkpt lat="45.72609" lon="5.61181">
        <ele>323.36536</ele>
        <time>2015-04-26T12:13:15Z</time>
      </trkpt>
      <trkpt lat="45.72609" lon="5.61192">
        <ele>323.36536</ele>
        <time>2015-04-26T12:13:20Z</time>
      </trkpt>
      <trkpt lat="45.7261" lon="5.61201">
        <ele>322.68646</ele>
        <time>2015-04-26T12:13:24Z</time>
      </trkpt>
      <trkpt lat="45.72612" lon="5.61211">
        <ele>322.68646</ele>
        <time>2015-04-26T12:13:30Z</time>
      </trkpt>
      <trkpt lat="45.72609" lon="5.61223">
        <ele>321.97153</ele>
        <time>2015-04-26T12:13:34Z</time>
      </trkpt>
      <trkpt lat="45.72605" lon="5.61233">
        <ele>321.97153</ele>
        <time>2015-04-26T12:13:39Z</time>
      </trkpt>
      <trkpt lat="45.72603" lon="5.61242">
        <ele>321.68585</ele>
        <time>2015-04-26T12:13:45Z</time>
      </trkpt>
      <trkpt lat="45.726" lon="5.61253">
        <ele>321.68585</ele>
        <time>2015-04-26T12:13:49Z</time>
      </trkpt>
      <trkpt lat="45.72598" lon="5.61261">
        <ele>321.72604</ele>
        <time>2015-04-26T12:13:55Z</time>
      </trkpt>
      <trkpt lat="45.72596" lon="5.6127">
        <ele>321.72604</ele>
        <time>2015-04-26T12:14:00Z</time>
      </trkpt>
      <trkpt lat="45.72597" lon="5.61278">
        <ele>321.56287</ele>
        <time>2015-04-26T12:14:05Z</time>
      </trkpt>
      <trkpt lat="45.72594" lon="5.61287">
        <ele>321.56287</ele>
        <time>2015-04-26T12:14:10Z</time>
      </trkpt>
      <trkpt lat="45.72592" lon="5.61294">
        <ele>321.23972</ele>
        <time>2015-04-26T12:14:14Z</time>
      </trkpt>
      <trkpt lat="45.72587" lon="5.61301">
        <ele>321.23972</ele>
        <time>2015-04-26T12:14:20Z</time>
      </trkpt>
      <trkpt lat="45.72584" lon="5.61306">
        <ele>320.59528</ele>
        <time>2015-04-26T12:14:24Z</time>
      </trkpt>
      <trkpt lat="45.7258" lon="5.61317">
        <ele>320.59528</ele>
        <time>2015-04-26T12:14:30Z</time>
      </trkpt>
      <trkpt lat="45.72579" lon="5.61325">
        <ele>320.4321</ele>
        <time>2015-04-26T12:14:34Z</time>
      </trkpt>
      <trkpt lat="45.72577" lon="5.61333">
        <ele>320.4321</ele>
        <time>2015-04-26T12:14:40Z</time>
      </trkpt>
      <trkpt lat="45.72576" lon="5.61343">
        <ele>320.51233</ele>
        <time>2015-04-26T12:14:44Z</time>
      </trkpt>
      <trkpt lat="45.72577" lon="5.61359">
        <ele>320.48514</ele>
        <time>2015-04-26T12:14:50Z</time>
      </trkpt>
      <trkpt lat="45.72578" lon="5.61367">
        <ele>320.48514</ele>
        <time>2015-04-26T12:14:53Z</time>
      </trkpt>
      <trkpt lat="45.72583" lon="5.61373">
        <ele>319.7951</ele>
        <time>2015-04-26T12:15:00Z</time>
      </trkpt>
      <trkpt lat="45.72592" lon="5.61378">
        <ele>318.967</ele>
        <time>2015-04-26T12:15:05Z</time>
      </trkpt>
      <trkpt lat="45.726" lon="5.61384">
        <ele>318.967</ele>
        <time>2015-04-26T12:15:09Z</time>
      </trkpt>
      <trkpt lat="45.72619" lon="5.61394">
        <ele>318.4874</ele>
        <time>2015-04-26T12:15:15Z</time>
      </trkpt>
      <trkpt lat="45.72639" lon="5.6141">
        <ele>317.9702</ele>
        <time>2015-04-26T12:15:20Z</time>
      </trkpt>
      <trkpt lat="45.72659" lon="5.61425">
        <ele>317.63425</ele>
        <time>2015-04-26T12:15:24Z</time>
      </trkpt>
      <trkpt lat="45.72669" lon="5.61435">
        <ele>317.49426</ele>
        <time>2015-04-26T12:15:29Z</time>
      </trkpt>
      <trkpt lat="45.72687" lon="5.61452">
        <ele>317.24643</ele>
        <time>2015-04-26T12:15:35Z</time>
      </trkpt>
      <trkpt lat="45.72698" lon="5.61464">
        <ele>317.719</ele>
        <time>2015-04-26T12:15:40Z</time>
      </trkpt>
      <trkpt lat="45.72705" lon="5.61473">
        <ele>317.719</ele>
        <time>2015-04-26T12:15:44Z</time>
      </trkpt>
      <trkpt lat="45.7271" lon="5.61478">
        <ele>319.1298</ele>
        <time>2015-04-26T12:15:48Z</time>
      </trkpt>
      <trkpt lat="45.72717" lon="5.61485">
        <ele>319.1298</ele>
        <time>2015-04-26T12:15:54Z</time>
      </trkpt>
      <trkpt lat="45.72722" lon="5.61488">
        <ele>320.4963</ele>
        <time>2015-04-26T12:15:59Z</time>
      </trkpt>
      <trkpt lat="45.72724" lon="5.61492">
        <ele>320.4963</ele>
        <time>2015-04-26T12:16:04Z</time>
      </trkpt>
      <trkpt lat="45.72732" lon="5.61497">
        <ele>321.5568</ele>
        <time>2015-04-26T12:16:08Z</time>
      </trkpt>
      <trkpt lat="45.72749" lon="5.61508">
        <ele>322.5884</ele>
        <time>2015-04-26T12:16:15Z</time>
      </trkpt>
      <trkpt lat="45.72771" lon="5.61523">
        <ele>323.02658</ele>
        <time>2015-04-26T12:16:19Z</time>
      </trkpt>
      <trkpt lat="45.72785" lon="5.61543">
        <ele>323.34436</ele>
        <time>2015-04-26T12:16:24Z</time>
      </trkpt>
      <trkpt lat="45.72799" lon="5.61561">
        <ele>323.64896</ele>
        <time>2015-04-26T12:16:28Z</time>
      </trkpt>
      <trkpt lat="45.7281" lon="5.61564">
        <ele>324.31354</ele>
        <time>2015-04-26T12:16:35Z</time>
      </trkpt>
      <trkpt lat="45.72816" lon="5.61565">
        <ele>324.31354</ele>
        <time>2015-04-26T12:16:39Z</time>
      </trkpt>
      <trkpt lat="45.72821" lon="5.61572">
        <ele>324.09775</ele>
        <time>2015-04-26T12:16:45Z</time>
      </trkpt>
      <trkpt lat="45.72829" lon="5.61574">
        <ele>324.09775</ele>
        <time>2015-04-26T12:16:48Z</time>
      </trkpt>
      <trkpt lat="45.72836" lon="5.61577">
        <ele>323.51212</ele>
        <time>2015-04-26T12:16:54Z</time>
      </trkpt>
      <trkpt lat="45.7284" lon="5.61572">
        <ele>323.51212</ele>
        <time>2015-04-26T12:17:00Z</time>
      </trkpt>
      <trkpt lat="45.72844" lon="5.61571">
        <ele>323.51212</ele>
        <time>2015-04-26T12:17:05Z</time>
      </trkpt>
      <trkpt lat="45.72851" lon="5.6157">
        <ele>322.67053</ele>
        <time>2015-04-26T12:17:09Z</time>
      </trkpt>
      <trkpt lat="45.7286" lon="5.61571">
        <ele>321.82333</ele>
        <time>2015-04-26T12:17:15Z</time>
      </trkpt>
      <trkpt lat="45.72866" lon="5.61571">
        <ele>321.82333</ele>
        <time>2015-04-26T12:17:19Z</time>
      </trkpt>
      <trkpt lat="45.72872" lon="5.61571">
        <ele>320.23703</ele>
        <time>2015-04-26T12:17:23Z</time>
      </trkpt>
      <trkpt lat="45.72879" lon="5.61572">
        <ele>320.23703</ele>
        <time>2015-04-26T12:17:30Z</time>
      </trkpt>
      <trkpt lat="45.72885" lon="5.61572">
        <ele>318.5023</ele>
        <time>2015-04-26T12:17:35Z</time>
      </trkpt>
      <trkpt lat="45.72891" lon="5.6157">
        <ele>318.5023</ele>
        <time>2015-04-26T12:17:40Z</time>
      </trkpt>
      <trkpt lat="45.72898" lon="5.61569">
        <ele>316.77774</ele>
        <time>2015-04-26T12:17:45Z</time>
      </trkpt>
      <trkpt lat="45.72901" lon="5.61571">
        <ele>316.77774</ele>
        <time>2015-04-26T12:17:50Z</time>
      </trkpt>
      <trkpt lat="45.72905" lon="5.61567">
        <ele>316.77774</ele>
        <time>2015-04-26T12:17:54Z</time>
      </trkpt>
      <trkpt lat="45.72908" lon="5.61564">
        <ele>313.6683</ele>
        <time>2015-04-26T12:18:00Z</time>
      </trkpt>
      <trkpt lat="45.7291" lon="5.61561">
        <ele>313.6683</ele>
        <time>2015-04-26T12:18:04Z</time>
      </trkpt>
      <trkpt lat="45.72917" lon="5.61559">
        <ele>310.50818</ele>
        <time>2015-04-26T12:18:10Z</time>
      </trkpt>
      <trkpt lat="45.72923" lon="5.61559">
        <ele>310.50818</ele>
        <time>2015-04-26T12:18:15Z</time>
      </trkpt>
      <trkpt lat="45.72929" lon="5.6156">
        <ele>306.64572</ele>
        <time>2015-04-26T12:18:20Z</time>
      </trkpt>
      <trkpt lat="45.72932" lon="5.6156">
        <ele>306.64572</ele>
        <time>2015-04-26T12:18:24Z</time>
      </trkpt>
      <trkpt lat="45.72937" lon="5.61557">
        <ele>306.64572</ele>
        <time>2015-04-26T12:18:30Z</time>
      </trkpt>
      <trkpt lat="45.72942" lon="5.61558">
        <ele>301.47916</ele>
        <time>2015-04-26T12:18:34Z</time>
      </trkpt>
      <trkpt lat="45.72949" lon="5.61557">
        <ele>301.47916</ele>
        <time>2015-04-26T12:18:39Z</time>
      </trkpt>
      <trkpt lat="45.72952" lon="5.61553">
        <ele>296.18378</ele>
        <time>2015-04-26T12:18:44Z</time>
      </trkpt>
      <trkpt lat="45.72968" lon="5.61548">
        <ele>292.3532</ele>
        <time>2015-04-26T12:18:50Z</time>
      </trkpt>
      <trkpt lat="45.72982" lon="5.61541">
        <ele>289.8746</ele>
        <time>2015-04-26T12:18:55Z</time>
      </trkpt>
      <trkpt lat="45.72985" lon="5.61538">
        <ele>289.8746</ele>
        <time>2015-04-26T12:19:00Z</time>
      </trkpt>
      <trkpt lat="45.7299" lon="5.61537">
        <ele>289.8746</ele>
        <time>2015-04-26T12:19:05Z</time>
      </trkpt>
      <trkpt lat="45.73" lon="5.61533">
        <ele>288.16385</ele>
        <time>2015-04-26T12:19:09Z</time>
      </trkpt>
      <trkpt lat="45.73007" lon="5.61529">
        <ele>288.16385</ele>
        <time>2015-04-26T12:19:13Z</time>
      </trkpt>
      <trkpt lat="45.73018" lon="5.61522">
        <ele>287.7006</ele>
        <time>2015-04-26T12:19:18Z</time>
      </trkpt>
      <trkpt lat="45.7303" lon="5.6152">
        <ele>288.20517</ele>
        <time>2015-04-26T12:19:23Z</time>
      </trkpt>
      <trkpt lat="45.73036" lon="5.61518">
        <ele>288.20517</ele>
        <time>2015-04-26T12:19:28Z</time>
      </trkpt>
      <trkpt lat="45.73045" lon="5.6151">
        <ele>289.87662</ele>
        <time>2015-04-26T12:19:33Z</time>
      </trkpt>
      <trkpt lat="45.73051" lon="5.61507">
        <ele>289.87662</ele>
        <time>2015-04-26T12:19:38Z</time>
      </trkpt>
      <trkpt lat="45.73055" lon="5.61503">
        <ele>291.0803</ele>
        <time>2015-04-26T12:19:43Z</time>
      </trkpt>
      <trkpt lat="45.73059" lon="5.61502">
        <ele>291.0803</ele>
        <time>2015-04-26T12:19:48Z</time>
      </trkpt>
      <trkpt lat="45.73063" lon="5.61494">
        <ele>291.96005</ele>
        <time>2015-04-26T12:19:53Z</time>
      </trkpt>
      <trkpt lat="45.73068" lon="5.6149">
        <ele>291.96005</ele>
        <time>2015-04-26T12:19:58Z</time>
      </trkpt>
      <trkpt lat="45.73075" lon="5.61489">
        <ele>292.07364</ele>
        <time>2015-04-26T12:20:03Z</time>
      </trkpt>
      <trkpt lat="45.73082" lon="5.61485">
        <ele>292.07364</ele>
        <time>2015-04-26T12:20:08Z</time>
      </trkpt>
      <trkpt lat="45.73092" lon="5.61479">
        <ele>292.46887</ele>
        <time>2015-04-26T12:20:13Z</time>
      </trkpt>
      <trkpt lat="45.73098" lon="5.61476">
        <ele>292.46887</ele>
        <time>2015-04-26T12:20:18Z</time>
      </trkpt>
      <trkpt lat="45.73103" lon="5.61472">
        <ele>292.2423</ele>
        <time>2015-04-26T12:20:23Z</time>
      </trkpt>
      <trkpt lat="45.73106" lon="5.61469">
        <ele>292.2423</ele>
        <time>2015-04-26T12:20:28Z</time>
      </trkpt>
      <trkpt lat="45.73109" lon="5.61465">
        <ele>292.2423</ele>
        <time>2015-04-26T12:20:33Z</time>
      </trkpt>
      <trkpt lat="45.73113" lon="5.61463">
        <ele>290.71716</ele>
        <time>2015-04-26T12:20:38Z</time>
      </trkpt>
      <trkpt lat="45.73118" lon="5.6146">
        <ele>290.71716</ele>
        <time>2015-04-26T12:20:43Z</time>
      </trkpt>
      <trkpt lat="45.73124" lon="5.61457">
        <ele>288.49493</ele>
        <time>2015-04-26T12:20:48Z</time>
      </trkpt>
      <trkpt lat="45.73138" lon="5.61445">
        <ele>288.13797</ele>
        <time>2015-04-26T12:20:53Z</time>
      </trkpt>
      <trkpt lat="45.73146" lon="5.61441">
        <ele>288.13797</ele>
        <time>2015-04-26T12:20:58Z</time>
      </trkpt>
      <trkpt lat="45.73158" lon="5.61444">
        <ele>288.55655</ele>
        <time>2015-04-26T12:21:03Z</time>
      </trkpt>
      <trkpt lat="45.73163" lon="5.61438">
        <ele>288.55655</ele>
        <time>2015-04-26T12:21:08Z</time>
      </trkpt>
      <trkpt lat="45.73169" lon="5.61433">
        <ele>289.0125</ele>
        <time>2015-04-26T12:21:13Z</time>
      </trkpt>
      <trkpt lat="45.73173" lon="5.6143">
        <ele>289.0125</ele>
        <time>2015-04-26T12:21:18Z</time>
      </trkpt>
      <trkpt lat="45.73179" lon="5.61424">
        <ele>289.0525</ele>
        <time>2015-04-26T12:21:23Z</time>
      </trkpt>
      <trkpt lat="45.73183" lon="5.6142">
        <ele>289.0525</ele>
        <time>2015-04-26T12:21:29Z</time>
      </trkpt>
      <trkpt lat="45.73187" lon="5.61416">
        <ele>288.1711</ele>
        <time>2015-04-26T12:21:35Z</time>
      </trkpt>
      <trkpt lat="45.7319" lon="5.61415">
        <ele>288.1711</ele>
        <time>2015-04-26T12:21:39Z</time>
      </trkpt>
      <trkpt lat="45.73192" lon="5.61412">
        <ele>288.1711</ele>
        <time>2015-04-26T12:21:44Z</time>
      </trkpt>
      <trkpt lat="45.73195" lon="5.61411">
        <ele>288.1711</ele>
        <time>2015-04-26T12:21:50Z</time>
      </trkpt>
      <trkpt lat="45.732" lon="5.61404">
        <ele>286.50793</ele>
        <time>2015-04-26T12:21:54Z</time>
      </trkpt>
      <trkpt lat="45.73204" lon="5.614">
        <ele>286.50793</ele>
        <time>2015-04-26T12:21:58Z</time>
      </trkpt>
      <trkpt lat="45.73211" lon="5.61397">
        <ele>284.39627</ele>
        <time>2015-04-26T12:22:05Z</time>
      </trkpt>
      <trkpt lat="45.73215" lon="5.61393">
        <ele>284.39627</ele>
        <time>2015-04-26T12:22:09Z</time>
      </trkpt>
      <trkpt lat="45.73219" lon="5.61389">
        <ele>281.69943</ele>
        <time>2015-04-26T12:22:15Z</time>
      </trkpt>
      <trkpt lat="45.73224" lon="5.61388">
        <ele>281.69943</ele>
        <time>2015-04-26T12:22:19Z</time>
      </trkpt>
      <trkpt lat="45.73232" lon="5.61386">
        <ele>280.81436</ele>
        <time>2015-04-26T12:22:24Z</time>
      </trkpt>
      <trkpt lat="45.73237" lon="5.61386">
        <ele>280.81436</ele>
        <time>2015-04-26T12:22:29Z</time>
      </trkpt>
      <trkpt lat="45.73243" lon="5.6138">
        <ele>279.8353</ele>
        <time>2015-04-26T12:22:35Z</time>
      </trkpt>
      <trkpt lat="45.73248" lon="5.61377">
        <ele>279.8353</ele>
        <time>2015-04-26T12:22:39Z</time>
      </trkpt>
      <trkpt lat="45.73256" lon="5.61367">
        <ele>279.5042</ele>
        <time>2015-04-26T12:22:45Z</time>
      </trkpt>
      <trkpt lat="45.7326" lon="5.61366">
        <ele>279.5042</ele>
        <time>2015-04-26T12:22:49Z</time>
      </trkpt>
      <trkpt lat="45.73267" lon="5.61362">
        <ele>278.73416</ele>
        <time>2015-04-26T12:22:55Z</time>
      </trkpt>
      <trkpt lat="45.73271" lon="5.61359">
        <ele>278.73416</ele>
        <time>2015-04-26T12:23:00Z</time>
      </trkpt>
      <trkpt lat="45.7328" lon="5.61352">
        <ele>279.0845</ele>
        <time>2015-04-26T12:23:04Z</time>
      </trkpt>
      <trkpt lat="45.73286" lon="5.61351">
        <ele>279.0845</ele>
        <time>2015-04-26T12:23:10Z</time>
      </trkpt>
      <trkpt lat="45.73295" lon="5.61346">
        <ele>279.99368</ele>
        <time>2015-04-26T12:23:13Z</time>
      </trkpt>
      <trkpt lat="45.73305" lon="5.61338">
        <ele>282.22247</ele>
        <time>2015-04-26T12:23:18Z</time>
      </trkpt>
      <trkpt lat="45.7331" lon="5.61332">
        <ele>282.22247</ele>
        <time>2015-04-26T12:23:23Z</time>
      </trkpt>
      <trkpt lat="45.73315" lon="5.61325">
        <ele>286.38565</ele>
        <time>2015-04-26T12:23:28Z</time>
      </trkpt>
      <trkpt lat="45.73322" lon="5.6132">
        <ele>286.38565</ele>
        <time>2015-04-26T12:23:33Z</time>
      </trkpt>
      <trkpt lat="45.73326" lon="5.61315">
        <ele>290.684</ele>
        <time>2015-04-26T12:23:38Z</time>
      </trkpt>
      <trkpt lat="45.73343" lon="5.61314">
        <ele>294.7904</ele>
        <time>2015-04-26T12:23:43Z</time>
      </trkpt>
      <trkpt lat="45.73355" lon="5.61312">
        <ele>298.54657</ele>
        <time>2015-04-26T12:23:48Z</time>
      </trkpt>
      <trkpt lat="45.73361" lon="5.61307">
        <ele>298.54657</ele>
        <time>2015-04-26T12:23:53Z</time>
      </trkpt>
      <trkpt lat="45.73367" lon="5.61308">
        <ele>302.36896</ele>
        <time>2015-04-26T12:23:58Z</time>
      </trkpt>
      <trkpt lat="45.73372" lon="5.61305">
        <ele>302.36896</ele>
        <time>2015-04-26T12:24:03Z</time>
      </trkpt>
      <trkpt lat="45.73376" lon="5.61305">
        <ele>306.06708</ele>
        <time>2015-04-26T12:24:08Z</time>
      </trkpt>
      <trkpt lat="45.73382" lon="5.61303">
        <ele>306.06708</ele>
        <time>2015-04-26T12:24:13Z</time>
      </trkpt>
      <trkpt lat="45.73391" lon="5.61299">
        <ele>309.81073</ele>
        <time>2015-04-26T12:24:18Z</time>
      </trkpt>
      <trkpt lat="45.73399" lon="5.61295">
        <ele>309.81073</ele>
        <time>2015-04-26T12:24:23Z</time>
      </trkpt>
      <trkpt lat="45.73406" lon="5.61291">
        <ele>313.12335</ele>
        <time>2015-04-26T12:24:28Z</time>
      </trkpt>
      <trkpt lat="45.73412" lon="5.61285">
        <ele>313.12335</ele>
        <time>2015-04-26T12:24:33Z</time>
      </trkpt>
      <trkpt lat="45.73416" lon="5.6128">
        <ele>316.18445</ele>
        <time>2015-04-26T12:24:38Z</time>
      </trkpt>
      <trkpt lat="45.73422" lon="5.61277">
        <ele>316.18445</ele>
        <time>2015-04-26T12:24:43Z</time>
      </trkpt>
      <trkpt lat="45.73429" lon="5.61277">
        <ele>318.5561</ele>
        <time>2015-04-26T12:24:48Z</time>
      </trkpt>
      <trkpt lat="45.73432" lon="5.61274">
        <ele>318.5561</ele>
        <time>2015-04-26T12:24:53Z</time>
      </trkpt>
      <trkpt lat="45.73437" lon="5.61275">
        <ele>318.5561</ele>
        <time>2015-04-26T12:24:58Z</time>
      </trkpt>
      <trkpt lat="45.73442" lon="5.61274">
        <ele>319.2006</ele>
        <time>2015-04-26T12:25:03Z</time>
      </trkpt>
      <trkpt lat="45.73445" lon="5.61275">
        <ele>319.2006</ele>
        <time>2015-04-26T12:25:08Z</time>
      </trkpt>
      <trkpt lat="45.73452" lon="5.61271">
        <ele>318.99182</ele>
        <time>2015-04-26T12:25:13Z</time>
      </trkpt>
      <trkpt lat="45.73458" lon="5.61266">
        <ele>318.99182</ele>
        <time>2015-04-26T12:25:18Z</time>
      </trkpt>
      <trkpt lat="45.73463" lon="5.61264">
        <ele>318.3818</ele>
        <time>2015-04-26T12:25:23Z</time>
      </trkpt>
      <trkpt lat="45.73469" lon="5.61265">
        <ele>318.3818</ele>
        <time>2015-04-26T12:25:28Z</time>
      </trkpt>
      <trkpt lat="45.73475" lon="5.61265">
        <ele>316.9405</ele>
        <time>2015-04-26T12:25:33Z</time>
      </trkpt>
      <trkpt lat="45.73482" lon="5.61266">
        <ele>316.9405</ele>
        <time>2015-04-26T12:25:38Z</time>
      </trkpt>
      <trkpt lat="45.73488" lon="5.6126">
        <ele>315.26633</ele>
        <time>2015-04-26T12:25:43Z</time>
      </trkpt>
      <trkpt lat="45.73494" lon="5.61256">
        <ele>315.26633</ele>
        <time>2015-04-26T12:25:48Z</time>
      </trkpt>
      <trkpt lat="45.735" lon="5.61252">
        <ele>312.90585</ele>
        <time>2015-04-26T12:25:53Z</time>
      </trkpt>
      <trkpt lat="45.73506" lon="5.61245">
        <ele>312.90585</ele>
        <time>2015-04-26T12:25:58Z</time>
      </trkpt>
      <trkpt lat="45.73515" lon="5.61239">
        <ele>311.4153</ele>
        <time>2015-04-26T12:26:05Z</time>
      </trkpt>
      <trkpt lat="45.73517" lon="5.61234">
        <ele>311.4153</ele>
        <time>2015-04-26T12:26:10Z</time>
      </trkpt>
      <trkpt lat="45.73519" lon="5.6123">
        <ele>311.4153</ele>
        <time>2015-04-26T12:26:14Z</time>
      </trkpt>
      <trkpt lat="45.7352" lon="5.61228">
        <ele>311.61465</ele>
        <time>2015-04-26T12:26:20Z</time>
      </trkpt>
      <trkpt lat="45.73523" lon="5.6122">
        <ele>311.61465</ele>
        <time>2015-04-26T12:26:24Z</time>
      </trkpt>
      <trkpt lat="45.73525" lon="5.61216">
        <ele>312.55847</ele>
        <time>2015-04-26T12:26:28Z</time>
      </trkpt>
      <trkpt lat="45.73534" lon="5.61211">
        <ele>312.9508</ele>
        <time>2015-04-26T12:26:33Z</time>
      </trkpt>
      <trkpt lat="45.73541" lon="5.61212">
        <ele>312.9508</ele>
        <time>2015-04-26T12:26:39Z</time>
      </trkpt>
      <trkpt lat="45.73544" lon="5.6121">
        <ele>312.24115</ele>
        <time>2015-04-26T12:26:45Z</time>
      </trkpt>
      <trkpt lat="45.73549" lon="5.61207">
        <ele>312.24115</ele>
        <time>2015-04-26T12:26:49Z</time>
      </trkpt>
      <trkpt lat="45.73555" lon="5.61205">
        <ele>311.0178</ele>
        <time>2015-04-26T12:26:54Z</time>
      </trkpt>
      <trkpt lat="45.73562" lon="5.61204">
        <ele>311.0178</ele>
        <time>2015-04-26T12:27:00Z</time>
      </trkpt>
      <trkpt lat="45.73567" lon="5.61199">
        <ele>309.32294</ele>
        <time>2015-04-26T12:27:05Z</time>
      </trkpt>
      <trkpt lat="45.73574" lon="5.61191">
        <ele>309.32294</ele>
        <time>2015-04-26T12:27:10Z</time>
      </trkpt>
      <trkpt lat="45.7358" lon="5.6119">
        <ele>307.64374</ele>
        <time>2015-04-26T12:27:15Z</time>
      </trkpt>
      <trkpt lat="45.73583" lon="5.61191">
        <ele>307.64374</ele>
        <time>2015-04-26T12:27:19Z</time>
      </trkpt>
      <trkpt lat="45.7359" lon="5.61188">
        <ele>305.13464</ele>
        <time>2015-04-26T12:27:24Z</time>
      </trkpt>
      <trkpt lat="45.73597" lon="5.61183">
        <ele>305.13464</ele>
        <time>2015-04-26T12:27:30Z</time>
      </trkpt>
      <trkpt lat="45.73603" lon="5.6118">
        <ele>302.41238</ele>
        <time>2015-04-26T12:27:35Z</time>
      </trkpt>
      <trkpt lat="45.73609" lon="5.61176">
        <ele>302.41238</ele>
        <time>2015-04-26T12:27:40Z</time>
      </trkpt>
      <trkpt lat="45.73616" lon="5.61169">
        <ele>300.2363</ele>
        <time>2015-04-26T12:27:45Z</time>
      </trkpt>
      <trkpt lat="45.73624" lon="5.61164">
        <ele>300.2363</ele>
        <time>2015-04-26T12:27:49Z</time>
      </trkpt>
      <trkpt lat="45.7363" lon="5.61163">
        <ele>298.5734</ele>
        <time>2015-04-26T12:27:54Z</time>
      </trkpt>
      <trkpt lat="45.73635" lon="5.61159">
        <ele>298.5734</ele>
        <time>2015-04-26T12:28:00Z</time>
      </trkpt>
      <trkpt lat="45.73643" lon="5.61154">
        <ele>295.79205</ele>
        <time>2015-04-26T12:28:05Z</time>
      </trkpt>
      <trkpt lat="45.73649" lon="5.61151">
        <ele>295.79205</ele>
        <time>2015-04-26T12:28:08Z</time>
      </trkpt>
      <trkpt lat="45.73654" lon="5.61146">
        <ele>292.79016</ele>
        <time>2015-04-26T12:28:14Z</time>
      </trkpt>
      <trkpt lat="45.73661" lon="5.61147">
        <ele>292.79016</ele>
        <time>2015-04-26T12:28:19Z</time>
      </trkpt>
      <trkpt lat="45.73666" lon="5.61149">
        <ele>288.0223</ele>
        <time>2015-04-26T12:28:25Z</time>
      </trkpt>
      <trkpt lat="45.73668" lon="5.61148">
        <ele>288.0223</ele>
        <time>2015-04-26T12:28:29Z</time>
      </trkpt>
      <trkpt lat="45.73672" lon="5.61148">
        <ele>288.0223</ele>
        <time>2015-04-26T12:28:35Z</time>
      </trkpt>
      <trkpt lat="45.73679" lon="5.61149">
        <ele>282.43936</ele>
        <time>2015-04-26T12:28:39Z</time>
      </trkpt>
      <trkpt lat="45.73687" lon="5.61149">
        <ele>282.43936</ele>
        <time>2015-04-26T12:28:45Z</time>
      </trkpt>
      <trkpt lat="45.73695" lon="5.61147">
        <ele>276.47763</ele>
        <time>2015-04-26T12:28:49Z</time>
      </trkpt>
      <trkpt lat="45.73703" lon="5.61145">
        <ele>276.47763</ele>
        <time>2015-04-26T12:28:54Z</time>
      </trkpt>
      <trkpt lat="45.73712" lon="5.61142">
        <ele>271.49347</ele>
        <time>2015-04-26T12:29:00Z</time>
      </trkpt>
      <trkpt lat="45.7372" lon="5.61138">
        <ele>271.49347</ele>
        <time>2015-04-26T12:29:04Z</time>
      </trkpt>
      <trkpt lat="45.73732" lon="5.61139">
        <ele>268.87027</ele>
        <time>2015-04-26T12:29:09Z</time>
      </trkpt>
      <trkpt lat="45.7374" lon="5.61139">
        <ele>268.87027</ele>
        <time>2015-04-26T12:29:13Z</time>
      </trkpt>
      <trkpt lat="45.73747" lon="5.61138">
        <ele>267.31784</ele>
        <time>2015-04-26T12:29:19Z</time>
      </trkpt>
      <trkpt lat="45.73755" lon="5.61136">
        <ele>267.31784</ele>
        <time>2015-04-26T12:29:23Z</time>
      </trkpt>
      <trkpt lat="45.73772" lon="5.61134">
        <ele>265.9689</ele>
        <time>2015-04-26T12:29:30Z</time>
      </trkpt>
      <trkpt lat="45.73785" lon="5.61128">
        <ele>265.64755</ele>
        <time>2015-04-26T12:29:35Z</time>
      </trkpt>
      <trkpt lat="45.73811" lon="5.61119">
        <ele>266.46576</ele>
        <time>2015-04-26T12:29:40Z</time>
      </trkpt>
      <trkpt lat="45.7384" lon="5.61109">
        <ele>268.16357</ele>
        <time>2015-04-26T12:29:45Z</time>
      </trkpt>
      <trkpt lat="45.73863" lon="5.61102">
        <ele>269.9931</ele>
        <time>2015-04-26T12:29:49Z</time>
      </trkpt>
      <trkpt lat="45.73895" lon="5.61088">
        <ele>273.0334</ele>
        <time>2015-04-26T12:29:54Z</time>
      </trkpt>
      <trkpt lat="45.73905" lon="5.61081">
        <ele>277.54578</ele>
        <time>2015-04-26T12:30:00Z</time>
      </trkpt>
      <trkpt lat="45.73905" lon="5.6108">
        <ele>277.54578</ele>
        <time>2015-04-26T12:30:05Z</time>
      </trkpt>
      <trkpt lat="45.73905" lon="5.61079">
        <ele>277.54578</ele>
        <time>2015-04-26T12:30:10Z</time>
      </trkpt>
      <trkpt lat="45.73905" lon="5.61078">
        <ele>277.54578</ele>
        <time>2015-04-26T12:30:15Z</time>
      </trkpt>
      <trkpt lat="45.73905" lon="5.61078">
        <ele>277.54578</ele>
        <time>2015-04-26T12:30:20Z</time>
      </trkpt>
      <trkpt lat="45.73902" lon="5.6108">
        <ele>277.54578</ele>
        <time>2015-04-26T12:30:25Z</time>
      </trkpt>
      <trkpt lat="45.739" lon="5.61084">
        <ele>283.6673</ele>
        <time>2015-04-26T12:30:30Z</time>
      </trkpt>
      <trkpt lat="45.73897" lon="5.61088">
        <ele>283.6673</ele>
        <time>2015-04-26T12:30:35Z</time>
      </trkpt>
      <trkpt lat="45.73895" lon="5.61092">
        <ele>283.6673</ele>
        <time>2015-04-26T12:30:39Z</time>
      </trkpt>
      <trkpt lat="45.73893" lon="5.61095">
        <ele>289.35873</ele>
        <time>2015-04-26T12:30:44Z</time>
      </trkpt>
      <trkpt lat="45.73888" lon="5.61102">
        <ele>289.35873</ele>
        <time>2015-04-26T12:30:49Z</time>
      </trkpt>
      <trkpt lat="45.73883" lon="5.61108">
        <ele>295.7582</ele>
        <time>2015-04-26T12:30:55Z</time>
      </trkpt>
      <trkpt lat="45.73878" lon="5.61113">
        <ele>295.7582</ele>
        <time>2015-04-26T12:30:59Z</time>
      </trkpt>
      <trkpt lat="45.73874" lon="5.61117">
        <ele>301.74225</ele>
        <time>2015-04-26T12:31:05Z</time>
      </trkpt>
      <trkpt lat="45.73873" lon="5.61117">
        <ele>301.74225</ele>
        <time>2015-04-26T12:31:09Z</time>
      </trkpt>
      <trkpt lat="45.73872" lon="5.61121">
        <ele>301.74225</ele>
        <time>2015-04-26T12:31:15Z</time>
      </trkpt>
      <trkpt lat="45.73868" lon="5.61126">
        <ele>307.25113</ele>
        <time>2015-04-26T12:31:19Z</time>
      </trkpt>
      <trkpt lat="45.73865" lon="5.6113">
        <ele>307.25113</ele>
        <time>2015-04-26T12:31:24Z</time>
      </trkpt>
      <trkpt lat="45.7386" lon="5.61135">
        <ele>312.73547</ele>
        <time>2015-04-26T12:31:30Z</time>
      </trkpt>
      <trkpt lat="45.73855" lon="5.6114">
        <ele>312.73547</ele>
        <time>2015-04-26T12:31:35Z</time>
      </trkpt>
      <trkpt lat="45.73852" lon="5.61143">
        <ele>318.03653</ele>
        <time>2015-04-26T12:31:39Z</time>
      </trkpt>
      <trkpt lat="45.73846" lon="5.61149">
        <ele>318.03653</ele>
        <time>2015-04-26T12:31:45Z</time>
      </trkpt>
      <trkpt lat="45.73841" lon="5.61153">
        <ele>324.3195</ele>
        <time>2015-04-26T12:31:49Z</time>
      </trkpt>
      <trkpt lat="45.73837" lon="5.61156">
        <ele>324.3195</ele>
        <time>2015-04-26T12:31:54Z</time>
      </trkpt>
      <trkpt lat="45.73835" lon="5.61159">
        <ele>324.3195</ele>
        <time>2015-04-26T12:31:59Z</time>
      </trkpt>
      <trkpt lat="45.73837" lon="5.61162">
        <ele>331.83994</ele>
        <time>2015-04-26T12:32:04Z</time>
      </trkpt>
      <trkpt lat="45.73836" lon="5.61163">
        <ele>331.83994</ele>
        <time>2015-04-26T12:32:09Z</time>
      </trkpt>
      <trkpt lat="45.73838" lon="5.61164">
        <ele>331.83994</ele>
        <time>2015-04-26T12:32:15Z</time>
      </trkpt>
      <trkpt lat="45.73843" lon="5.6117">
        <ele>339.88043</ele>
        <time>2015-04-26T12:32:19Z</time>
      </trkpt>
      <trkpt lat="45.73847" lon="5.61175">
        <ele>339.88043</ele>
        <time>2015-04-26T12:32:25Z</time>
      </trkpt>
      <trkpt lat="45.73852" lon="5.6118">
        <ele>347.77518</ele>
        <time>2015-04-26T12:32:29Z</time>
      </trkpt>
      <trkpt lat="45.73856" lon="5.61186">
        <ele>347.77518</ele>
        <time>2015-04-26T12:32:35Z</time>
      </trkpt>
      <trkpt lat="45.73864" lon="5.61189">
        <ele>355.1241</ele>
        <time>2015-04-26T12:32:39Z</time>
      </trkpt>
      <trkpt lat="45.73867" lon="5.6119">
        <ele>355.1241</ele>
        <time>2015-04-26T12:32:45Z</time>
      </trkpt>
      <trkpt lat="45.73871" lon="5.61192">
        <ele>355.1241</ele>
        <time>2015-04-26T12:32:49Z</time>
      </trkpt>
      <trkpt lat="45.73878" lon="5.61195">
        <ele>361.78925</ele>
        <time>2015-04-26T12:32:55Z</time>
      </trkpt>
      <trkpt lat="45.73879" lon="5.61194">
        <ele>361.78925</ele>
        <time>2015-04-26T12:32:58Z</time>
      </trkpt>
      <trkpt lat="45.73884" lon="5.61198">
        <ele>361.78925</ele>
        <time>2015-04-26T12:33:04Z</time>
      </trkpt>
      <trkpt lat="45.7389" lon="5.61204">
        <ele>368.01965</ele>
        <time>2015-04-26T12:33:08Z</time>
      </trkpt>
      <trkpt lat="45.73895" lon="5.61204">
        <ele>368.01965</ele>
        <time>2015-04-26T12:33:13Z</time>
      </trkpt>
      <trkpt lat="45.73899" lon="5.61205">
        <ele>373.50024</ele>
        <time>2015-04-26T12:33:20Z</time>
      </trkpt>
      <trkpt lat="45.73903" lon="5.61206">
        <ele>373.50024</ele>
        <time>2015-04-26T12:33:25Z</time>
      </trkpt>
      <trkpt lat="45.7391" lon="5.61207">
        <ele>378.90717</ele>
        <time>2015-04-26T12:33:30Z</time>
      </trkpt>
      <trkpt lat="45.73916" lon="5.61207">
        <ele>378.90717</ele>
        <time>2015-04-26T12:33:35Z</time>
      </trkpt>
      <trkpt lat="45.7392" lon="5.61205">
        <ele>384.6226</ele>
        <time>2015-04-26T12:33:40Z</time>
      </trkpt>
      <trkpt lat="45.73926" lon="5.61206">
        <ele>384.6226</ele>
        <time>2015-04-26T12:33:44Z</time>
      </trkpt>
      <trkpt lat="45.73927" lon="5.61207">
        <ele>384.6226</ele>
        <time>2015-04-26T12:33:48Z</time>
      </trkpt>
      <trkpt lat="45.73929" lon="5.61208">
        <ele>384.6226</ele>
        <time>2015-04-26T12:33:55Z</time>
      </trkpt>
      <trkpt lat="45.73929" lon="5.61208">
        <ele>384.6226</ele>
        <time>2015-04-26T12:34:00Z</time>
      </trkpt>
      <trkpt lat="45.73929" lon="5.61208">
        <ele>389.94827</ele>
        <time>2015-04-26T12:34:05Z</time>
      </trkpt>
      <trkpt lat="45.7393" lon="5.61208">
        <ele>389.94827</ele>
        <time>2015-04-26T12:34:09Z</time>
      </trkpt>
      <trkpt lat="45.7393" lon="5.6121">
        <ele>389.94827</ele>
        <time>2015-04-26T12:34:15Z</time>
      </trkpt>
      <trkpt lat="45.73929" lon="5.6121">
        <ele>389.94827</ele>
        <time>2015-04-26T12:34:20Z</time>
      </trkpt>
      <trkpt lat="45.7393" lon="5.61211">
        <ele>389.94827</ele>
        <time>2015-04-26T12:34:25Z</time>
      </trkpt>
      <trkpt lat="45.73927" lon="5.61216">
        <ele>389.94827</ele>
        <time>2015-04-26T12:34:29Z</time>
      </trkpt>
      <trkpt lat="45.73926" lon="5.61218">
        <ele>395.11786</ele>
        <time>2015-04-26T12:34:34Z</time>
      </trkpt>
      <trkpt lat="45.73928" lon="5.61222">
        <ele>395.11786</ele>
        <time>2015-04-26T12:34:40Z</time>
      </trkpt>
      <trkpt lat="45.73928" lon="5.61226">
        <ele>395.11786</ele>
        <time>2015-04-26T12:34:44Z</time>
      </trkpt>
      <trkpt lat="45.73929" lon="5.61226">
        <ele>395.11786</ele>
        <time>2015-04-26T12:34:49Z</time>
      </trkpt>
      <trkpt lat="45.7393" lon="5.61226">
        <ele>395.11786</ele>
        <time>2015-04-26T12:34:55Z</time>
      </trkpt>
      <trkpt lat="45.73929" lon="5.61227">
        <ele>400.7667</ele>
        <time>2015-04-26T12:34:59Z</time>
      </trkpt>
      <trkpt lat="45.73931" lon="5.61227">
        <ele>400.7667</ele>
        <time>2015-04-26T12:35:04Z</time>
      </trkpt>
      <trkpt lat="45.73932" lon="5.6123">
        <ele>400.7667</ele>
        <time>2015-04-26T12:35:10Z</time>
      </trkpt>
      <trkpt lat="45.73932" lon="5.61231">
        <ele>400.7667</ele>
        <time>2015-04-26T12:35:15Z</time>
      </trkpt>
      <trkpt lat="45.73933" lon="5.61234">
        <ele>400.7667</ele>
        <time>2015-04-26T12:35:20Z</time>
      </trkpt>
      <trkpt lat="45.73933" lon="5.61233">
        <ele>400.7667</ele>
        <time>2015-04-26T12:35:24Z</time>
      </trkpt>
      <trkpt lat="45.73933" lon="5.61232">
        <ele>400.7667</ele>
        <time>2015-04-26T12:35:28Z</time>
      </trkpt>
      <trkpt lat="45.73932" lon="5.6123">
        <ele>406.15677</ele>
        <time>2015-04-26T12:35:33Z</time>
      </trkpt>
      <trkpt lat="45.73932" lon="5.61231">
        <ele>406.15677</ele>
        <time>2015-04-26T12:35:38Z</time>
      </trkpt>
      <trkpt lat="45.73932" lon="5.61232">
        <ele>406.15677</ele>
        <time>2015-04-26T12:35:43Z</time>
      </trkpt>
      <trkpt lat="45.7393" lon="5.61238">
        <ele>406.15677</ele>
        <time>2015-04-26T12:35:48Z</time>
      </trkpt>
      <trkpt lat="45.73929" lon="5.61241">
        <ele>406.15677</ele>
        <time>2015-04-26T12:35:53Z</time>
      </trkpt>
      <trkpt lat="45.73926" lon="5.61247">
        <ele>410.17313</ele>
        <time>2015-04-26T12:35:58Z</time>
      </trkpt>
      <trkpt lat="45.73921" lon="5.61252">
        <ele>410.17313</ele>
        <time>2015-04-26T12:36:03Z</time>
      </trkpt>
      <trkpt lat="45.73918" lon="5.61254">
        <ele>413.6749</ele>
        <time>2015-04-26T12:36:08Z</time>
      </trkpt>
      <trkpt lat="45.73917" lon="5.61261">
        <ele>413.6749</ele>
        <time>2015-04-26T12:36:13Z</time>
      </trkpt>
      <trkpt lat="45.73913" lon="5.61264">
        <ele>416.20624</ele>
        <time>2015-04-26T12:36:18Z</time>
      </trkpt>
      <trkpt lat="45.73911" lon="5.61266">
        <ele>416.20624</ele>
        <time>2015-04-26T12:36:23Z</time>
      </trkpt>
      <trkpt lat="45.73909" lon="5.61273">
        <ele>416.20624</ele>
        <time>2015-04-26T12:36:28Z</time>
      </trkpt>
      <trkpt lat="45.73909" lon="5.61277">
        <ele>417.85226</ele>
        <time>2015-04-26T12:36:33Z</time>
      </trkpt>
      <trkpt lat="45.73905" lon="5.61278">
        <ele>417.85226</ele>
        <time>2015-04-26T12:36:38Z</time>
      </trkpt>
      <trkpt lat="45.73904" lon="5.61279">
        <ele>417.85226</ele>
        <time>2015-04-26T12:36:43Z</time>
      </trkpt>
      <trkpt lat="45.73903" lon="5.6128">
        <ele>417.85226</ele>
        <time>2015-04-26T12:36:48Z</time>
      </trkpt>
      <trkpt lat="45.73903" lon="5.61281">
        <ele>417.85226</ele>
        <time>2015-04-26T12:36:53Z</time>
      </trkpt>
      <trkpt lat="45.73903" lon="5.61281">
        <ele>417.85226</ele>
        <time>2015-04-26T12:36:58Z</time>
      </trkpt>
      <trkpt lat="45.73903" lon="5.61281">
        <ele>417.85226</ele>
        <time>2015-04-26T12:37:03Z</time>
      </trkpt>
      <trkpt lat="45.73903" lon="5.61281">
        <ele>417.85226</ele>
        <time>2015-04-26T12:37:08Z</time>
      </trkpt>
      <trkpt lat="45.73903" lon="5.61281">
        <ele>417.85226</ele>
        <time>2015-04-26T12:37:13Z</time>
      </trkpt>
      <trkpt lat="45.73903" lon="5.61281">
        <ele>417.85226</ele>
        <time>2015-04-26T12:37:18Z</time>
      </trkpt>
      <trkpt lat="45.73903" lon="5.61281">
        <ele>417.85226</ele>
        <time>2015-04-26T12:37:23Z</time>
      </trkpt>
      <trkpt lat="45.73903" lon="5.61281">
        <ele>417.85226</ele>
        <time>2015-04-26T12:37:30Z</time>
      </trkpt>
      <trkpt lat="45.73903" lon="5.61281">
        <ele>417.85226</ele>
        <time>2015-04-26T12:37:35Z</time>
      </trkpt>
      <trkpt lat="45.73901" lon="5.61286">
        <ele>420.43854</ele>
        <time>2015-04-26T12:37:40Z</time>
      </trkpt>
      <trkpt lat="45.73901" lon="5.61287">
        <ele>420.43854</ele>
        <time>2015-04-26T12:37:45Z</time>
      </trkpt>
      <trkpt lat="45.73901" lon="5.61289">
        <ele>420.43854</ele>
        <time>2015-04-26T12:37:50Z</time>
      </trkpt>
      <trkpt lat="45.73899" lon="5.61291">
        <ele>420.43854</ele>
        <time>2015-04-26T12:37:54Z</time>
      </trkpt>
      <trkpt lat="45.739" lon="5.61294">
        <ele>420.43854</ele>
        <time>2015-04-26T12:37:58Z</time>
      </trkpt>
      <trkpt lat="45.739" lon="5.61304">
        <ele>421.96494</ele>
        <time>2015-04-26T12:38:04Z</time>
      </trkpt>
      <trkpt lat="45.73901" lon="5.61313">
        <ele>421.96494</ele>
        <time>2015-04-26T12:38:08Z</time>
      </trkpt>
      <trkpt lat="45.73902" lon="5.61322">
        <ele>423.24765</ele>
        <time>2015-04-26T12:38:13Z</time>
      </trkpt>
      <trkpt lat="45.73902" lon="5.61327">
        <ele>423.24765</ele>
        <time>2015-04-26T12:38:18Z</time>
      </trkpt>
      <trkpt lat="45.73901" lon="5.61331">
        <ele>423.24765</ele>
        <time>2015-04-26T12:38:23Z</time>
      </trkpt>
      <trkpt lat="45.73902" lon="5.61338">
        <ele>422.81012</ele>
        <time>2015-04-26T12:38:28Z</time>
      </trkpt>
      <trkpt lat="45.73903" lon="5.61345">
        <ele>422.81012</ele>
        <time>2015-04-26T12:38:33Z</time>
      </trkpt>
      <trkpt lat="45.73909" lon="5.61353">
        <ele>422.84894</ele>
        <time>2015-04-26T12:38:38Z</time>
      </trkpt>
      <trkpt lat="45.73911" lon="5.61358">
        <ele>422.84894</ele>
        <time>2015-04-26T12:38:43Z</time>
      </trkpt>
      <trkpt lat="45.73909" lon="5.61361">
        <ele>422.84894</ele>
        <time>2015-04-26T12:38:48Z</time>
      </trkpt>
      <trkpt lat="45.73906" lon="5.61366">
        <ele>421.10367</ele>
        <time>2015-04-26T12:38:53Z</time>
      </trkpt>
      <trkpt lat="45.73903" lon="5.61372">
        <ele>421.10367</ele>
        <time>2015-04-26T12:38:58Z</time>
      </trkpt>
      <trkpt lat="45.73899" lon="5.61382">
        <ele>418.5979</ele>
        <time>2015-04-26T12:39:03Z</time>
      </trkpt>
      <trkpt lat="45.73894" lon="5.61386">
        <ele>418.5979</ele>
        <time>2015-04-26T12:39:08Z</time>
      </trkpt>
      <trkpt lat="45.73882" lon="5.61401">
        <ele>415.74902</ele>
        <time>2015-04-26T12:39:13Z</time>
      </trkpt>
      <trkpt lat="45.73877" lon="5.61407">
        <ele>415.74902</ele>
        <time>2015-04-26T12:39:18Z</time>
      </trkpt>
      <trkpt lat="45.73864" lon="5.61421">
        <ele>413.76627</ele>
        <time>2015-04-26T12:39:23Z</time>
      </trkpt>
      <trkpt lat="45.73859" lon="5.61425">
        <ele>413.76627</ele>
        <time>2015-04-26T12:39:28Z</time>
      </trkpt>
      <trkpt lat="45.73854" lon="5.61426">
        <ele>411.4042</ele>
        <time>2015-04-26T12:39:33Z</time>
      </trkpt>
      <trkpt lat="45.73848" lon="5.6143">
        <ele>411.4042</ele>
        <time>2015-04-26T12:39:38Z</time>
      </trkpt>
      <trkpt lat="45.73844" lon="5.61435">
        <ele>409.55627</ele>
        <time>2015-04-26T12:39:43Z</time>
      </trkpt>
      <trkpt lat="45.73839" lon="5.61443">
        <ele>409.55627</ele>
        <time>2015-04-26T12:39:48Z</time>
      </trkpt>
      <trkpt lat="45.73836" lon="5.61446">
        <ele>407.89584</ele>
        <time>2015-04-26T12:39:53Z</time>
      </trkpt>
      <trkpt lat="45.73832" lon="5.6145">
        <ele>407.89584</ele>
        <time>2015-04-26T12:39:58Z</time>
      </trkpt>
      <trkpt lat="45.73824" lon="5.61452">
        <ele>405.65854</ele>
        <time>2015-04-26T12:40:03Z</time>
      </trkpt>
      <trkpt lat="45.73821" lon="5.61452">
        <ele>405.65854</ele>
        <time>2015-04-26T12:40:08Z</time>
      </trkpt>
      <trkpt lat="45.73814" lon="5.61455">
        <ele>403.66516</ele>
        <time>2015-04-26T12:40:13Z</time>
      </trkpt>
      <trkpt lat="45.73811" lon="5.61459">
        <ele>403.66516</ele>
        <time>2015-04-26T12:40:18Z</time>
      </trkpt>
      <trkpt lat="45.73805" lon="5.61457">
        <ele>401.17654</ele>
        <time>2015-04-26T12:40:23Z</time>
      </trkpt>
      <trkpt lat="45.73795" lon="5.61462">
        <ele>398.56113</ele>
        <time>2015-04-26T12:40:28Z</time>
      </trkpt>
      <trkpt lat="45.73789" lon="5.61463">
        <ele>398.56113</ele>
        <time>2015-04-26T12:40:33Z</time>
      </trkpt>
      <trkpt lat="45.73783" lon="5.61465">
        <ele>395.43973</ele>
        <time>2015-04-26T12:40:38Z</time>
      </trkpt>
      <trkpt lat="45.73774" lon="5.61473">
        <ele>392.60068</ele>
        <time>2015-04-26T12:40:43Z</time>
      </trkpt>
      <trkpt lat="45.73768" lon="5.61482">
        <ele>392.60068</ele>
        <time>2015-04-26T12:40:48Z</time>
      </trkpt>
      <trkpt lat="45.73763" lon="5.61488">
        <ele>390.3987</ele>
        <time>2015-04-26T12:40:53Z</time>
      </trkpt>
      <trkpt lat="45.73762" lon="5.6149">
        <ele>390.3987</ele>
        <time>2015-04-26T12:40:58Z</time>
      </trkpt>
      <trkpt lat="45.73758" lon="5.61492">
        <ele>390.3987</ele>
        <time>2015-04-26T12:41:03Z</time>
      </trkpt>
      <trkpt lat="45.73755" lon="5.61493">
        <ele>390.3987</ele>
        <time>2015-04-26T12:41:08Z</time>
      </trkpt>
      <trkpt lat="45.73752" lon="5.61492">
        <ele>386.84006</ele>
        <time>2015-04-26T12:41:13Z</time>
      </trkpt>
      <trkpt lat="45.73747" lon="5.61494">
        <ele>386.84006</ele>
        <time>2015-04-26T12:41:18Z</time>
      </trkpt>
      <trkpt lat="45.73741" lon="5.61497">
        <ele>383.9576</ele>
        <time>2015-04-26T12:41:23Z</time>
      </trkpt>
      <trkpt lat="45.73736" lon="5.615">
        <ele>383.9576</ele>
        <time>2015-04-26T12:41:28Z</time>
      </trkpt>
      <trkpt lat="45.73731" lon="5.61505">
        <ele>381.26917</ele>
        <time>2015-04-26T12:41:33Z</time>
      </trkpt>
      <trkpt lat="45.7373" lon="5.61506">
        <ele>381.26917</ele>
        <time>2015-04-26T12:41:38Z</time>
      </trkpt>
      <trkpt lat="45.73723" lon="5.61514">
        <ele>378.7306</ele>
        <time>2015-04-26T12:41:43Z</time>
      </trkpt>
      <trkpt lat="45.73701" lon="5.61534">
        <ele>376.02634</ele>
        <time>2015-04-26T12:41:48Z</time>
      </trkpt>
      <trkpt lat="45.73696" lon="5.61544">
        <ele>376.02634</ele>
        <time>2015-04-26T12:41:53Z</time>
      </trkpt>
      <trkpt lat="45.73688" lon="5.6155">
        <ele>374.03143</ele>
        <time>2015-04-26T12:41:58Z</time>
      </trkpt>
      <trkpt lat="45.73679" lon="5.61559">
        <ele>372.77603</ele>
        <time>2015-04-26T12:42:03Z</time>
      </trkpt>
      <trkpt lat="45.73666" lon="5.61574">
        <ele>371.50742</ele>
        <time>2015-04-26T12:42:08Z</time>
      </trkpt>
      <trkpt lat="45.73652" lon="5.61581">
        <ele>369.64307</ele>
        <time>2015-04-26T12:42:13Z</time>
      </trkpt>
      <trkpt lat="45.73645" lon="5.61592">
        <ele>367.92715</ele>
        <time>2015-04-26T12:42:18Z</time>
      </trkpt>
      <trkpt lat="45.73639" lon="5.61601">
        <ele>367.92715</ele>
        <time>2015-04-26T12:42:23Z</time>
      </trkpt>
      <trkpt lat="45.73638" lon="5.61606">
        <ele>366.0972</ele>
        <time>2015-04-26T12:42:28Z</time>
      </trkpt>
      <trkpt lat="45.73633" lon="5.61614">
        <ele>366.0972</ele>
        <time>2015-04-26T12:42:33Z</time>
      </trkpt>
      <trkpt lat="45.73627" lon="5.61622">
        <ele>363.91003</ele>
        <time>2015-04-26T12:42:38Z</time>
      </trkpt>
      <trkpt lat="45.73624" lon="5.61628">
        <ele>363.91003</ele>
        <time>2015-04-26T12:42:43Z</time>
      </trkpt>
      <trkpt lat="45.73619" lon="5.61633">
        <ele>362.14966</ele>
        <time>2015-04-26T12:42:48Z</time>
      </trkpt>
      <trkpt lat="45.73613" lon="5.61637">
        <ele>362.14966</ele>
        <time>2015-04-26T12:42:53Z</time>
      </trkpt>
      <trkpt lat="45.73602" lon="5.61646">
        <ele>360.71954</ele>
        <time>2015-04-26T12:42:58Z</time>
      </trkpt>
      <trkpt lat="45.73593" lon="5.61656">
        <ele>359.601</ele>
        <time>2015-04-26T12:43:03Z</time>
      </trkpt>
      <trkpt lat="45.73588" lon="5.61662">
        <ele>359.601</ele>
        <time>2015-04-26T12:43:08Z</time>
      </trkpt>
      <trkpt lat="45.73585" lon="5.6167">
        <ele>358.22794</ele>
        <time>2015-04-26T12:43:13Z</time>
      </trkpt>
      <trkpt lat="45.73583" lon="5.61676">
        <ele>358.22794</ele>
        <time>2015-04-26T12:43:18Z</time>
      </trkpt>
      <trkpt lat="45.73577" lon="5.61684">
        <ele>357.05603</ele>
        <time>2015-04-26T12:43:23Z</time>
      </trkpt>
      <trkpt lat="45.73569" lon="5.61691">
        <ele>357.05603</ele>
        <time>2015-04-26T12:43:28Z</time>
      </trkpt>
      <trkpt lat="45.73564" lon="5.61696">
        <ele>355.84378</ele>
        <time>2015-04-26T12:43:33Z</time>
      </trkpt>
      <trkpt lat="45.7356" lon="5.61698">
        <ele>355.84378</ele>
        <time>2015-04-26T12:43:38Z</time>
      </trkpt>
      <trkpt lat="45.73555" lon="5.61701">
        <ele>354.2231</ele>
        <time>2015-04-26T12:43:43Z</time>
      </trkpt>
      <trkpt lat="45.7355" lon="5.61705">
        <ele>354.2231</ele>
        <time>2015-04-26T12:43:48Z</time>
      </trkpt>
      <trkpt lat="45.73541" lon="5.61709">
        <ele>353.68402</ele>
        <time>2015-04-26T12:43:53Z</time>
      </trkpt>
      <trkpt lat="45.73535" lon="5.61713">
        <ele>353.68402</ele>
        <time>2015-04-26T12:43:58Z</time>
      </trkpt>
      <trkpt lat="45.7353" lon="5.61717">
        <ele>353.13943</ele>
        <time>2015-04-26T12:44:03Z</time>
      </trkpt>
      <trkpt lat="45.73525" lon="5.6172">
        <ele>353.13943</ele>
        <time>2015-04-26T12:44:08Z</time>
      </trkpt>
      <trkpt lat="45.73523" lon="5.61725">
        <ele>351.46664</ele>
        <time>2015-04-26T12:44:13Z</time>
      </trkpt>
      <trkpt lat="45.73518" lon="5.61733">
        <ele>351.46664</ele>
        <time>2015-04-26T12:44:18Z</time>
      </trkpt>
      <trkpt lat="45.7352" lon="5.61739">
        <ele>349.7034</ele>
        <time>2015-04-26T12:44:23Z</time>
      </trkpt>
      <trkpt lat="45.73521" lon="5.61739">
        <ele>349.7034</ele>
        <time>2015-04-26T12:44:28Z</time>
      </trkpt>
      <trkpt lat="45.73528" lon="5.6174">
        <ele>349.7034</ele>
        <time>2015-04-26T12:44:33Z</time>
      </trkpt>
      <trkpt lat="45.73534" lon="5.61739">
        <ele>347.93222</ele>
        <time>2015-04-26T12:44:38Z</time>
      </trkpt>
      <trkpt lat="45.73539" lon="5.61739">
        <ele>347.93222</ele>
        <time>2015-04-26T12:44:43Z</time>
      </trkpt>
      <trkpt lat="45.73543" lon="5.61739">
        <ele>347.93222</ele>
        <time>2015-04-26T12:44:48Z</time>
      </trkpt>
      <trkpt lat="45.73549" lon="5.61738">
        <ele>346.07086</ele>
        <time>2015-04-26T12:44:53Z</time>
      </trkpt>
      <trkpt lat="45.73555" lon="5.61738">
        <ele>346.07086</ele>
        <time>2015-04-26T12:44:58Z</time>
      </trkpt>
      <trkpt lat="45.73564" lon="5.61737">
        <ele>344.59067</ele>
        <time>2015-04-26T12:45:03Z</time>
      </trkpt>
      <trkpt lat="45.73572" lon="5.61738">
        <ele>344.59067</ele>
        <time>2015-04-26T12:45:08Z</time>
      </trkpt>
      <trkpt lat="45.73583" lon="5.61737">
        <ele>343.9848</ele>
        <time>2015-04-26T12:45:13Z</time>
      </trkpt>
      <trkpt lat="45.73592" lon="5.61739">
        <ele>343.46814</ele>
        <time>2015-04-26T12:45:18Z</time>
      </trkpt>
      <trkpt lat="45.73597" lon="5.61736">
        <ele>343.46814</ele>
        <time>2015-04-26T12:45:23Z</time>
      </trkpt>
      <trkpt lat="45.73602" lon="5.61735">
        <ele>343.04773</ele>
        <time>2015-04-26T12:45:28Z</time>
      </trkpt>
      <trkpt lat="45.73608" lon="5.61733">
        <ele>343.04773</ele>
        <time>2015-04-26T12:45:33Z</time>
      </trkpt>
      <trkpt lat="45.73615" lon="5.61733">
        <ele>342.12445</ele>
        <time>2015-04-26T12:45:38Z</time>
      </trkpt>
      <trkpt lat="45.73622" lon="5.61734">
        <ele>342.12445</ele>
        <time>2015-04-26T12:45:43Z</time>
      </trkpt>
      <trkpt lat="45.7363" lon="5.61734">
        <ele>340.3461</ele>
        <time>2015-04-26T12:45:48Z</time>
      </trkpt>
      <trkpt lat="45.73636" lon="5.61733">
        <ele>340.3461</ele>
        <time>2015-04-26T12:45:53Z</time>
      </trkpt>
      <trkpt lat="45.73636" lon="5.61739">
        <ele>339.2045</ele>
        <time>2015-04-26T12:45:58Z</time>
      </trkpt>
      <trkpt lat="45.7363" lon="5.61741">
        <ele>339.2045</ele>
        <time>2015-04-26T12:46:03Z</time>
      </trkpt>
      <trkpt lat="45.73624" lon="5.61745">
        <ele>337.84613</ele>
        <time>2015-04-26T12:46:08Z</time>
      </trkpt>
      <trkpt lat="45.73618" lon="5.61749">
        <ele>337.84613</ele>
        <time>2015-04-26T12:46:13Z</time>
      </trkpt>
      <trkpt lat="45.73613" lon="5.61755">
        <ele>336.79214</ele>
        <time>2015-04-26T12:46:18Z</time>
      </trkpt>
      <trkpt lat="45.7361" lon="5.61756">
        <ele>336.79214</ele>
        <time>2015-04-26T12:46:23Z</time>
      </trkpt>
      <trkpt lat="45.73604" lon="5.61759">
        <ele>335.47232</ele>
        <time>2015-04-26T12:46:28Z</time>
      </trkpt>
      <trkpt lat="45.73598" lon="5.61763">
        <ele>335.47232</ele>
        <time>2015-04-26T12:46:33Z</time>
      </trkpt>
      <trkpt lat="45.73597" lon="5.61768">
        <ele>333.99313</ele>
        <time>2015-04-26T12:46:38Z</time>
      </trkpt>
      <trkpt lat="45.73598" lon="5.6178">
        <ele>333.99313</ele>
        <time>2015-04-26T12:46:43Z</time>
      </trkpt>
      <trkpt lat="45.73599" lon="5.6179">
        <ele>332.38147</ele>
        <time>2015-04-26T12:46:48Z</time>
      </trkpt>
      <trkpt lat="45.73598" lon="5.61801">
        <ele>332.38147</ele>
        <time>2015-04-26T12:46:53Z</time>
      </trkpt>
      <trkpt lat="45.736" lon="5.61812">
        <ele>330.6913</ele>
        <time>2015-04-26T12:46:58Z</time>
      </trkpt>
      <trkpt lat="45.73599" lon="5.61825">
        <ele>330.6913</ele>
        <time>2015-04-26T12:47:03Z</time>
      </trkpt>
      <trkpt lat="45.73597" lon="5.61831">
        <ele>329.1458</ele>
        <time>2015-04-26T12:47:08Z</time>
      </trkpt>
      <trkpt lat="45.73592" lon="5.61837">
        <ele>329.1458</ele>
        <time>2015-04-26T12:47:13Z</time>
      </trkpt>
      <trkpt lat="45.73589" lon="5.61843">
        <ele>327.0865</ele>
        <time>2015-04-26T12:47:18Z</time>
      </trkpt>
      <trkpt lat="45.73584" lon="5.61849">
        <ele>327.0865</ele>
        <time>2015-04-26T12:47:23Z</time>
      </trkpt>
      <trkpt lat="45.73581" lon="5.61852">
        <ele>324.971</ele>
        <time>2015-04-26T12:47:28Z</time>
      </trkpt>
      <trkpt lat="45.73573" lon="5.61864">
        <ele>323.7567</ele>
        <time>2015-04-26T12:47:33Z</time>
      </trkpt>
      <trkpt lat="45.73565" lon="5.6187">
        <ele>323.7567</ele>
        <time>2015-04-26T12:47:38Z</time>
      </trkpt>
      <trkpt lat="45.73559" lon="5.61878">
        <ele>323.1031</ele>
        <time>2015-04-26T12:47:43Z</time>
      </trkpt>
      <trkpt lat="45.73554" lon="5.6188">
        <ele>323.1031</ele>
        <time>2015-04-26T12:47:48Z</time>
      </trkpt>
      <trkpt lat="45.73546" lon="5.61885">
        <ele>323.08206</ele>
        <time>2015-04-26T12:47:53Z</time>
      </trkpt>
      <trkpt lat="45.73544" lon="5.61885">
        <ele>323.08206</ele>
        <time>2015-04-26T12:47:58Z</time>
      </trkpt>
      <trkpt lat="45.73537" lon="5.61891">
        <ele>322.202</ele>
        <time>2015-04-26T12:48:03Z</time>
      </trkpt>
      <trkpt lat="45.73531" lon="5.61893">
        <ele>322.202</ele>
        <time>2015-04-26T12:48:08Z</time>
      </trkpt>
      <trkpt lat="45.73524" lon="5.61898">
        <ele>321.08643</ele>
        <time>2015-04-26T12:48:13Z</time>
      </trkpt>
      <trkpt lat="45.73516" lon="5.61905">
        <ele>321.08643</ele>
        <time>2015-04-26T12:48:18Z</time>
      </trkpt>
      <trkpt lat="45.73505" lon="5.61916">
        <ele>321.01974</ele>
        <time>2015-04-26T12:48:23Z</time>
      </trkpt>
      <trkpt lat="45.73498" lon="5.61921">
        <ele>321.01974</ele>
        <time>2015-04-26T12:48:28Z</time>
      </trkpt>
      <trkpt lat="45.7349" lon="5.61928">
        <ele>321.2868</ele>
        <time>2015-04-26T12:48:33Z</time>
      </trkpt>
      <trkpt lat="45.73485" lon="5.61934">
        <ele>321.2868</ele>
        <time>2015-04-26T12:48:38Z</time>
      </trkpt>
      <trkpt lat="45.73479" lon="5.61939">
        <ele>322.65076</ele>
        <time>2015-04-26T12:48:43Z</time>
      </trkpt>
      <trkpt lat="45.73471" lon="5.61942">
        <ele>322.65076</ele>
        <time>2015-04-26T12:48:48Z</time>
      </trkpt>
      <trkpt lat="45.73464" lon="5.61945">
        <ele>323.72595</ele>
        <time>2015-04-26T12:48:53Z</time>
      </trkpt>
      <trkpt lat="45.73459" lon="5.6195">
        <ele>323.72595</ele>
        <time>2015-04-26T12:48:58Z</time>
      </trkpt>
      <trkpt lat="45.73455" lon="5.61955">
        <ele>324.64172</ele>
        <time>2015-04-26T12:49:03Z</time>
      </trkpt>
      <trkpt lat="45.7345" lon="5.61963">
        <ele>324.64172</ele>
        <time>2015-04-26T12:49:08Z</time>
      </trkpt>
      <trkpt lat="45.73443" lon="5.61973">
        <ele>325.403</ele>
        <time>2015-04-26T12:49:13Z</time>
      </trkpt>
      <trkpt lat="45.73439" lon="5.61978">
        <ele>325.403</ele>
        <time>2015-04-26T12:49:18Z</time>
      </trkpt>
      <trkpt lat="45.73433" lon="5.6198">
        <ele>325.74115</ele>
        <time>2015-04-26T12:49:23Z</time>
      </trkpt>
      <trkpt lat="45.7343" lon="5.61986">
        <ele>325.74115</ele>
        <time>2015-04-26T12:49:28Z</time>
      </trkpt>
      <trkpt lat="45.73425" lon="5.61992">
        <ele>326.21542</ele>
        <time>2015-04-26T12:49:33Z</time>
      </trkpt>
      <trkpt lat="45.73419" lon="5.61997">
        <ele>326.21542</ele>
        <time>2015-04-26T12:49:38Z</time>
      </trkpt>
      <trkpt lat="45.73414" lon="5.62003">
        <ele>326.49353</ele>
        <time>2015-04-26T12:49:43Z</time>
      </trkpt>
      <trkpt lat="45.7341" lon="5.62009">
        <ele>326.49353</ele>
        <time>2015-04-26T12:49:48Z</time>
      </trkpt>
      <trkpt lat="45.73406" lon="5.62017">
        <ele>326.81583</ele>
        <time>2015-04-26T12:49:53Z</time>
      </trkpt>
      <trkpt lat="45.73401" lon="5.62025">
        <ele>326.81583</ele>
        <time>2015-04-26T12:49:58Z</time>
      </trkpt>
      <trkpt lat="45.73395" lon="5.62032">
        <ele>327.11673</ele>
        <time>2015-04-26T12:50:03Z</time>
      </trkpt>
      <trkpt lat="45.7339" lon="5.62036">
        <ele>327.11673</ele>
        <time>2015-04-26T12:50:08Z</time>
      </trkpt>
      <trkpt lat="45.73385" lon="5.62038">
        <ele>326.8313</ele>
        <time>2015-04-26T12:50:13Z</time>
      </trkpt>
      <trkpt lat="45.7338" lon="5.62041">
        <ele>326.8313</ele>
        <time>2015-04-26T12:50:18Z</time>
      </trkpt>
      <trkpt lat="45.73375" lon="5.62047">
        <ele>326.3169</ele>
        <time>2015-04-26T12:50:23Z</time>
      </trkpt>
      <trkpt lat="45.73374" lon="5.62053">
        <ele>326.3169</ele>
        <time>2015-04-26T12:50:28Z</time>
      </trkpt>
      <trkpt lat="45.73374" lon="5.6206">
        <ele>325.73245</ele>
        <time>2015-04-26T12:50:33Z</time>
      </trkpt>
      <trkpt lat="45.73372" lon="5.6207">
        <ele>325.73245</ele>
        <time>2015-04-26T12:50:38Z</time>
      </trkpt>
      <trkpt lat="45.73371" lon="5.62076">
        <ele>324.9229</ele>
        <time>2015-04-26T12:50:43Z</time>
      </trkpt>
      <trkpt lat="45.73368" lon="5.62087">
        <ele>324.9229</ele>
        <time>2015-04-26T12:50:48Z</time>
      </trkpt>
      <trkpt lat="45.73368" lon="5.62097">
        <ele>324.33618</ele>
        <time>2015-04-26T12:50:53Z</time>
      </trkpt>
      <trkpt lat="45.73372" lon="5.62105">
        <ele>324.33618</ele>
        <time>2015-04-26T12:50:58Z</time>
      </trkpt>
      <trkpt lat="45.73379" lon="5.62108">
        <ele>324.34354</ele>
        <time>2015-04-26T12:51:03Z</time>
      </trkpt>
      <trkpt lat="45.73386" lon="5.62109">
        <ele>324.34354</ele>
        <time>2015-04-26T12:51:08Z</time>
      </trkpt>
      <trkpt lat="45.73392" lon="5.62109">
        <ele>324.48032</ele>
        <time>2015-04-26T12:51:13Z</time>
      </trkpt>
      <trkpt lat="45.734" lon="5.62109">
        <ele>324.48032</ele>
        <time>2015-04-26T12:51:18Z</time>
      </trkpt>
      <trkpt lat="45.73407" lon="5.6211">
        <ele>324.94995</ele>
        <time>2015-04-26T12:51:23Z</time>
      </trkpt>
      <trkpt lat="45.73414" lon="5.62111">
        <ele>324.94995</ele>
        <time>2015-04-26T12:51:28Z</time>
      </trkpt>
      <trkpt lat="45.73421" lon="5.62112">
        <ele>325.3491</ele>
        <time>2015-04-26T12:51:33Z</time>
      </trkpt>
      <trkpt lat="45.73429" lon="5.62116">
        <ele>325.3491</ele>
        <time>2015-04-26T12:51:38Z</time>
      </trkpt>
      <trkpt lat="45.73437" lon="5.62119">
        <ele>326.0682</ele>
        <time>2015-04-26T12:51:43Z</time>
      </trkpt>
      <trkpt lat="45.73444" lon="5.62122">
        <ele>326.0682</ele>
        <time>2015-04-26T12:51:48Z</time>
      </trkpt>
      <trkpt lat="45.73451" lon="5.62123">
        <ele>326.89185</ele>
        <time>2015-04-26T12:51:53Z</time>
      </trkpt>
      <trkpt lat="45.73459" lon="5.62125">
        <ele>326.89185</ele>
        <time>2015-04-26T12:51:58Z</time>
      </trkpt>
      <trkpt lat="45.73467" lon="5.62126">
        <ele>327.90842</ele>
        <time>2015-04-26T12:52:03Z</time>
      </trkpt>
      <trkpt lat="45.73473" lon="5.62126">
        <ele>327.90842</ele>
        <time>2015-04-26T12:52:08Z</time>
      </trkpt>
      <trkpt lat="45.73476" lon="5.62122">
        <ele>328.17618</ele>
        <time>2015-04-26T12:52:13Z</time>
      </trkpt>
      <trkpt lat="45.73484" lon="5.62122">
        <ele>328.17618</ele>
        <time>2015-04-26T12:52:18Z</time>
      </trkpt>
      <trkpt lat="45.73492" lon="5.62122">
        <ele>328.39566</ele>
        <time>2015-04-26T12:52:23Z</time>
      </trkpt>
      <trkpt lat="45.73501" lon="5.62122">
        <ele>328.39566</ele>
        <time>2015-04-26T12:52:28Z</time>
      </trkpt>
      <trkpt lat="45.73504" lon="5.62121">
        <ele>328.33713</ele>
        <time>2015-04-26T12:52:33Z</time>
      </trkpt>
      <trkpt lat="45.73515" lon="5.62123">
        <ele>328.45148</ele>
        <time>2015-04-26T12:52:38Z</time>
      </trkpt>
      <trkpt lat="45.73524" lon="5.62124">
        <ele>328.75266</ele>
        <time>2015-04-26T12:52:43Z</time>
      </trkpt>
      <trkpt lat="45.73536" lon="5.62125">
        <ele>329.55576</ele>
        <time>2015-04-26T12:52:48Z</time>
      </trkpt>
      <trkpt lat="45.73545" lon="5.62124">
        <ele>329.55576</ele>
        <time>2015-04-26T12:52:53Z</time>
      </trkpt>
      <trkpt lat="45.73552" lon="5.62124">
        <ele>330.0563</ele>
        <time>2015-04-26T12:52:58Z</time>
      </trkpt>
      <trkpt lat="45.73559" lon="5.62126">
        <ele>330.0563</ele>
        <time>2015-04-26T12:53:03Z</time>
      </trkpt>
      <trkpt lat="45.73566" lon="5.62126">
        <ele>330.1295</ele>
        <time>2015-04-26T12:53:08Z</time>
      </trkpt>
      <trkpt lat="45.73573" lon="5.62126">
        <ele>330.1295</ele>
        <time>2015-04-26T12:53:13Z</time>
      </trkpt>
      <trkpt lat="45.7358" lon="5.62128">
        <ele>329.99237</ele>
        <time>2015-04-26T12:53:18Z</time>
      </trkpt>
      <trkpt lat="45.7359" lon="5.62133">
        <ele>329.97665</ele>
        <time>2015-04-26T12:53:23Z</time>
      </trkpt>
      <trkpt lat="45.73598" lon="5.62133">
        <ele>329.97665</ele>
        <time>2015-04-26T12:53:28Z</time>
      </trkpt>
      <trkpt lat="45.73605" lon="5.62135">
        <ele>329.72635</ele>
        <time>2015-04-26T12:53:33Z</time>
      </trkpt>
      <trkpt lat="45.73611" lon="5.62134">
        <ele>329.72635</ele>
        <time>2015-04-26T12:53:38Z</time>
      </trkpt>
      <trkpt lat="45.73618" lon="5.62135">
        <ele>329.37366</ele>
        <time>2015-04-26T12:53:43Z</time>
      </trkpt>
      <trkpt lat="45.73626" lon="5.62134">
        <ele>329.37366</ele>
        <time>2015-04-26T12:53:48Z</time>
      </trkpt>
      <trkpt lat="45.73633" lon="5.62133">
        <ele>328.7964</ele>
        <time>2015-04-26T12:53:53Z</time>
      </trkpt>
      <trkpt lat="45.73644" lon="5.62133">
        <ele>328.63147</ele>
        <time>2015-04-26T12:53:58Z</time>
      </trkpt>
      <trkpt lat="45.73649" lon="5.62133">
        <ele>328.63147</ele>
        <time>2015-04-26T12:54:03Z</time>
      </trkpt>
      <trkpt lat="45.73655" lon="5.62132">
        <ele>328.0701</ele>
        <time>2015-04-26T12:54:08Z</time>
      </trkpt>
      <trkpt lat="45.73662" lon="5.62133">
        <ele>328.0701</ele>
        <time>2015-04-26T12:54:13Z</time>
      </trkpt>
      <trkpt lat="45.73671" lon="5.62135">
        <ele>328.1654</ele>
        <time>2015-04-26T12:54:18Z</time>
      </trkpt>
      <trkpt lat="45.73678" lon="5.62135">
        <ele>328.1654</ele>
        <time>2015-04-26T12:54:23Z</time>
      </trkpt>
      <trkpt lat="45.73685" lon="5.62136">
        <ele>328.32065</ele>
        <time>2015-04-26T12:54:28Z</time>
      </trkpt>
      <trkpt lat="45.73693" lon="5.62138">
        <ele>328.32065</ele>
        <time>2015-04-26T12:54:33Z</time>
      </trkpt>
      <trkpt lat="45.737" lon="5.62139">
        <ele>328.51593</ele>
        <time>2015-04-26T12:54:38Z</time>
      </trkpt>
      <trkpt lat="45.73709" lon="5.6214">
        <ele>328.81937</ele>
        <time>2015-04-26T12:54:43Z</time>
      </trkpt>
      <trkpt lat="45.73718" lon="5.62141">
        <ele>328.81937</ele>
        <time>2015-04-26T12:54:48Z</time>
      </trkpt>
      <trkpt lat="45.73726" lon="5.62143">
        <ele>329.2505</ele>
        <time>2015-04-26T12:54:53Z</time>
      </trkpt>
      <trkpt lat="45.73732" lon="5.62145">
        <ele>329.2505</ele>
        <time>2015-04-26T12:54:58Z</time>
      </trkpt>
      <trkpt lat="45.73739" lon="5.62148">
        <ele>329.8127</ele>
        <time>2015-04-26T12:55:03Z</time>
      </trkpt>
      <trkpt lat="45.73748" lon="5.6215">
        <ele>329.8127</ele>
        <time>2015-04-26T12:55:08Z</time>
      </trkpt>
      <trkpt lat="45.73756" lon="5.62152">
        <ele>330.5954</ele>
        <time>2015-04-26T12:55:13Z</time>
      </trkpt>
      <trkpt lat="45.73764" lon="5.62154">
        <ele>330.5954</ele>
        <time>2015-04-26T12:55:18Z</time>
      </trkpt>
      <trkpt lat="45.73772" lon="5.62155">
        <ele>331.3493</ele>
        <time>2015-04-26T12:55:23Z</time>
      </trkpt>
      <trkpt lat="45.73779" lon="5.62157">
        <ele>331.3493</ele>
        <time>2015-04-26T12:55:28Z</time>
      </trkpt>
      <trkpt lat="45.73787" lon="5.62157">
        <ele>331.8148</ele>
        <time>2015-04-26T12:55:33Z</time>
      </trkpt>
      <trkpt lat="45.73795" lon="5.62159">
        <ele>331.8148</ele>
        <time>2015-04-26T12:55:38Z</time>
      </trkpt>
      <trkpt lat="45.73803" lon="5.62162">
        <ele>332.18457</ele>
        <time>2015-04-26T12:55:43Z</time>
      </trkpt>
      <trkpt lat="45.73812" lon="5.62163">
        <ele>332.18457</ele>
        <time>2015-04-26T12:55:48Z</time>
      </trkpt>
      <trkpt lat="45.7382" lon="5.62165">
        <ele>332.56543</ele>
        <time>2015-04-26T12:55:53Z</time>
      </trkpt>
      <trkpt lat="45.73828" lon="5.62166">
        <ele>332.56543</ele>
        <time>2015-04-26T12:55:58Z</time>
      </trkpt>
      <trkpt lat="45.73836" lon="5.62167">
        <ele>332.8978</ele>
        <time>2015-04-26T12:56:03Z</time>
      </trkpt>
      <trkpt lat="45.73842" lon="5.62168">
        <ele>332.8978</ele>
        <time>2015-04-26T12:56:08Z</time>
      </trkpt>
      <trkpt lat="45.7385" lon="5.62171">
        <ele>333.12677</ele>
        <time>2015-04-26T12:56:13Z</time>
      </trkpt>
      <trkpt lat="45.73859" lon="5.62173">
        <ele>333.12677</ele>
        <time>2015-04-26T12:56:18Z</time>
      </trkpt>
      <trkpt lat="45.73866" lon="5.62176">
        <ele>333.50433</ele>
        <time>2015-04-26T12:56:23Z</time>
      </trkpt>
      <trkpt lat="45.73874" lon="5.62179">
        <ele>333.50433</ele>
        <time>2015-04-26T12:56:28Z</time>
      </trkpt>
      <trkpt lat="45.73882" lon="5.6218">
        <ele>333.77374</ele>
        <time>2015-04-26T12:56:33Z</time>
      </trkpt>
      <trkpt lat="45.73888" lon="5.6218">
        <ele>333.77374</ele>
        <time>2015-04-26T12:56:38Z</time>
      </trkpt>
      <trkpt lat="45.73895" lon="5.62182">
        <ele>333.82712</ele>
        <time>2015-04-26T12:56:43Z</time>
      </trkpt>
      <trkpt lat="45.73902" lon="5.62183">
        <ele>333.82712</ele>
        <time>2015-04-26T12:56:48Z</time>
      </trkpt>
      <trkpt lat="45.7391" lon="5.62186">
        <ele>334.06952</ele>
        <time>2015-04-26T12:56:53Z</time>
      </trkpt>
      <trkpt lat="45.73916" lon="5.62186">
        <ele>334.06952</ele>
        <time>2015-04-26T12:56:58Z</time>
      </trkpt>
      <trkpt lat="45.73924" lon="5.62186">
        <ele>334.12646</ele>
        <time>2015-04-26T12:57:03Z</time>
      </trkpt>
      <trkpt lat="45.73933" lon="5.62186">
        <ele>334.12646</ele>
        <time>2015-04-26T12:57:08Z</time>
      </trkpt>
      <trkpt lat="45.73941" lon="5.62185">
        <ele>334.42972</ele>
        <time>2015-04-26T12:57:13Z</time>
      </trkpt>
      <trkpt lat="45.73949" lon="5.62184">
        <ele>334.42972</ele>
        <time>2015-04-26T12:57:18Z</time>
      </trkpt>
      <trkpt lat="45.73956" lon="5.62184">
        <ele>335.19128</ele>
        <time>2015-04-26T12:57:23Z</time>
      </trkpt>
      <trkpt lat="45.73964" lon="5.62184">
        <ele>335.19128</ele>
        <time>2015-04-26T12:57:28Z</time>
      </trkpt>
      <trkpt lat="45.73971" lon="5.62183">
        <ele>335.82825</ele>
        <time>2015-04-26T12:57:33Z</time>
      </trkpt>
      <trkpt lat="45.73979" lon="5.62182">
        <ele>335.82825</ele>
        <time>2015-04-26T12:57:38Z</time>
      </trkpt>
      <trkpt lat="45.73988" lon="5.62181">
        <ele>336.3773</ele>
        <time>2015-04-26T12:57:43Z</time>
      </trkpt>
      <trkpt lat="45.73996" lon="5.62179">
        <ele>336.3773</ele>
        <time>2015-04-26T12:57:48Z</time>
      </trkpt>
      <trkpt lat="45.74003" lon="5.62179">
        <ele>336.6709</ele>
        <time>2015-04-26T12:57:53Z</time>
      </trkpt>
      <trkpt lat="45.7401" lon="5.62178">
        <ele>336.6709</ele>
        <time>2015-04-26T12:57:58Z</time>
      </trkpt>
      <trkpt lat="45.74014" lon="5.62181">
        <ele>336.36737</ele>
        <time>2015-04-26T12:58:03Z</time>
      </trkpt>
      <trkpt lat="45.74013" lon="5.62191">
        <ele>336.36737</ele>
        <time>2015-04-26T12:58:08Z</time>
      </trkpt>
      <trkpt lat="45.74014" lon="5.62201">
        <ele>335.88672</ele>
        <time>2015-04-26T12:58:13Z</time>
      </trkpt>
      <trkpt lat="45.74015" lon="5.62212">
        <ele>335.88672</ele>
        <time>2015-04-26T12:58:18Z</time>
      </trkpt>
      <trkpt lat="45.74014" lon="5.62224">
        <ele>335.54654</ele>
        <time>2015-04-26T12:58:23Z</time>
      </trkpt>
      <trkpt lat="45.74013" lon="5.62232">
        <ele>335.54654</ele>
        <time>2015-04-26T12:58:29Z</time>
      </trkpt>
      <trkpt lat="45.74013" lon="5.62252">
        <ele>335.5688</ele>
        <time>2015-04-26T12:58:34Z</time>
      </trkpt>
      <trkpt lat="45.74012" lon="5.62284">
        <ele>335.63922</ele>
        <time>2015-04-26T12:58:39Z</time>
      </trkpt>
      <trkpt lat="45.74034" lon="5.6231">
        <ele>335.75482</ele>
        <time>2015-04-26T12:58:45Z</time>
      </trkpt>
      <trkpt lat="45.74055" lon="5.62325">
        <ele>335.86942</ele>
        <time>2015-04-26T12:58:50Z</time>
      </trkpt>
      <trkpt lat="45.74084" lon="5.62339">
        <ele>335.98352</ele>
        <time>2015-04-26T12:58:54Z</time>
      </trkpt>
      <trkpt lat="45.74118" lon="5.62346">
        <ele>336.70285</ele>
        <time>2015-04-26T12:59:00Z</time>
      </trkpt>
      <trkpt lat="45.7415" lon="5.62347">
        <ele>337.34756</ele>
        <time>2015-04-26T12:59:05Z</time>
      </trkpt>
      <trkpt lat="45.74177" lon="5.6235">
        <ele>337.93655</ele>
        <time>2015-04-26T12:59:10Z</time>
      </trkpt>
      <trkpt lat="45.74199" lon="5.62332">
        <ele>338.2568</ele>
        <time>2015-04-26T12:59:13Z</time>
      </trkpt>
      <trkpt lat="45.74231" lon="5.62323">
        <ele>338.44327</ele>
        <time>2015-04-26T12:59:18Z</time>
      </trkpt>
      <trkpt lat="45.74259" lon="5.6232">
        <ele>338.86627</ele>
        <time>2015-04-26T12:59:23Z</time>
      </trkpt>
      <trkpt lat="45.74285" lon="5.62318">
        <ele>339.26315</ele>
        <time>2015-04-26T12:59:28Z</time>
      </trkpt>
      <trkpt lat="45.74313" lon="5.62326">
        <ele>339.69308</ele>
        <time>2015-04-26T12:59:33Z</time>
      </trkpt>
      <trkpt lat="45.74335" lon="5.62345">
        <ele>340.39832</ele>
        <time>2015-04-26T12:59:38Z</time>
      </trkpt>
      <trkpt lat="45.74355" lon="5.62349">
        <ele>340.80984</ele>
        <time>2015-04-26T12:59:43Z</time>
      </trkpt>
      <trkpt lat="45.74358" lon="5.62361">
        <ele>340.80984</ele>
        <time>2015-04-26T12:59:48Z</time>
      </trkpt>
      <trkpt lat="45.74359" lon="5.62367">
        <ele>340.24277</ele>
        <time>2015-04-26T12:59:53Z</time>
      </trkpt>
      <trkpt lat="45.74374" lon="5.62364">
        <ele>339.5641</ele>
        <time>2015-04-26T12:59:58Z</time>
      </trkpt>
      <trkpt lat="45.74398" lon="5.62357">
        <ele>338.79913</ele>
        <time>2015-04-26T13:00:03Z</time>
      </trkpt>
      <trkpt lat="45.74427" lon="5.62353">
        <ele>338.7787</ele>
        <time>2015-04-26T13:00:08Z</time>
      </trkpt>
      <trkpt lat="45.7446" lon="5.6235">
        <ele>339.0887</ele>
        <time>2015-04-26T13:00:13Z</time>
      </trkpt>
      <trkpt lat="45.74495" lon="5.62351">
        <ele>339.61844</ele>
        <time>2015-04-26T13:00:18Z</time>
      </trkpt>
      <trkpt lat="45.74527" lon="5.62353">
        <ele>340.19254</ele>
        <time>2015-04-26T13:00:23Z</time>
      </trkpt>
      <trkpt lat="45.74561" lon="5.62357">
        <ele>340.64844</ele>
        <time>2015-04-26T13:00:28Z</time>
      </trkpt>
      <trkpt lat="45.74595" lon="5.62358">
        <ele>341.2826</ele>
        <time>2015-04-26T13:00:33Z</time>
      </trkpt>
      <trkpt lat="45.74621" lon="5.62361">
        <ele>341.0145</ele>
        <time>2015-04-26T13:00:38Z</time>
      </trkpt>
      <trkpt lat="45.74656" lon="5.6236">
        <ele>341.29547</ele>
        <time>2015-04-26T13:00:43Z</time>
      </trkpt>
      <trkpt lat="45.74688" lon="5.6236">
        <ele>341.82578</ele>
        <time>2015-04-26T13:00:50Z</time>
      </trkpt>
      <trkpt lat="45.74717" lon="5.62362">
        <ele>341.89465</ele>
        <time>2015-04-26T13:00:55Z</time>
      </trkpt>
      <trkpt lat="45.74745" lon="5.62366">
        <ele>341.98337</ele>
        <time>2015-04-26T13:01:00Z</time>
      </trkpt>
      <trkpt lat="45.74758" lon="5.62368">
        <ele>342.0766</ele>
        <time>2015-04-26T13:01:05Z</time>
      </trkpt>
      <trkpt lat="45.74768" lon="5.62368">
        <ele>342.73654</ele>
        <time>2015-04-26T13:01:08Z</time>
      </trkpt>
      <trkpt lat="45.74776" lon="5.62369">
        <ele>342.73654</ele>
        <time>2015-04-26T13:01:13Z</time>
      </trkpt>
      <trkpt lat="45.74783" lon="5.6237">
        <ele>343.37286</ele>
        <time>2015-04-26T13:01:18Z</time>
      </trkpt>
      <trkpt lat="45.74789" lon="5.6237">
        <ele>343.37286</ele>
        <time>2015-04-26T13:01:23Z</time>
      </trkpt>
      <trkpt lat="45.74797" lon="5.6237">
        <ele>343.38104</ele>
        <time>2015-04-26T13:01:28Z</time>
      </trkpt>
      <trkpt lat="45.74805" lon="5.62374">
        <ele>343.38104</ele>
        <time>2015-04-26T13:01:33Z</time>
      </trkpt>
      <trkpt lat="45.74809" lon="5.62375">
        <ele>343.2979</ele>
        <time>2015-04-26T13:01:38Z</time>
      </trkpt>
      <trkpt lat="45.74815" lon="5.62377">
        <ele>343.2979</ele>
        <time>2015-04-26T13:01:43Z</time>
      </trkpt>
      <trkpt lat="45.74822" lon="5.62378">
        <ele>343.31854</ele>
        <time>2015-04-26T13:01:48Z</time>
      </trkpt>
      <trkpt lat="45.74831" lon="5.62379">
        <ele>343.46484</ele>
        <time>2015-04-26T13:01:53Z</time>
      </trkpt>
      <trkpt lat="45.74838" lon="5.6238">
        <ele>343.46484</ele>
        <time>2015-04-26T13:01:58Z</time>
      </trkpt>
      <trkpt lat="45.74844" lon="5.62381">
        <ele>343.5838</ele>
        <time>2015-04-26T13:02:03Z</time>
      </trkpt>
      <trkpt lat="45.74851" lon="5.62384">
        <ele>343.5838</ele>
        <time>2015-04-26T13:02:08Z</time>
      </trkpt>
      <trkpt lat="45.74859" lon="5.62383">
        <ele>343.59137</ele>
        <time>2015-04-26T13:02:13Z</time>
      </trkpt>
      <trkpt lat="45.74865" lon="5.62384">
        <ele>343.59137</ele>
        <time>2015-04-26T13:02:18Z</time>
      </trkpt>
      <trkpt lat="45.74872" lon="5.62384">
        <ele>343.6838</ele>
        <time>2015-04-26T13:02:23Z</time>
      </trkpt>
      <trkpt lat="45.74882" lon="5.62386">
        <ele>344.1868</ele>
        <time>2015-04-26T13:02:28Z</time>
      </trkpt>
      <trkpt lat="45.74888" lon="5.62387">
        <ele>344.1868</ele>
        <time>2015-04-26T13:02:33Z</time>
      </trkpt>
      <trkpt lat="45.74894" lon="5.62386">
        <ele>344.30573</ele>
        <time>2015-04-26T13:02:38Z</time>
      </trkpt>
      <trkpt lat="45.74902" lon="5.62384">
        <ele>344.30573</ele>
        <time>2015-04-26T13:02:43Z</time>
      </trkpt>
      <trkpt lat="45.74912" lon="5.62385">
        <ele>344.48706</ele>
        <time>2015-04-26T13:02:48Z</time>
      </trkpt>
      <trkpt lat="45.7494" lon="5.62382">
        <ele>344.36615</ele>
        <time>2015-04-26T13:02:53Z</time>
      </trkpt>
      <trkpt lat="45.74971" lon="5.62378">
        <ele>344.38416</ele>
        <time>2015-04-26T13:02:58Z</time>
      </trkpt>
      <trkpt lat="45.75004" lon="5.62379">
        <ele>344.71887</ele>
        <time>2015-04-26T13:03:03Z</time>
      </trkpt>
      <trkpt lat="45.75037" lon="5.62378">
        <ele>345.11618</ele>
        <time>2015-04-26T13:03:08Z</time>
      </trkpt>
      <trkpt lat="45.75069" lon="5.62382">
        <ele>345.8304</ele>
        <time>2015-04-26T13:03:13Z</time>
      </trkpt>
      <trkpt lat="45.75099" lon="5.62382">
        <ele>347.0099</ele>
        <time>2015-04-26T13:03:18Z</time>
      </trkpt>
      <trkpt lat="45.75126" lon="5.62384">
        <ele>347.9693</ele>
        <time>2015-04-26T13:03:23Z</time>
      </trkpt>
      <trkpt lat="45.75156" lon="5.62385">
        <ele>348.67957</ele>
        <time>2015-04-26T13:03:28Z</time>
      </trkpt>
      <trkpt lat="45.75184" lon="5.62387">
        <ele>348.71088</ele>
        <time>2015-04-26T13:03:33Z</time>
      </trkpt>
      <trkpt lat="45.75215" lon="5.62391">
        <ele>348.81985</ele>
        <time>2015-04-26T13:03:38Z</time>
      </trkpt>
      <trkpt lat="45.75243" lon="5.62385">
        <ele>348.92917</ele>
        <time>2015-04-26T13:03:43Z</time>
      </trkpt>
      <trkpt lat="45.75262" lon="5.62388">
        <ele>349.14</ele>
        <time>2015-04-26T13:03:48Z</time>
      </trkpt>
      <trkpt lat="45.7527" lon="5.6239">
        <ele>349.14</ele>
        <time>2015-04-26T13:03:53Z</time>
      </trkpt>
      <trkpt lat="45.75278" lon="5.62391">
        <ele>349.34424</ele>
        <time>2015-04-26T13:03:58Z</time>
      </trkpt>
      <trkpt lat="45.75285" lon="5.62392">
        <ele>349.34424</ele>
        <time>2015-04-26T13:04:03Z</time>
      </trkpt>
      <trkpt lat="45.75291" lon="5.62394">
        <ele>349.12448</ele>
        <time>2015-04-26T13:04:08Z</time>
      </trkpt>
      <trkpt lat="45.75299" lon="5.62395">
        <ele>349.12448</ele>
        <time>2015-04-26T13:04:13Z</time>
      </trkpt>
      <trkpt lat="45.75304" lon="5.62398">
        <ele>348.8591</ele>
        <time>2015-04-26T13:04:18Z</time>
      </trkpt>
      <trkpt lat="45.75312" lon="5.62397">
        <ele>348.8591</ele>
        <time>2015-04-26T13:04:23Z</time>
      </trkpt>
      <trkpt lat="45.7532" lon="5.62398">
        <ele>348.5097</ele>
        <time>2015-04-26T13:04:28Z</time>
      </trkpt>
      <trkpt lat="45.75327" lon="5.62398">
        <ele>348.5097</ele>
        <time>2015-04-26T13:04:33Z</time>
      </trkpt>
      <trkpt lat="45.75336" lon="5.62399">
        <ele>348.22827</ele>
        <time>2015-04-26T13:04:38Z</time>
      </trkpt>
      <trkpt lat="45.75344" lon="5.62398">
        <ele>348.22827</ele>
        <time>2015-04-26T13:04:43Z</time>
      </trkpt>
      <trkpt lat="45.75352" lon="5.62399">
        <ele>348.06894</ele>
        <time>2015-04-26T13:04:48Z</time>
      </trkpt>
      <trkpt lat="45.75359" lon="5.624">
        <ele>348.06894</ele>
        <time>2015-04-26T13:04:53Z</time>
      </trkpt>
      <trkpt lat="45.75366" lon="5.624">
        <ele>348.3121</ele>
        <time>2015-04-26T13:04:58Z</time>
      </trkpt>
      <trkpt lat="45.75373" lon="5.62401">
        <ele>348.3121</ele>
        <time>2015-04-26T13:05:03Z</time>
      </trkpt>
      <trkpt lat="45.75381" lon="5.62404">
        <ele>348.42383</ele>
        <time>2015-04-26T13:05:08Z</time>
      </trkpt>
      <trkpt lat="45.75388" lon="5.62404">
        <ele>348.42383</ele>
        <time>2015-04-26T13:05:13Z</time>
      </trkpt>
      <trkpt lat="45.75407" lon="5.62405">
        <ele>348.3997</ele>
        <time>2015-04-26T13:05:18Z</time>
      </trkpt>
      <trkpt lat="45.75434" lon="5.62411">
        <ele>348.59628</ele>
        <time>2015-04-26T13:05:23Z</time>
      </trkpt>
      <trkpt lat="45.75461" lon="5.62414">
        <ele>348.76688</ele>
        <time>2015-04-26T13:05:28Z</time>
      </trkpt>
      <trkpt lat="45.75487" lon="5.62426">
        <ele>348.89914</ele>
        <time>2015-04-26T13:05:33Z</time>
      </trkpt>
      <trkpt lat="45.75507" lon="5.62434">
        <ele>348.89526</ele>
        <time>2015-04-26T13:05:38Z</time>
      </trkpt>
      <trkpt lat="45.75542" lon="5.62447">
        <ele>349.2558</ele>
        <time>2015-04-26T13:05:43Z</time>
      </trkpt>
      <trkpt lat="45.75574" lon="5.62456">
        <ele>349.49243</ele>
        <time>2015-04-26T13:05:48Z</time>
      </trkpt>
      <trkpt lat="45.75602" lon="5.62462">
        <ele>349.83035</ele>
        <time>2015-04-26T13:05:53Z</time>
      </trkpt>
      <trkpt lat="45.75631" lon="5.62466">
        <ele>350.42026</ele>
        <time>2015-04-26T13:05:58Z</time>
      </trkpt>
      <trkpt lat="45.75659" lon="5.62465">
        <ele>351.02634</ele>
        <time>2015-04-26T13:06:03Z</time>
      </trkpt>
      <trkpt lat="45.75688" lon="5.62463">
        <ele>351.70395</ele>
        <time>2015-04-26T13:06:08Z</time>
      </trkpt>
      <trkpt lat="45.75716" lon="5.62458">
        <ele>352.46088</ele>
        <time>2015-04-26T13:06:13Z</time>
      </trkpt>
      <trkpt lat="45.75744" lon="5.62459">
        <ele>353.2753</ele>
        <time>2015-04-26T13:06:18Z</time>
      </trkpt>
      <trkpt lat="45.75766" lon="5.62466">
        <ele>353.53607</ele>
        <time>2015-04-26T13:06:23Z</time>
      </trkpt>
      <trkpt lat="45.75782" lon="5.62471">
        <ele>354.1051</ele>
        <time>2015-04-26T13:06:28Z</time>
      </trkpt>
      <trkpt lat="45.75792" lon="5.62474">
        <ele>354.6993</ele>
        <time>2015-04-26T13:06:33Z</time>
      </trkpt>
      <trkpt lat="45.75797" lon="5.62476">
        <ele>354.6993</ele>
        <time>2015-04-26T13:06:38Z</time>
      </trkpt>
      <trkpt lat="45.75804" lon="5.62475">
        <ele>355.1429</ele>
        <time>2015-04-26T13:06:43Z</time>
      </trkpt>
      <trkpt lat="45.75812" lon="5.62476">
        <ele>355.1429</ele>
        <time>2015-04-26T13:06:48Z</time>
      </trkpt>
      <trkpt lat="45.75817" lon="5.62479">
        <ele>355.21573</ele>
        <time>2015-04-26T13:06:53Z</time>
      </trkpt>
      <trkpt lat="45.75825" lon="5.62479">
        <ele>355.21573</ele>
        <time>2015-04-26T13:06:58Z</time>
      </trkpt>
      <trkpt lat="45.75833" lon="5.62482">
        <ele>355.07513</ele>
        <time>2015-04-26T13:07:03Z</time>
      </trkpt>
      <trkpt lat="45.75841" lon="5.62478">
        <ele>355.07513</ele>
        <time>2015-04-26T13:07:08Z</time>
      </trkpt>
      <trkpt lat="45.75852" lon="5.62479">
        <ele>355.3287</ele>
        <time>2015-04-26T13:07:13Z</time>
      </trkpt>
      <trkpt lat="45.75858" lon="5.62483">
        <ele>355.3287</ele>
        <time>2015-04-26T13:07:18Z</time>
      </trkpt>
      <trkpt lat="45.75866" lon="5.6249">
        <ele>355.60156</ele>
        <time>2015-04-26T13:07:23Z</time>
      </trkpt>
      <trkpt lat="45.75873" lon="5.62494">
        <ele>355.60156</ele>
        <time>2015-04-26T13:07:28Z</time>
      </trkpt>
      <trkpt lat="45.75878" lon="5.62498">
        <ele>355.114</ele>
        <time>2015-04-26T13:07:33Z</time>
      </trkpt>
      <trkpt lat="45.75887" lon="5.62501">
        <ele>355.114</ele>
        <time>2015-04-26T13:07:38Z</time>
      </trkpt>
      <trkpt lat="45.75892" lon="5.62503">
        <ele>354.50034</ele>
        <time>2015-04-26T13:07:43Z</time>
      </trkpt>
      <trkpt lat="45.75897" lon="5.62505">
        <ele>354.50034</ele>
        <time>2015-04-26T13:07:48Z</time>
      </trkpt>
      <trkpt lat="45.75904" lon="5.62508">
        <ele>353.84433</ele>
        <time>2015-04-26T13:07:53Z</time>
      </trkpt>
      <trkpt lat="45.7591" lon="5.62511">
        <ele>353.84433</ele>
        <time>2015-04-26T13:07:58Z</time>
      </trkpt>
      <trkpt lat="45.7592" lon="5.62513">
        <ele>353.38214</ele>
        <time>2015-04-26T13:08:03Z</time>
      </trkpt>
      <trkpt lat="45.75941" lon="5.62518">
        <ele>352.89972</ele>
        <time>2015-04-26T13:08:08Z</time>
      </trkpt>
      <trkpt lat="45.75971" lon="5.62522">
        <ele>352.2997</ele>
        <time>2015-04-26T13:08:13Z</time>
      </trkpt>
      <trkpt lat="45.76002" lon="5.62524">
        <ele>352.01096</ele>
        <time>2015-04-26T13:08:18Z</time>
      </trkpt>
      <trkpt lat="45.76028" lon="5.62536">
        <ele>351.9255</ele>
        <time>2015-04-26T13:08:23Z</time>
      </trkpt>
      <trkpt lat="45.76041" lon="5.62549">
        <ele>351.46722</ele>
        <time>2015-04-26T13:08:28Z</time>
      </trkpt>
      <trkpt lat="45.76048" lon="5.62558">
        <ele>350.92468</ele>
        <time>2015-04-26T13:08:33Z</time>
      </trkpt>
      <trkpt lat="45.76054" lon="5.62564">
        <ele>350.92468</ele>
        <time>2015-04-26T13:08:38Z</time>
      </trkpt>
      <trkpt lat="45.76059" lon="5.62568">
        <ele>350.5223</ele>
        <time>2015-04-26T13:08:43Z</time>
      </trkpt>
      <trkpt lat="45.76066" lon="5.62576">
        <ele>350.5223</ele>
        <time>2015-04-26T13:08:48Z</time>
      </trkpt>
      <trkpt lat="45.76075" lon="5.62584">
        <ele>350.79898</ele>
        <time>2015-04-26T13:08:53Z</time>
      </trkpt>
      <trkpt lat="45.76082" lon="5.62595">
        <ele>350.72455</ele>
        <time>2015-04-26T13:08:58Z</time>
      </trkpt>
      <trkpt lat="45.76086" lon="5.62606">
        <ele>350.52713</ele>
        <time>2015-04-26T13:09:03Z</time>
      </trkpt>
      <trkpt lat="45.76091" lon="5.62613">
        <ele>350.52713</ele>
        <time>2015-04-26T13:09:08Z</time>
      </trkpt>
      <trkpt lat="45.76095" lon="5.6262">
        <ele>350.25992</ele>
        <time>2015-04-26T13:09:13Z</time>
      </trkpt>
      <trkpt lat="45.76096" lon="5.6263">
        <ele>350.25992</ele>
        <time>2015-04-26T13:09:18Z</time>
      </trkpt>
      <trkpt lat="45.761" lon="5.62633">
        <ele>350.08765</ele>
        <time>2015-04-26T13:09:23Z</time>
      </trkpt>
      <trkpt lat="45.76105" lon="5.6264">
        <ele>350.08765</ele>
        <time>2015-04-26T13:09:28Z</time>
      </trkpt>
      <trkpt lat="45.7611" lon="5.62646">
        <ele>349.90323</ele>
        <time>2015-04-26T13:09:33Z</time>
      </trkpt>
      <trkpt lat="45.76113" lon="5.62651">
        <ele>349.90323</ele>
        <time>2015-04-26T13:09:38Z</time>
      </trkpt>
      <trkpt lat="45.7612" lon="5.62654">
        <ele>349.5786</ele>
        <time>2015-04-26T13:09:43Z</time>
      </trkpt>
      <trkpt lat="45.76127" lon="5.62661">
        <ele>349.3126</ele>
        <time>2015-04-26T13:09:48Z</time>
      </trkpt>
      <trkpt lat="45.76133" lon="5.62668">
        <ele>349.3126</ele>
        <time>2015-04-26T13:09:53Z</time>
      </trkpt>
      <trkpt lat="45.76139" lon="5.62673">
        <ele>348.32358</ele>
        <time>2015-04-26T13:09:58Z</time>
      </trkpt>
      <trkpt lat="45.76144" lon="5.62677">
        <ele>348.32358</ele>
        <time>2015-04-26T13:10:03Z</time>
      </trkpt>
      <trkpt lat="45.76152" lon="5.62686">
        <ele>347.63315</ele>
        <time>2015-04-26T13:10:08Z</time>
      </trkpt>
      <trkpt lat="45.7616" lon="5.62698">
        <ele>347.62497</ele>
        <time>2015-04-26T13:10:13Z</time>
      </trkpt>
      <trkpt lat="45.76164" lon="5.62703">
        <ele>347.62497</ele>
        <time>2015-04-26T13:10:18Z</time>
      </trkpt>
      <trkpt lat="45.76168" lon="5.62714">
        <ele>348.22012</ele>
        <time>2015-04-26T13:10:23Z</time>
      </trkpt>
      <trkpt lat="45.76171" lon="5.62724">
        <ele>348.22012</ele>
        <time>2015-04-26T13:10:28Z</time>
      </trkpt>
      <trkpt lat="45.76174" lon="5.62735">
        <ele>348.81067</ele>
        <time>2015-04-26T13:10:33Z</time>
      </trkpt>
      <trkpt lat="45.76177" lon="5.62743">
        <ele>348.81067</ele>
        <time>2015-04-26T13:10:38Z</time>
      </trkpt>
      <trkpt lat="45.76181" lon="5.62747">
        <ele>350.02936</ele>
        <time>2015-04-26T13:10:43Z</time>
      </trkpt>
      <trkpt lat="45.76186" lon="5.62752">
        <ele>350.02936</ele>
        <time>2015-04-26T13:10:48Z</time>
      </trkpt>
      <trkpt lat="45.76192" lon="5.62754">
        <ele>350.7458</ele>
        <time>2015-04-26T13:10:53Z</time>
      </trkpt>
      <trkpt lat="45.76198" lon="5.62758">
        <ele>350.7458</ele>
        <time>2015-04-26T13:10:58Z</time>
      </trkpt>
      <trkpt lat="45.76202" lon="5.62761">
        <ele>351.19653</ele>
        <time>2015-04-26T13:11:03Z</time>
      </trkpt>
      <trkpt lat="45.76207" lon="5.62764">
        <ele>351.19653</ele>
        <time>2015-04-26T13:11:08Z</time>
      </trkpt>
      <trkpt lat="45.76213" lon="5.62767">
        <ele>351.4142</ele>
        <time>2015-04-26T13:11:13Z</time>
      </trkpt>
      <trkpt lat="45.76221" lon="5.62771">
        <ele>351.4142</ele>
        <time>2015-04-26T13:11:18Z</time>
      </trkpt>
      <trkpt lat="45.76228" lon="5.62775">
        <ele>351.64587</ele>
        <time>2015-04-26T13:11:23Z</time>
      </trkpt>
      <trkpt lat="45.76231" lon="5.62779">
        <ele>351.64587</ele>
        <time>2015-04-26T13:11:28Z</time>
      </trkpt>
      <trkpt lat="45.76239" lon="5.62785">
        <ele>351.58716</ele>
        <time>2015-04-26T13:11:33Z</time>
      </trkpt>
      <trkpt lat="45.76246" lon="5.62794">
        <ele>351.6342</ele>
        <time>2015-04-26T13:11:38Z</time>
      </trkpt>
      <trkpt lat="45.7625" lon="5.62805">
        <ele>351.6205</ele>
        <time>2015-04-26T13:11:43Z</time>
      </trkpt>
      <trkpt lat="45.76254" lon="5.62817">
        <ele>351.49292</ele>
        <time>2015-04-26T13:11:48Z</time>
      </trkpt>
      <trkpt lat="45.76259" lon="5.62831">
        <ele>351.73566</ele>
        <time>2015-04-26T13:11:53Z</time>
      </trkpt>
      <trkpt lat="45.76261" lon="5.62843">
        <ele>351.73566</ele>
        <time>2015-04-26T13:11:58Z</time>
      </trkpt>
      <trkpt lat="45.76261" lon="5.62855">
        <ele>352.03256</ele>
        <time>2015-04-26T13:12:03Z</time>
      </trkpt>
      <trkpt lat="45.76262" lon="5.62866">
        <ele>352.03256</ele>
        <time>2015-04-26T13:12:08Z</time>
      </trkpt>
      <trkpt lat="45.7626" lon="5.62872">
        <ele>352.5085</ele>
        <time>2015-04-26T13:12:13Z</time>
      </trkpt>
      <trkpt lat="45.76256" lon="5.62871">
        <ele>352.5085</ele>
        <time>2015-04-26T13:12:18Z</time>
      </trkpt>
      <trkpt lat="45.76251" lon="5.6287">
        <ele>352.5085</ele>
        <time>2015-04-26T13:12:23Z</time>
      </trkpt>
      <trkpt lat="45.76243" lon="5.62873">
        <ele>352.18347</ele>
        <time>2015-04-26T13:12:28Z</time>
      </trkpt>
      <trkpt lat="45.76234" lon="5.62877">
        <ele>351.79443</ele>
        <time>2015-04-26T13:12:33Z</time>
      </trkpt>
      <trkpt lat="45.76226" lon="5.62882">
        <ele>351.79443</ele>
        <time>2015-04-26T13:12:38Z</time>
      </trkpt>
      <trkpt lat="45.76217" lon="5.62888">
        <ele>351.8804</ele>
        <time>2015-04-26T13:12:43Z</time>
      </trkpt>
      <trkpt lat="45.76212" lon="5.62893">
        <ele>351.8804</ele>
        <time>2015-04-26T13:12:48Z</time>
      </trkpt>
      <trkpt lat="45.76207" lon="5.62897">
        <ele>352.04596</ele>
        <time>2015-04-26T13:12:53Z</time>
      </trkpt>
      <trkpt lat="45.76201" lon="5.62901">
        <ele>352.04596</ele>
        <time>2015-04-26T13:12:58Z</time>
      </trkpt>
      <trkpt lat="45.76192" lon="5.62912">
        <ele>352.42886</ele>
        <time>2015-04-26T13:13:03Z</time>
      </trkpt>
      <trkpt lat="45.76183" lon="5.62922">
        <ele>353.09857</ele>
        <time>2015-04-26T13:13:08Z</time>
      </trkpt>
      <trkpt lat="45.76177" lon="5.62929">
        <ele>353.09857</ele>
        <time>2015-04-26T13:13:13Z</time>
      </trkpt>
      <trkpt lat="45.76174" lon="5.62938">
        <ele>353.38364</ele>
        <time>2015-04-26T13:13:18Z</time>
      </trkpt>
      <trkpt lat="45.76171" lon="5.62944">
        <ele>353.38364</ele>
        <time>2015-04-26T13:13:23Z</time>
      </trkpt>
      <trkpt lat="45.76168" lon="5.62953">
        <ele>352.9512</ele>
        <time>2015-04-26T13:13:28Z</time>
      </trkpt>
      <trkpt lat="45.76167" lon="5.62962">
        <ele>352.9512</ele>
        <time>2015-04-26T13:13:33Z</time>
      </trkpt>
      <trkpt lat="45.76166" lon="5.6297">
        <ele>352.18674</ele>
        <time>2015-04-26T13:13:38Z</time>
      </trkpt>
      <trkpt lat="45.76165" lon="5.62986">
        <ele>351.95258</ele>
        <time>2015-04-26T13:13:43Z</time>
      </trkpt>
      <trkpt lat="45.76168" lon="5.62992">
        <ele>351.95258</ele>
        <time>2015-04-26T13:13:48Z</time>
      </trkpt>
      <trkpt lat="45.76169" lon="5.63003">
        <ele>351.18732</ele>
        <time>2015-04-26T13:13:53Z</time>
      </trkpt>
      <trkpt lat="45.7617" lon="5.63012">
        <ele>351.18732</ele>
        <time>2015-04-26T13:13:58Z</time>
      </trkpt>
      <trkpt lat="45.7617" lon="5.63023">
        <ele>350.39328</ele>
        <time>2015-04-26T13:14:03Z</time>
      </trkpt>
      <trkpt lat="45.76169" lon="5.63034">
        <ele>350.39328</ele>
        <time>2015-04-26T13:14:08Z</time>
      </trkpt>
      <trkpt lat="45.76168" lon="5.63042">
        <ele>350.1513</ele>
        <time>2015-04-26T13:14:13Z</time>
      </trkpt>
      <trkpt lat="45.76166" lon="5.63052">
        <ele>350.1513</ele>
        <time>2015-04-26T13:14:18Z</time>
      </trkpt>
      <trkpt lat="45.76165" lon="5.63064">
        <ele>349.71533</ele>
        <time>2015-04-26T13:14:23Z</time>
      </trkpt>
      <trkpt lat="45.76169" lon="5.63072">
        <ele>349.71533</ele>
        <time>2015-04-26T13:14:28Z</time>
      </trkpt>
      <trkpt lat="45.76173" lon="5.63087">
        <ele>349.59085</ele>
        <time>2015-04-26T13:14:33Z</time>
      </trkpt>
      <trkpt lat="45.76178" lon="5.63091">
        <ele>349.59085</ele>
        <time>2015-04-26T13:14:38Z</time>
      </trkpt>
      <trkpt lat="45.76183" lon="5.63097">
        <ele>349.45264</ele>
        <time>2015-04-26T13:14:43Z</time>
      </trkpt>
      <trkpt lat="45.76191" lon="5.631">
        <ele>349.45264</ele>
        <time>2015-04-26T13:14:48Z</time>
      </trkpt>
      <trkpt lat="45.76196" lon="5.63103">
        <ele>350.68558</ele>
        <time>2015-04-26T13:14:53Z</time>
      </trkpt>
      <trkpt lat="45.76204" lon="5.63101">
        <ele>350.68558</ele>
        <time>2015-04-26T13:14:58Z</time>
      </trkpt>
      <trkpt lat="45.76211" lon="5.63101">
        <ele>352.8972</ele>
        <time>2015-04-26T13:15:03Z</time>
      </trkpt>
      <trkpt lat="45.76217" lon="5.63101">
        <ele>352.8972</ele>
        <time>2015-04-26T13:15:08Z</time>
      </trkpt>
      <trkpt lat="45.76221" lon="5.63101">
        <ele>355.21674</ele>
        <time>2015-04-26T13:15:13Z</time>
      </trkpt>
      <trkpt lat="45.76227" lon="5.631">
        <ele>355.21674</ele>
        <time>2015-04-26T13:15:18Z</time>
      </trkpt>
      <trkpt lat="45.76234" lon="5.631">
        <ele>357.22626</ele>
        <time>2015-04-26T13:15:23Z</time>
      </trkpt>
      <trkpt lat="45.76242" lon="5.63099">
        <ele>357.22626</ele>
        <time>2015-04-26T13:15:28Z</time>
      </trkpt>
      <trkpt lat="45.7625" lon="5.63101">
        <ele>359.23108</ele>
        <time>2015-04-26T13:15:33Z</time>
      </trkpt>
      <trkpt lat="45.76256" lon="5.631">
        <ele>359.23108</ele>
        <time>2015-04-26T13:15:38Z</time>
      </trkpt>
      <trkpt lat="45.76264" lon="5.631">
        <ele>361.0675</ele>
        <time>2015-04-26T13:15:43Z</time>
      </trkpt>
      <trkpt lat="45.7627" lon="5.63103">
        <ele>361.0675</ele>
        <time>2015-04-26T13:15:48Z</time>
      </trkpt>
      <trkpt lat="45.76279" lon="5.63108">
        <ele>362.85812</ele>
        <time>2015-04-26T13:15:53Z</time>
      </trkpt>
      <trkpt lat="45.76285" lon="5.63113">
        <ele>362.85812</ele>
        <time>2015-04-26T13:15:58Z</time>
      </trkpt>
      <trkpt lat="45.7629" lon="5.63119">
        <ele>364.19797</ele>
        <time>2015-04-26T13:16:03Z</time>
      </trkpt>
      <trkpt lat="45.76297" lon="5.63122">
        <ele>364.19797</ele>
        <time>2015-04-26T13:16:08Z</time>
      </trkpt>
      <trkpt lat="45.76303" lon="5.63128">
        <ele>365.0878</ele>
        <time>2015-04-26T13:16:13Z</time>
      </trkpt>
      <trkpt lat="45.76309" lon="5.63135">
        <ele>365.0878</ele>
        <time>2015-04-26T13:16:18Z</time>
      </trkpt>
      <trkpt lat="45.76314" lon="5.63139">
        <ele>365.55853</ele>
        <time>2015-04-26T13:16:23Z</time>
      </trkpt>
      <trkpt lat="45.76321" lon="5.63143">
        <ele>365.55853</ele>
        <time>2015-04-26T13:16:28Z</time>
      </trkpt>
      <trkpt lat="45.76325" lon="5.63148">
        <ele>365.6833</ele>
        <time>2015-04-26T13:16:33Z</time>
      </trkpt>
      <trkpt lat="45.7633" lon="5.63154">
        <ele>365.6833</ele>
        <time>2015-04-26T13:16:38Z</time>
      </trkpt>
      <trkpt lat="45.76335" lon="5.63161">
        <ele>365.64618</ele>
        <time>2015-04-26T13:16:43Z</time>
      </trkpt>
      <trkpt lat="45.76341" lon="5.63169">
        <ele>365.64618</ele>
        <time>2015-04-26T13:16:48Z</time>
      </trkpt>
      <trkpt lat="45.76346" lon="5.63177">
        <ele>365.5462</ele>
        <time>2015-04-26T13:16:53Z</time>
      </trkpt>
      <trkpt lat="45.7635" lon="5.63184">
        <ele>365.5462</ele>
        <time>2015-04-26T13:16:58Z</time>
      </trkpt>
      <trkpt lat="45.76353" lon="5.63192">
        <ele>365.02866</ele>
        <time>2015-04-26T13:17:03Z</time>
      </trkpt>
      <trkpt lat="45.76357" lon="5.632">
        <ele>365.02866</ele>
        <time>2015-04-26T13:17:08Z</time>
      </trkpt>
      <trkpt lat="45.76363" lon="5.63207">
        <ele>364.15518</ele>
        <time>2015-04-26T13:17:13Z</time>
      </trkpt>
      <trkpt lat="45.76369" lon="5.63214">
        <ele>364.15518</ele>
        <time>2015-04-26T13:17:18Z</time>
      </trkpt>
      <trkpt lat="45.76374" lon="5.63216">
        <ele>363.37302</ele>
        <time>2015-04-26T13:17:23Z</time>
      </trkpt>
      <trkpt lat="45.76381" lon="5.63216">
        <ele>363.37302</ele>
        <time>2015-04-26T13:17:28Z</time>
      </trkpt>
      <trkpt lat="45.76389" lon="5.63218">
        <ele>362.59195</ele>
        <time>2015-04-26T13:17:33Z</time>
      </trkpt>
      <trkpt lat="45.76397" lon="5.6322">
        <ele>362.59195</ele>
        <time>2015-04-26T13:17:38Z</time>
      </trkpt>
      <trkpt lat="45.76407" lon="5.6322">
        <ele>362.27612</ele>
        <time>2015-04-26T13:17:43Z</time>
      </trkpt>
      <trkpt lat="45.76417" lon="5.63221">
        <ele>362.0183</ele>
        <time>2015-04-26T13:17:48Z</time>
      </trkpt>
      <trkpt lat="45.76427" lon="5.63223">
        <ele>361.81583</ele>
        <time>2015-04-26T13:17:53Z</time>
      </trkpt>
      <trkpt lat="45.76432" lon="5.63227">
        <ele>361.81583</ele>
        <time>2015-04-26T13:17:58Z</time>
      </trkpt>
      <trkpt lat="45.76438" lon="5.63232">
        <ele>361.39218</ele>
        <time>2015-04-26T13:18:03Z</time>
      </trkpt>
      <trkpt lat="45.7644" lon="5.63236">
        <ele>361.39218</ele>
        <time>2015-04-26T13:18:08Z</time>
      </trkpt>
      <trkpt lat="45.76445" lon="5.63246">
        <ele>359.82892</ele>
        <time>2015-04-26T13:18:13Z</time>
      </trkpt>
      <trkpt lat="45.76447" lon="5.63259">
        <ele>359.82892</ele>
        <time>2015-04-26T13:18:18Z</time>
      </trkpt>
      <trkpt lat="45.76448" lon="5.63272">
        <ele>358.45428</ele>
        <time>2015-04-26T13:18:23Z</time>
      </trkpt>
      <trkpt lat="45.76447" lon="5.63286">
        <ele>357.31674</ele>
        <time>2015-04-26T13:18:28Z</time>
      </trkpt>
      <trkpt lat="45.76447" lon="5.63301">
        <ele>356.5469</ele>
        <time>2015-04-26T13:18:33Z</time>
      </trkpt>
      <trkpt lat="45.76447" lon="5.63312">
        <ele>356.5469</ele>
        <time>2015-04-26T13:18:38Z</time>
      </trkpt>
      <trkpt lat="45.76447" lon="5.63324">
        <ele>355.818</ele>
        <time>2015-04-26T13:18:44Z</time>
      </trkpt>
      <trkpt lat="45.76447" lon="5.63333">
        <ele>355.818</ele>
        <time>2015-04-26T13:18:50Z</time>
      </trkpt>
      <trkpt lat="45.76447" lon="5.63344">
        <ele>354.91354</ele>
        <time>2015-04-26T13:18:55Z</time>
      </trkpt>
      <trkpt lat="45.76447" lon="5.63355">
        <ele>354.91354</ele>
        <time>2015-04-26T13:19:00Z</time>
      </trkpt>
      <trkpt lat="45.76448" lon="5.63368">
        <ele>354.2243</ele>
        <time>2015-04-26T13:19:05Z</time>
      </trkpt>
      <trkpt lat="45.7645" lon="5.63379">
        <ele>354.2243</ele>
        <time>2015-04-26T13:19:09Z</time>
      </trkpt>
      <trkpt lat="45.7645" lon="5.6339">
        <ele>353.59277</ele>
        <time>2015-04-26T13:19:15Z</time>
      </trkpt>
      <trkpt lat="45.76453" lon="5.63398">
        <ele>353.59277</ele>
        <time>2015-04-26T13:19:20Z</time>
      </trkpt>
      <trkpt lat="45.76453" lon="5.63409">
        <ele>352.5126</ele>
        <time>2015-04-26T13:19:25Z</time>
      </trkpt>
      <trkpt lat="45.76454" lon="5.63418">
        <ele>352.5126</ele>
        <time>2015-04-26T13:19:28Z</time>
      </trkpt>
      <trkpt lat="45.76455" lon="5.63429">
        <ele>351.2508</ele>
        <time>2015-04-26T13:19:34Z</time>
      </trkpt>
      <trkpt lat="45.76454" lon="5.63436">
        <ele>351.2508</ele>
        <time>2015-04-26T13:19:39Z</time>
      </trkpt>
      <trkpt lat="45.76452" lon="5.63451">
        <ele>350.31454</ele>
        <time>2015-04-26T13:19:45Z</time>
      </trkpt>
      <trkpt lat="45.76447" lon="5.63461">
        <ele>350.31454</ele>
        <time>2015-04-26T13:19:50Z</time>
      </trkpt>
      <trkpt lat="45.76441" lon="5.6347">
        <ele>349.89896</ele>
        <time>2015-04-26T13:19:55Z</time>
      </trkpt>
      <trkpt lat="45.76436" lon="5.63477">
        <ele>349.89896</ele>
        <time>2015-04-26T13:20:00Z</time>
      </trkpt>
      <trkpt lat="45.76429" lon="5.63485">
        <ele>349.69336</ele>
        <time>2015-04-26T13:20:05Z</time>
      </trkpt>
      <trkpt lat="45.76423" lon="5.63493">
        <ele>349.69336</ele>
        <time>2015-04-26T13:20:09Z</time>
      </trkpt>
      <trkpt lat="45.76418" lon="5.63495">
        <ele>350.0145</ele>
        <time>2015-04-26T13:20:16Z</time>
      </trkpt>
      <trkpt lat="45.76419" lon="5.63494">
        <ele>350.0145</ele>
        <time>2015-04-26T13:20:19Z</time>
      </trkpt>
      <trkpt lat="45.76419" lon="5.63495">
        <ele>350.0145</ele>
        <time>2015-04-26T13:20:24Z</time>
      </trkpt>
      <trkpt lat="45.76419" lon="5.63494">
        <ele>350.0145</ele>
        <time>2015-04-26T13:20:30Z</time>
      </trkpt>
      <trkpt lat="45.76419" lon="5.63495">
        <ele>350.0145</ele>
        <time>2015-04-26T13:20:34Z</time>
      </trkpt>
      <trkpt lat="45.76414" lon="5.63501">
        <ele>350.03015</ele>
        <time>2015-04-26T13:20:39Z</time>
      </trkpt>
      <trkpt lat="45.76409" lon="5.63507">
        <ele>350.03015</ele>
        <time>2015-04-26T13:20:45Z</time>
      </trkpt>
      <trkpt lat="45.76405" lon="5.63513">
        <ele>349.9501</ele>
        <time>2015-04-26T13:20:50Z</time>
      </trkpt>
      <trkpt lat="45.764" lon="5.6352">
        <ele>349.9501</ele>
        <time>2015-04-26T13:20:56Z</time>
      </trkpt>
      <trkpt lat="45.76397" lon="5.63526">
        <ele>349.99762</ele>
        <time>2015-04-26T13:21:00Z</time>
      </trkpt>
      <trkpt lat="45.76396" lon="5.63526">
        <ele>349.99762</ele>
        <time>2015-04-26T13:21:05Z</time>
      </trkpt>
      <trkpt lat="45.76396" lon="5.63526">
        <ele>349.99762</ele>
        <time>2015-04-26T13:21:10Z</time>
      </trkpt>
      <trkpt lat="45.76396" lon="5.63526">
        <ele>349.99762</ele>
        <time>2015-04-26T13:21:14Z</time>
      </trkpt>
      <trkpt lat="45.76395" lon="5.63526">
        <ele>349.99762</ele>
        <time>2015-04-26T13:21:20Z</time>
      </trkpt>
      <trkpt lat="45.76397" lon="5.63527">
        <ele>349.99762</ele>
        <time>2015-04-26T13:21:25Z</time>
      </trkpt>
      <trkpt lat="45.76397" lon="5.63529">
        <ele>349.99762</ele>
        <time>2015-04-26T13:21:30Z</time>
      </trkpt>
      <trkpt lat="45.76398" lon="5.63529">
        <ele>349.99762</ele>
        <time>2015-04-26T13:21:34Z</time>
      </trkpt>
      <trkpt lat="45.76398" lon="5.6353">
        <ele>349.99762</ele>
        <time>2015-04-26T13:21:40Z</time>
      </trkpt>
      <trkpt lat="45.76397" lon="5.63529">
        <ele>349.99762</ele>
        <time>2015-04-26T13:21:45Z</time>
      </trkpt>
      <trkpt lat="45.76396" lon="5.63526">
        <ele>349.64432</ele>
        <time>2015-04-26T13:21:50Z</time>
      </trkpt>
      <trkpt lat="45.76397" lon="5.63528">
        <ele>349.64432</ele>
        <time>2015-04-26T13:21:54Z</time>
      </trkpt>
      <trkpt lat="45.76396" lon="5.63525">
        <ele>349.64432</ele>
        <time>2015-04-26T13:21:58Z</time>
      </trkpt>
      <trkpt lat="45.76396" lon="5.63523">
        <ele>349.64432</ele>
        <time>2015-04-26T13:22:05Z</time>
      </trkpt>
      <trkpt lat="45.76394" lon="5.63519">
        <ele>349.64432</ele>
        <time>2015-04-26T13:22:10Z</time>
      </trkpt>
      <trkpt lat="45.76394" lon="5.63511">
        <ele>350.27505</ele>
        <time>2015-04-26T13:22:15Z</time>
      </trkpt>
      <trkpt lat="45.76394" lon="5.63506">
        <ele>350.27505</ele>
        <time>2015-04-26T13:22:20Z</time>
      </trkpt>
      <trkpt lat="45.76395" lon="5.63506">
        <ele>350.27505</ele>
        <time>2015-04-26T13:22:25Z</time>
      </trkpt>
      <trkpt lat="45.76399" lon="5.63508">
        <ele>350.17267</ele>
        <time>2015-04-26T13:22:30Z</time>
      </trkpt>
      <trkpt lat="45.76399" lon="5.63507">
        <ele>350.17267</ele>
        <time>2015-04-26T13:22:34Z</time>
      </trkpt>
      <trkpt lat="45.764" lon="5.63506">
        <ele>350.17267</ele>
        <time>2015-04-26T13:22:40Z</time>
      </trkpt>
      <trkpt lat="45.764" lon="5.63508">
        <ele>350.17267</ele>
        <time>2015-04-26T13:22:45Z</time>
      </trkpt>
      <trkpt lat="45.76399" lon="5.63508">
        <ele>350.17267</ele>
        <time>2015-04-26T13:22:50Z</time>
      </trkpt>
      <trkpt lat="45.764" lon="5.63509">
        <ele>350.17267</ele>
        <time>2015-04-26T13:22:55Z</time>
      </trkpt>
      <trkpt lat="45.764" lon="5.63509">
        <ele>350.17267</ele>
        <time>2015-04-26T13:23:00Z</time>
      </trkpt>
      <trkpt lat="45.764" lon="5.63511">
        <ele>350.17267</ele>
        <time>2015-04-26T13:23:04Z</time>
      </trkpt>
      <trkpt lat="45.764" lon="5.63511">
        <ele>350.17267</ele>
        <time>2015-04-26T13:23:08Z</time>
      </trkpt>
      <trkpt lat="45.76389" lon="5.63511">
        <ele>356.3804</ele>
        <time>2015-04-26T14:24:00Z</time>
      </trkpt>
      <trkpt lat="45.76395" lon="5.63514">
        <ele>356.3804</ele>
        <time>2015-04-26T14:24:05Z</time>
      </trkpt>
      <trkpt lat="45.76391" lon="5.63521">
        <ele>358.3869</ele>
        <time>2015-04-26T14:24:20Z</time>
      </trkpt>
      <trkpt lat="45.76397" lon="5.63514">
        <ele>358.3869</ele>
        <time>2015-04-26T14:24:25Z</time>
      </trkpt>
      <trkpt lat="45.76397" lon="5.63511">
        <ele>360.1265</ele>
        <time>2015-04-26T14:24:30Z</time>
      </trkpt>
      <trkpt lat="45.76397" lon="5.63511">
        <ele>360.1265</ele>
        <time>2015-04-26T14:24:35Z</time>
      </trkpt>
      <trkpt lat="45.76397" lon="5.6351">
        <ele>360.1265</ele>
        <time>2015-04-26T14:24:40Z</time>
      </trkpt>
      <trkpt lat="45.76397" lon="5.6351">
        <ele>360.1265</ele>
        <time>2015-04-26T14:24:45Z</time>
      </trkpt>
      <trkpt lat="45.76397" lon="5.63511">
        <ele>360.1265</ele>
        <time>2015-04-26T14:24:50Z</time>
      </trkpt>
      <trkpt lat="45.76396" lon="5.6351">
        <ele>360.1265</ele>
        <time>2015-04-26T14:24:55Z</time>
      </trkpt>
      <trkpt lat="45.76395" lon="5.63511">
        <ele>360.1265</ele>
        <time>2015-04-26T14:25:00Z</time>
      </trkpt>
      <trkpt lat="45.76396" lon="5.63511">
        <ele>360.1265</ele>
        <time>2015-04-26T14:25:05Z</time>
      </trkpt>
      <trkpt lat="45.76395" lon="5.6351">
        <ele>360.1265</ele>
        <time>2015-04-26T14:25:10Z</time>
      </trkpt>
      <trkpt lat="45.76395" lon="5.63509">
        <ele>360.1265</ele>
        <time>2015-04-26T14:25:15Z</time>
      </trkpt>
      <trkpt lat="45.76394" lon="5.63508">
        <ele>360.1265</ele>
        <time>2015-04-26T14:25:20Z</time>
      </trkpt>
      <trkpt lat="45.76393" lon="5.63508">
        <ele>360.1265</ele>
        <time>2015-04-26T14:25:25Z</time>
      </trkpt>
      <trkpt lat="45.76393" lon="5.63508">
        <ele>360.1265</ele>
        <time>2015-04-26T14:25:30Z</time>
      </trkpt>
      <trkpt lat="45.76393" lon="5.6351">
        <ele>360.1265</ele>
        <time>2015-04-26T14:25:35Z</time>
      </trkpt>
      <trkpt lat="45.76393" lon="5.63509">
        <ele>359.71136</ele>
        <time>2015-04-26T14:25:40Z</time>
      </trkpt>
      <trkpt lat="45.76393" lon="5.63509">
        <ele>359.71136</ele>
        <time>2015-04-26T14:25:45Z</time>
      </trkpt>
      <trkpt lat="45.76394" lon="5.6351">
        <ele>359.71136</ele>
        <time>2015-04-26T14:25:50Z</time>
      </trkpt>
      <trkpt lat="45.76396" lon="5.63512">
        <ele>359.71136</ele>
        <time>2015-04-26T14:25:55Z</time>
      </trkpt>
      <trkpt lat="45.76398" lon="5.63518">
        <ele>359.71136</ele>
        <time>2015-04-26T14:26:00Z</time>
      </trkpt>
      <trkpt lat="45.76402" lon="5.63528">
        <ele>359.4912</ele>
        <time>2015-04-26T14:26:05Z</time>
      </trkpt>
      <trkpt lat="45.76403" lon="5.63539">
        <ele>359.4912</ele>
        <time>2015-04-26T14:26:10Z</time>
      </trkpt>
      <trkpt lat="45.76403" lon="5.63551">
        <ele>359.40894</ele>
        <time>2015-04-26T14:26:15Z</time>
      </trkpt>
      <trkpt lat="45.76405" lon="5.63561">
        <ele>359.40894</ele>
        <time>2015-04-26T14:26:20Z</time>
      </trkpt>
      <trkpt lat="45.76408" lon="5.63571">
        <ele>359.3392</ele>
        <time>2015-04-26T14:26:25Z</time>
      </trkpt>
      <trkpt lat="45.76412" lon="5.6358">
        <ele>359.3392</ele>
        <time>2015-04-26T14:26:30Z</time>
      </trkpt>
      <trkpt lat="45.76415" lon="5.63588">
        <ele>359.22354</ele>
        <time>2015-04-26T14:26:35Z</time>
      </trkpt>
      <trkpt lat="45.76418" lon="5.63598">
        <ele>359.22354</ele>
        <time>2015-04-26T14:26:40Z</time>
      </trkpt>
      <trkpt lat="45.76422" lon="5.63609">
        <ele>359.3394</ele>
        <time>2015-04-26T14:26:45Z</time>
      </trkpt>
      <trkpt lat="45.76422" lon="5.63619">
        <ele>359.3394</ele>
        <time>2015-04-26T14:26:50Z</time>
      </trkpt>
      <trkpt lat="45.76424" lon="5.63629">
        <ele>359.75583</ele>
        <time>2015-04-26T14:26:55Z</time>
      </trkpt>
      <trkpt lat="45.76424" lon="5.6364">
        <ele>359.75583</ele>
        <time>2015-04-26T14:27:00Z</time>
      </trkpt>
      <trkpt lat="45.76425" lon="5.63651">
        <ele>359.5561</ele>
        <time>2015-04-26T14:27:05Z</time>
      </trkpt>
      <trkpt lat="45.76424" lon="5.63661">
        <ele>359.5561</ele>
        <time>2015-04-26T14:27:10Z</time>
      </trkpt>
      <trkpt lat="45.7642" lon="5.63673">
        <ele>359.30484</ele>
        <time>2015-04-26T14:27:15Z</time>
      </trkpt>
      <trkpt lat="45.76418" lon="5.63684">
        <ele>359.30484</ele>
        <time>2015-04-26T14:27:20Z</time>
      </trkpt>
      <trkpt lat="45.76414" lon="5.63693">
        <ele>359.19394</ele>
        <time>2015-04-26T14:27:25Z</time>
      </trkpt>
      <trkpt lat="45.76409" lon="5.63703">
        <ele>359.19394</ele>
        <time>2015-04-26T14:27:30Z</time>
      </trkpt>
      <trkpt lat="45.76405" lon="5.63711">
        <ele>358.70905</ele>
        <time>2015-04-26T14:27:35Z</time>
      </trkpt>
      <trkpt lat="45.76401" lon="5.63719">
        <ele>358.70905</ele>
        <time>2015-04-26T14:27:40Z</time>
      </trkpt>
      <trkpt lat="45.76396" lon="5.63729">
        <ele>357.9079</ele>
        <time>2015-04-26T14:27:45Z</time>
      </trkpt>
      <trkpt lat="45.76391" lon="5.63737">
        <ele>357.9079</ele>
        <time>2015-04-26T14:27:50Z</time>
      </trkpt>
      <trkpt lat="45.76387" lon="5.63745">
        <ele>357.11868</ele>
        <time>2015-04-26T14:27:55Z</time>
      </trkpt>
      <trkpt lat="45.76382" lon="5.63753">
        <ele>357.11868</ele>
        <time>2015-04-26T14:28:00Z</time>
      </trkpt>
      <trkpt lat="45.76378" lon="5.63762">
        <ele>356.314</ele>
        <time>2015-04-26T14:28:05Z</time>
      </trkpt>
      <trkpt lat="45.76373" lon="5.63771">
        <ele>356.314</ele>
        <time>2015-04-26T14:28:10Z</time>
      </trkpt>
      <trkpt lat="45.76369" lon="5.63779">
        <ele>355.5982</ele>
        <time>2015-04-26T14:28:15Z</time>
      </trkpt>
      <trkpt lat="45.76364" lon="5.63788">
        <ele>355.5982</ele>
        <time>2015-04-26T14:28:20Z</time>
      </trkpt>
      <trkpt lat="45.76359" lon="5.63796">
        <ele>355.21185</ele>
        <time>2015-04-26T14:28:25Z</time>
      </trkpt>
      <trkpt lat="45.76354" lon="5.63805">
        <ele>355.21185</ele>
        <time>2015-04-26T14:28:30Z</time>
      </trkpt>
      <trkpt lat="45.7635" lon="5.63814">
        <ele>355.0598</ele>
        <time>2015-04-26T14:28:35Z</time>
      </trkpt>
      <trkpt lat="45.76344" lon="5.63822">
        <ele>355.0598</ele>
        <time>2015-04-26T14:28:40Z</time>
      </trkpt>
      <trkpt lat="45.7634" lon="5.6383">
        <ele>355.18298</ele>
        <time>2015-04-26T14:28:45Z</time>
      </trkpt>
      <trkpt lat="45.76338" lon="5.63839">
        <ele>355.18298</ele>
        <time>2015-04-26T14:28:50Z</time>
      </trkpt>
      <trkpt lat="45.76335" lon="5.63849">
        <ele>355.56088</ele>
        <time>2015-04-26T14:28:55Z</time>
      </trkpt>
      <trkpt lat="45.76332" lon="5.63856">
        <ele>355.56088</ele>
        <time>2015-04-26T14:29:00Z</time>
      </trkpt>
      <trkpt lat="45.7633" lon="5.63865">
        <ele>356.3755</ele>
        <time>2015-04-26T14:29:05Z</time>
      </trkpt>
      <trkpt lat="45.7633" lon="5.63875">
        <ele>356.3755</ele>
        <time>2015-04-26T14:29:10Z</time>
      </trkpt>
      <trkpt lat="45.76329" lon="5.63885">
        <ele>357.2898</ele>
        <time>2015-04-26T14:29:15Z</time>
      </trkpt>
      <trkpt lat="45.76329" lon="5.63895">
        <ele>357.2898</ele>
        <time>2015-04-26T14:29:20Z</time>
      </trkpt>
      <trkpt lat="45.76327" lon="5.63904">
        <ele>358.5533</ele>
        <time>2015-04-26T14:29:25Z</time>
      </trkpt>
      <trkpt lat="45.76327" lon="5.63914">
        <ele>358.5533</ele>
        <time>2015-04-26T14:29:30Z</time>
      </trkpt>
      <trkpt lat="45.76326" lon="5.63924">
        <ele>360.03604</ele>
        <time>2015-04-26T14:29:35Z</time>
      </trkpt>
      <trkpt lat="45.76329" lon="5.63934">
        <ele>360.03604</ele>
        <time>2015-04-26T14:29:41Z</time>
      </trkpt>
      <trkpt lat="45.76326" lon="5.63944">
        <ele>361.38623</ele>
        <time>2015-04-26T14:29:45Z</time>
      </trkpt>
      <trkpt lat="45.76323" lon="5.63953">
        <ele>361.38623</ele>
        <time>2015-04-26T14:29:50Z</time>
      </trkpt>
      <trkpt lat="45.76323" lon="5.63963">
        <ele>362.999</ele>
        <time>2015-04-26T14:29:55Z</time>
      </trkpt>
      <trkpt lat="45.76322" lon="5.63972">
        <ele>362.999</ele>
        <time>2015-04-26T14:30:00Z</time>
      </trkpt>
      <trkpt lat="45.7632" lon="5.63981">
        <ele>364.23096</ele>
        <time>2015-04-26T14:30:05Z</time>
      </trkpt>
      <trkpt lat="45.76316" lon="5.63992">
        <ele>364.23096</ele>
        <time>2015-04-26T14:30:10Z</time>
      </trkpt>
      <trkpt lat="45.76312" lon="5.63994">
        <ele>364.9482</ele>
        <time>2015-04-26T14:30:15Z</time>
      </trkpt>
      <trkpt lat="45.76307" lon="5.63998">
        <ele>364.9482</ele>
        <time>2015-04-26T14:30:20Z</time>
      </trkpt>
      <trkpt lat="45.76301" lon="5.64001">
        <ele>365.0571</ele>
        <time>2015-04-26T14:30:25Z</time>
      </trkpt>
      <trkpt lat="45.76299" lon="5.64003">
        <ele>365.0571</ele>
        <time>2015-04-26T14:30:30Z</time>
      </trkpt>
      <trkpt lat="45.76296" lon="5.64003">
        <ele>365.0571</ele>
        <time>2015-04-26T14:30:35Z</time>
      </trkpt>
      <trkpt lat="45.76296" lon="5.64003">
        <ele>365.0571</ele>
        <time>2015-04-26T14:30:40Z</time>
      </trkpt>
      <trkpt lat="45.76297" lon="5.64001">
        <ele>365.0571</ele>
        <time>2015-04-26T14:30:45Z</time>
      </trkpt>
      <trkpt lat="45.76297" lon="5.64">
        <ele>365.0571</ele>
        <time>2015-04-26T14:30:50Z</time>
      </trkpt>
      <trkpt lat="45.76296" lon="5.64002">
        <ele>365.87036</ele>
        <time>2015-04-26T14:30:55Z</time>
      </trkpt>
      <trkpt lat="45.76292" lon="5.64005">
        <ele>365.87036</ele>
        <time>2015-04-26T14:31:00Z</time>
      </trkpt>
      <trkpt lat="45.76289" lon="5.64004">
        <ele>365.87036</ele>
        <time>2015-04-26T14:31:05Z</time>
      </trkpt>
      <trkpt lat="45.7628" lon="5.64004">
        <ele>366.4408</ele>
        <time>2015-04-26T14:31:10Z</time>
      </trkpt>
      <trkpt lat="45.76273" lon="5.64005">
        <ele>366.4408</ele>
        <time>2015-04-26T14:31:17Z</time>
      </trkpt>
      <trkpt lat="45.76267" lon="5.64003">
        <ele>366.42468</ele>
        <time>2015-04-26T14:31:22Z</time>
      </trkpt>
      <trkpt lat="45.76261" lon="5.64003">
        <ele>366.42468</ele>
        <time>2015-04-26T14:31:27Z</time>
      </trkpt>
      <trkpt lat="45.76256" lon="5.63998">
        <ele>366.48523</ele>
        <time>2015-04-26T14:31:31Z</time>
      </trkpt>
      <trkpt lat="45.76251" lon="5.63995">
        <ele>366.48523</ele>
        <time>2015-04-26T14:31:37Z</time>
      </trkpt>
      <trkpt lat="45.76243" lon="5.6399">
        <ele>366.28564</ele>
        <time>2015-04-26T14:31:42Z</time>
      </trkpt>
      <trkpt lat="45.76237" lon="5.63984">
        <ele>366.28564</ele>
        <time>2015-04-26T14:31:45Z</time>
      </trkpt>
      <trkpt lat="45.76233" lon="5.6398">
        <ele>366.27835</ele>
        <time>2015-04-26T14:31:51Z</time>
      </trkpt>
      <trkpt lat="45.76226" lon="5.63975">
        <ele>366.27835</ele>
        <time>2015-04-26T14:31:56Z</time>
      </trkpt>
      <trkpt lat="45.76219" lon="5.63969">
        <ele>366.4786</ele>
        <time>2015-04-26T14:32:01Z</time>
      </trkpt>
      <trkpt lat="45.7621" lon="5.63964">
        <ele>366.68384</ele>
        <time>2015-04-26T14:32:05Z</time>
      </trkpt>
      <trkpt lat="45.76204" lon="5.6396">
        <ele>366.68384</ele>
        <time>2015-04-26T14:32:10Z</time>
      </trkpt>
      <trkpt lat="45.76196" lon="5.63958">
        <ele>366.89362</ele>
        <time>2015-04-26T14:32:15Z</time>
      </trkpt>
      <trkpt lat="45.76189" lon="5.63955">
        <ele>366.89362</ele>
        <time>2015-04-26T14:32:21Z</time>
      </trkpt>
      <trkpt lat="45.76182" lon="5.63952">
        <ele>366.8627</ele>
        <time>2015-04-26T14:32:25Z</time>
      </trkpt>
      <trkpt lat="45.76175" lon="5.63951">
        <ele>366.8627</ele>
        <time>2015-04-26T14:32:32Z</time>
      </trkpt>
      <trkpt lat="45.76166" lon="5.63945">
        <ele>366.88324</ele>
        <time>2015-04-26T14:32:36Z</time>
      </trkpt>
      <trkpt lat="45.76158" lon="5.63942">
        <ele>366.88324</ele>
        <time>2015-04-26T14:32:40Z</time>
      </trkpt>
      <trkpt lat="45.76151" lon="5.6394">
        <ele>367.28354</ele>
        <time>2015-04-26T14:32:45Z</time>
      </trkpt>
      <trkpt lat="45.76143" lon="5.63936">
        <ele>367.28354</ele>
        <time>2015-04-26T14:32:50Z</time>
      </trkpt>
      <trkpt lat="45.76136" lon="5.63932">
        <ele>367.61734</ele>
        <time>2015-04-26T14:32:55Z</time>
      </trkpt>
      <trkpt lat="45.76131" lon="5.63929">
        <ele>367.61734</ele>
        <time>2015-04-26T14:33:00Z</time>
      </trkpt>
      <trkpt lat="45.76125" lon="5.63926">
        <ele>367.74512</ele>
        <time>2015-04-26T14:33:05Z</time>
      </trkpt>
      <trkpt lat="45.76121" lon="5.63924">
        <ele>367.74512</ele>
        <time>2015-04-26T14:33:10Z</time>
      </trkpt>
      <trkpt lat="45.76115" lon="5.63921">
        <ele>367.20682</ele>
        <time>2015-04-26T14:33:15Z</time>
      </trkpt>
      <trkpt lat="45.76107" lon="5.63917">
        <ele>366.8606</ele>
        <time>2015-04-26T14:33:20Z</time>
      </trkpt>
      <trkpt lat="45.76098" lon="5.63915">
        <ele>366.69406</ele>
        <time>2015-04-26T14:33:25Z</time>
      </trkpt>
      <trkpt lat="45.76092" lon="5.63911">
        <ele>366.69406</ele>
        <time>2015-04-26T14:33:30Z</time>
      </trkpt>
      <trkpt lat="45.76085" lon="5.63909">
        <ele>366.5799</ele>
        <time>2015-04-26T14:33:35Z</time>
      </trkpt>
      <trkpt lat="45.7608" lon="5.63907">
        <ele>366.5799</ele>
        <time>2015-04-26T14:33:40Z</time>
      </trkpt>
      <trkpt lat="45.76076" lon="5.63909">
        <ele>366.5799</ele>
        <time>2015-04-26T14:33:45Z</time>
      </trkpt>
      <trkpt lat="45.76071" lon="5.63909">
        <ele>366.08295</ele>
        <time>2015-04-26T14:33:50Z</time>
      </trkpt>
      <trkpt lat="45.76065" lon="5.63908">
        <ele>366.08295</ele>
        <time>2015-04-26T14:33:55Z</time>
      </trkpt>
      <trkpt lat="45.76056" lon="5.63907">
        <ele>366.0261</ele>
        <time>2015-04-26T14:34:00Z</time>
      </trkpt>
      <trkpt lat="45.7605" lon="5.63907">
        <ele>366.0261</ele>
        <time>2015-04-26T14:34:05Z</time>
      </trkpt>
      <trkpt lat="45.76043" lon="5.6391">
        <ele>365.94553</ele>
        <time>2015-04-26T14:34:10Z</time>
      </trkpt>
      <trkpt lat="45.76032" lon="5.6391">
        <ele>365.90152</ele>
        <time>2015-04-26T14:34:15Z</time>
      </trkpt>
      <trkpt lat="45.76023" lon="5.6391">
        <ele>365.89224</ele>
        <time>2015-04-26T14:34:20Z</time>
      </trkpt>
      <trkpt lat="45.76017" lon="5.6391">
        <ele>365.89224</ele>
        <time>2015-04-26T14:34:25Z</time>
      </trkpt>
      <trkpt lat="45.76007" lon="5.63909">
        <ele>365.77167</ele>
        <time>2015-04-26T14:34:30Z</time>
      </trkpt>
      <trkpt lat="45.75996" lon="5.63906">
        <ele>365.75076</ele>
        <time>2015-04-26T14:34:35Z</time>
      </trkpt>
      <trkpt lat="45.75984" lon="5.63905">
        <ele>365.4049</ele>
        <time>2015-04-26T14:34:40Z</time>
      </trkpt>
      <trkpt lat="45.75976" lon="5.63903">
        <ele>365.4049</ele>
        <time>2015-04-26T14:34:45Z</time>
      </trkpt>
      <trkpt lat="45.75968" lon="5.63901">
        <ele>364.80283</ele>
        <time>2015-04-26T14:34:50Z</time>
      </trkpt>
      <trkpt lat="45.75961" lon="5.63896">
        <ele>364.80283</ele>
        <time>2015-04-26T14:34:55Z</time>
      </trkpt>
      <trkpt lat="45.75956" lon="5.63892">
        <ele>364.42676</ele>
        <time>2015-04-26T14:35:00Z</time>
      </trkpt>
      <trkpt lat="45.75949" lon="5.63891">
        <ele>364.42676</ele>
        <time>2015-04-26T14:35:05Z</time>
      </trkpt>
      <trkpt lat="45.75946" lon="5.63893">
        <ele>363.51236</ele>
        <time>2015-04-26T14:35:10Z</time>
      </trkpt>
      <trkpt lat="45.75941" lon="5.63892">
        <ele>363.51236</ele>
        <time>2015-04-26T14:35:15Z</time>
      </trkpt>
      <trkpt lat="45.75931" lon="5.63893">
        <ele>362.9236</ele>
        <time>2015-04-26T14:35:20Z</time>
      </trkpt>
      <trkpt lat="45.75926" lon="5.63893">
        <ele>362.9236</ele>
        <time>2015-04-26T14:35:25Z</time>
      </trkpt>
      <trkpt lat="45.75921" lon="5.63894">
        <ele>362.16327</ele>
        <time>2015-04-26T14:35:32Z</time>
      </trkpt>
      <trkpt lat="45.75915" lon="5.63895">
        <ele>362.16327</ele>
        <time>2015-04-26T14:35:36Z</time>
      </trkpt>
      <trkpt lat="45.75912" lon="5.63895">
        <ele>361.11673</ele>
        <time>2015-04-26T14:35:42Z</time>
      </trkpt>
      <trkpt lat="45.75903" lon="5.63896">
        <ele>361.11673</ele>
        <time>2015-04-26T14:35:47Z</time>
      </trkpt>
      <trkpt lat="45.75894" lon="5.63896">
        <ele>359.95248</ele>
        <time>2015-04-26T14:35:51Z</time>
      </trkpt>
      <trkpt lat="45.75889" lon="5.63898">
        <ele>359.95248</ele>
        <time>2015-04-26T14:35:57Z</time>
      </trkpt>
      <trkpt lat="45.75883" lon="5.63898">
        <ele>358.43784</ele>
        <time>2015-04-26T14:36:02Z</time>
      </trkpt>
      <trkpt lat="45.75879" lon="5.63896">
        <ele>358.43784</ele>
        <time>2015-04-26T14:36:06Z</time>
      </trkpt>
      <trkpt lat="45.7587" lon="5.63897">
        <ele>357.16504</ele>
        <time>2015-04-26T14:36:10Z</time>
      </trkpt>
      <trkpt lat="45.75863" lon="5.63896">
        <ele>357.16504</ele>
        <time>2015-04-26T14:36:17Z</time>
      </trkpt>
      <trkpt lat="45.75859" lon="5.63898">
        <ele>356.37952</ele>
        <time>2015-04-26T14:36:22Z</time>
      </trkpt>
      <trkpt lat="45.7585" lon="5.63899">
        <ele>356.37952</ele>
        <time>2015-04-26T14:36:26Z</time>
      </trkpt>
      <trkpt lat="45.75845" lon="5.63902">
        <ele>355.5723</ele>
        <time>2015-04-26T14:36:31Z</time>
      </trkpt>
      <trkpt lat="45.75836" lon="5.63901">
        <ele>354.7617</ele>
        <time>2015-04-26T14:36:35Z</time>
      </trkpt>
      <trkpt lat="45.75821" lon="5.63898">
        <ele>354.12314</ele>
        <time>2015-04-26T14:36:41Z</time>
      </trkpt>
      <trkpt lat="45.75814" lon="5.63897">
        <ele>354.12314</ele>
        <time>2015-04-26T14:36:45Z</time>
      </trkpt>
      <trkpt lat="45.75806" lon="5.63896">
        <ele>353.18454</ele>
        <time>2015-04-26T14:36:52Z</time>
      </trkpt>
      <trkpt lat="45.75795" lon="5.63896">
        <ele>352.50366</ele>
        <time>2015-04-26T14:36:57Z</time>
      </trkpt>
      <trkpt lat="45.75787" lon="5.63893">
        <ele>351.96234</ele>
        <time>2015-04-26T14:37:01Z</time>
      </trkpt>
      <trkpt lat="45.75779" lon="5.63895">
        <ele>351.96234</ele>
        <time>2015-04-26T14:37:06Z</time>
      </trkpt>
      <trkpt lat="45.75767" lon="5.63891">
        <ele>351.63797</ele>
        <time>2015-04-26T14:37:12Z</time>
      </trkpt>
      <trkpt lat="45.75761" lon="5.6389">
        <ele>351.63797</ele>
        <time>2015-04-26T14:37:17Z</time>
      </trkpt>
      <trkpt lat="45.75757" lon="5.63889">
        <ele>350.8234</ele>
        <time>2015-04-26T14:37:21Z</time>
      </trkpt>
      <trkpt lat="45.75747" lon="5.63891">
        <ele>350.5076</ele>
        <time>2015-04-26T14:37:25Z</time>
      </trkpt>
      <trkpt lat="45.75742" lon="5.63888">
        <ele>350.5076</ele>
        <time>2015-04-26T14:37:30Z</time>
      </trkpt>
      <trkpt lat="45.75738" lon="5.63893">
        <ele>349.67432</ele>
        <time>2015-04-26T14:37:35Z</time>
      </trkpt>
      <trkpt lat="45.75733" lon="5.63894">
        <ele>349.67432</ele>
        <time>2015-04-26T14:37:40Z</time>
      </trkpt>
      <trkpt lat="45.75729" lon="5.63897">
        <ele>348.3345</ele>
        <time>2015-04-26T14:37:45Z</time>
      </trkpt>
      <trkpt lat="45.75722" lon="5.63898">
        <ele>348.3345</ele>
        <time>2015-04-26T14:37:50Z</time>
      </trkpt>
      <trkpt lat="45.75712" lon="5.63893">
        <ele>347.59482</ele>
        <time>2015-04-26T14:37:55Z</time>
      </trkpt>
      <trkpt lat="45.75699" lon="5.63885">
        <ele>347.52783</ele>
        <time>2015-04-26T14:38:00Z</time>
      </trkpt>
      <trkpt lat="45.75692" lon="5.63881">
        <ele>347.52783</ele>
        <time>2015-04-26T14:38:05Z</time>
      </trkpt>
      <trkpt lat="45.75687" lon="5.6387">
        <ele>347.24765</ele>
        <time>2015-04-26T14:38:10Z</time>
      </trkpt>
      <trkpt lat="45.7568" lon="5.63858">
        <ele>347.23102</ele>
        <time>2015-04-26T14:38:15Z</time>
      </trkpt>
      <trkpt lat="45.75674" lon="5.63845">
        <ele>347.81793</ele>
        <time>2015-04-26T14:38:20Z</time>
      </trkpt>
      <trkpt lat="45.75658" lon="5.63821">
        <ele>348.16885</ele>
        <time>2015-04-26T14:38:25Z</time>
      </trkpt>
      <trkpt lat="45.75649" lon="5.63805">
        <ele>348.65936</ele>
        <time>2015-04-26T14:38:30Z</time>
      </trkpt>
      <trkpt lat="45.75644" lon="5.63797">
        <ele>348.65936</ele>
        <time>2015-04-26T14:38:35Z</time>
      </trkpt>
      <trkpt lat="45.7563" lon="5.63782">
        <ele>349.248</ele>
        <time>2015-04-26T14:38:40Z</time>
      </trkpt>
      <trkpt lat="45.75606" lon="5.63768">
        <ele>350.77502</ele>
        <time>2015-04-26T14:38:45Z</time>
      </trkpt>
      <trkpt lat="45.75591" lon="5.6376">
        <ele>352.17188</ele>
        <time>2015-04-26T14:38:50Z</time>
      </trkpt>
      <trkpt lat="45.75584" lon="5.63761">
        <ele>352.17188</ele>
        <time>2015-04-26T14:38:55Z</time>
      </trkpt>
      <trkpt lat="45.75578" lon="5.63761">
        <ele>353.16925</ele>
        <time>2015-04-26T14:39:00Z</time>
      </trkpt>
      <trkpt lat="45.75575" lon="5.63767">
        <ele>353.16925</ele>
        <time>2015-04-26T14:39:05Z</time>
      </trkpt>
      <trkpt lat="45.7557" lon="5.63771">
        <ele>354.08087</ele>
        <time>2015-04-26T14:39:10Z</time>
      </trkpt>
      <trkpt lat="45.75564" lon="5.63776">
        <ele>354.08087</ele>
        <time>2015-04-26T14:39:15Z</time>
      </trkpt>
      <trkpt lat="45.75555" lon="5.63783">
        <ele>354.46277</ele>
        <time>2015-04-26T14:39:20Z</time>
      </trkpt>
      <trkpt lat="45.75547" lon="5.63789">
        <ele>354.61115</ele>
        <time>2015-04-26T14:39:25Z</time>
      </trkpt>
      <trkpt lat="45.75539" lon="5.63797">
        <ele>354.61386</ele>
        <time>2015-04-26T14:39:30Z</time>
      </trkpt>
      <trkpt lat="45.75531" lon="5.63806">
        <ele>355.01395</ele>
        <time>2015-04-26T14:39:36Z</time>
      </trkpt>
      <trkpt lat="45.7552" lon="5.63818">
        <ele>354.68497</ele>
        <time>2015-04-26T14:39:42Z</time>
      </trkpt>
      <trkpt lat="45.75507" lon="5.63828">
        <ele>354.28583</ele>
        <time>2015-04-26T14:39:47Z</time>
      </trkpt>
      <trkpt lat="45.75491" lon="5.63836">
        <ele>354.19678</ele>
        <time>2015-04-26T14:39:52Z</time>
      </trkpt>
      <trkpt lat="45.75483" lon="5.63837">
        <ele>354.19678</ele>
        <time>2015-04-26T14:39:57Z</time>
      </trkpt>
      <trkpt lat="45.75475" lon="5.63835">
        <ele>354.27924</ele>
        <time>2015-04-26T14:40:02Z</time>
      </trkpt>
      <trkpt lat="45.75469" lon="5.63833">
        <ele>354.27924</ele>
        <time>2015-04-26T14:40:07Z</time>
      </trkpt>
      <trkpt lat="45.75463" lon="5.63831">
        <ele>353.71265</ele>
        <time>2015-04-26T14:40:12Z</time>
      </trkpt>
      <trkpt lat="45.75457" lon="5.63831">
        <ele>353.71265</ele>
        <time>2015-04-26T14:40:17Z</time>
      </trkpt>
      <trkpt lat="45.75451" lon="5.63829">
        <ele>352.90588</ele>
        <time>2015-04-26T14:40:21Z</time>
      </trkpt>
      <trkpt lat="45.75446" lon="5.63826">
        <ele>352.90588</ele>
        <time>2015-04-26T14:40:25Z</time>
      </trkpt>
      <trkpt lat="45.75441" lon="5.63822">
        <ele>351.96472</ele>
        <time>2015-04-26T14:40:30Z</time>
      </trkpt>
      <trkpt lat="45.75432" lon="5.63821">
        <ele>351.96472</ele>
        <time>2015-04-26T14:40:35Z</time>
      </trkpt>
      <trkpt lat="45.75425" lon="5.6382">
        <ele>351.01633</ele>
        <time>2015-04-26T14:40:40Z</time>
      </trkpt>
      <trkpt lat="45.75416" lon="5.6382">
        <ele>351.01633</ele>
        <time>2015-04-26T14:40:45Z</time>
      </trkpt>
      <trkpt lat="45.75405" lon="5.63818">
        <ele>350.40915</ele>
        <time>2015-04-26T14:40:50Z</time>
      </trkpt>
      <trkpt lat="45.75396" lon="5.63815">
        <ele>349.96075</ele>
        <time>2015-04-26T14:40:55Z</time>
      </trkpt>
      <trkpt lat="45.75389" lon="5.63813">
        <ele>349.96075</ele>
        <time>2015-04-26T14:41:00Z</time>
      </trkpt>
      <trkpt lat="45.75385" lon="5.63811">
        <ele>349.31427</ele>
        <time>2015-04-26T14:41:05Z</time>
      </trkpt>
      <trkpt lat="45.75382" lon="5.63808">
        <ele>349.31427</ele>
        <time>2015-04-26T14:41:10Z</time>
      </trkpt>
      <trkpt lat="45.75376" lon="5.63807">
        <ele>347.86578</ele>
        <time>2015-04-26T14:41:15Z</time>
      </trkpt>
      <trkpt lat="45.75372" lon="5.63805">
        <ele>347.86578</ele>
        <time>2015-04-26T14:41:20Z</time>
      </trkpt>
      <trkpt lat="45.75366" lon="5.63807">
        <ele>345.95154</ele>
        <time>2015-04-26T14:41:26Z</time>
      </trkpt>
      <trkpt lat="45.75356" lon="5.63804">
        <ele>344.11487</ele>
        <time>2015-04-26T14:41:32Z</time>
      </trkpt>
      <trkpt lat="45.7535" lon="5.63802">
        <ele>344.11487</ele>
        <time>2015-04-26T14:41:37Z</time>
      </trkpt>
      <trkpt lat="45.75342" lon="5.63801">
        <ele>341.76376</ele>
        <time>2015-04-26T14:41:42Z</time>
      </trkpt>
      <trkpt lat="45.75338" lon="5.63798">
        <ele>341.76376</ele>
        <time>2015-04-26T14:41:47Z</time>
      </trkpt>
      <trkpt lat="45.75332" lon="5.63796">
        <ele>338.8987</ele>
        <time>2015-04-26T14:41:53Z</time>
      </trkpt>
      <trkpt lat="45.75325" lon="5.63792">
        <ele>338.8987</ele>
        <time>2015-04-26T14:41:56Z</time>
      </trkpt>
      <trkpt lat="45.75317" lon="5.63792">
        <ele>336.3718</ele>
        <time>2015-04-26T14:42:02Z</time>
      </trkpt>
      <trkpt lat="45.75307" lon="5.63792">
        <ele>334.40945</ele>
        <time>2015-04-26T14:42:06Z</time>
      </trkpt>
      <trkpt lat="45.75302" lon="5.63792">
        <ele>334.40945</ele>
        <time>2015-04-26T14:42:11Z</time>
      </trkpt>
      <trkpt lat="45.75295" lon="5.63791">
        <ele>332.3984</ele>
        <time>2015-04-26T14:42:17Z</time>
      </trkpt>
      <trkpt lat="45.75288" lon="5.63788">
        <ele>332.3984</ele>
        <time>2015-04-26T14:42:22Z</time>
      </trkpt>
      <trkpt lat="45.7528" lon="5.63786">
        <ele>330.4334</ele>
        <time>2015-04-26T14:42:27Z</time>
      </trkpt>
      <trkpt lat="45.75269" lon="5.63781">
        <ele>328.73166</ele>
        <time>2015-04-26T14:42:32Z</time>
      </trkpt>
      <trkpt lat="45.7526" lon="5.63775">
        <ele>327.2486</ele>
        <time>2015-04-26T14:42:37Z</time>
      </trkpt>
      <trkpt lat="45.75249" lon="5.63766">
        <ele>326.144</ele>
        <time>2015-04-26T14:42:42Z</time>
      </trkpt>
      <trkpt lat="45.75235" lon="5.63758">
        <ele>326.06915</ele>
        <time>2015-04-26T14:42:47Z</time>
      </trkpt>
      <trkpt lat="45.75229" lon="5.63752">
        <ele>326.06915</ele>
        <time>2015-04-26T14:42:52Z</time>
      </trkpt>
      <trkpt lat="45.75221" lon="5.63746">
        <ele>326.24097</ele>
        <time>2015-04-26T14:42:57Z</time>
      </trkpt>
      <trkpt lat="45.75211" lon="5.63742">
        <ele>327.2013</ele>
        <time>2015-04-26T14:43:02Z</time>
      </trkpt>
      <trkpt lat="45.75204" lon="5.63739">
        <ele>327.2013</ele>
        <time>2015-04-26T14:43:06Z</time>
      </trkpt>
      <trkpt lat="45.75197" lon="5.63736">
        <ele>329.01758</ele>
        <time>2015-04-26T14:43:10Z</time>
      </trkpt>
      <trkpt lat="45.75192" lon="5.63727">
        <ele>329.01758</ele>
        <time>2015-04-26T14:43:15Z</time>
      </trkpt>
      <trkpt lat="45.75187" lon="5.63723">
        <ele>330.352</ele>
        <time>2015-04-26T14:43:20Z</time>
      </trkpt>
      <trkpt lat="45.75179" lon="5.63719">
        <ele>330.352</ele>
        <time>2015-04-26T14:43:25Z</time>
      </trkpt>
      <trkpt lat="45.75169" lon="5.6371">
        <ele>332.21442</ele>
        <time>2015-04-26T14:43:30Z</time>
      </trkpt>
      <trkpt lat="45.75164" lon="5.63706">
        <ele>332.21442</ele>
        <time>2015-04-26T14:43:35Z</time>
      </trkpt>
      <trkpt lat="45.75154" lon="5.63708">
        <ele>334.80408</ele>
        <time>2015-04-26T14:43:40Z</time>
      </trkpt>
      <trkpt lat="45.75149" lon="5.63707">
        <ele>334.80408</ele>
        <time>2015-04-26T14:43:45Z</time>
      </trkpt>
      <trkpt lat="45.75141" lon="5.63706">
        <ele>336.89124</ele>
        <time>2015-04-26T14:43:50Z</time>
      </trkpt>
      <trkpt lat="45.75134" lon="5.63703">
        <ele>336.89124</ele>
        <time>2015-04-26T14:43:55Z</time>
      </trkpt>
      <trkpt lat="45.75128" lon="5.63697">
        <ele>338.66376</ele>
        <time>2015-04-26T14:44:00Z</time>
      </trkpt>
      <trkpt lat="45.7512" lon="5.63689">
        <ele>340.35428</ele>
        <time>2015-04-26T14:44:05Z</time>
      </trkpt>
      <trkpt lat="45.75113" lon="5.63686">
        <ele>340.35428</ele>
        <time>2015-04-26T14:44:10Z</time>
      </trkpt>
      <trkpt lat="45.75106" lon="5.63684">
        <ele>342.48132</ele>
        <time>2015-04-26T14:44:15Z</time>
      </trkpt>
      <trkpt lat="45.75102" lon="5.63681">
        <ele>342.48132</ele>
        <time>2015-04-26T14:44:20Z</time>
      </trkpt>
      <trkpt lat="45.75093" lon="5.63676">
        <ele>344.37125</ele>
        <time>2015-04-26T14:44:25Z</time>
      </trkpt>
      <trkpt lat="45.75089" lon="5.63673">
        <ele>344.37125</ele>
        <time>2015-04-26T14:44:30Z</time>
      </trkpt>
      <trkpt lat="45.75077" lon="5.63672">
        <ele>346.7841</ele>
        <time>2015-04-26T14:44:35Z</time>
      </trkpt>
      <trkpt lat="45.7507" lon="5.63671">
        <ele>346.7841</ele>
        <time>2015-04-26T14:44:40Z</time>
      </trkpt>
      <trkpt lat="45.7506" lon="5.63674">
        <ele>349.60138</ele>
        <time>2015-04-26T14:44:45Z</time>
      </trkpt>
      <trkpt lat="45.75054" lon="5.63673">
        <ele>349.60138</ele>
        <time>2015-04-26T14:44:50Z</time>
      </trkpt>
      <trkpt lat="45.75048" lon="5.63671">
        <ele>351.862</ele>
        <time>2015-04-26T14:44:55Z</time>
      </trkpt>
      <trkpt lat="45.75041" lon="5.63671">
        <ele>351.862</ele>
        <time>2015-04-26T14:45:00Z</time>
      </trkpt>
      <trkpt lat="45.75029" lon="5.63669">
        <ele>354.2912</ele>
        <time>2015-04-26T14:45:05Z</time>
      </trkpt>
      <trkpt lat="45.7502" lon="5.63674">
        <ele>356.55185</ele>
        <time>2015-04-26T14:45:10Z</time>
      </trkpt>
      <trkpt lat="45.75011" lon="5.63673">
        <ele>358.8511</ele>
        <time>2015-04-26T14:45:15Z</time>
      </trkpt>
      <trkpt lat="45.75004" lon="5.63668">
        <ele>358.8511</ele>
        <time>2015-04-26T14:45:20Z</time>
      </trkpt>
      <trkpt lat="45.74997" lon="5.63667">
        <ele>361.26553</ele>
        <time>2015-04-26T14:45:25Z</time>
      </trkpt>
      <trkpt lat="45.7499" lon="5.63667">
        <ele>361.26553</ele>
        <time>2015-04-26T14:45:30Z</time>
      </trkpt>
      <trkpt lat="45.74982" lon="5.63669">
        <ele>363.54907</ele>
        <time>2015-04-26T14:45:35Z</time>
      </trkpt>
      <trkpt lat="45.74975" lon="5.63667">
        <ele>363.54907</ele>
        <time>2015-04-26T14:45:40Z</time>
      </trkpt>
      <trkpt lat="45.74969" lon="5.63668">
        <ele>366.13702</ele>
        <time>2015-04-26T14:45:45Z</time>
      </trkpt>
      <trkpt lat="45.74958" lon="5.63663">
        <ele>368.89902</ele>
        <time>2015-04-26T14:45:50Z</time>
      </trkpt>
      <trkpt lat="45.74951" lon="5.6366">
        <ele>368.89902</ele>
        <time>2015-04-26T14:45:55Z</time>
      </trkpt>
      <trkpt lat="45.74944" lon="5.63656">
        <ele>370.71945</ele>
        <time>2015-04-26T14:46:00Z</time>
      </trkpt>
      <trkpt lat="45.74938" lon="5.63656">
        <ele>370.71945</ele>
        <time>2015-04-26T14:46:05Z</time>
      </trkpt>
      <trkpt lat="45.74933" lon="5.63655">
        <ele>372.23935</ele>
        <time>2015-04-26T14:46:10Z</time>
      </trkpt>
      <trkpt lat="45.74928" lon="5.63655">
        <ele>372.23935</ele>
        <time>2015-04-26T14:46:15Z</time>
      </trkpt>
      <trkpt lat="45.74923" lon="5.63653">
        <ele>372.9439</ele>
        <time>2015-04-26T14:46:20Z</time>
      </trkpt>
      <trkpt lat="45.7491" lon="5.6365">
        <ele>373.38196</ele>
        <time>2015-04-26T14:46:25Z</time>
      </trkpt>
      <trkpt lat="45.74903" lon="5.63647">
        <ele>373.38196</ele>
        <time>2015-04-26T14:46:30Z</time>
      </trkpt>
      <trkpt lat="45.74902" lon="5.63643">
        <ele>374.1781</ele>
        <time>2015-04-26T14:46:35Z</time>
      </trkpt>
      <trkpt lat="45.74899" lon="5.63639">
        <ele>374.1781</ele>
        <time>2015-04-26T14:46:40Z</time>
      </trkpt>
      <trkpt lat="45.74897" lon="5.63637">
        <ele>374.1781</ele>
        <time>2015-04-26T14:46:45Z</time>
      </trkpt>
      <trkpt lat="45.74894" lon="5.63631">
        <ele>373.87833</ele>
        <time>2015-04-26T14:46:50Z</time>
      </trkpt>
      <trkpt lat="45.74893" lon="5.63622">
        <ele>373.87833</ele>
        <time>2015-04-26T14:46:55Z</time>
      </trkpt>
      <trkpt lat="45.74895" lon="5.63617">
        <ele>373.24274</ele>
        <time>2015-04-26T14:47:00Z</time>
      </trkpt>
      <trkpt lat="45.74893" lon="5.63611">
        <ele>373.24274</ele>
        <time>2015-04-26T14:47:05Z</time>
      </trkpt>
      <trkpt lat="45.74888" lon="5.63607">
        <ele>371.86694</ele>
        <time>2015-04-26T14:47:10Z</time>
      </trkpt>
      <trkpt lat="45.74883" lon="5.636">
        <ele>371.86694</ele>
        <time>2015-04-26T14:47:15Z</time>
      </trkpt>
      <trkpt lat="45.74876" lon="5.63596">
        <ele>370.41614</ele>
        <time>2015-04-26T14:47:20Z</time>
      </trkpt>
      <trkpt lat="45.74869" lon="5.63588">
        <ele>370.41614</ele>
        <time>2015-04-26T14:47:25Z</time>
      </trkpt>
      <trkpt lat="45.74861" lon="5.63584">
        <ele>368.94485</ele>
        <time>2015-04-26T14:47:30Z</time>
      </trkpt>
      <trkpt lat="45.74852" lon="5.63579">
        <ele>367.82083</ele>
        <time>2015-04-26T14:47:35Z</time>
      </trkpt>
      <trkpt lat="45.74841" lon="5.63576">
        <ele>367.0525</ele>
        <time>2015-04-26T14:47:40Z</time>
      </trkpt>
      <trkpt lat="45.74835" lon="5.63578">
        <ele>367.0525</ele>
        <time>2015-04-26T14:47:45Z</time>
      </trkpt>
      <trkpt lat="45.74828" lon="5.63578">
        <ele>366.41592</ele>
        <time>2015-04-26T14:47:50Z</time>
      </trkpt>
      <trkpt lat="45.74823" lon="5.63577">
        <ele>366.41592</ele>
        <time>2015-04-26T14:47:55Z</time>
      </trkpt>
      <trkpt lat="45.74819" lon="5.63577">
        <ele>365.38644</ele>
        <time>2015-04-26T14:48:00Z</time>
      </trkpt>
      <trkpt lat="45.74814" lon="5.63579">
        <ele>365.38644</ele>
        <time>2015-04-26T14:48:05Z</time>
      </trkpt>
      <trkpt lat="45.74811" lon="5.63579">
        <ele>365.38644</ele>
        <time>2015-04-26T14:48:10Z</time>
      </trkpt>
      <trkpt lat="45.7481" lon="5.6358">
        <ele>365.38644</ele>
        <time>2015-04-26T14:48:15Z</time>
      </trkpt>
      <trkpt lat="45.74807" lon="5.63584">
        <ele>363.3925</ele>
        <time>2015-04-26T14:48:20Z</time>
      </trkpt>
      <trkpt lat="45.74803" lon="5.63584">
        <ele>363.3925</ele>
        <time>2015-04-26T14:48:25Z</time>
      </trkpt>
      <trkpt lat="45.74793" lon="5.63583">
        <ele>361.49234</ele>
        <time>2015-04-26T14:48:30Z</time>
      </trkpt>
      <trkpt lat="45.74782" lon="5.63583">
        <ele>359.8881</ele>
        <time>2015-04-26T14:48:35Z</time>
      </trkpt>
      <trkpt lat="45.74771" lon="5.63586">
        <ele>358.0888</ele>
        <time>2015-04-26T14:48:40Z</time>
      </trkpt>
      <trkpt lat="45.74763" lon="5.63588">
        <ele>358.0888</ele>
        <time>2015-04-26T14:48:45Z</time>
      </trkpt>
      <trkpt lat="45.74752" lon="5.63586">
        <ele>356.89383</ele>
        <time>2015-04-26T14:48:50Z</time>
      </trkpt>
      <trkpt lat="45.74742" lon="5.63582">
        <ele>355.70178</ele>
        <time>2015-04-26T14:48:55Z</time>
      </trkpt>
      <trkpt lat="45.74729" lon="5.63582">
        <ele>354.61832</ele>
        <time>2015-04-26T14:49:00Z</time>
      </trkpt>
      <trkpt lat="45.74705" lon="5.63578">
        <ele>353.9282</ele>
        <time>2015-04-26T14:49:05Z</time>
      </trkpt>
      <trkpt lat="45.74681" lon="5.63569">
        <ele>353.56262</ele>
        <time>2015-04-26T14:49:10Z</time>
      </trkpt>
      <trkpt lat="45.74656" lon="5.63563">
        <ele>353.60098</ele>
        <time>2015-04-26T14:49:15Z</time>
      </trkpt>
      <trkpt lat="45.74637" lon="5.63551">
        <ele>354.05795</ele>
        <time>2015-04-26T14:49:20Z</time>
      </trkpt>
      <trkpt lat="45.74629" lon="5.63543">
        <ele>355.06113</ele>
        <time>2015-04-26T14:49:27Z</time>
      </trkpt>
      <trkpt lat="45.74622" lon="5.63543">
        <ele>355.06113</ele>
        <time>2015-04-26T14:49:32Z</time>
      </trkpt>
      <trkpt lat="45.74619" lon="5.6355">
        <ele>356.38116</ele>
        <time>2015-04-26T14:49:36Z</time>
      </trkpt>
      <trkpt lat="45.74614" lon="5.63556">
        <ele>356.38116</ele>
        <time>2015-04-26T14:49:41Z</time>
      </trkpt>
      <trkpt lat="45.74609" lon="5.63558">
        <ele>357.12744</ele>
        <time>2015-04-26T14:49:45Z</time>
      </trkpt>
      <trkpt lat="45.74604" lon="5.63562">
        <ele>357.12744</ele>
        <time>2015-04-26T14:49:50Z</time>
      </trkpt>
      <trkpt lat="45.74598" lon="5.63567">
        <ele>357.58582</ele>
        <time>2015-04-26T14:49:55Z</time>
      </trkpt>
      <trkpt lat="45.7459" lon="5.63569">
        <ele>357.58582</ele>
        <time>2015-04-26T14:50:00Z</time>
      </trkpt>
      <trkpt lat="45.74582" lon="5.63571">
        <ele>358.81454</ele>
        <time>2015-04-26T14:50:05Z</time>
      </trkpt>
      <trkpt lat="45.74575" lon="5.63572">
        <ele>358.81454</ele>
        <time>2015-04-26T14:50:10Z</time>
      </trkpt>
      <trkpt lat="45.74569" lon="5.63572">
        <ele>359.84647</ele>
        <time>2015-04-26T14:50:15Z</time>
      </trkpt>
      <trkpt lat="45.7456" lon="5.63572">
        <ele>359.84647</ele>
        <time>2015-04-26T14:50:20Z</time>
      </trkpt>
      <trkpt lat="45.74555" lon="5.63571">
        <ele>360.85236</ele>
        <time>2015-04-26T14:50:25Z</time>
      </trkpt>
      <trkpt lat="45.7455" lon="5.6357">
        <ele>360.85236</ele>
        <time>2015-04-26T14:50:30Z</time>
      </trkpt>
      <trkpt lat="45.74548" lon="5.63569">
        <ele>360.85236</ele>
        <time>2015-04-26T14:50:35Z</time>
      </trkpt>
      <trkpt lat="45.74543" lon="5.63569">
        <ele>361.9185</ele>
        <time>2015-04-26T14:50:40Z</time>
      </trkpt>
      <trkpt lat="45.74532" lon="5.63569">
        <ele>362.99484</ele>
        <time>2015-04-26T14:50:45Z</time>
      </trkpt>
      <trkpt lat="45.74527" lon="5.63564">
        <ele>362.99484</ele>
        <time>2015-04-26T14:50:50Z</time>
      </trkpt>
      <trkpt lat="45.74519" lon="5.63561">
        <ele>363.6748</ele>
        <time>2015-04-26T14:50:55Z</time>
      </trkpt>
      <trkpt lat="45.7451" lon="5.6356">
        <ele>363.6748</ele>
        <time>2015-04-26T14:51:00Z</time>
      </trkpt>
      <trkpt lat="45.74505" lon="5.6356">
        <ele>364.2024</ele>
        <time>2015-04-26T14:51:05Z</time>
      </trkpt>
      <trkpt lat="45.74499" lon="5.6356">
        <ele>364.2024</ele>
        <time>2015-04-26T14:51:10Z</time>
      </trkpt>
      <trkpt lat="45.74494" lon="5.63561">
        <ele>364.9194</ele>
        <time>2015-04-26T14:51:15Z</time>
      </trkpt>
      <trkpt lat="45.74486" lon="5.63563">
        <ele>364.9194</ele>
        <time>2015-04-26T14:51:20Z</time>
      </trkpt>
      <trkpt lat="45.74478" lon="5.63565">
        <ele>365.9691</ele>
        <time>2015-04-26T14:51:25Z</time>
      </trkpt>
      <trkpt lat="45.74474" lon="5.63569">
        <ele>365.9691</ele>
        <time>2015-04-26T14:51:30Z</time>
      </trkpt>
      <trkpt lat="45.74467" lon="5.63574">
        <ele>365.84036</ele>
        <time>2015-04-26T14:51:35Z</time>
      </trkpt>
      <trkpt lat="45.74461" lon="5.63584">
        <ele>365.91782</ele>
        <time>2015-04-26T14:51:40Z</time>
      </trkpt>
      <trkpt lat="45.74455" lon="5.63596">
        <ele>365.95615</ele>
        <time>2015-04-26T14:51:45Z</time>
      </trkpt>
      <trkpt lat="45.74449" lon="5.63602">
        <ele>365.95615</ele>
        <time>2015-04-26T14:51:50Z</time>
      </trkpt>
      <trkpt lat="45.74446" lon="5.63607">
        <ele>365.3824</ele>
        <time>2015-04-26T14:51:55Z</time>
      </trkpt>
      <trkpt lat="45.74437" lon="5.63613">
        <ele>364.90665</ele>
        <time>2015-04-26T14:52:00Z</time>
      </trkpt>
      <trkpt lat="45.7443" lon="5.63616">
        <ele>364.90665</ele>
        <time>2015-04-26T14:52:05Z</time>
      </trkpt>
      <trkpt lat="45.74424" lon="5.6362">
        <ele>364.35083</ele>
        <time>2015-04-26T14:52:10Z</time>
      </trkpt>
      <trkpt lat="45.74417" lon="5.63618">
        <ele>364.35083</ele>
        <time>2015-04-26T14:52:15Z</time>
      </trkpt>
      <trkpt lat="45.7441" lon="5.63615">
        <ele>363.72305</ele>
        <time>2015-04-26T14:52:20Z</time>
      </trkpt>
      <trkpt lat="45.74406" lon="5.63611">
        <ele>363.72305</ele>
        <time>2015-04-26T14:52:25Z</time>
      </trkpt>
      <trkpt lat="45.74403" lon="5.63608">
        <ele>363.72305</ele>
        <time>2015-04-26T14:52:30Z</time>
      </trkpt>
      <trkpt lat="45.74397" lon="5.63609">
        <ele>363.27594</ele>
        <time>2015-04-26T14:52:35Z</time>
      </trkpt>
      <trkpt lat="45.74391" lon="5.63607">
        <ele>363.27594</ele>
        <time>2015-04-26T14:52:40Z</time>
      </trkpt>
      <trkpt lat="45.74384" lon="5.63605">
        <ele>363.44492</ele>
        <time>2015-04-26T14:52:45Z</time>
      </trkpt>
      <trkpt lat="45.74377" lon="5.63605">
        <ele>363.44492</ele>
        <time>2015-04-26T14:52:50Z</time>
      </trkpt>
      <trkpt lat="45.74364" lon="5.63604">
        <ele>364.45862</ele>
        <time>2015-04-26T14:52:55Z</time>
      </trkpt>
      <trkpt lat="45.74353" lon="5.63605">
        <ele>365.34485</ele>
        <time>2015-04-26T14:53:00Z</time>
      </trkpt>
      <trkpt lat="45.74341" lon="5.63609">
        <ele>365.90933</ele>
        <time>2015-04-26T14:53:05Z</time>
      </trkpt>
      <trkpt lat="45.74327" lon="5.63606">
        <ele>367.4284</ele>
        <time>2015-04-26T14:53:10Z</time>
      </trkpt>
      <trkpt lat="45.74319" lon="5.63604">
        <ele>367.4284</ele>
        <time>2015-04-26T14:53:15Z</time>
      </trkpt>
      <trkpt lat="45.74312" lon="5.63603">
        <ele>368.5745</ele>
        <time>2015-04-26T14:53:20Z</time>
      </trkpt>
      <trkpt lat="45.74306" lon="5.63604">
        <ele>368.5745</ele>
        <time>2015-04-26T14:53:25Z</time>
      </trkpt>
      <trkpt lat="45.74298" lon="5.63603">
        <ele>369.11298</ele>
        <time>2015-04-26T14:53:30Z</time>
      </trkpt>
      <trkpt lat="45.74291" lon="5.63603">
        <ele>369.11298</ele>
        <time>2015-04-26T14:53:35Z</time>
      </trkpt>
      <trkpt lat="45.74284" lon="5.63603">
        <ele>371.04745</ele>
        <time>2015-04-26T14:53:40Z</time>
      </trkpt>
      <trkpt lat="45.74278" lon="5.63605">
        <ele>371.04745</ele>
        <time>2015-04-26T14:53:45Z</time>
      </trkpt>
      <trkpt lat="45.74275" lon="5.63608">
        <ele>372.65652</ele>
        <time>2015-04-26T14:53:50Z</time>
      </trkpt>
      <trkpt lat="45.74265" lon="5.63609">
        <ele>374.00342</ele>
        <time>2015-04-26T14:53:55Z</time>
      </trkpt>
      <trkpt lat="45.74252" lon="5.6361">
        <ele>375.39252</ele>
        <time>2015-04-26T14:54:00Z</time>
      </trkpt>
      <trkpt lat="45.74241" lon="5.63611">
        <ele>376.73108</ele>
        <time>2015-04-26T14:54:05Z</time>
      </trkpt>
      <trkpt lat="45.74231" lon="5.63614">
        <ele>378.07745</ele>
        <time>2015-04-26T14:54:10Z</time>
      </trkpt>
      <trkpt lat="45.74222" lon="5.63614">
        <ele>379.03906</ele>
        <time>2015-04-26T14:54:15Z</time>
      </trkpt>
      <trkpt lat="45.74211" lon="5.63615">
        <ele>379.7864</ele>
        <time>2015-04-26T14:54:20Z</time>
      </trkpt>
      <trkpt lat="45.74196" lon="5.63615">
        <ele>380.39175</ele>
        <time>2015-04-26T14:54:25Z</time>
      </trkpt>
      <trkpt lat="45.74175" lon="5.63617">
        <ele>380.8792</ele>
        <time>2015-04-26T14:54:30Z</time>
      </trkpt>
      <trkpt lat="45.74154" lon="5.63621">
        <ele>381.27158</ele>
        <time>2015-04-26T14:54:35Z</time>
      </trkpt>
      <trkpt lat="45.74131" lon="5.63623">
        <ele>381.57584</ele>
        <time>2015-04-26T14:54:40Z</time>
      </trkpt>
      <trkpt lat="45.7411" lon="5.63626">
        <ele>381.35202</ele>
        <time>2015-04-26T14:54:45Z</time>
      </trkpt>
      <trkpt lat="45.74093" lon="5.63626">
        <ele>381.59192</ele>
        <time>2015-04-26T14:54:50Z</time>
      </trkpt>
      <trkpt lat="45.74085" lon="5.63626">
        <ele>381.59192</ele>
        <time>2015-04-26T14:54:55Z</time>
      </trkpt>
      <trkpt lat="45.74076" lon="5.63627">
        <ele>381.8585</ele>
        <time>2015-04-26T14:55:00Z</time>
      </trkpt>
      <trkpt lat="45.74071" lon="5.63628">
        <ele>381.8585</ele>
        <time>2015-04-26T14:55:05Z</time>
      </trkpt>
      <trkpt lat="45.7407" lon="5.63628">
        <ele>381.8585</ele>
        <time>2015-04-26T14:55:10Z</time>
      </trkpt>
      <trkpt lat="45.74067" lon="5.63629">
        <ele>381.8585</ele>
        <time>2015-04-26T14:55:15Z</time>
      </trkpt>
      <trkpt lat="45.74062" lon="5.63631">
        <ele>381.28568</ele>
        <time>2015-04-26T14:55:20Z</time>
      </trkpt>
      <trkpt lat="45.74054" lon="5.6363">
        <ele>381.28568</ele>
        <time>2015-04-26T14:55:25Z</time>
      </trkpt>
      <trkpt lat="45.74049" lon="5.6363">
        <ele>380.41357</ele>
        <time>2015-04-26T14:55:30Z</time>
      </trkpt>
      <trkpt lat="45.74039" lon="5.63629">
        <ele>379.7003</ele>
        <time>2015-04-26T14:55:35Z</time>
      </trkpt>
      <trkpt lat="45.7403" lon="5.63632">
        <ele>378.7772</ele>
        <time>2015-04-26T14:55:40Z</time>
      </trkpt>
      <trkpt lat="45.74027" lon="5.63639">
        <ele>378.7772</ele>
        <time>2015-04-26T14:55:45Z</time>
      </trkpt>
      <trkpt lat="45.74022" lon="5.63645">
        <ele>377.31772</ele>
        <time>2015-04-26T14:55:50Z</time>
      </trkpt>
      <trkpt lat="45.74018" lon="5.63655">
        <ele>377.31772</ele>
        <time>2015-04-26T14:55:55Z</time>
      </trkpt>
      <trkpt lat="45.74014" lon="5.63663">
        <ele>375.15054</ele>
        <time>2015-04-26T14:56:00Z</time>
      </trkpt>
      <trkpt lat="45.74013" lon="5.6367">
        <ele>375.15054</ele>
        <time>2015-04-26T14:56:05Z</time>
      </trkpt>
      <trkpt lat="45.74011" lon="5.63685">
        <ele>373.40137</ele>
        <time>2015-04-26T14:56:10Z</time>
      </trkpt>
      <trkpt lat="45.7401" lon="5.63703">
        <ele>371.743</ele>
        <time>2015-04-26T14:56:16Z</time>
      </trkpt>
      <trkpt lat="45.7401" lon="5.6371">
        <ele>371.743</ele>
        <time>2015-04-26T14:56:21Z</time>
      </trkpt>
      <trkpt lat="45.74008" lon="5.63725">
        <ele>370.03046</ele>
        <time>2015-04-26T14:56:26Z</time>
      </trkpt>
      <trkpt lat="45.74007" lon="5.63737">
        <ele>370.03046</ele>
        <time>2015-04-26T14:56:30Z</time>
      </trkpt>
      <trkpt lat="45.74007" lon="5.63746">
        <ele>368.10062</ele>
        <time>2015-04-26T14:56:35Z</time>
      </trkpt>
      <trkpt lat="45.74009" lon="5.63754">
        <ele>368.10062</ele>
        <time>2015-04-26T14:56:40Z</time>
      </trkpt>
      <trkpt lat="45.74014" lon="5.63764">
        <ele>367.48904</ele>
        <time>2015-04-26T14:56:45Z</time>
      </trkpt>
      <trkpt lat="45.74015" lon="5.63779">
        <ele>367.51062</ele>
        <time>2015-04-26T14:56:50Z</time>
      </trkpt>
      <trkpt lat="45.74008" lon="5.6379">
        <ele>368.22046</ele>
        <time>2015-04-26T14:56:55Z</time>
      </trkpt>
      <trkpt lat="45.74004" lon="5.63796">
        <ele>368.22046</ele>
        <time>2015-04-26T14:57:00Z</time>
      </trkpt>
      <trkpt lat="45.74002" lon="5.63806">
        <ele>368.702</ele>
        <time>2015-04-26T14:57:05Z</time>
      </trkpt>
      <trkpt lat="45.74001" lon="5.63819">
        <ele>369.51892</ele>
        <time>2015-04-26T14:57:10Z</time>
      </trkpt>
      <trkpt lat="45.73998" lon="5.63829">
        <ele>369.51892</ele>
        <time>2015-04-26T14:57:15Z</time>
      </trkpt>
      <trkpt lat="45.73999" lon="5.63836">
        <ele>370.73126</ele>
        <time>2015-04-26T14:57:20Z</time>
      </trkpt>
      <trkpt lat="45.73999" lon="5.63841">
        <ele>370.73126</ele>
        <time>2015-04-26T14:57:25Z</time>
      </trkpt>
      <trkpt lat="45.73999" lon="5.63848">
        <ele>370.73126</ele>
        <time>2015-04-26T14:57:30Z</time>
      </trkpt>
      <trkpt lat="45.74001" lon="5.63858">
        <ele>372.26385</ele>
        <time>2015-04-26T14:57:35Z</time>
      </trkpt>
      <trkpt lat="45.74001" lon="5.63865">
        <ele>372.26385</ele>
        <time>2015-04-26T14:57:40Z</time>
      </trkpt>
      <trkpt lat="45.73996" lon="5.63864">
        <ele>372.77783</ele>
        <time>2015-04-26T14:57:45Z</time>
      </trkpt>
      <trkpt lat="45.73989" lon="5.63862">
        <ele>372.77783</ele>
        <time>2015-04-26T14:57:50Z</time>
      </trkpt>
      <trkpt lat="45.73985" lon="5.63863">
        <ele>373.08194</ele>
        <time>2015-04-26T14:57:55Z</time>
      </trkpt>
      <trkpt lat="45.73981" lon="5.63862">
        <ele>373.08194</ele>
        <time>2015-04-26T14:58:00Z</time>
      </trkpt>
      <trkpt lat="45.73973" lon="5.63865">
        <ele>373.19104</ele>
        <time>2015-04-26T14:58:05Z</time>
      </trkpt>
      <trkpt lat="45.73968" lon="5.63866">
        <ele>373.19104</ele>
        <time>2015-04-26T14:58:10Z</time>
      </trkpt>
      <trkpt lat="45.73965" lon="5.63867">
        <ele>373.19104</ele>
        <time>2015-04-26T14:58:15Z</time>
      </trkpt>
      <trkpt lat="45.7396" lon="5.63867">
        <ele>373.1051</ele>
        <time>2015-04-26T14:58:20Z</time>
      </trkpt>
      <trkpt lat="45.73954" lon="5.63867">
        <ele>373.1051</ele>
        <time>2015-04-26T14:58:25Z</time>
      </trkpt>
      <trkpt lat="45.73951" lon="5.63867">
        <ele>373.1051</ele>
        <time>2015-04-26T14:58:30Z</time>
      </trkpt>
      <trkpt lat="45.73946" lon="5.63867">
        <ele>372.7813</ele>
        <time>2015-04-26T14:58:35Z</time>
      </trkpt>
      <trkpt lat="45.73937" lon="5.63866">
        <ele>372.7813</ele>
        <time>2015-04-26T14:58:40Z</time>
      </trkpt>
      <trkpt lat="45.7393" lon="5.63861">
        <ele>371.99335</ele>
        <time>2015-04-26T14:58:45Z</time>
      </trkpt>
      <trkpt lat="45.73924" lon="5.63858">
        <ele>371.99335</ele>
        <time>2015-04-26T14:58:50Z</time>
      </trkpt>
      <trkpt lat="45.73915" lon="5.63855">
        <ele>371.09473</ele>
        <time>2015-04-26T14:58:55Z</time>
      </trkpt>
      <trkpt lat="45.73901" lon="5.63853">
        <ele>370.64398</ele>
        <time>2015-04-26T14:59:00Z</time>
      </trkpt>
      <trkpt lat="45.73896" lon="5.63855">
        <ele>370.64398</ele>
        <time>2015-04-26T14:59:05Z</time>
      </trkpt>
      <trkpt lat="45.73889" lon="5.63853">
        <ele>370.36462</ele>
        <time>2015-04-26T14:59:10Z</time>
      </trkpt>
      <trkpt lat="45.73883" lon="5.63851">
        <ele>370.36462</ele>
        <time>2015-04-26T14:59:15Z</time>
      </trkpt>
      <trkpt lat="45.73878" lon="5.6385">
        <ele>370.6917</ele>
        <time>2015-04-26T14:59:20Z</time>
      </trkpt>
      <trkpt lat="45.73857" lon="5.63839">
        <ele>371.32047</ele>
        <time>2015-04-26T14:59:25Z</time>
      </trkpt>
      <trkpt lat="45.73838" lon="5.63826">
        <ele>371.79474</ele>
        <time>2015-04-26T14:59:30Z</time>
      </trkpt>
      <trkpt lat="45.73825" lon="5.63819">
        <ele>372.4992</ele>
        <time>2015-04-26T14:59:35Z</time>
      </trkpt>
      <trkpt lat="45.73809" lon="5.6381">
        <ele>373.14124</ele>
        <time>2015-04-26T14:59:40Z</time>
      </trkpt>
      <trkpt lat="45.73791" lon="5.63796">
        <ele>374.18475</ele>
        <time>2015-04-26T14:59:45Z</time>
      </trkpt>
      <trkpt lat="45.73776" lon="5.63783">
        <ele>375.53967</ele>
        <time>2015-04-26T14:59:50Z</time>
      </trkpt>
      <trkpt lat="45.73764" lon="5.63772">
        <ele>376.58853</ele>
        <time>2015-04-26T14:59:55Z</time>
      </trkpt>
      <trkpt lat="45.73752" lon="5.63758">
        <ele>377.23553</ele>
        <time>2015-04-26T15:00:00Z</time>
      </trkpt>
      <trkpt lat="45.73735" lon="5.63748">
        <ele>378.0417</ele>
        <time>2015-04-26T15:00:05Z</time>
      </trkpt>
      <trkpt lat="45.7372" lon="5.63738">
        <ele>379.09393</ele>
        <time>2015-04-26T15:00:10Z</time>
      </trkpt>
      <trkpt lat="45.73709" lon="5.63728">
        <ele>379.85257</ele>
        <time>2015-04-26T15:00:15Z</time>
      </trkpt>
      <trkpt lat="45.73692" lon="5.63715">
        <ele>380.2507</ele>
        <time>2015-04-26T15:00:20Z</time>
      </trkpt>
      <trkpt lat="45.73678" lon="5.63704">
        <ele>380.4868</ele>
        <time>2015-04-26T15:00:25Z</time>
      </trkpt>
      <trkpt lat="45.73664" lon="5.63692">
        <ele>380.7308</ele>
        <time>2015-04-26T15:00:30Z</time>
      </trkpt>
      <trkpt lat="45.73656" lon="5.63684">
        <ele>381.3564</ele>
        <time>2015-04-26T15:00:35Z</time>
      </trkpt>
      <trkpt lat="45.73652" lon="5.63683">
        <ele>381.3564</ele>
        <time>2015-04-26T15:00:40Z</time>
      </trkpt>
      <trkpt lat="45.73644" lon="5.6368">
        <ele>381.8297</ele>
        <time>2015-04-26T15:00:47Z</time>
      </trkpt>
      <trkpt lat="45.73639" lon="5.63679">
        <ele>381.8297</ele>
        <time>2015-04-26T15:00:51Z</time>
      </trkpt>
      <trkpt lat="45.73628" lon="5.63677">
        <ele>381.98798</ele>
        <time>2015-04-26T15:00:56Z</time>
      </trkpt>
      <trkpt lat="45.7362" lon="5.63674">
        <ele>381.98798</ele>
        <time>2015-04-26T15:01:00Z</time>
      </trkpt>
      <trkpt lat="45.73611" lon="5.63671">
        <ele>382.02722</ele>
        <time>2015-04-26T15:01:05Z</time>
      </trkpt>
      <trkpt lat="45.73603" lon="5.63668">
        <ele>382.02722</ele>
        <time>2015-04-26T15:01:10Z</time>
      </trkpt>
      <trkpt lat="45.73601" lon="5.6366">
        <ele>382.15817</ele>
        <time>2015-04-26T15:01:15Z</time>
      </trkpt>
      <trkpt lat="45.73601" lon="5.63651">
        <ele>382.15817</ele>
        <time>2015-04-26T15:01:20Z</time>
      </trkpt>
      <trkpt lat="45.73601" lon="5.63641">
        <ele>381.98508</ele>
        <time>2015-04-26T15:01:25Z</time>
      </trkpt>
      <trkpt lat="45.73604" lon="5.63632">
        <ele>381.98508</ele>
        <time>2015-04-26T15:01:30Z</time>
      </trkpt>
      <trkpt lat="45.73608" lon="5.6362">
        <ele>381.93472</ele>
        <time>2015-04-26T15:01:35Z</time>
      </trkpt>
      <trkpt lat="45.73612" lon="5.63614">
        <ele>381.93472</ele>
        <time>2015-04-26T15:01:40Z</time>
      </trkpt>
      <trkpt lat="45.73617" lon="5.6361">
        <ele>382.2437</ele>
        <time>2015-04-26T15:01:45Z</time>
      </trkpt>
      <trkpt lat="45.73623" lon="5.63606">
        <ele>382.2437</ele>
        <time>2015-04-26T15:01:50Z</time>
      </trkpt>
      <trkpt lat="45.73624" lon="5.63605">
        <ele>382.2437</ele>
        <time>2015-04-26T15:01:55Z</time>
      </trkpt>
      <trkpt lat="45.7363" lon="5.63603">
        <ele>382.68353</ele>
        <time>2015-04-26T15:02:00Z</time>
      </trkpt>
      <trkpt lat="45.73636" lon="5.63599">
        <ele>382.68353</ele>
        <time>2015-04-26T15:02:05Z</time>
      </trkpt>
      <trkpt lat="45.73644" lon="5.63593">
        <ele>382.23508</ele>
        <time>2015-04-26T15:02:10Z</time>
      </trkpt>
      <trkpt lat="45.73649" lon="5.63591">
        <ele>382.23508</ele>
        <time>2015-04-26T15:02:15Z</time>
      </trkpt>
      <trkpt lat="45.73653" lon="5.63587">
        <ele>381.2392</ele>
        <time>2015-04-26T15:02:20Z</time>
      </trkpt>
      <trkpt lat="45.73659" lon="5.6358">
        <ele>381.2392</ele>
        <time>2015-04-26T15:02:25Z</time>
      </trkpt>
      <trkpt lat="45.73666" lon="5.63577">
        <ele>380.83472</ele>
        <time>2015-04-26T15:02:30Z</time>
      </trkpt>
      <trkpt lat="45.73673" lon="5.63576">
        <ele>380.83472</ele>
        <time>2015-04-26T15:02:35Z</time>
      </trkpt>
      <trkpt lat="45.73679" lon="5.63574">
        <ele>379.5676</ele>
        <time>2015-04-26T15:02:40Z</time>
      </trkpt>
      <trkpt lat="45.73684" lon="5.63562">
        <ele>378.65817</ele>
        <time>2015-04-26T15:02:45Z</time>
      </trkpt>
      <trkpt lat="45.73687" lon="5.63548">
        <ele>378.01123</ele>
        <time>2015-04-26T15:02:50Z</time>
      </trkpt>
      <trkpt lat="45.73688" lon="5.63538">
        <ele>378.01123</ele>
        <time>2015-04-26T15:02:55Z</time>
      </trkpt>
      <trkpt lat="45.73687" lon="5.63525">
        <ele>377.29276</ele>
        <time>2015-04-26T15:03:00Z</time>
      </trkpt>
      <trkpt lat="45.73687" lon="5.63508">
        <ele>377.2599</ele>
        <time>2015-04-26T15:03:05Z</time>
      </trkpt>
      <trkpt lat="45.73684" lon="5.63496">
        <ele>377.2599</ele>
        <time>2015-04-26T15:03:10Z</time>
      </trkpt>
      <trkpt lat="45.73679" lon="5.63486">
        <ele>377.1855</ele>
        <time>2015-04-26T15:03:15Z</time>
      </trkpt>
      <trkpt lat="45.73673" lon="5.63474">
        <ele>377.23178</ele>
        <time>2015-04-26T15:03:20Z</time>
      </trkpt>
      <trkpt lat="45.73671" lon="5.63463">
        <ele>377.23178</ele>
        <time>2015-04-26T15:03:25Z</time>
      </trkpt>
      <trkpt lat="45.73669" lon="5.63454">
        <ele>377.01547</ele>
        <time>2015-04-26T15:03:30Z</time>
      </trkpt>
      <trkpt lat="45.7367" lon="5.63445">
        <ele>377.01547</ele>
        <time>2015-04-26T15:03:35Z</time>
      </trkpt>
      <trkpt lat="45.7367" lon="5.63438">
        <ele>376.2686</ele>
        <time>2015-04-26T15:03:40Z</time>
      </trkpt>
      <trkpt lat="45.73668" lon="5.63429">
        <ele>376.2686</ele>
        <time>2015-04-26T15:03:45Z</time>
      </trkpt>
      <trkpt lat="45.73669" lon="5.63419">
        <ele>375.01813</ele>
        <time>2015-04-26T15:03:50Z</time>
      </trkpt>
      <trkpt lat="45.73668" lon="5.63412">
        <ele>375.01813</ele>
        <time>2015-04-26T15:03:55Z</time>
      </trkpt>
      <trkpt lat="45.73661" lon="5.63403">
        <ele>373.44897</ele>
        <time>2015-04-26T15:04:00Z</time>
      </trkpt>
      <trkpt lat="45.73653" lon="5.63397">
        <ele>373.44897</ele>
        <time>2015-04-26T15:04:05Z</time>
      </trkpt>
      <trkpt lat="45.73645" lon="5.63391">
        <ele>372.49707</ele>
        <time>2015-04-26T15:04:10Z</time>
      </trkpt>
      <trkpt lat="45.73636" lon="5.63389">
        <ele>371.8318</ele>
        <time>2015-04-26T15:04:15Z</time>
      </trkpt>
      <trkpt lat="45.73626" lon="5.63387">
        <ele>371.4628</ele>
        <time>2015-04-26T15:04:20Z</time>
      </trkpt>
      <trkpt lat="45.73615" lon="5.63385">
        <ele>371.1245</ele>
        <time>2015-04-26T15:04:25Z</time>
      </trkpt>
      <trkpt lat="45.73606" lon="5.63385">
        <ele>371.08942</ele>
        <time>2015-04-26T15:04:30Z</time>
      </trkpt>
      <trkpt lat="45.73596" lon="5.63384">
        <ele>371.09033</ele>
        <time>2015-04-26T15:04:35Z</time>
      </trkpt>
      <trkpt lat="45.73587" lon="5.63384">
        <ele>371.32626</ele>
        <time>2015-04-26T15:04:40Z</time>
      </trkpt>
      <trkpt lat="45.73579" lon="5.63385">
        <ele>371.32626</ele>
        <time>2015-04-26T15:04:45Z</time>
      </trkpt>
      <trkpt lat="45.7357" lon="5.63385">
        <ele>371.3324</ele>
        <time>2015-04-26T15:04:50Z</time>
      </trkpt>
      <trkpt lat="45.7356" lon="5.63383">
        <ele>371.356</ele>
        <time>2015-04-26T15:04:55Z</time>
      </trkpt>
      <trkpt lat="45.73552" lon="5.63381">
        <ele>371.356</ele>
        <time>2015-04-26T15:05:00Z</time>
      </trkpt>
      <trkpt lat="45.73544" lon="5.63379">
        <ele>371.43866</ele>
        <time>2015-04-26T15:05:05Z</time>
      </trkpt>
      <trkpt lat="45.73535" lon="5.63376">
        <ele>371.70532</ele>
        <time>2015-04-26T15:05:10Z</time>
      </trkpt>
      <trkpt lat="45.73526" lon="5.6337">
        <ele>372.1414</ele>
        <time>2015-04-26T15:05:15Z</time>
      </trkpt>
      <trkpt lat="45.73518" lon="5.63367">
        <ele>372.1414</ele>
        <time>2015-04-26T15:05:20Z</time>
      </trkpt>
      <trkpt lat="45.73509" lon="5.63365">
        <ele>372.76172</ele>
        <time>2015-04-26T15:05:25Z</time>
      </trkpt>
      <trkpt lat="45.73501" lon="5.63361">
        <ele>372.76172</ele>
        <time>2015-04-26T15:05:30Z</time>
      </trkpt>
      <trkpt lat="45.73491" lon="5.63362">
        <ele>373.79565</ele>
        <time>2015-04-26T15:05:35Z</time>
      </trkpt>
      <trkpt lat="45.73485" lon="5.63365">
        <ele>373.79565</ele>
        <time>2015-04-26T15:05:40Z</time>
      </trkpt>
      <trkpt lat="45.73476" lon="5.63371">
        <ele>374.76285</ele>
        <time>2015-04-26T15:05:45Z</time>
      </trkpt>
      <trkpt lat="45.73472" lon="5.63378">
        <ele>374.76285</ele>
        <time>2015-04-26T15:05:50Z</time>
      </trkpt>
      <trkpt lat="45.73467" lon="5.63383">
        <ele>375.30484</ele>
        <time>2015-04-26T15:05:55Z</time>
      </trkpt>
      <trkpt lat="45.73461" lon="5.6339">
        <ele>375.30484</ele>
        <time>2015-04-26T15:06:00Z</time>
      </trkpt>
      <trkpt lat="45.73455" lon="5.63393">
        <ele>376.24362</ele>
        <time>2015-04-26T15:06:05Z</time>
      </trkpt>
      <trkpt lat="45.73448" lon="5.63396">
        <ele>376.24362</ele>
        <time>2015-04-26T15:06:11Z</time>
      </trkpt>
      <trkpt lat="45.7344" lon="5.634">
        <ele>376.16364</ele>
        <time>2015-04-26T15:06:16Z</time>
      </trkpt>
      <trkpt lat="45.73435" lon="5.63402">
        <ele>376.16364</ele>
        <time>2015-04-26T15:06:21Z</time>
      </trkpt>
      <trkpt lat="45.73426" lon="5.63405">
        <ele>376.13397</ele>
        <time>2015-04-26T15:06:26Z</time>
      </trkpt>
      <trkpt lat="45.73419" lon="5.63407">
        <ele>376.13397</ele>
        <time>2015-04-26T15:06:31Z</time>
      </trkpt>
      <trkpt lat="45.73408" lon="5.63409">
        <ele>375.949</ele>
        <time>2015-04-26T15:06:36Z</time>
      </trkpt>
      <trkpt lat="45.73397" lon="5.63411">
        <ele>376.19678</ele>
        <time>2015-04-26T15:06:42Z</time>
      </trkpt>
      <trkpt lat="45.73388" lon="5.63414">
        <ele>376.54196</ele>
        <time>2015-04-26T15:06:47Z</time>
      </trkpt>
      <trkpt lat="45.73382" lon="5.63414">
        <ele>376.54196</ele>
        <time>2015-04-26T15:06:51Z</time>
      </trkpt>
      <trkpt lat="45.73372" lon="5.63415">
        <ele>377.26437</ele>
        <time>2015-04-26T15:06:57Z</time>
      </trkpt>
      <trkpt lat="45.73368" lon="5.63419">
        <ele>377.26437</ele>
        <time>2015-04-26T15:07:01Z</time>
      </trkpt>
      <trkpt lat="45.73365" lon="5.63429">
        <ele>378.24768</ele>
        <time>2015-04-26T15:07:05Z</time>
      </trkpt>
      <trkpt lat="45.73361" lon="5.6344">
        <ele>378.24768</ele>
        <time>2015-04-26T15:07:10Z</time>
      </trkpt>
      <trkpt lat="45.73358" lon="5.6345">
        <ele>379.03735</ele>
        <time>2015-04-26T15:07:15Z</time>
      </trkpt>
      <trkpt lat="45.73355" lon="5.63456">
        <ele>379.03735</ele>
        <time>2015-04-26T15:07:20Z</time>
      </trkpt>
      <trkpt lat="45.73353" lon="5.63463">
        <ele>378.92474</ele>
        <time>2015-04-26T15:07:25Z</time>
      </trkpt>
      <trkpt lat="45.7335" lon="5.6347">
        <ele>378.92474</ele>
        <time>2015-04-26T15:07:30Z</time>
      </trkpt>
      <trkpt lat="45.73342" lon="5.63476">
        <ele>379.50388</ele>
        <time>2015-04-26T15:07:35Z</time>
      </trkpt>
      <trkpt lat="45.73335" lon="5.63479">
        <ele>379.50388</ele>
        <time>2015-04-26T15:07:40Z</time>
      </trkpt>
      <trkpt lat="45.73327" lon="5.6348">
        <ele>380.1458</ele>
        <time>2015-04-26T15:07:45Z</time>
      </trkpt>
      <trkpt lat="45.73321" lon="5.6348">
        <ele>380.1458</ele>
        <time>2015-04-26T15:07:50Z</time>
      </trkpt>
      <trkpt lat="45.73315" lon="5.63482">
        <ele>380.72876</ele>
        <time>2015-04-26T15:07:55Z</time>
      </trkpt>
      <trkpt lat="45.73309" lon="5.63487">
        <ele>380.72876</ele>
        <time>2015-04-26T15:08:00Z</time>
      </trkpt>
      <trkpt lat="45.73304" lon="5.63493">
        <ele>381.11136</ele>
        <time>2015-04-26T15:08:05Z</time>
      </trkpt>
      <trkpt lat="45.73297" lon="5.635">
        <ele>381.11136</ele>
        <time>2015-04-26T15:08:10Z</time>
      </trkpt>
      <trkpt lat="45.73292" lon="5.63507">
        <ele>381.97012</ele>
        <time>2015-04-26T15:08:15Z</time>
      </trkpt>
      <trkpt lat="45.73288" lon="5.63512">
        <ele>381.97012</ele>
        <time>2015-04-26T15:08:20Z</time>
      </trkpt>
      <trkpt lat="45.73285" lon="5.63515">
        <ele>382.57608</ele>
        <time>2015-04-26T15:08:25Z</time>
      </trkpt>
      <trkpt lat="45.73279" lon="5.63521">
        <ele>382.57608</ele>
        <time>2015-04-26T15:08:30Z</time>
      </trkpt>
      <trkpt lat="45.73275" lon="5.63525">
        <ele>383.37854</ele>
        <time>2015-04-26T15:08:35Z</time>
      </trkpt>
      <trkpt lat="45.73269" lon="5.63529">
        <ele>383.37854</ele>
        <time>2015-04-26T15:08:40Z</time>
      </trkpt>
      <trkpt lat="45.73263" lon="5.63532">
        <ele>384.27448</ele>
        <time>2015-04-26T15:08:45Z</time>
      </trkpt>
      <trkpt lat="45.73258" lon="5.63535">
        <ele>384.27448</ele>
        <time>2015-04-26T15:08:50Z</time>
      </trkpt>
      <trkpt lat="45.73252" lon="5.63535">
        <ele>384.56302</ele>
        <time>2015-04-26T15:08:55Z</time>
      </trkpt>
      <trkpt lat="45.73248" lon="5.63537">
        <ele>384.56302</ele>
        <time>2015-04-26T15:09:00Z</time>
      </trkpt>
      <trkpt lat="45.73241" lon="5.6354">
        <ele>384.36032</ele>
        <time>2015-04-26T15:09:05Z</time>
      </trkpt>
      <trkpt lat="45.73236" lon="5.63544">
        <ele>384.36032</ele>
        <time>2015-04-26T15:09:10Z</time>
      </trkpt>
      <trkpt lat="45.73232" lon="5.63545">
        <ele>383.4295</ele>
        <time>2015-04-26T15:09:16Z</time>
      </trkpt>
      <trkpt lat="45.73227" lon="5.63545">
        <ele>383.4295</ele>
        <time>2015-04-26T15:09:21Z</time>
      </trkpt>
      <trkpt lat="45.7322" lon="5.63547">
        <ele>382.2882</ele>
        <time>2015-04-26T15:09:26Z</time>
      </trkpt>
      <trkpt lat="45.73213" lon="5.63551">
        <ele>382.2882</ele>
        <time>2015-04-26T15:09:31Z</time>
      </trkpt>
      <trkpt lat="45.73205" lon="5.63553">
        <ele>380.33575</ele>
        <time>2015-04-26T15:09:36Z</time>
      </trkpt>
      <trkpt lat="45.73199" lon="5.63555">
        <ele>380.33575</ele>
        <time>2015-04-26T15:09:40Z</time>
      </trkpt>
      <trkpt lat="45.7319" lon="5.63559">
        <ele>378.2285</ele>
        <time>2015-04-26T15:09:45Z</time>
      </trkpt>
      <trkpt lat="45.73183" lon="5.63561">
        <ele>378.2285</ele>
        <time>2015-04-26T15:09:50Z</time>
      </trkpt>
      <trkpt lat="45.73174" lon="5.63562">
        <ele>376.2867</ele>
        <time>2015-04-26T15:09:55Z</time>
      </trkpt>
      <trkpt lat="45.73167" lon="5.63564">
        <ele>376.2867</ele>
        <time>2015-04-26T15:10:00Z</time>
      </trkpt>
      <trkpt lat="45.73161" lon="5.63566">
        <ele>374.83557</ele>
        <time>2015-04-26T15:10:05Z</time>
      </trkpt>
      <trkpt lat="45.73155" lon="5.63566">
        <ele>374.83557</ele>
        <time>2015-04-26T15:10:10Z</time>
      </trkpt>
      <trkpt lat="45.73148" lon="5.63566">
        <ele>373.77136</ele>
        <time>2015-04-26T15:10:15Z</time>
      </trkpt>
      <trkpt lat="45.7314" lon="5.63563">
        <ele>373.77136</ele>
        <time>2015-04-26T15:10:20Z</time>
      </trkpt>
      <trkpt lat="45.7313" lon="5.63565">
        <ele>373.22745</ele>
        <time>2015-04-26T15:10:25Z</time>
      </trkpt>
      <trkpt lat="45.73122" lon="5.63568">
        <ele>373.22745</ele>
        <time>2015-04-26T15:10:30Z</time>
      </trkpt>
      <trkpt lat="45.73115" lon="5.63569">
        <ele>372.69186</ele>
        <time>2015-04-26T15:10:35Z</time>
      </trkpt>
      <trkpt lat="45.73112" lon="5.63571">
        <ele>372.69186</ele>
        <time>2015-04-26T15:10:40Z</time>
      </trkpt>
      <trkpt lat="45.73108" lon="5.63573">
        <ele>372.69186</ele>
        <time>2015-04-26T15:10:45Z</time>
      </trkpt>
      <trkpt lat="45.73101" lon="5.63577">
        <ele>371.863</ele>
        <time>2015-04-26T15:10:50Z</time>
      </trkpt>
      <trkpt lat="45.73095" lon="5.63581">
        <ele>371.863</ele>
        <time>2015-04-26T15:10:55Z</time>
      </trkpt>
      <trkpt lat="45.73088" lon="5.63587">
        <ele>372.1196</ele>
        <time>2015-04-26T15:11:00Z</time>
      </trkpt>
      <trkpt lat="45.73081" lon="5.6359">
        <ele>372.1196</ele>
        <time>2015-04-26T15:11:05Z</time>
      </trkpt>
      <trkpt lat="45.73044" lon="5.63597">
        <ele>371.32043</ele>
        <time>2015-04-26T15:11:25Z</time>
      </trkpt>
      <trkpt lat="45.73037" lon="5.63599">
        <ele>371.32043</ele>
        <time>2015-04-26T15:11:30Z</time>
      </trkpt>
      <trkpt lat="45.7303" lon="5.63603">
        <ele>370.8856</ele>
        <time>2015-04-26T15:11:35Z</time>
      </trkpt>
      <trkpt lat="45.73022" lon="5.63606">
        <ele>370.8856</ele>
        <time>2015-04-26T15:11:40Z</time>
      </trkpt>
      <trkpt lat="45.73013" lon="5.6361">
        <ele>370.97687</ele>
        <time>2015-04-26T15:11:45Z</time>
      </trkpt>
      <trkpt lat="45.73005" lon="5.63613">
        <ele>370.97687</ele>
        <time>2015-04-26T15:11:50Z</time>
      </trkpt>
      <trkpt lat="45.73" lon="5.63611">
        <ele>371.10852</ele>
        <time>2015-04-26T15:11:55Z</time>
      </trkpt>
      <trkpt lat="45.72999" lon="5.6361">
        <ele>371.10852</ele>
        <time>2015-04-26T15:12:00Z</time>
      </trkpt>
      <trkpt lat="45.72996" lon="5.6361">
        <ele>371.10852</ele>
        <time>2015-04-26T15:12:05Z</time>
      </trkpt>
      <trkpt lat="45.72995" lon="5.6361">
        <ele>371.10852</ele>
        <time>2015-04-26T15:12:10Z</time>
      </trkpt>
      <trkpt lat="45.72993" lon="5.63611">
        <ele>371.10852</ele>
        <time>2015-04-26T15:12:15Z</time>
      </trkpt>
      <trkpt lat="45.72987" lon="5.63612">
        <ele>370.59973</ele>
        <time>2015-04-26T15:12:20Z</time>
      </trkpt>
      <trkpt lat="45.72977" lon="5.63611">
        <ele>369.72946</ele>
        <time>2015-04-26T15:12:25Z</time>
      </trkpt>
      <trkpt lat="45.72969" lon="5.63618">
        <ele>369.34787</ele>
        <time>2015-04-26T15:12:31Z</time>
      </trkpt>
      <trkpt lat="45.72959" lon="5.63619">
        <ele>368.59842</ele>
        <time>2015-04-26T15:12:36Z</time>
      </trkpt>
      <trkpt lat="45.72954" lon="5.63619">
        <ele>368.59842</ele>
        <time>2015-04-26T15:12:41Z</time>
      </trkpt>
      <trkpt lat="45.72949" lon="5.63619">
        <ele>367.5676</ele>
        <time>2015-04-26T15:12:46Z</time>
      </trkpt>
      <trkpt lat="45.72944" lon="5.63622">
        <ele>367.5676</ele>
        <time>2015-04-26T15:12:51Z</time>
      </trkpt>
      <trkpt lat="45.72935" lon="5.63621">
        <ele>366.49478</ele>
        <time>2015-04-26T15:12:55Z</time>
      </trkpt>
      <trkpt lat="45.7293" lon="5.6362">
        <ele>366.49478</ele>
        <time>2015-04-26T15:13:00Z</time>
      </trkpt>
      <trkpt lat="45.7292" lon="5.63628">
        <ele>365.645</ele>
        <time>2015-04-26T15:13:05Z</time>
      </trkpt>
      <trkpt lat="45.72914" lon="5.63629">
        <ele>365.645</ele>
        <time>2015-04-26T15:13:10Z</time>
      </trkpt>
      <trkpt lat="45.72908" lon="5.63623">
        <ele>364.8309</ele>
        <time>2015-04-26T15:13:15Z</time>
      </trkpt>
      <trkpt lat="45.72902" lon="5.63616">
        <ele>364.8309</ele>
        <time>2015-04-26T15:13:20Z</time>
      </trkpt>
      <trkpt lat="45.72897" lon="5.63613">
        <ele>364.12363</ele>
        <time>2015-04-26T15:13:25Z</time>
      </trkpt>
      <trkpt lat="45.72887" lon="5.63607">
        <ele>363.5744</ele>
        <time>2015-04-26T15:13:30Z</time>
      </trkpt>
      <trkpt lat="45.72879" lon="5.63605">
        <ele>363.5744</ele>
        <time>2015-04-26T15:13:35Z</time>
      </trkpt>
      <trkpt lat="45.72872" lon="5.63606">
        <ele>363.6769</ele>
        <time>2015-04-26T15:13:40Z</time>
      </trkpt>
      <trkpt lat="45.72864" lon="5.63605">
        <ele>363.6769</ele>
        <time>2015-04-26T15:13:45Z</time>
      </trkpt>
      <trkpt lat="45.72858" lon="5.63606">
        <ele>363.82025</ele>
        <time>2015-04-26T15:13:50Z</time>
      </trkpt>
      <trkpt lat="45.72854" lon="5.63598">
        <ele>363.82025</ele>
        <time>2015-04-26T15:13:55Z</time>
      </trkpt>
      <trkpt lat="45.7285" lon="5.63589">
        <ele>363.29413</ele>
        <time>2015-04-26T15:14:00Z</time>
      </trkpt>
      <trkpt lat="45.72842" lon="5.6358">
        <ele>362.4078</ele>
        <time>2015-04-26T15:14:05Z</time>
      </trkpt>
      <trkpt lat="45.72835" lon="5.63574">
        <ele>362.4078</ele>
        <time>2015-04-26T15:14:10Z</time>
      </trkpt>
      <trkpt lat="45.7283" lon="5.63564">
        <ele>362.38553</ele>
        <time>2015-04-26T15:14:15Z</time>
      </trkpt>
      <trkpt lat="45.72824" lon="5.63555">
        <ele>362.38553</ele>
        <time>2015-04-26T15:14:20Z</time>
      </trkpt>
      <trkpt lat="45.72818" lon="5.63547">
        <ele>362.78833</ele>
        <time>2015-04-26T15:14:25Z</time>
      </trkpt>
      <trkpt lat="45.72813" lon="5.63539">
        <ele>362.78833</ele>
        <time>2015-04-26T15:14:30Z</time>
      </trkpt>
      <trkpt lat="45.72808" lon="5.6353">
        <ele>363.20822</ele>
        <time>2015-04-26T15:14:35Z</time>
      </trkpt>
      <trkpt lat="45.72803" lon="5.63522">
        <ele>363.20822</ele>
        <time>2015-04-26T15:14:40Z</time>
      </trkpt>
      <trkpt lat="45.72799" lon="5.63515">
        <ele>363.35367</ele>
        <time>2015-04-26T15:14:45Z</time>
      </trkpt>
      <trkpt lat="45.72792" lon="5.63509">
        <ele>363.35367</ele>
        <time>2015-04-26T15:14:50Z</time>
      </trkpt>
      <trkpt lat="45.72784" lon="5.63505">
        <ele>363.53165</ele>
        <time>2015-04-26T15:14:55Z</time>
      </trkpt>
      <trkpt lat="45.72775" lon="5.63504">
        <ele>363.53165</ele>
        <time>2015-04-26T15:15:00Z</time>
      </trkpt>
      <trkpt lat="45.72769" lon="5.63502">
        <ele>363.78156</ele>
        <time>2015-04-26T15:15:05Z</time>
      </trkpt>
      <trkpt lat="45.7276" lon="5.63502">
        <ele>363.78156</ele>
        <time>2015-04-26T15:15:10Z</time>
      </trkpt>
      <trkpt lat="45.72753" lon="5.63502">
        <ele>363.75055</ele>
        <time>2015-04-26T15:15:15Z</time>
      </trkpt>
      <trkpt lat="45.72745" lon="5.63504">
        <ele>363.75055</ele>
        <time>2015-04-26T15:15:20Z</time>
      </trkpt>
      <trkpt lat="45.72738" lon="5.63504">
        <ele>363.74658</ele>
        <time>2015-04-26T15:15:25Z</time>
      </trkpt>
      <trkpt lat="45.7273" lon="5.63506">
        <ele>363.74658</ele>
        <time>2015-04-26T15:15:30Z</time>
      </trkpt>
      <trkpt lat="45.72722" lon="5.63507">
        <ele>363.27673</ele>
        <time>2015-04-26T15:15:35Z</time>
      </trkpt>
      <trkpt lat="45.72713" lon="5.63508">
        <ele>363.27673</ele>
        <time>2015-04-26T15:15:40Z</time>
      </trkpt>
      <trkpt lat="45.72708" lon="5.63508">
        <ele>362.50528</ele>
        <time>2015-04-26T15:15:45Z</time>
      </trkpt>
      <trkpt lat="45.72698" lon="5.63507">
        <ele>362.16165</ele>
        <time>2015-04-26T15:15:50Z</time>
      </trkpt>
      <trkpt lat="45.72689" lon="5.63505">
        <ele>362.16165</ele>
        <time>2015-04-26T15:15:55Z</time>
      </trkpt>
      <trkpt lat="45.72682" lon="5.63509">
        <ele>361.2633</ele>
        <time>2015-04-26T15:16:00Z</time>
      </trkpt>
      <trkpt lat="45.72671" lon="5.63506">
        <ele>360.77484</ele>
        <time>2015-04-26T15:16:05Z</time>
      </trkpt>
      <trkpt lat="45.72664" lon="5.63504">
        <ele>360.77484</ele>
        <time>2015-04-26T15:16:10Z</time>
      </trkpt>
      <trkpt lat="45.72656" lon="5.63499">
        <ele>360.37827</ele>
        <time>2015-04-26T15:16:15Z</time>
      </trkpt>
      <trkpt lat="45.72649" lon="5.63494">
        <ele>360.37827</ele>
        <time>2015-04-26T15:16:20Z</time>
      </trkpt>
      <trkpt lat="45.72642" lon="5.63492">
        <ele>360.2255</ele>
        <time>2015-04-26T15:16:25Z</time>
      </trkpt>
      <trkpt lat="45.72633" lon="5.63494">
        <ele>359.90894</ele>
        <time>2015-04-26T15:16:30Z</time>
      </trkpt>
      <trkpt lat="45.72625" lon="5.63497">
        <ele>359.90894</ele>
        <time>2015-04-26T15:16:35Z</time>
      </trkpt>
      <trkpt lat="45.72618" lon="5.635">
        <ele>359.26758</ele>
        <time>2015-04-26T15:16:40Z</time>
      </trkpt>
      <trkpt lat="45.72609" lon="5.63505">
        <ele>358.34045</ele>
        <time>2015-04-26T15:16:45Z</time>
      </trkpt>
      <trkpt lat="45.72603" lon="5.6351">
        <ele>358.34045</ele>
        <time>2015-04-26T15:16:50Z</time>
      </trkpt>
      <trkpt lat="45.72595" lon="5.63514">
        <ele>357.15018</ele>
        <time>2015-04-26T15:16:55Z</time>
      </trkpt>
      <trkpt lat="45.72586" lon="5.63515">
        <ele>356.12186</ele>
        <time>2015-04-26T15:17:00Z</time>
      </trkpt>
      <trkpt lat="45.7258" lon="5.6352">
        <ele>356.12186</ele>
        <time>2015-04-26T15:17:05Z</time>
      </trkpt>
      <trkpt lat="45.72574" lon="5.63521">
        <ele>354.79868</ele>
        <time>2015-04-26T15:17:10Z</time>
      </trkpt>
      <trkpt lat="45.72564" lon="5.63519">
        <ele>353.6373</ele>
        <time>2015-04-26T15:17:15Z</time>
      </trkpt>
      <trkpt lat="45.72556" lon="5.6352">
        <ele>353.6373</ele>
        <time>2015-04-26T15:17:20Z</time>
      </trkpt>
      <trkpt lat="45.72547" lon="5.63519">
        <ele>352.2245</ele>
        <time>2015-04-26T15:17:25Z</time>
      </trkpt>
      <trkpt lat="45.72538" lon="5.63516">
        <ele>350.61035</ele>
        <time>2015-04-26T15:17:30Z</time>
      </trkpt>
      <trkpt lat="45.72529" lon="5.63516">
        <ele>350.61035</ele>
        <time>2015-04-26T15:17:35Z</time>
      </trkpt>
      <trkpt lat="45.72523" lon="5.6352">
        <ele>349.72095</ele>
        <time>2015-04-26T15:17:40Z</time>
      </trkpt>
      <trkpt lat="45.72517" lon="5.63522">
        <ele>349.72095</ele>
        <time>2015-04-26T15:17:45Z</time>
      </trkpt>
      <trkpt lat="45.7251" lon="5.63527">
        <ele>348.99994</ele>
        <time>2015-04-26T15:17:50Z</time>
      </trkpt>
      <trkpt lat="45.725" lon="5.63527">
        <ele>348.42133</ele>
        <time>2015-04-26T15:17:55Z</time>
      </trkpt>
      <trkpt lat="45.7249" lon="5.63527">
        <ele>348.2055</ele>
        <time>2015-04-26T15:18:00Z</time>
      </trkpt>
      <trkpt lat="45.72483" lon="5.63532">
        <ele>348.2055</ele>
        <time>2015-04-26T15:18:05Z</time>
      </trkpt>
      <trkpt lat="45.72476" lon="5.63535">
        <ele>348.00812</ele>
        <time>2015-04-26T15:18:10Z</time>
      </trkpt>
      <trkpt lat="45.72466" lon="5.63539">
        <ele>347.899</ele>
        <time>2015-04-26T15:18:15Z</time>
      </trkpt>
      <trkpt lat="45.72458" lon="5.63543">
        <ele>347.899</ele>
        <time>2015-04-26T15:18:20Z</time>
      </trkpt>
      <trkpt lat="45.72445" lon="5.63539">
        <ele>348.13</ele>
        <time>2015-04-26T15:18:25Z</time>
      </trkpt>
      <trkpt lat="45.72436" lon="5.63545">
        <ele>348.6452</ele>
        <time>2015-04-26T15:18:30Z</time>
      </trkpt>
      <trkpt lat="45.72426" lon="5.63546">
        <ele>348.7868</ele>
        <time>2015-04-26T15:18:35Z</time>
      </trkpt>
      <trkpt lat="45.72419" lon="5.6355">
        <ele>348.7868</ele>
        <time>2015-04-26T15:18:40Z</time>
      </trkpt>
      <trkpt lat="45.7241" lon="5.63552">
        <ele>348.076</ele>
        <time>2015-04-26T15:18:45Z</time>
      </trkpt>
      <trkpt lat="45.72405" lon="5.63552">
        <ele>348.076</ele>
        <time>2015-04-26T15:18:50Z</time>
      </trkpt>
      <trkpt lat="45.72395" lon="5.63548">
        <ele>347.2388</ele>
        <time>2015-04-26T15:18:55Z</time>
      </trkpt>
      <trkpt lat="45.72385" lon="5.63546">
        <ele>346.6601</ele>
        <time>2015-04-26T15:19:00Z</time>
      </trkpt>
      <trkpt lat="45.72374" lon="5.63545">
        <ele>346.2202</ele>
        <time>2015-04-26T15:19:05Z</time>
      </trkpt>
      <trkpt lat="45.72365" lon="5.63546">
        <ele>346.2202</ele>
        <time>2015-04-26T15:19:10Z</time>
      </trkpt>
      <trkpt lat="45.72355" lon="5.63546">
        <ele>346.831</ele>
        <time>2015-04-26T15:19:15Z</time>
      </trkpt>
      <trkpt lat="45.72346" lon="5.63545">
        <ele>346.831</ele>
        <time>2015-04-26T15:19:20Z</time>
      </trkpt>
      <trkpt lat="45.72338" lon="5.63546">
        <ele>347.89328</ele>
        <time>2015-04-26T15:19:25Z</time>
      </trkpt>
      <trkpt lat="45.72331" lon="5.63548">
        <ele>347.89328</ele>
        <time>2015-04-26T15:19:30Z</time>
      </trkpt>
      <trkpt lat="45.72322" lon="5.63551">
        <ele>349.74417</ele>
        <time>2015-04-26T15:19:35Z</time>
      </trkpt>
      <trkpt lat="45.72314" lon="5.63556">
        <ele>349.74417</ele>
        <time>2015-04-26T15:19:40Z</time>
      </trkpt>
      <trkpt lat="45.72306" lon="5.6356">
        <ele>350.9212</ele>
        <time>2015-04-26T15:19:45Z</time>
      </trkpt>
      <trkpt lat="45.72298" lon="5.63564">
        <ele>350.9212</ele>
        <time>2015-04-26T15:19:50Z</time>
      </trkpt>
      <trkpt lat="45.72289" lon="5.63569">
        <ele>351.4836</ele>
        <time>2015-04-26T15:19:55Z</time>
      </trkpt>
      <trkpt lat="45.72281" lon="5.63577">
        <ele>353.20294</ele>
        <time>2015-04-26T15:20:00Z</time>
      </trkpt>
      <trkpt lat="45.72278" lon="5.63586">
        <ele>353.20294</ele>
        <time>2015-04-26T15:20:05Z</time>
      </trkpt>
      <trkpt lat="45.72274" lon="5.63595">
        <ele>354.11462</ele>
        <time>2015-04-26T15:20:10Z</time>
      </trkpt>
      <trkpt lat="45.72269" lon="5.63599">
        <ele>354.11462</ele>
        <time>2015-04-26T15:20:15Z</time>
      </trkpt>
      <trkpt lat="45.72267" lon="5.63604">
        <ele>354.6345</ele>
        <time>2015-04-26T15:20:20Z</time>
      </trkpt>
      <trkpt lat="45.72262" lon="5.63614">
        <ele>354.6345</ele>
        <time>2015-04-26T15:20:25Z</time>
      </trkpt>
      <trkpt lat="45.72256" lon="5.63629">
        <ele>355.46603</ele>
        <time>2015-04-26T15:20:30Z</time>
      </trkpt>
      <trkpt lat="45.7225" lon="5.63638">
        <ele>355.46603</ele>
        <time>2015-04-26T15:20:35Z</time>
      </trkpt>
      <trkpt lat="45.72246" lon="5.63649">
        <ele>356.84232</ele>
        <time>2015-04-26T15:20:40Z</time>
      </trkpt>
      <trkpt lat="45.7224" lon="5.63657">
        <ele>356.84232</ele>
        <time>2015-04-26T15:20:45Z</time>
      </trkpt>
      <trkpt lat="45.72236" lon="5.63664">
        <ele>357.45032</ele>
        <time>2015-04-26T15:20:50Z</time>
      </trkpt>
      <trkpt lat="45.72231" lon="5.63671">
        <ele>357.45032</ele>
        <time>2015-04-26T15:20:55Z</time>
      </trkpt>
      <trkpt lat="45.72226" lon="5.63678">
        <ele>357.84818</ele>
        <time>2015-04-26T15:21:00Z</time>
      </trkpt>
      <trkpt lat="45.72222" lon="5.6369">
        <ele>358.53946</ele>
        <time>2015-04-26T15:21:05Z</time>
      </trkpt>
      <trkpt lat="45.72217" lon="5.637">
        <ele>358.53946</ele>
        <time>2015-04-26T15:21:10Z</time>
      </trkpt>
      <trkpt lat="45.72213" lon="5.63709">
        <ele>359.5431</ele>
        <time>2015-04-26T15:21:15Z</time>
      </trkpt>
      <trkpt lat="45.72208" lon="5.63726">
        <ele>361.1209</ele>
        <time>2015-04-26T15:21:20Z</time>
      </trkpt>
      <trkpt lat="45.72203" lon="5.63735">
        <ele>361.1209</ele>
        <time>2015-04-26T15:21:25Z</time>
      </trkpt>
      <trkpt lat="45.72199" lon="5.63746">
        <ele>362.26025</ele>
        <time>2015-04-26T15:21:30Z</time>
      </trkpt>
      <trkpt lat="45.72191" lon="5.63759">
        <ele>363.58054</ele>
        <time>2015-04-26T15:21:35Z</time>
      </trkpt>
      <trkpt lat="45.72184" lon="5.63764">
        <ele>363.58054</ele>
        <time>2015-04-26T15:21:40Z</time>
      </trkpt>
      <trkpt lat="45.72177" lon="5.63772">
        <ele>364.60327</ele>
        <time>2015-04-26T15:21:45Z</time>
      </trkpt>
      <trkpt lat="45.72169" lon="5.63776">
        <ele>364.60327</ele>
        <time>2015-04-26T15:21:50Z</time>
      </trkpt>
      <trkpt lat="45.72164" lon="5.63778">
        <ele>364.5834</ele>
        <time>2015-04-26T15:21:55Z</time>
      </trkpt>
      <trkpt lat="45.72157" lon="5.63783">
        <ele>364.5834</ele>
        <time>2015-04-26T15:22:00Z</time>
      </trkpt>
      <trkpt lat="45.72148" lon="5.63787">
        <ele>364.56302</ele>
        <time>2015-04-26T15:22:05Z</time>
      </trkpt>
      <trkpt lat="45.72138" lon="5.63789">
        <ele>364.78717</ele>
        <time>2015-04-26T15:22:10Z</time>
      </trkpt>
      <trkpt lat="45.72132" lon="5.63796">
        <ele>364.78717</ele>
        <time>2015-04-26T15:22:15Z</time>
      </trkpt>
      <trkpt lat="45.72125" lon="5.63803">
        <ele>364.38705</ele>
        <time>2015-04-26T15:22:20Z</time>
      </trkpt>
      <trkpt lat="45.72106" lon="5.63813">
        <ele>363.8422</ele>
        <time>2015-04-26T15:22:25Z</time>
      </trkpt>
      <trkpt lat="45.72089" lon="5.63825">
        <ele>363.26584</ele>
        <time>2015-04-26T15:22:30Z</time>
      </trkpt>
      <trkpt lat="45.7207" lon="5.63827">
        <ele>362.43164</ele>
        <time>2015-04-26T15:22:35Z</time>
      </trkpt>
      <trkpt lat="45.72054" lon="5.63829">
        <ele>362.18268</ele>
        <time>2015-04-26T15:22:40Z</time>
      </trkpt>
      <trkpt lat="45.72047" lon="5.63834">
        <ele>362.18268</ele>
        <time>2015-04-26T15:22:45Z</time>
      </trkpt>
      <trkpt lat="45.72039" lon="5.63842">
        <ele>362.65</ele>
        <time>2015-04-26T15:22:50Z</time>
      </trkpt>
      <trkpt lat="45.72032" lon="5.63846">
        <ele>362.65</ele>
        <time>2015-04-26T15:22:55Z</time>
      </trkpt>
      <trkpt lat="45.72025" lon="5.63848">
        <ele>363.27573</ele>
        <time>2015-04-26T15:23:00Z</time>
      </trkpt>
      <trkpt lat="45.72014" lon="5.63851">
        <ele>363.48492</ele>
        <time>2015-04-26T15:23:05Z</time>
      </trkpt>
      <trkpt lat="45.72" lon="5.63857">
        <ele>362.91904</ele>
        <time>2015-04-26T15:23:10Z</time>
      </trkpt>
      <trkpt lat="45.71979" lon="5.63869">
        <ele>362.31442</ele>
        <time>2015-04-26T15:23:15Z</time>
      </trkpt>
      <trkpt lat="45.71951" lon="5.63873">
        <ele>362.1374</ele>
        <time>2015-04-26T15:23:20Z</time>
      </trkpt>
      <trkpt lat="45.71917" lon="5.63869">
        <ele>362.0694</ele>
        <time>2015-04-26T15:23:25Z</time>
      </trkpt>
      <trkpt lat="45.71885" lon="5.63879">
        <ele>362.4347</ele>
        <time>2015-04-26T15:23:30Z</time>
      </trkpt>
      <trkpt lat="45.71876" lon="5.63886">
        <ele>363.20102</ele>
        <time>2015-04-26T15:23:35Z</time>
      </trkpt>
      <trkpt lat="45.71869" lon="5.63888">
        <ele>363.20102</ele>
        <time>2015-04-26T15:23:40Z</time>
      </trkpt>
      <trkpt lat="45.71865" lon="5.63886">
        <ele>363.41513</ele>
        <time>2015-04-26T15:23:45Z</time>
      </trkpt>
      <trkpt lat="45.71857" lon="5.63889">
        <ele>363.41513</ele>
        <time>2015-04-26T15:23:50Z</time>
      </trkpt>
      <trkpt lat="45.71851" lon="5.6389">
        <ele>362.7141</ele>
        <time>2015-04-26T15:23:55Z</time>
      </trkpt>
      <trkpt lat="45.71842" lon="5.63896">
        <ele>361.9892</ele>
        <time>2015-04-26T15:24:00Z</time>
      </trkpt>
      <trkpt lat="45.71835" lon="5.63905">
        <ele>361.9078</ele>
        <time>2015-04-26T15:24:05Z</time>
      </trkpt>
      <trkpt lat="45.71833" lon="5.63912">
        <ele>361.9078</ele>
        <time>2015-04-26T15:24:10Z</time>
      </trkpt>
      <trkpt lat="45.71829" lon="5.63915">
        <ele>360.42038</ele>
        <time>2015-04-26T15:24:15Z</time>
      </trkpt>
      <trkpt lat="45.71828" lon="5.63926">
        <ele>360.42038</ele>
        <time>2015-04-26T15:24:20Z</time>
      </trkpt>
      <trkpt lat="45.71825" lon="5.63935">
        <ele>359.03287</ele>
        <time>2015-04-26T15:24:25Z</time>
      </trkpt>
      <trkpt lat="45.71816" lon="5.63943">
        <ele>358.0451</ele>
        <time>2015-04-26T15:24:30Z</time>
      </trkpt>
      <trkpt lat="45.71813" lon="5.63952">
        <ele>358.0451</ele>
        <time>2015-04-26T15:24:35Z</time>
      </trkpt>
      <trkpt lat="45.71808" lon="5.63953">
        <ele>356.60965</ele>
        <time>2015-04-26T15:24:40Z</time>
      </trkpt>
      <trkpt lat="45.71806" lon="5.63958">
        <ele>356.60965</ele>
        <time>2015-04-26T15:24:45Z</time>
      </trkpt>
      <trkpt lat="45.71806" lon="5.6397">
        <ele>354.76392</ele>
        <time>2015-04-26T15:24:50Z</time>
      </trkpt>
      <trkpt lat="45.71802" lon="5.63976">
        <ele>354.76392</ele>
        <time>2015-04-26T15:24:55Z</time>
      </trkpt>
      <trkpt lat="45.71802" lon="5.63993">
        <ele>353.19226</ele>
        <time>2015-04-26T15:25:00Z</time>
      </trkpt>
      <trkpt lat="45.71799" lon="5.64007">
        <ele>352.2973</ele>
        <time>2015-04-26T15:25:05Z</time>
      </trkpt>
      <trkpt lat="45.71793" lon="5.6402">
        <ele>351.72952</ele>
        <time>2015-04-26T15:25:10Z</time>
      </trkpt>
      <trkpt lat="45.71784" lon="5.64036">
        <ele>352.31708</ele>
        <time>2015-04-26T15:25:15Z</time>
      </trkpt>
      <trkpt lat="45.7178" lon="5.64047">
        <ele>352.31708</ele>
        <time>2015-04-26T15:25:20Z</time>
      </trkpt>
      <trkpt lat="45.71779" lon="5.64058">
        <ele>353.1378</ele>
        <time>2015-04-26T15:25:25Z</time>
      </trkpt>
      <trkpt lat="45.71775" lon="5.6407">
        <ele>354.4606</ele>
        <time>2015-04-26T15:25:30Z</time>
      </trkpt>
      <trkpt lat="45.7177" lon="5.64086">
        <ele>355.91357</ele>
        <time>2015-04-26T15:25:35Z</time>
      </trkpt>
      <trkpt lat="45.71769" lon="5.64094">
        <ele>355.91357</ele>
        <time>2015-04-26T15:25:40Z</time>
      </trkpt>
      <trkpt lat="45.71769" lon="5.64101">
        <ele>356.47433</ele>
        <time>2015-04-26T15:25:45Z</time>
      </trkpt>
      <trkpt lat="45.71766" lon="5.64112">
        <ele>356.47433</ele>
        <time>2015-04-26T15:25:50Z</time>
      </trkpt>
      <trkpt lat="45.71759" lon="5.64123">
        <ele>358.51266</ele>
        <time>2015-04-26T15:25:55Z</time>
      </trkpt>
      <trkpt lat="45.71753" lon="5.64134">
        <ele>360.3435</ele>
        <time>2015-04-26T15:26:00Z</time>
      </trkpt>
      <trkpt lat="45.71748" lon="5.64145">
        <ele>361.7464</ele>
        <time>2015-04-26T15:26:05Z</time>
      </trkpt>
      <trkpt lat="45.71743" lon="5.64154">
        <ele>361.7464</ele>
        <time>2015-04-26T15:26:10Z</time>
      </trkpt>
      <trkpt lat="45.71732" lon="5.64174">
        <ele>362.40298</ele>
        <time>2015-04-26T15:26:15Z</time>
      </trkpt>
      <trkpt lat="45.71719" lon="5.64199">
        <ele>362.85632</ele>
        <time>2015-04-26T15:26:20Z</time>
      </trkpt>
      <trkpt lat="45.71714" lon="5.64212">
        <ele>363.29303</ele>
        <time>2015-04-26T15:26:25Z</time>
      </trkpt>
      <trkpt lat="45.71707" lon="5.64214">
        <ele>363.29303</ele>
        <time>2015-04-26T15:26:30Z</time>
      </trkpt>
      <trkpt lat="45.717" lon="5.64217">
        <ele>363.46826</ele>
        <time>2015-04-26T15:26:35Z</time>
      </trkpt>
      <trkpt lat="45.71692" lon="5.64219">
        <ele>363.46826</ele>
        <time>2015-04-26T15:26:40Z</time>
      </trkpt>
      <trkpt lat="45.71685" lon="5.64222">
        <ele>363.4585</ele>
        <time>2015-04-26T15:26:45Z</time>
      </trkpt>
      <trkpt lat="45.71681" lon="5.64223">
        <ele>363.4585</ele>
        <time>2015-04-26T15:26:50Z</time>
      </trkpt>
      <trkpt lat="45.71673" lon="5.64225">
        <ele>363.4072</ele>
        <time>2015-04-26T15:26:55Z</time>
      </trkpt>
      <trkpt lat="45.71666" lon="5.64226">
        <ele>363.4072</ele>
        <time>2015-04-26T15:27:00Z</time>
      </trkpt>
      <trkpt lat="45.71658" lon="5.64227">
        <ele>363.116</ele>
        <time>2015-04-26T15:27:05Z</time>
      </trkpt>
      <trkpt lat="45.71651" lon="5.64227">
        <ele>363.116</ele>
        <time>2015-04-26T15:27:10Z</time>
      </trkpt>
      <trkpt lat="45.71643" lon="5.64226">
        <ele>362.71887</ele>
        <time>2015-04-26T15:27:15Z</time>
      </trkpt>
      <trkpt lat="45.71636" lon="5.64225">
        <ele>362.71887</ele>
        <time>2015-04-26T15:27:20Z</time>
      </trkpt>
      <trkpt lat="45.71629" lon="5.64225">
        <ele>362.13846</ele>
        <time>2015-04-26T15:27:25Z</time>
      </trkpt>
      <trkpt lat="45.71621" lon="5.64224">
        <ele>362.13846</ele>
        <time>2015-04-26T15:27:31Z</time>
      </trkpt>
      <trkpt lat="45.71615" lon="5.64224">
        <ele>361.54865</ele>
        <time>2015-04-26T15:27:35Z</time>
      </trkpt>
      <trkpt lat="45.71613" lon="5.64231">
        <ele>361.54865</ele>
        <time>2015-04-26T15:27:40Z</time>
      </trkpt>
      <trkpt lat="45.71616" lon="5.64237">
        <ele>360.7935</ele>
        <time>2015-04-26T15:27:45Z</time>
      </trkpt>
      <trkpt lat="45.71616" lon="5.64237">
        <ele>360.7935</ele>
        <time>2015-04-26T15:27:50Z</time>
      </trkpt>
      <trkpt lat="45.71616" lon="5.64238">
        <ele>360.7935</ele>
        <time>2015-04-26T15:27:55Z</time>
      </trkpt>
      <trkpt lat="45.71616" lon="5.64238">
        <ele>360.7935</ele>
        <time>2015-04-26T15:28:00Z</time>
      </trkpt>
      <trkpt lat="45.71616" lon="5.64237">
        <ele>360.7935</ele>
        <time>2015-04-26T15:28:05Z</time>
      </trkpt>
      <trkpt lat="45.71617" lon="5.64237">
        <ele>360.7935</ele>
        <time>2015-04-26T15:28:10Z</time>
      </trkpt>
      <trkpt lat="45.71617" lon="5.64237">
        <ele>360.7935</ele>
        <time>2015-04-26T15:28:17Z</time>
      </trkpt>
      <trkpt lat="45.71616" lon="5.64238">
        <ele>360.7935</ele>
        <time>2015-04-26T15:28:22Z</time>
      </trkpt>
      <trkpt lat="45.71616" lon="5.64238">
        <ele>360.7935</ele>
        <time>2015-04-26T15:28:27Z</time>
      </trkpt>
      <trkpt lat="45.71617" lon="5.64238">
        <ele>360.7935</ele>
        <time>2015-04-26T15:28:32Z</time>
      </trkpt>
      <trkpt lat="45.71617" lon="5.64239">
        <ele>360.7935</ele>
        <time>2015-04-26T15:28:36Z</time>
      </trkpt>
      <trkpt lat="45.71617" lon="5.64239">
        <ele>360.7935</ele>
        <time>2015-04-26T15:28:42Z</time>
      </trkpt>
      <trkpt lat="45.71617" lon="5.64239">
        <ele>360.7935</ele>
        <time>2015-04-26T15:28:47Z</time>
      </trkpt>
      <trkpt lat="45.71617" lon="5.64239">
        <ele>360.7935</ele>
        <time>2015-04-26T15:28:51Z</time>
      </trkpt>
      <trkpt lat="45.71617" lon="5.64239">
        <ele>360.7935</ele>
        <time>2015-04-26T15:28:57Z</time>
      </trkpt>
      <trkpt lat="45.71618" lon="5.64239">
        <ele>360.7935</ele>
        <time>2015-04-26T15:29:02Z</time>
      </trkpt>
      <trkpt lat="45.71618" lon="5.64239">
        <ele>360.7935</ele>
        <time>2015-04-26T15:29:08Z</time>
      </trkpt>
      <trkpt lat="45.71618" lon="5.64239">
        <ele>360.7935</ele>
        <time>2015-04-26T15:29:11Z</time>
      </trkpt>
      <trkpt lat="45.71617" lon="5.64239">
        <ele>360.7935</ele>
        <time>2015-04-26T15:29:17Z</time>
      </trkpt>
      <trkpt lat="45.71617" lon="5.64239">
        <ele>360.7935</ele>
        <time>2015-04-26T15:29:22Z</time>
      </trkpt>
      <trkpt lat="45.71617" lon="5.64239">
        <ele>360.7935</ele>
        <time>2015-04-26T15:29:26Z</time>
      </trkpt>
      <trkpt lat="45.71617" lon="5.64239">
        <ele>360.7935</ele>
        <time>2015-04-26T15:29:32Z</time>
      </trkpt>
      <trkpt lat="45.71618" lon="5.6424">
        <ele>360.00278</ele>
        <time>2015-04-26T15:29:37Z</time>
      </trkpt>
      <trkpt lat="45.71619" lon="5.64241">
        <ele>360.00278</ele>
        <time>2015-04-26T15:29:42Z</time>
      </trkpt>
      <trkpt lat="45.71619" lon="5.64241">
        <ele>360.00278</ele>
        <time>2015-04-26T15:29:47Z</time>
      </trkpt>
      <trkpt lat="45.71619" lon="5.64241">
        <ele>360.00278</ele>
        <time>2015-04-26T15:29:51Z</time>
      </trkpt>
      <trkpt lat="45.71619" lon="5.64241">
        <ele>360.00278</ele>
        <time>2015-04-26T15:29:57Z</time>
      </trkpt>
      <trkpt lat="45.71619" lon="5.64241">
        <ele>360.00278</ele>
        <time>2015-04-26T15:30:01Z</time>
      </trkpt>
      <trkpt lat="45.71619" lon="5.64241">
        <ele>360.00278</ele>
        <time>2015-04-26T15:30:06Z</time>
      </trkpt>
      <trkpt lat="45.71619" lon="5.64241">
        <ele>360.00278</ele>
        <time>2015-04-26T15:30:10Z</time>
      </trkpt>
      <trkpt lat="45.71619" lon="5.64241">
        <ele>360.00278</ele>
        <time>2015-04-26T15:30:16Z</time>
      </trkpt>
      <trkpt lat="45.71619" lon="5.64241">
        <ele>360.00278</ele>
        <time>2015-04-26T15:30:22Z</time>
      </trkpt>
      <trkpt lat="45.71619" lon="5.64241">
        <ele>360.00278</ele>
        <time>2015-04-26T15:30:25Z</time>
      </trkpt>
      <trkpt lat="45.7162" lon="5.64242">
        <ele>360.00278</ele>
        <time>2015-04-26T15:30:32Z</time>
      </trkpt>
      <trkpt lat="45.71618" lon="5.6424">
        <ele>360.00278</ele>
        <time>2015-04-26T15:30:38Z</time>
      </trkpt>
      <trkpt lat="45.71617" lon="5.64239">
        <ele>360.00278</ele>
        <time>2015-04-26T15:30:42Z</time>
      </trkpt>
      <trkpt lat="45.71612" lon="5.64232">
        <ele>359.32574</ele>
        <time>2015-04-26T15:30:47Z</time>
      </trkpt>
      <trkpt lat="45.7161" lon="5.64223">
        <ele>359.32574</ele>
        <time>2015-04-26T15:30:51Z</time>
      </trkpt>
      <trkpt lat="45.71602" lon="5.64219">
        <ele>358.74176</ele>
        <time>2015-04-26T15:30:57Z</time>
      </trkpt>
      <trkpt lat="45.71596" lon="5.64217">
        <ele>358.74176</ele>
        <time>2015-04-26T15:31:01Z</time>
      </trkpt>
      <trkpt lat="45.7159" lon="5.64214">
        <ele>358.38992</ele>
        <time>2015-04-26T15:31:06Z</time>
      </trkpt>
      <trkpt lat="45.71579" lon="5.64211">
        <ele>358.08148</ele>
        <time>2015-04-26T15:31:12Z</time>
      </trkpt>
      <trkpt lat="45.71572" lon="5.64207">
        <ele>358.08148</ele>
        <time>2015-04-26T15:31:16Z</time>
      </trkpt>
      <trkpt lat="45.71564" lon="5.64204">
        <ele>357.69897</ele>
        <time>2015-04-26T15:31:22Z</time>
      </trkpt>
      <trkpt lat="45.71557" lon="5.64203">
        <ele>357.69897</ele>
        <time>2015-04-26T15:31:27Z</time>
      </trkpt>
      <trkpt lat="45.71549" lon="5.64202">
        <ele>357.30667</ele>
        <time>2015-04-26T15:31:32Z</time>
      </trkpt>
      <trkpt lat="45.7154" lon="5.64198">
        <ele>357.30667</ele>
        <time>2015-04-26T15:31:35Z</time>
      </trkpt>
      <trkpt lat="45.71534" lon="5.64196">
        <ele>356.97864</ele>
        <time>2015-04-26T15:31:41Z</time>
      </trkpt>
      <trkpt lat="45.71523" lon="5.64188">
        <ele>356.89847</ele>
        <time>2015-04-26T15:31:46Z</time>
      </trkpt>
      <trkpt lat="45.71516" lon="5.64184">
        <ele>356.89847</ele>
        <time>2015-04-26T15:31:52Z</time>
      </trkpt>
      <trkpt lat="45.71509" lon="5.64181">
        <ele>356.83206</ele>
        <time>2015-04-26T15:31:57Z</time>
      </trkpt>
      <trkpt lat="45.71502" lon="5.64178">
        <ele>356.83206</ele>
        <time>2015-04-26T15:32:02Z</time>
      </trkpt>
      <trkpt lat="45.71496" lon="5.64181">
        <ele>356.47604</ele>
        <time>2015-04-26T15:32:07Z</time>
      </trkpt>
      <trkpt lat="45.71489" lon="5.64185">
        <ele>356.47604</ele>
        <time>2015-04-26T15:32:12Z</time>
      </trkpt>
      <trkpt lat="45.71481" lon="5.64189">
        <ele>355.795</ele>
        <time>2015-04-26T15:32:16Z</time>
      </trkpt>
      <trkpt lat="45.71473" lon="5.64192">
        <ele>355.795</ele>
        <time>2015-04-26T15:32:23Z</time>
      </trkpt>
      <trkpt lat="45.71467" lon="5.64196">
        <ele>354.98767</ele>
        <time>2015-04-26T15:32:27Z</time>
      </trkpt>
      <trkpt lat="45.71457" lon="5.64198">
        <ele>354.36813</ele>
        <time>2015-04-26T15:32:32Z</time>
      </trkpt>
      <trkpt lat="45.71449" lon="5.642">
        <ele>354.36813</ele>
        <time>2015-04-26T15:32:36Z</time>
      </trkpt>
      <trkpt lat="45.71441" lon="5.642">
        <ele>353.9387</ele>
        <time>2015-04-26T15:32:40Z</time>
      </trkpt>
      <trkpt lat="45.71432" lon="5.642">
        <ele>353.5855</ele>
        <time>2015-04-26T15:32:45Z</time>
      </trkpt>
      <trkpt lat="45.71422" lon="5.64202">
        <ele>353.4336</ele>
        <time>2015-04-26T15:32:52Z</time>
      </trkpt>
      <trkpt lat="45.71416" lon="5.64202">
        <ele>353.4336</ele>
        <time>2015-04-26T15:32:57Z</time>
      </trkpt>
      <trkpt lat="45.7141" lon="5.64199">
        <ele>352.97836</ele>
        <time>2015-04-26T15:33:02Z</time>
      </trkpt>
      <trkpt lat="45.71403" lon="5.64196">
        <ele>352.97836</ele>
        <time>2015-04-26T15:33:06Z</time>
      </trkpt>
      <trkpt lat="45.71397" lon="5.64196">
        <ele>352.64664</ele>
        <time>2015-04-26T15:33:12Z</time>
      </trkpt>
      <trkpt lat="45.71389" lon="5.64193">
        <ele>352.64664</ele>
        <time>2015-04-26T15:33:15Z</time>
      </trkpt>
      <trkpt lat="45.71381" lon="5.64197">
        <ele>352.55972</ele>
        <time>2015-04-26T15:33:20Z</time>
      </trkpt>
      <trkpt lat="45.71373" lon="5.64194">
        <ele>352.55972</ele>
        <time>2015-04-26T15:33:25Z</time>
      </trkpt>
      <trkpt lat="45.71367" lon="5.64197">
        <ele>352.33926</ele>
        <time>2015-04-26T15:33:30Z</time>
      </trkpt>
      <trkpt lat="45.71361" lon="5.64199">
        <ele>352.33926</ele>
        <time>2015-04-26T15:33:35Z</time>
      </trkpt>
      <trkpt lat="45.7136" lon="5.64199">
        <ele>352.33926</ele>
        <time>2015-04-26T15:33:40Z</time>
      </trkpt>
      <trkpt lat="45.71356" lon="5.642">
        <ele>352.1539</ele>
        <time>2015-04-26T15:33:45Z</time>
      </trkpt>
      <trkpt lat="45.71347" lon="5.64201">
        <ele>352.1539</ele>
        <time>2015-04-26T15:33:50Z</time>
      </trkpt>
      <trkpt lat="45.71342" lon="5.64202">
        <ele>351.5256</ele>
        <time>2015-04-26T15:33:55Z</time>
      </trkpt>
      <trkpt lat="45.71334" lon="5.64204">
        <ele>351.5256</ele>
        <time>2015-04-26T15:34:00Z</time>
      </trkpt>
      <trkpt lat="45.71324" lon="5.64206">
        <ele>350.79092</ele>
        <time>2015-04-26T15:34:05Z</time>
      </trkpt>
      <trkpt lat="45.71317" lon="5.64207">
        <ele>350.79092</ele>
        <time>2015-04-26T15:34:10Z</time>
      </trkpt>
      <trkpt lat="45.71312" lon="5.64208">
        <ele>349.82956</ele>
        <time>2015-04-26T15:34:15Z</time>
      </trkpt>
      <trkpt lat="45.71307" lon="5.64212">
        <ele>349.82956</ele>
        <time>2015-04-26T15:34:20Z</time>
      </trkpt>
      <trkpt lat="45.71298" lon="5.64217">
        <ele>349.1072</ele>
        <time>2015-04-26T15:34:25Z</time>
      </trkpt>
      <trkpt lat="45.71293" lon="5.6422">
        <ele>349.1072</ele>
        <time>2015-04-26T15:34:30Z</time>
      </trkpt>
      <trkpt lat="45.71287" lon="5.64224">
        <ele>347.94482</ele>
        <time>2015-04-26T15:34:35Z</time>
      </trkpt>
      <trkpt lat="45.71279" lon="5.64223">
        <ele>347.94482</ele>
        <time>2015-04-26T15:34:40Z</time>
      </trkpt>
      <trkpt lat="45.71272" lon="5.64222">
        <ele>345.80106</ele>
        <time>2015-04-26T15:34:45Z</time>
      </trkpt>
      <trkpt lat="45.71267" lon="5.64218">
        <ele>345.80106</ele>
        <time>2015-04-26T15:34:50Z</time>
      </trkpt>
      <trkpt lat="45.71261" lon="5.64211">
        <ele>343.61807</ele>
        <time>2015-04-26T15:34:55Z</time>
      </trkpt>
      <trkpt lat="45.71252" lon="5.64201">
        <ele>342.28326</ele>
        <time>2015-04-26T15:35:00Z</time>
      </trkpt>
      <trkpt lat="45.71244" lon="5.6419">
        <ele>341.57883</ele>
        <time>2015-04-26T15:35:05Z</time>
      </trkpt>
      <trkpt lat="45.71233" lon="5.64186">
        <ele>341.28674</ele>
        <time>2015-04-26T15:35:10Z</time>
      </trkpt>
      <trkpt lat="45.71225" lon="5.64192">
        <ele>340.94434</ele>
        <time>2015-04-26T15:35:15Z</time>
      </trkpt>
      <trkpt lat="45.71217" lon="5.64195">
        <ele>340.94434</ele>
        <time>2015-04-26T15:35:20Z</time>
      </trkpt>
      <trkpt lat="45.71213" lon="5.64197">
        <ele>341.0453</ele>
        <time>2015-04-26T15:35:25Z</time>
      </trkpt>
      <trkpt lat="45.71213" lon="5.64196">
        <ele>341.0453</ele>
        <time>2015-04-26T15:35:30Z</time>
      </trkpt>
      <trkpt lat="45.71212" lon="5.64196">
        <ele>341.0453</ele>
        <time>2015-04-26T15:35:35Z</time>
      </trkpt>
      <trkpt lat="45.71211" lon="5.64195">
        <ele>341.0453</ele>
        <time>2015-04-26T15:35:40Z</time>
      </trkpt>
      <trkpt lat="45.71211" lon="5.64195">
        <ele>341.0453</ele>
        <time>2015-04-26T15:35:45Z</time>
      </trkpt>
      <trkpt lat="45.71211" lon="5.64195">
        <ele>341.0453</ele>
        <time>2015-04-26T15:35:50Z</time>
      </trkpt>
      <trkpt lat="45.71211" lon="5.64195">
        <ele>341.0453</ele>
        <time>2015-04-26T15:35:55Z</time>
      </trkpt>
      <trkpt lat="45.7121" lon="5.64196">
        <ele>341.0453</ele>
        <time>2015-04-26T15:36:00Z</time>
      </trkpt>
      <trkpt lat="45.7121" lon="5.64196">
        <ele>341.0453</ele>
        <time>2015-04-26T15:36:05Z</time>
      </trkpt>
      <trkpt lat="45.7121" lon="5.64196">
        <ele>341.0453</ele>
        <time>2015-04-26T15:36:10Z</time>
      </trkpt>
      <trkpt lat="45.71211" lon="5.64199">
        <ele>341.0453</ele>
        <time>2015-04-26T15:36:15Z</time>
      </trkpt>
      <trkpt lat="45.71208" lon="5.64195">
        <ele>340.86404</ele>
        <time>2015-04-26T15:36:20Z</time>
      </trkpt>
      <trkpt lat="45.71207" lon="5.6419">
        <ele>340.86404</ele>
        <time>2015-04-26T15:36:25Z</time>
      </trkpt>
      <trkpt lat="45.71202" lon="5.64182">
        <ele>341.37195</ele>
        <time>2015-04-26T15:36:30Z</time>
      </trkpt>
      <trkpt lat="45.71199" lon="5.64175">
        <ele>341.37195</ele>
        <time>2015-04-26T15:36:35Z</time>
      </trkpt>
      <trkpt lat="45.71196" lon="5.64173">
        <ele>341.7665</ele>
        <time>2015-04-26T15:36:40Z</time>
      </trkpt>
      <trkpt lat="45.71195" lon="5.64173">
        <ele>341.7665</ele>
        <time>2015-04-26T15:36:45Z</time>
      </trkpt>
      <trkpt lat="45.71196" lon="5.64169">
        <ele>341.7665</ele>
        <time>2015-04-26T15:36:50Z</time>
      </trkpt>
      <trkpt lat="45.71192" lon="5.64164">
        <ele>342.70227</ele>
        <time>2015-04-26T15:36:55Z</time>
      </trkpt>
      <trkpt lat="45.71188" lon="5.64159">
        <ele>342.70227</ele>
        <time>2015-04-26T15:37:00Z</time>
      </trkpt>
      <trkpt lat="45.71183" lon="5.64153">
        <ele>343.6602</ele>
        <time>2015-04-26T15:37:05Z</time>
      </trkpt>
      <trkpt lat="45.71178" lon="5.6415">
        <ele>343.6602</ele>
        <time>2015-04-26T15:37:10Z</time>
      </trkpt>
      <trkpt lat="45.71172" lon="5.64154">
        <ele>344.40424</ele>
        <time>2015-04-26T15:37:15Z</time>
      </trkpt>
      <trkpt lat="45.71167" lon="5.64157">
        <ele>344.40424</ele>
        <time>2015-04-26T15:37:20Z</time>
      </trkpt>
      <trkpt lat="45.71161" lon="5.64162">
        <ele>345.22064</ele>
        <time>2015-04-26T15:37:25Z</time>
      </trkpt>
      <trkpt lat="45.71154" lon="5.64169">
        <ele>345.22064</ele>
        <time>2015-04-26T15:37:30Z</time>
      </trkpt>
      <trkpt lat="45.71148" lon="5.64176">
        <ele>346.18713</ele>
        <time>2015-04-26T15:37:35Z</time>
      </trkpt>
      <trkpt lat="45.71142" lon="5.64184">
        <ele>346.18713</ele>
        <time>2015-04-26T15:37:40Z</time>
      </trkpt>
      <trkpt lat="45.71136" lon="5.6419">
        <ele>347.38974</ele>
        <time>2015-04-26T15:37:45Z</time>
      </trkpt>
      <trkpt lat="45.71126" lon="5.64199">
        <ele>348.31665</ele>
        <time>2015-04-26T15:37:50Z</time>
      </trkpt>
      <trkpt lat="45.71117" lon="5.64209">
        <ele>349.5177</ele>
        <time>2015-04-26T15:37:55Z</time>
      </trkpt>
      <trkpt lat="45.71112" lon="5.64212">
        <ele>349.5177</ele>
        <time>2015-04-26T15:38:00Z</time>
      </trkpt>
      <trkpt lat="45.71106" lon="5.6422">
        <ele>350.3631</ele>
        <time>2015-04-26T15:38:05Z</time>
      </trkpt>
      <trkpt lat="45.71099" lon="5.6423">
        <ele>351.91324</ele>
        <time>2015-04-26T15:38:10Z</time>
      </trkpt>
      <trkpt lat="45.71093" lon="5.64233">
        <ele>351.91324</ele>
        <time>2015-04-26T15:38:15Z</time>
      </trkpt>
      <trkpt lat="45.71088" lon="5.64247">
        <ele>353.49142</ele>
        <time>2015-04-26T15:38:22Z</time>
      </trkpt>
      <trkpt lat="45.71081" lon="5.64254">
        <ele>353.49142</ele>
        <time>2015-04-26T15:38:27Z</time>
      </trkpt>
      <trkpt lat="45.71078" lon="5.64259">
        <ele>353.73575</ele>
        <time>2015-04-26T15:38:32Z</time>
      </trkpt>
      <trkpt lat="45.71074" lon="5.64271">
        <ele>354.29916</ele>
        <time>2015-04-26T15:38:36Z</time>
      </trkpt>
      <trkpt lat="45.71071" lon="5.6428">
        <ele>354.29916</ele>
        <time>2015-04-26T15:38:41Z</time>
      </trkpt>
      <trkpt lat="45.71068" lon="5.64297">
        <ele>354.73807</ele>
        <time>2015-04-26T15:38:46Z</time>
      </trkpt>
      <trkpt lat="45.71062" lon="5.64304">
        <ele>354.73807</ele>
        <time>2015-04-26T15:38:52Z</time>
      </trkpt>
      <trkpt lat="45.71061" lon="5.64315">
        <ele>355.10303</ele>
        <time>2015-04-26T15:38:57Z</time>
      </trkpt>
      <trkpt lat="45.71054" lon="5.64319">
        <ele>355.10303</ele>
        <time>2015-04-26T15:39:02Z</time>
      </trkpt>
      <trkpt lat="45.71051" lon="5.64325">
        <ele>355.5421</ele>
        <time>2015-04-26T15:39:07Z</time>
      </trkpt>
      <trkpt lat="45.71046" lon="5.64334">
        <ele>355.5421</ele>
        <time>2015-04-26T15:39:12Z</time>
      </trkpt>
      <trkpt lat="45.71043" lon="5.64341">
        <ele>356.43732</ele>
        <time>2015-04-26T15:39:17Z</time>
      </trkpt>
      <trkpt lat="45.71036" lon="5.64352">
        <ele>357.55054</ele>
        <time>2015-04-26T15:39:20Z</time>
      </trkpt>
      <trkpt lat="45.71021" lon="5.64355">
        <ele>357.70953</ele>
        <time>2015-04-26T15:39:27Z</time>
      </trkpt>
      <trkpt lat="45.71001" lon="5.64355">
        <ele>357.74756</ele>
        <time>2015-04-26T15:39:32Z</time>
      </trkpt>
      <trkpt lat="45.70994" lon="5.64356">
        <ele>357.74756</ele>
        <time>2015-04-26T15:39:36Z</time>
      </trkpt>
      <trkpt lat="45.70989" lon="5.64357">
        <ele>356.66458</ele>
        <time>2015-04-26T15:39:42Z</time>
      </trkpt>
      <trkpt lat="45.70979" lon="5.64359">
        <ele>355.74203</ele>
        <time>2015-04-26T15:39:46Z</time>
      </trkpt>
      <trkpt lat="45.7097" lon="5.6436">
        <ele>355.74203</ele>
        <time>2015-04-26T15:39:50Z</time>
      </trkpt>
      <trkpt lat="45.70961" lon="5.64362">
        <ele>355.30225</ele>
        <time>2015-04-26T15:39:55Z</time>
      </trkpt>
      <trkpt lat="45.70953" lon="5.64363">
        <ele>355.30225</ele>
        <time>2015-04-26T15:40:00Z</time>
      </trkpt>
      <trkpt lat="45.70946" lon="5.64364">
        <ele>355.19583</ele>
        <time>2015-04-26T15:40:05Z</time>
      </trkpt>
      <trkpt lat="45.7094" lon="5.64371">
        <ele>355.19583</ele>
        <time>2015-04-26T15:40:10Z</time>
      </trkpt>
      <trkpt lat="45.70935" lon="5.64379">
        <ele>356.50836</ele>
        <time>2015-04-26T15:40:15Z</time>
      </trkpt>
      <trkpt lat="45.70932" lon="5.64388">
        <ele>356.50836</ele>
        <time>2015-04-26T15:40:20Z</time>
      </trkpt>
      <trkpt lat="45.70926" lon="5.64387">
        <ele>357.6334</ele>
        <time>2015-04-26T15:40:25Z</time>
      </trkpt>
      <trkpt lat="45.70919" lon="5.6439">
        <ele>357.6334</ele>
        <time>2015-04-26T15:40:30Z</time>
      </trkpt>
      <trkpt lat="45.70911" lon="5.64394">
        <ele>358.75467</ele>
        <time>2015-04-26T15:40:35Z</time>
      </trkpt>
      <trkpt lat="45.70906" lon="5.64397">
        <ele>358.75467</ele>
        <time>2015-04-26T15:40:40Z</time>
      </trkpt>
      <trkpt lat="45.70899" lon="5.64401">
        <ele>359.48053</ele>
        <time>2015-04-26T15:40:45Z</time>
      </trkpt>
      <trkpt lat="45.70893" lon="5.64405">
        <ele>359.48053</ele>
        <time>2015-04-26T15:40:50Z</time>
      </trkpt>
      <trkpt lat="45.70888" lon="5.6441">
        <ele>360.2274</ele>
        <time>2015-04-26T15:40:55Z</time>
      </trkpt>
      <trkpt lat="45.70884" lon="5.64415">
        <ele>360.2274</ele>
        <time>2015-04-26T15:41:00Z</time>
      </trkpt>
      <trkpt lat="45.70883" lon="5.64418">
        <ele>360.2274</ele>
        <time>2015-04-26T15:41:05Z</time>
      </trkpt>
      <trkpt lat="45.70882" lon="5.64425">
        <ele>360.77588</ele>
        <time>2015-04-26T15:41:10Z</time>
      </trkpt>
      <trkpt lat="45.70882" lon="5.64433">
        <ele>360.77588</ele>
        <time>2015-04-26T15:41:15Z</time>
      </trkpt>
      <trkpt lat="45.70884" lon="5.64441">
        <ele>361.02414</ele>
        <time>2015-04-26T15:41:20Z</time>
      </trkpt>
      <trkpt lat="45.70887" lon="5.64448">
        <ele>361.02414</ele>
        <time>2015-04-26T15:41:25Z</time>
      </trkpt>
      <trkpt lat="45.70889" lon="5.64455">
        <ele>361.2967</ele>
        <time>2015-04-26T15:41:30Z</time>
      </trkpt>
      <trkpt lat="45.70889" lon="5.64464">
        <ele>361.2967</ele>
        <time>2015-04-26T15:41:35Z</time>
      </trkpt>
      <trkpt lat="45.70889" lon="5.64479">
        <ele>362.11032</ele>
        <time>2015-04-26T15:41:40Z</time>
      </trkpt>
      <trkpt lat="45.70894" lon="5.64488">
        <ele>362.11032</ele>
        <time>2015-04-26T15:41:45Z</time>
      </trkpt>
      <trkpt lat="45.70897" lon="5.64492">
        <ele>361.33398</ele>
        <time>2015-04-26T15:41:50Z</time>
      </trkpt>
      <trkpt lat="45.70899" lon="5.64497">
        <ele>361.33398</ele>
        <time>2015-04-26T15:41:55Z</time>
      </trkpt>
      <trkpt lat="45.70908" lon="5.64501">
        <ele>359.76462</ele>
        <time>2015-04-26T15:42:00Z</time>
      </trkpt>
      <trkpt lat="45.70917" lon="5.64502">
        <ele>359.76462</ele>
        <time>2015-04-26T15:42:05Z</time>
      </trkpt>
      <trkpt lat="45.70919" lon="5.64503">
        <ele>356.71616</ele>
        <time>2015-04-26T15:42:10Z</time>
      </trkpt>
      <trkpt lat="45.70925" lon="5.64508">
        <ele>356.71616</ele>
        <time>2015-04-26T15:42:15Z</time>
      </trkpt>
      <trkpt lat="45.70927" lon="5.64516">
        <ele>352.94058</ele>
        <time>2015-04-26T15:42:20Z</time>
      </trkpt>
      <trkpt lat="45.70933" lon="5.64522">
        <ele>352.94058</ele>
        <time>2015-04-26T15:42:25Z</time>
      </trkpt>
      <trkpt lat="45.70939" lon="5.64528">
        <ele>349.25195</ele>
        <time>2015-04-26T15:42:30Z</time>
      </trkpt>
      <trkpt lat="45.70946" lon="5.6453">
        <ele>349.25195</ele>
        <time>2015-04-26T15:42:35Z</time>
      </trkpt>
      <trkpt lat="45.70954" lon="5.64536">
        <ele>345.42426</ele>
        <time>2015-04-26T15:42:40Z</time>
      </trkpt>
      <trkpt lat="45.70962" lon="5.64545">
        <ele>342.1563</ele>
        <time>2015-04-26T15:42:45Z</time>
      </trkpt>
      <trkpt lat="45.70966" lon="5.64548">
        <ele>342.1563</ele>
        <time>2015-04-26T15:42:50Z</time>
      </trkpt>
      <trkpt lat="45.7097" lon="5.64552">
        <ele>338.6817</ele>
        <time>2015-04-26T15:42:55Z</time>
      </trkpt>
      <trkpt lat="45.70978" lon="5.64554">
        <ele>338.6817</ele>
        <time>2015-04-26T15:43:00Z</time>
      </trkpt>
      <trkpt lat="45.70983" lon="5.64555">
        <ele>335.42914</ele>
        <time>2015-04-26T15:43:05Z</time>
      </trkpt>
      <trkpt lat="45.70987" lon="5.64561">
        <ele>335.42914</ele>
        <time>2015-04-26T15:43:10Z</time>
      </trkpt>
      <trkpt lat="45.70995" lon="5.64562">
        <ele>331.88724</ele>
        <time>2015-04-26T15:43:15Z</time>
      </trkpt>
      <trkpt lat="45.71001" lon="5.6457">
        <ele>331.88724</ele>
        <time>2015-04-26T15:43:20Z</time>
      </trkpt>
      <trkpt lat="45.71005" lon="5.64575">
        <ele>329.3122</ele>
        <time>2015-04-26T15:43:25Z</time>
      </trkpt>
      <trkpt lat="45.71008" lon="5.64579">
        <ele>329.3122</ele>
        <time>2015-04-26T15:43:30Z</time>
      </trkpt>
      <trkpt lat="45.71008" lon="5.64587">
        <ele>326.7033</ele>
        <time>2015-04-26T15:43:35Z</time>
      </trkpt>
      <trkpt lat="45.71005" lon="5.64589">
        <ele>326.7033</ele>
        <time>2015-04-26T15:43:40Z</time>
      </trkpt>
      <trkpt lat="45.71001" lon="5.64588">
        <ele>326.7033</ele>
        <time>2015-04-26T15:43:45Z</time>
      </trkpt>
      <trkpt lat="45.70995" lon="5.6459">
        <ele>323.52246</ele>
        <time>2015-04-26T15:43:50Z</time>
      </trkpt>
      <trkpt lat="45.7099" lon="5.64595">
        <ele>323.52246</ele>
        <time>2015-04-26T15:43:55Z</time>
      </trkpt>
      <trkpt lat="45.70983" lon="5.64599">
        <ele>320.52618</ele>
        <time>2015-04-26T15:44:00Z</time>
      </trkpt>
      <trkpt lat="45.70976" lon="5.64601">
        <ele>320.52618</ele>
        <time>2015-04-26T15:44:07Z</time>
      </trkpt>
      <trkpt lat="45.70969" lon="5.64603">
        <ele>317.67978</ele>
        <time>2015-04-26T15:44:12Z</time>
      </trkpt>
      <trkpt lat="45.70961" lon="5.64607">
        <ele>317.67978</ele>
        <time>2015-04-26T15:44:17Z</time>
      </trkpt>
      <trkpt lat="45.70957" lon="5.64608">
        <ele>314.5325</ele>
        <time>2015-04-26T15:44:22Z</time>
      </trkpt>
      <trkpt lat="45.70952" lon="5.6461">
        <ele>314.5325</ele>
        <time>2015-04-26T15:44:27Z</time>
      </trkpt>
      <trkpt lat="45.70945" lon="5.6462">
        <ele>312.61295</ele>
        <time>2015-04-26T15:44:32Z</time>
      </trkpt>
      <trkpt lat="45.70942" lon="5.64629">
        <ele>312.61295</ele>
        <time>2015-04-26T15:44:35Z</time>
      </trkpt>
      <trkpt lat="45.70941" lon="5.64647">
        <ele>311.54663</ele>
        <time>2015-04-26T15:44:40Z</time>
      </trkpt>
      <trkpt lat="45.7094" lon="5.64659">
        <ele>311.54663</ele>
        <time>2015-04-26T15:44:46Z</time>
      </trkpt>
      <trkpt lat="45.70942" lon="5.64668">
        <ele>310.78235</ele>
        <time>2015-04-26T15:44:51Z</time>
      </trkpt>
      <trkpt lat="45.70942" lon="5.64672">
        <ele>310.78235</ele>
        <time>2015-04-26T15:44:55Z</time>
      </trkpt>
      <trkpt lat="45.70938" lon="5.64676">
        <ele>310.78235</ele>
        <time>2015-04-26T15:45:01Z</time>
      </trkpt>
      <trkpt lat="45.70932" lon="5.64678">
        <ele>308.1078</ele>
        <time>2015-04-26T15:45:06Z</time>
      </trkpt>
      <trkpt lat="45.70925" lon="5.64683">
        <ele>308.1078</ele>
        <time>2015-04-26T15:45:10Z</time>
      </trkpt>
      <trkpt lat="45.70922" lon="5.64688">
        <ele>305.39807</ele>
        <time>2015-04-26T15:45:15Z</time>
      </trkpt>
      <trkpt lat="45.70917" lon="5.64698">
        <ele>305.39807</ele>
        <time>2015-04-26T15:45:20Z</time>
      </trkpt>
      <trkpt lat="45.70913" lon="5.64702">
        <ele>302.48825</ele>
        <time>2015-04-26T15:45:25Z</time>
      </trkpt>
      <trkpt lat="45.70906" lon="5.64706">
        <ele>302.48825</ele>
        <time>2015-04-26T15:45:30Z</time>
      </trkpt>
      <trkpt lat="45.70904" lon="5.64707">
        <ele>302.48825</ele>
        <time>2015-04-26T15:45:35Z</time>
      </trkpt>
      <trkpt lat="45.70899" lon="5.64718">
        <ele>299.13943</ele>
        <time>2015-04-26T15:45:40Z</time>
      </trkpt>
      <trkpt lat="45.70895" lon="5.64725">
        <ele>299.13943</ele>
        <time>2015-04-26T15:45:45Z</time>
      </trkpt>
      <trkpt lat="45.70893" lon="5.64737">
        <ele>295.7798</ele>
        <time>2015-04-26T15:45:50Z</time>
      </trkpt>
      <trkpt lat="45.70889" lon="5.64752">
        <ele>293.13724</ele>
        <time>2015-04-26T15:45:55Z</time>
      </trkpt>
      <trkpt lat="45.70883" lon="5.64764">
        <ele>290.77444</ele>
        <time>2015-04-26T15:46:00Z</time>
      </trkpt>
      <trkpt lat="45.70876" lon="5.64775">
        <ele>288.47253</ele>
        <time>2015-04-26T15:46:05Z</time>
      </trkpt>
      <trkpt lat="45.7087" lon="5.64785">
        <ele>286.57596</ele>
        <time>2015-04-26T15:46:10Z</time>
      </trkpt>
      <trkpt lat="45.70864" lon="5.64794">
        <ele>286.57596</ele>
        <time>2015-04-26T15:46:15Z</time>
      </trkpt>
      <trkpt lat="45.70859" lon="5.64801">
        <ele>285.17197</ele>
        <time>2015-04-26T15:46:20Z</time>
      </trkpt>
      <trkpt lat="45.70857" lon="5.64808">
        <ele>285.17197</ele>
        <time>2015-04-26T15:46:25Z</time>
      </trkpt>
      <trkpt lat="45.70856" lon="5.64809">
        <ele>285.17197</ele>
        <time>2015-04-26T15:46:30Z</time>
      </trkpt>
      <trkpt lat="45.70856" lon="5.6481">
        <ele>285.17197</ele>
        <time>2015-04-26T15:46:35Z</time>
      </trkpt>
      <trkpt lat="45.70855" lon="5.6481">
        <ele>285.17197</ele>
        <time>2015-04-26T15:46:40Z</time>
      </trkpt>
      <trkpt lat="45.70855" lon="5.6481">
        <ele>285.17197</ele>
        <time>2015-04-26T15:46:45Z</time>
      </trkpt>
      <trkpt lat="45.70858" lon="5.64816">
        <ele>284.15247</ele>
        <time>2015-04-26T15:46:50Z</time>
      </trkpt>
      <trkpt lat="45.70859" lon="5.64822">
        <ele>284.15247</ele>
        <time>2015-04-26T15:46:55Z</time>
      </trkpt>
      <trkpt lat="45.70863" lon="5.64827">
        <ele>281.8597</ele>
        <time>2015-04-26T15:47:00Z</time>
      </trkpt>
      <trkpt lat="45.70863" lon="5.64831">
        <ele>281.8597</ele>
        <time>2015-04-26T15:47:05Z</time>
      </trkpt>
      <trkpt lat="45.70866" lon="5.64839">
        <ele>279.038</ele>
        <time>2015-04-26T15:47:10Z</time>
      </trkpt>
      <trkpt lat="45.70871" lon="5.64845">
        <ele>279.038</ele>
        <time>2015-04-26T15:47:15Z</time>
      </trkpt>
      <trkpt lat="45.70878" lon="5.64853">
        <ele>276.91162</ele>
        <time>2015-04-26T15:47:20Z</time>
      </trkpt>
      <trkpt lat="45.70879" lon="5.64862">
        <ele>276.91162</ele>
        <time>2015-04-26T15:47:25Z</time>
      </trkpt>
      <trkpt lat="45.70881" lon="5.64866">
        <ele>274.94104</ele>
        <time>2015-04-26T15:47:30Z</time>
      </trkpt>
      <trkpt lat="45.70885" lon="5.64874">
        <ele>274.94104</ele>
        <time>2015-04-26T15:47:35Z</time>
      </trkpt>
      <trkpt lat="45.70887" lon="5.64883">
        <ele>272.81317</ele>
        <time>2015-04-26T15:47:40Z</time>
      </trkpt>
      <trkpt lat="45.70892" lon="5.6489">
        <ele>272.81317</ele>
        <time>2015-04-26T15:47:45Z</time>
      </trkpt>
      <trkpt lat="45.70896" lon="5.64897">
        <ele>270.91556</ele>
        <time>2015-04-26T15:47:50Z</time>
      </trkpt>
      <trkpt lat="45.709" lon="5.64905">
        <ele>270.91556</ele>
        <time>2015-04-26T15:47:55Z</time>
      </trkpt>
      <trkpt lat="45.70904" lon="5.64913">
        <ele>269.73618</ele>
        <time>2015-04-26T15:48:00Z</time>
      </trkpt>
      <trkpt lat="45.70908" lon="5.64912">
        <ele>269.73618</ele>
        <time>2015-04-26T15:48:05Z</time>
      </trkpt>
      <trkpt lat="45.70913" lon="5.64915">
        <ele>267.64984</ele>
        <time>2015-04-26T15:48:10Z</time>
      </trkpt>
      <trkpt lat="45.70915" lon="5.64919">
        <ele>267.64984</ele>
        <time>2015-04-26T15:48:15Z</time>
      </trkpt>
      <trkpt lat="45.70922" lon="5.64933">
        <ele>266.021</ele>
        <time>2015-04-26T15:48:20Z</time>
      </trkpt>
      <trkpt lat="45.70924" lon="5.6494">
        <ele>266.021</ele>
        <time>2015-04-26T15:48:25Z</time>
      </trkpt>
      <trkpt lat="45.70926" lon="5.6495">
        <ele>264.42636</ele>
        <time>2015-04-26T15:48:30Z</time>
      </trkpt>
      <trkpt lat="45.70928" lon="5.6496">
        <ele>264.42636</ele>
        <time>2015-04-26T15:48:35Z</time>
      </trkpt>
      <trkpt lat="45.70932" lon="5.6497">
        <ele>262.9059</ele>
        <time>2015-04-26T15:48:40Z</time>
      </trkpt>
      <trkpt lat="45.70936" lon="5.64982">
        <ele>261.7558</ele>
        <time>2015-04-26T15:48:45Z</time>
      </trkpt>
      <trkpt lat="45.7094" lon="5.64988">
        <ele>261.7558</ele>
        <time>2015-04-26T15:48:50Z</time>
      </trkpt>
      <trkpt lat="45.70944" lon="5.64997">
        <ele>260.3414</ele>
        <time>2015-04-26T15:48:55Z</time>
      </trkpt>
      <trkpt lat="45.70948" lon="5.65008">
        <ele>260.3414</ele>
        <time>2015-04-26T15:49:00Z</time>
      </trkpt>
      <trkpt lat="45.70952" lon="5.65015">
        <ele>258.95444</ele>
        <time>2015-04-26T15:49:05Z</time>
      </trkpt>
      <trkpt lat="45.70957" lon="5.65025">
        <ele>258.95444</ele>
        <time>2015-04-26T15:49:10Z</time>
      </trkpt>
      <trkpt lat="45.70962" lon="5.65036">
        <ele>257.51926</ele>
        <time>2015-04-26T15:49:15Z</time>
      </trkpt>
      <trkpt lat="45.70965" lon="5.65043">
        <ele>257.51926</ele>
        <time>2015-04-26T15:49:20Z</time>
      </trkpt>
      <trkpt lat="45.70968" lon="5.65055">
        <ele>255.61998</ele>
        <time>2015-04-26T15:49:25Z</time>
      </trkpt>
      <trkpt lat="45.70975" lon="5.65064">
        <ele>254.32805</ele>
        <time>2015-04-26T15:49:32Z</time>
      </trkpt>
      <trkpt lat="45.70979" lon="5.65076">
        <ele>253.10689</ele>
        <time>2015-04-26T15:49:36Z</time>
      </trkpt>
      <trkpt lat="45.70983" lon="5.65088">
        <ele>251.76175</ele>
        <time>2015-04-26T15:49:43Z</time>
      </trkpt>
      <trkpt lat="45.70984" lon="5.65093">
        <ele>251.76175</ele>
        <time>2015-04-26T15:49:47Z</time>
      </trkpt>
      <trkpt lat="45.7099" lon="5.6511">
        <ele>250.58812</ele>
        <time>2015-04-26T15:49:52Z</time>
      </trkpt>
      <trkpt lat="45.7099" lon="5.65122">
        <ele>250.58812</ele>
        <time>2015-04-26T15:49:56Z</time>
      </trkpt>
      <trkpt lat="45.70995" lon="5.65132">
        <ele>249.41249</ele>
        <time>2015-04-26T15:50:01Z</time>
      </trkpt>
      <trkpt lat="45.70998" lon="5.6514">
        <ele>249.41249</ele>
        <time>2015-04-26T15:50:06Z</time>
      </trkpt>
      <trkpt lat="45.71003" lon="5.65151">
        <ele>248.20387</ele>
        <time>2015-04-26T15:50:12Z</time>
      </trkpt>
      <trkpt lat="45.71008" lon="5.65159">
        <ele>248.20387</ele>
        <time>2015-04-26T15:50:17Z</time>
      </trkpt>
      <trkpt lat="45.71014" lon="5.65168">
        <ele>247.10654</ele>
        <time>2015-04-26T15:50:21Z</time>
      </trkpt>
      <trkpt lat="45.71016" lon="5.65178">
        <ele>247.10654</ele>
        <time>2015-04-26T15:50:26Z</time>
      </trkpt>
      <trkpt lat="45.7102" lon="5.65187">
        <ele>245.57655</ele>
        <time>2015-04-26T15:50:32Z</time>
      </trkpt>
      <trkpt lat="45.71026" lon="5.652">
        <ele>244.50903</ele>
        <time>2015-04-26T15:50:36Z</time>
      </trkpt>
      <trkpt lat="45.71031" lon="5.65208">
        <ele>244.50903</ele>
        <time>2015-04-26T15:50:42Z</time>
      </trkpt>
      <trkpt lat="45.7104" lon="5.65215">
        <ele>244.64565</ele>
        <time>2015-04-26T15:50:45Z</time>
      </trkpt>
      <trkpt lat="45.71044" lon="5.65226">
        <ele>244.64565</ele>
        <time>2015-04-26T15:50:51Z</time>
      </trkpt>
      <trkpt lat="45.7105" lon="5.65228">
        <ele>245.02731</ele>
        <time>2015-04-26T15:50:56Z</time>
      </trkpt>
      <trkpt lat="45.71059" lon="5.65235">
        <ele>246.01859</ele>
        <time>2015-04-26T15:51:00Z</time>
      </trkpt>
      <trkpt lat="45.71069" lon="5.65242">
        <ele>247.40793</ele>
        <time>2015-04-26T15:51:05Z</time>
      </trkpt>
      <trkpt lat="45.71078" lon="5.65243">
        <ele>247.40793</ele>
        <time>2015-04-26T15:51:10Z</time>
      </trkpt>
      <trkpt lat="45.71087" lon="5.65243">
        <ele>249.17125</ele>
        <time>2015-04-26T15:51:15Z</time>
      </trkpt>
      <trkpt lat="45.71095" lon="5.65244">
        <ele>249.17125</ele>
        <time>2015-04-26T15:51:20Z</time>
      </trkpt>
      <trkpt lat="45.71104" lon="5.65247">
        <ele>251.17003</ele>
        <time>2015-04-26T15:51:25Z</time>
      </trkpt>
      <trkpt lat="45.71112" lon="5.65251">
        <ele>251.17003</ele>
        <time>2015-04-26T15:51:30Z</time>
      </trkpt>
      <trkpt lat="45.71119" lon="5.65256">
        <ele>253.333</ele>
        <time>2015-04-26T15:51:35Z</time>
      </trkpt>
      <trkpt lat="45.71126" lon="5.65261">
        <ele>253.333</ele>
        <time>2015-04-26T15:51:40Z</time>
      </trkpt>
      <trkpt lat="45.71134" lon="5.65265">
        <ele>255.36324</ele>
        <time>2015-04-26T15:51:45Z</time>
      </trkpt>
      <trkpt lat="45.71142" lon="5.65269">
        <ele>255.36324</ele>
        <time>2015-04-26T15:51:50Z</time>
      </trkpt>
      <trkpt lat="45.71149" lon="5.65274">
        <ele>257.46176</ele>
        <time>2015-04-26T15:51:55Z</time>
      </trkpt>
      <trkpt lat="45.71155" lon="5.6528">
        <ele>257.46176</ele>
        <time>2015-04-26T15:52:00Z</time>
      </trkpt>
      <trkpt lat="45.71156" lon="5.65281">
        <ele>259.64185</ele>
        <time>2015-04-26T15:52:05Z</time>
      </trkpt>
      <trkpt lat="45.71158" lon="5.65282">
        <ele>259.64185</ele>
        <time>2015-04-26T15:52:10Z</time>
      </trkpt>
      <trkpt lat="45.7116" lon="5.65282">
        <ele>259.64185</ele>
        <time>2015-04-26T15:52:15Z</time>
      </trkpt>
      <trkpt lat="45.7116" lon="5.65283">
        <ele>259.64185</ele>
        <time>2015-04-26T15:52:20Z</time>
      </trkpt>
      <trkpt lat="45.71162" lon="5.65283">
        <ele>259.64185</ele>
        <time>2015-04-26T15:52:25Z</time>
      </trkpt>
      <trkpt lat="45.7117" lon="5.65285">
        <ele>261.82938</ele>
        <time>2015-04-26T15:52:30Z</time>
      </trkpt>
      <trkpt lat="45.71178" lon="5.65285">
        <ele>261.82938</ele>
        <time>2015-04-26T15:52:35Z</time>
      </trkpt>
      <trkpt lat="45.71186" lon="5.65285">
        <ele>263.84048</ele>
        <time>2015-04-26T15:52:40Z</time>
      </trkpt>
      <trkpt lat="45.71195" lon="5.65283">
        <ele>265.75067</ele>
        <time>2015-04-26T15:52:45Z</time>
      </trkpt>
      <trkpt lat="45.71204" lon="5.65281">
        <ele>265.75067</ele>
        <time>2015-04-26T15:52:50Z</time>
      </trkpt>
      <trkpt lat="45.71212" lon="5.65277">
        <ele>267.48618</ele>
        <time>2015-04-26T15:52:55Z</time>
      </trkpt>
      <trkpt lat="45.71219" lon="5.65275">
        <ele>267.48618</ele>
        <time>2015-04-26T15:53:00Z</time>
      </trkpt>
      <trkpt lat="45.71228" lon="5.65271">
        <ele>268.99387</ele>
        <time>2015-04-26T15:53:05Z</time>
      </trkpt>
      <trkpt lat="45.71237" lon="5.65269">
        <ele>270.54245</ele>
        <time>2015-04-26T15:53:10Z</time>
      </trkpt>
      <trkpt lat="45.71244" lon="5.65276">
        <ele>270.54245</ele>
        <time>2015-04-26T15:53:15Z</time>
      </trkpt>
      <trkpt lat="45.71253" lon="5.65297">
        <ele>272.30902</ele>
        <time>2015-04-26T15:53:20Z</time>
      </trkpt>
      <trkpt lat="45.71258" lon="5.65335">
        <ele>274.25555</ele>
        <time>2015-04-26T15:53:25Z</time>
      </trkpt>
      <trkpt lat="45.71255" lon="5.65388">
        <ele>276.27448</ele>
        <time>2015-04-26T15:53:30Z</time>
      </trkpt>
      <trkpt lat="45.71248" lon="5.65445">
        <ele>278.7418</ele>
        <time>2015-04-26T15:53:35Z</time>
      </trkpt>
      <trkpt lat="45.71238" lon="5.65484">
        <ele>281.9617</ele>
        <time>2015-04-26T15:53:40Z</time>
      </trkpt>
      <trkpt lat="45.71217" lon="5.65493">
        <ele>284.97482</ele>
        <time>2015-04-26T15:53:45Z</time>
      </trkpt>
      <trkpt lat="45.71207" lon="5.65503">
        <ele>287.6425</ele>
        <time>2015-04-26T15:53:50Z</time>
      </trkpt>
      <trkpt lat="45.71201" lon="5.65508">
        <ele>287.6425</ele>
        <time>2015-04-26T15:53:57Z</time>
      </trkpt>
      <trkpt lat="45.71192" lon="5.65505">
        <ele>289.77994</ele>
        <time>2015-04-26T15:54:02Z</time>
      </trkpt>
      <trkpt lat="45.71184" lon="5.65501">
        <ele>289.77994</ele>
        <time>2015-04-26T15:54:06Z</time>
      </trkpt>
      <trkpt lat="45.71176" lon="5.65497">
        <ele>291.60675</ele>
        <time>2015-04-26T15:54:12Z</time>
      </trkpt>
      <trkpt lat="45.71167" lon="5.65492">
        <ele>293.29877</ele>
        <time>2015-04-26T15:54:17Z</time>
      </trkpt>
      <trkpt lat="45.71166" lon="5.65492">
        <ele>293.29877</ele>
        <time>2015-04-26T15:54:21Z</time>
      </trkpt>
      <trkpt lat="45.71161" lon="5.6549">
        <ele>293.29877</ele>
        <time>2015-04-26T15:54:27Z</time>
      </trkpt>
      <trkpt lat="45.71146" lon="5.65486">
        <ele>294.06845</ele>
        <time>2015-04-26T15:54:32Z</time>
      </trkpt>
      <trkpt lat="45.7112" lon="5.65477">
        <ele>294.87506</ele>
        <time>2015-04-26T15:54:37Z</time>
      </trkpt>
      <trkpt lat="45.71099" lon="5.65467">
        <ele>295.5268</ele>
        <time>2015-04-26T15:54:41Z</time>
      </trkpt>
      <trkpt lat="45.71094" lon="5.65464">
        <ele>295.5268</ele>
        <time>2015-04-26T15:54:47Z</time>
      </trkpt>
      <trkpt lat="45.71084" lon="5.65454">
        <ele>296.01944</ele>
        <time>2015-04-26T15:54:50Z</time>
      </trkpt>
      <trkpt lat="45.71077" lon="5.6545">
        <ele>296.01944</ele>
        <time>2015-04-26T15:54:55Z</time>
      </trkpt>
      <trkpt lat="45.71071" lon="5.65445">
        <ele>296.71017</ele>
        <time>2015-04-26T15:55:02Z</time>
      </trkpt>
      <trkpt lat="45.71068" lon="5.65439">
        <ele>296.71017</ele>
        <time>2015-04-26T15:55:06Z</time>
      </trkpt>
      <trkpt lat="45.7106" lon="5.6543">
        <ele>297.45395</ele>
        <time>2015-04-26T15:55:11Z</time>
      </trkpt>
      <trkpt lat="45.71056" lon="5.65429">
        <ele>297.45395</ele>
        <time>2015-04-26T15:55:17Z</time>
      </trkpt>
      <trkpt lat="45.71052" lon="5.65429">
        <ele>297.45395</ele>
        <time>2015-04-26T15:55:22Z</time>
      </trkpt>
      <trkpt lat="45.71043" lon="5.65423">
        <ele>297.79944</ele>
        <time>2015-04-26T15:55:26Z</time>
      </trkpt>
      <trkpt lat="45.71036" lon="5.65418">
        <ele>297.79944</ele>
        <time>2015-04-26T15:55:32Z</time>
      </trkpt>
      <trkpt lat="45.7103" lon="5.65413">
        <ele>297.71884</ele>
        <time>2015-04-26T15:55:36Z</time>
      </trkpt>
      <trkpt lat="45.71025" lon="5.65408">
        <ele>297.71884</ele>
        <time>2015-04-26T15:55:42Z</time>
      </trkpt>
      <trkpt lat="45.71016" lon="5.654">
        <ele>297.11575</ele>
        <time>2015-04-26T15:55:46Z</time>
      </trkpt>
      <trkpt lat="45.71012" lon="5.65397">
        <ele>297.11575</ele>
        <time>2015-04-26T15:55:52Z</time>
      </trkpt>
      <trkpt lat="45.71007" lon="5.65393">
        <ele>295.41245</ele>
        <time>2015-04-26T15:55:56Z</time>
      </trkpt>
      <trkpt lat="45.71" lon="5.65388">
        <ele>295.41245</ele>
        <time>2015-04-26T15:56:01Z</time>
      </trkpt>
      <trkpt lat="45.70987" lon="5.65379">
        <ele>293.97916</ele>
        <time>2015-04-26T15:56:06Z</time>
      </trkpt>
      <trkpt lat="45.70984" lon="5.65375">
        <ele>293.97916</ele>
        <time>2015-04-26T15:56:12Z</time>
      </trkpt>
      <trkpt lat="45.70978" lon="5.65367">
        <ele>292.22574</ele>
        <time>2015-04-26T15:56:17Z</time>
      </trkpt>
      <trkpt lat="45.70974" lon="5.65363">
        <ele>292.22574</ele>
        <time>2015-04-26T15:56:22Z</time>
      </trkpt>
      <trkpt lat="45.70969" lon="5.65356">
        <ele>290.03876</ele>
        <time>2015-04-26T15:56:27Z</time>
      </trkpt>
      <trkpt lat="45.70963" lon="5.6535">
        <ele>290.03876</ele>
        <time>2015-04-26T15:56:32Z</time>
      </trkpt>
      <trkpt lat="45.70955" lon="5.65343">
        <ele>288.0925</ele>
        <time>2015-04-26T15:56:36Z</time>
      </trkpt>
      <trkpt lat="45.70946" lon="5.65335">
        <ele>286.52115</ele>
        <time>2015-04-26T15:56:40Z</time>
      </trkpt>
      <trkpt lat="45.70939" lon="5.65326">
        <ele>285.08768</ele>
        <time>2015-04-26T15:56:45Z</time>
      </trkpt>
      <trkpt lat="45.70933" lon="5.6532">
        <ele>285.08768</ele>
        <time>2015-04-26T15:56:50Z</time>
      </trkpt>
      <trkpt lat="45.70928" lon="5.65319">
        <ele>283.37033</ele>
        <time>2015-04-26T15:56:55Z</time>
      </trkpt>
      <trkpt lat="45.70924" lon="5.65315">
        <ele>283.37033</ele>
        <time>2015-04-26T15:57:00Z</time>
      </trkpt>
      <trkpt lat="45.70918" lon="5.65311">
        <ele>281.74286</ele>
        <time>2015-04-26T15:57:05Z</time>
      </trkpt>
      <trkpt lat="45.70914" lon="5.65307">
        <ele>281.74286</ele>
        <time>2015-04-26T15:57:10Z</time>
      </trkpt>
      <trkpt lat="45.70908" lon="5.65302">
        <ele>279.701</ele>
        <time>2015-04-26T15:57:15Z</time>
      </trkpt>
      <trkpt lat="45.70901" lon="5.65299">
        <ele>279.701</ele>
        <time>2015-04-26T15:57:20Z</time>
      </trkpt>
      <trkpt lat="45.70895" lon="5.65299">
        <ele>277.11</ele>
        <time>2015-04-26T15:57:25Z</time>
      </trkpt>
      <trkpt lat="45.70889" lon="5.65301">
        <ele>277.11</ele>
        <time>2015-04-26T15:57:30Z</time>
      </trkpt>
      <trkpt lat="45.70884" lon="5.65302">
        <ele>274.2501</ele>
        <time>2015-04-26T15:57:35Z</time>
      </trkpt>
      <trkpt lat="45.70876" lon="5.65304">
        <ele>274.2501</ele>
        <time>2015-04-26T15:57:40Z</time>
      </trkpt>
      <trkpt lat="45.70871" lon="5.65308">
        <ele>270.87704</ele>
        <time>2015-04-26T15:57:45Z</time>
      </trkpt>
      <trkpt lat="45.70865" lon="5.65315">
        <ele>270.87704</ele>
        <time>2015-04-26T15:57:50Z</time>
      </trkpt>
      <trkpt lat="45.70859" lon="5.6532">
        <ele>267.74597</ele>
        <time>2015-04-26T15:57:55Z</time>
      </trkpt>
      <trkpt lat="45.70851" lon="5.65329">
        <ele>264.60437</ele>
        <time>2015-04-26T15:58:00Z</time>
      </trkpt>
      <trkpt lat="45.70847" lon="5.65334">
        <ele>264.60437</ele>
        <time>2015-04-26T15:58:05Z</time>
      </trkpt>
      <trkpt lat="45.7084" lon="5.65337">
        <ele>260.90125</ele>
        <time>2015-04-26T15:58:10Z</time>
      </trkpt>
      <trkpt lat="45.70832" lon="5.65344">
        <ele>260.90125</ele>
        <time>2015-04-26T15:58:15Z</time>
      </trkpt>
      <trkpt lat="45.70826" lon="5.65352">
        <ele>257.30908</ele>
        <time>2015-04-26T15:58:20Z</time>
      </trkpt>
      <trkpt lat="45.70821" lon="5.65361">
        <ele>257.30908</ele>
        <time>2015-04-26T15:58:25Z</time>
      </trkpt>
      <trkpt lat="45.70814" lon="5.65369">
        <ele>254.2343</ele>
        <time>2015-04-26T15:58:30Z</time>
      </trkpt>
      <trkpt lat="45.70809" lon="5.65378">
        <ele>254.2343</ele>
        <time>2015-04-26T15:58:35Z</time>
      </trkpt>
      <trkpt lat="45.70804" lon="5.65384">
        <ele>250.88448</ele>
        <time>2015-04-26T15:58:40Z</time>
      </trkpt>
      <trkpt lat="45.70799" lon="5.6539">
        <ele>250.88448</ele>
        <time>2015-04-26T15:58:45Z</time>
      </trkpt>
      <trkpt lat="45.70793" lon="5.65398">
        <ele>247.9094</ele>
        <time>2015-04-26T15:58:50Z</time>
      </trkpt>
      <trkpt lat="45.70791" lon="5.65401">
        <ele>247.9094</ele>
        <time>2015-04-26T15:58:55Z</time>
      </trkpt>
      <trkpt lat="45.70786" lon="5.65411">
        <ele>244.88664</ele>
        <time>2015-04-26T15:59:00Z</time>
      </trkpt>
      <trkpt lat="45.70785" lon="5.65423">
        <ele>244.88664</ele>
        <time>2015-04-26T15:59:05Z</time>
      </trkpt>
      <trkpt lat="45.70789" lon="5.65431">
        <ele>242.3758</ele>
        <time>2015-04-26T15:59:10Z</time>
      </trkpt>
      <trkpt lat="45.70793" lon="5.65439">
        <ele>242.3758</ele>
        <time>2015-04-26T15:59:15Z</time>
      </trkpt>
      <trkpt lat="45.70799" lon="5.65447">
        <ele>240.10103</ele>
        <time>2015-04-26T15:59:20Z</time>
      </trkpt>
      <trkpt lat="45.70804" lon="5.65453">
        <ele>240.10103</ele>
        <time>2015-04-26T15:59:25Z</time>
      </trkpt>
      <trkpt lat="45.70807" lon="5.65466">
        <ele>237.63295</ele>
        <time>2015-04-26T15:59:30Z</time>
      </trkpt>
      <trkpt lat="45.7081" lon="5.65474">
        <ele>237.63295</ele>
        <time>2015-04-26T15:59:35Z</time>
      </trkpt>
      <trkpt lat="45.70805" lon="5.65483">
        <ele>235.4242</ele>
        <time>2015-04-26T15:59:40Z</time>
      </trkpt>
      <trkpt lat="45.708" lon="5.6549">
        <ele>235.4242</ele>
        <time>2015-04-26T15:59:45Z</time>
      </trkpt>
      <trkpt lat="45.70794" lon="5.65498">
        <ele>233.31676</ele>
        <time>2015-04-26T15:59:50Z</time>
      </trkpt>
      <trkpt lat="45.70787" lon="5.65504">
        <ele>233.31676</ele>
        <time>2015-04-26T15:59:55Z</time>
      </trkpt>
      <trkpt lat="45.70783" lon="5.65514">
        <ele>231.66806</ele>
        <time>2015-04-26T16:00:00Z</time>
      </trkpt>
      <trkpt lat="45.7078" lon="5.65519">
        <ele>231.66806</ele>
        <time>2015-04-26T16:00:05Z</time>
      </trkpt>
      <trkpt lat="45.70772" lon="5.65526">
        <ele>230.13043</ele>
        <time>2015-04-26T16:00:10Z</time>
      </trkpt>
      <trkpt lat="45.70766" lon="5.65532">
        <ele>230.13043</ele>
        <time>2015-04-26T16:00:15Z</time>
      </trkpt>
      <trkpt lat="45.70759" lon="5.65534">
        <ele>228.40997</ele>
        <time>2015-04-26T16:00:20Z</time>
      </trkpt>
      <trkpt lat="45.70751" lon="5.65541">
        <ele>228.40997</ele>
        <time>2015-04-26T16:00:25Z</time>
      </trkpt>
      <trkpt lat="45.70746" lon="5.65546">
        <ele>226.99847</ele>
        <time>2015-04-26T16:00:30Z</time>
      </trkpt>
      <trkpt lat="45.7074" lon="5.65553">
        <ele>226.99847</ele>
        <time>2015-04-26T16:00:35Z</time>
      </trkpt>
      <trkpt lat="45.70732" lon="5.65561">
        <ele>225.68759</ele>
        <time>2015-04-26T16:00:40Z</time>
      </trkpt>
      <trkpt lat="45.70724" lon="5.65568">
        <ele>225.68759</ele>
        <time>2015-04-26T16:00:45Z</time>
      </trkpt>
      <trkpt lat="45.70718" lon="5.65576">
        <ele>224.6585</ele>
        <time>2015-04-26T16:00:50Z</time>
      </trkpt>
      <trkpt lat="45.70713" lon="5.65586">
        <ele>224.17892</ele>
        <time>2015-04-26T16:00:55Z</time>
      </trkpt>
      <trkpt lat="45.70708" lon="5.65596">
        <ele>224.17892</ele>
        <time>2015-04-26T16:01:00Z</time>
      </trkpt>
      <trkpt lat="45.70704" lon="5.65606">
        <ele>223.93318</ele>
        <time>2015-04-26T16:01:05Z</time>
      </trkpt>
      <trkpt lat="45.707" lon="5.65618">
        <ele>223.97385</ele>
        <time>2015-04-26T16:01:10Z</time>
      </trkpt>
      <trkpt lat="45.70693" lon="5.65627">
        <ele>224.24777</ele>
        <time>2015-04-26T16:01:15Z</time>
      </trkpt>
      <trkpt lat="45.70686" lon="5.65635">
        <ele>224.70496</ele>
        <time>2015-04-26T16:01:20Z</time>
      </trkpt>
      <trkpt lat="45.70679" lon="5.65642">
        <ele>224.70496</ele>
        <time>2015-04-26T16:01:25Z</time>
      </trkpt>
      <trkpt lat="45.70671" lon="5.65649">
        <ele>225.28404</ele>
        <time>2015-04-26T16:01:30Z</time>
      </trkpt>
      <trkpt lat="45.70665" lon="5.65647">
        <ele>225.28404</ele>
        <time>2015-04-26T16:01:35Z</time>
      </trkpt>
      <trkpt lat="45.70659" lon="5.65647">
        <ele>225.30806</ele>
        <time>2015-04-26T16:01:40Z</time>
      </trkpt>
      <trkpt lat="45.70657" lon="5.6565">
        <ele>225.30806</ele>
        <time>2015-04-26T16:01:45Z</time>
      </trkpt>
      <trkpt lat="45.70653" lon="5.65654">
        <ele>225.30806</ele>
        <time>2015-04-26T16:01:50Z</time>
      </trkpt>
      <trkpt lat="45.70643" lon="5.65658">
        <ele>225.04478</ele>
        <time>2015-04-26T16:01:55Z</time>
      </trkpt>
      <trkpt lat="45.70635" lon="5.65662">
        <ele>225.04478</ele>
        <time>2015-04-26T16:02:00Z</time>
      </trkpt>
      <trkpt lat="45.70628" lon="5.65665">
        <ele>224.59895</ele>
        <time>2015-04-26T16:02:05Z</time>
      </trkpt>
      <trkpt lat="45.7062" lon="5.6567">
        <ele>224.59895</ele>
        <time>2015-04-26T16:02:10Z</time>
      </trkpt>
      <trkpt lat="45.70613" lon="5.65676">
        <ele>224.31308</ele>
        <time>2015-04-26T16:02:15Z</time>
      </trkpt>
      <trkpt lat="45.70606" lon="5.65683">
        <ele>224.25903</ele>
        <time>2015-04-26T16:02:20Z</time>
      </trkpt>
      <trkpt lat="45.70599" lon="5.65692">
        <ele>224.60365</ele>
        <time>2015-04-26T16:02:25Z</time>
      </trkpt>
      <trkpt lat="45.70592" lon="5.65701">
        <ele>225.1113</ele>
        <time>2015-04-26T16:02:30Z</time>
      </trkpt>
      <trkpt lat="45.70586" lon="5.6571">
        <ele>225.1113</ele>
        <time>2015-04-26T16:02:35Z</time>
      </trkpt>
      <trkpt lat="45.70581" lon="5.65719">
        <ele>225.89462</ele>
        <time>2015-04-26T16:02:40Z</time>
      </trkpt>
      <trkpt lat="45.70577" lon="5.65731">
        <ele>226.75468</ele>
        <time>2015-04-26T16:02:45Z</time>
      </trkpt>
      <trkpt lat="45.70573" lon="5.65745">
        <ele>227.78073</ele>
        <time>2015-04-26T16:02:50Z</time>
      </trkpt>
      <trkpt lat="45.70564" lon="5.65775">
        <ele>228.69481</ele>
        <time>2015-04-26T16:02:55Z</time>
      </trkpt>
      <trkpt lat="45.70552" lon="5.65812">
        <ele>229.71533</ele>
        <time>2015-04-26T16:03:00Z</time>
      </trkpt>
      <trkpt lat="45.70538" lon="5.65845">
        <ele>230.79945</ele>
        <time>2015-04-26T16:03:05Z</time>
      </trkpt>
      <trkpt lat="45.70513" lon="5.65854">
        <ele>231.63358</ele>
        <time>2015-04-26T16:03:10Z</time>
      </trkpt>
      <trkpt lat="45.70483" lon="5.65861">
        <ele>232.46118</ele>
        <time>2015-04-26T16:03:15Z</time>
      </trkpt>
      <trkpt lat="45.70453" lon="5.6587">
        <ele>233.19093</ele>
        <time>2015-04-26T16:03:20Z</time>
      </trkpt>
      <trkpt lat="45.70424" lon="5.65875">
        <ele>233.17659</ele>
        <time>2015-04-26T16:03:25Z</time>
      </trkpt>
      <trkpt lat="45.70397" lon="5.65876">
        <ele>233.07535</ele>
        <time>2015-04-26T16:03:30Z</time>
      </trkpt>
      <trkpt lat="45.70375" lon="5.65908">
        <ele>233.12181</ele>
        <time>2015-04-26T16:03:35Z</time>
      </trkpt>
      <trkpt lat="45.70352" lon="5.65944">
        <ele>233.18721</ele>
        <time>2015-04-26T16:03:40Z</time>
      </trkpt>
      <trkpt lat="45.70331" lon="5.65979">
        <ele>233.28197</ele>
        <time>2015-04-26T16:03:45Z</time>
      </trkpt>
      <trkpt lat="45.7031" lon="5.66009">
        <ele>234.42459</ele>
        <time>2015-04-26T16:03:50Z</time>
      </trkpt>
      <trkpt lat="45.70286" lon="5.66038">
        <ele>235.50958</ele>
        <time>2015-04-26T16:03:55Z</time>
      </trkpt>
      <trkpt lat="45.70263" lon="5.66063">
        <ele>236.23347</ele>
        <time>2015-04-26T16:04:00Z</time>
      </trkpt>
      <trkpt lat="45.70239" lon="5.66089">
        <ele>236.73418</ele>
        <time>2015-04-26T16:04:05Z</time>
      </trkpt>
      <trkpt lat="45.70217" lon="5.66114">
        <ele>237.09698</ele>
        <time>2015-04-26T16:04:12Z</time>
      </trkpt>
      <trkpt lat="45.70195" lon="5.66139">
        <ele>237.5888</ele>
        <time>2015-04-26T16:04:17Z</time>
      </trkpt>
      <trkpt lat="45.70168" lon="5.66165">
        <ele>238.2117</ele>
        <time>2015-04-26T16:04:22Z</time>
      </trkpt>
      <trkpt lat="45.70158" lon="5.66175">
        <ele>238.8953</ele>
        <time>2015-04-26T16:04:27Z</time>
      </trkpt>
      <trkpt lat="45.70122" lon="5.66212">
        <ele>239.55994</ele>
        <time>2015-04-26T16:04:31Z</time>
      </trkpt>
      <trkpt lat="45.701" lon="5.66232">
        <ele>240.29053</ele>
        <time>2015-04-26T16:04:37Z</time>
      </trkpt>
      <trkpt lat="45.70088" lon="5.66248">
        <ele>241.0648</ele>
        <time>2015-04-26T16:04:41Z</time>
      </trkpt>
      <trkpt lat="45.70082" lon="5.66256">
        <ele>241.0648</ele>
        <time>2015-04-26T16:04:45Z</time>
      </trkpt>
      <trkpt lat="45.70071" lon="5.66263">
        <ele>241.90538</ele>
        <time>2015-04-26T16:04:50Z</time>
      </trkpt>
      <trkpt lat="45.70064" lon="5.6627">
        <ele>241.90538</ele>
        <time>2015-04-26T16:04:55Z</time>
      </trkpt>
      <trkpt lat="45.70057" lon="5.66277">
        <ele>242.68903</ele>
        <time>2015-04-26T16:05:00Z</time>
      </trkpt>
      <trkpt lat="45.70051" lon="5.6628">
        <ele>242.68903</ele>
        <time>2015-04-26T16:05:05Z</time>
      </trkpt>
      <trkpt lat="45.70045" lon="5.66286">
        <ele>242.95598</ele>
        <time>2015-04-26T16:05:10Z</time>
      </trkpt>
      <trkpt lat="45.70038" lon="5.6629">
        <ele>242.95598</ele>
        <time>2015-04-26T16:05:15Z</time>
      </trkpt>
      <trkpt lat="45.70031" lon="5.663">
        <ele>243.03122</ele>
        <time>2015-04-26T16:05:20Z</time>
      </trkpt>
      <trkpt lat="45.70024" lon="5.66309">
        <ele>243.2165</ele>
        <time>2015-04-26T16:05:25Z</time>
      </trkpt>
      <trkpt lat="45.70018" lon="5.66319">
        <ele>243.45976</ele>
        <time>2015-04-26T16:05:30Z</time>
      </trkpt>
      <trkpt lat="45.70012" lon="5.66328">
        <ele>243.45976</ele>
        <time>2015-04-26T16:05:35Z</time>
      </trkpt>
      <trkpt lat="45.70007" lon="5.66339">
        <ele>243.68387</ele>
        <time>2015-04-26T16:05:40Z</time>
      </trkpt>
      <trkpt lat="45.70001" lon="5.6635">
        <ele>243.93283</ele>
        <time>2015-04-26T16:05:45Z</time>
      </trkpt>
      <trkpt lat="45.69995" lon="5.66359">
        <ele>243.93283</ele>
        <time>2015-04-26T16:05:50Z</time>
      </trkpt>
      <trkpt lat="45.69989" lon="5.66364">
        <ele>243.93037</ele>
        <time>2015-04-26T16:05:55Z</time>
      </trkpt>
      <trkpt lat="45.69982" lon="5.6637">
        <ele>243.93037</ele>
        <time>2015-04-26T16:06:00Z</time>
      </trkpt>
      <trkpt lat="45.69977" lon="5.66382">
        <ele>243.85365</ele>
        <time>2015-04-26T16:06:05Z</time>
      </trkpt>
      <trkpt lat="45.69964" lon="5.66404">
        <ele>243.63654</ele>
        <time>2015-04-26T16:06:10Z</time>
      </trkpt>
      <trkpt lat="45.69977" lon="5.66436">
        <ele>243.43437</ele>
        <time>2015-04-26T16:06:15Z</time>
      </trkpt>
      <trkpt lat="45.69995" lon="5.66476">
        <ele>243.05968</ele>
        <time>2015-04-26T16:06:20Z</time>
      </trkpt>
      <trkpt lat="45.70013" lon="5.66514">
        <ele>242.61305</ele>
        <time>2015-04-26T16:06:25Z</time>
      </trkpt>
      <trkpt lat="45.70035" lon="5.66554">
        <ele>242.43301</ele>
        <time>2015-04-26T16:06:30Z</time>
      </trkpt>
      <trkpt lat="45.70052" lon="5.66592">
        <ele>242.48657</ele>
        <time>2015-04-26T16:06:35Z</time>
      </trkpt>
      <trkpt lat="45.70069" lon="5.66627">
        <ele>242.45438</ele>
        <time>2015-04-26T16:06:40Z</time>
      </trkpt>
      <trkpt lat="45.70084" lon="5.66665">
        <ele>242.5019</ele>
        <time>2015-04-26T16:06:45Z</time>
      </trkpt>
      <trkpt lat="45.70098" lon="5.667">
        <ele>242.68147</ele>
        <time>2015-04-26T16:06:50Z</time>
      </trkpt>
      <trkpt lat="45.701" lon="5.66722">
        <ele>243.0123</ele>
        <time>2015-04-26T16:06:55Z</time>
      </trkpt>
      <trkpt lat="45.70093" lon="5.66728">
        <ele>243.0123</ele>
        <time>2015-04-26T16:07:00Z</time>
      </trkpt>
      <trkpt lat="45.70086" lon="5.66735">
        <ele>242.80573</ele>
        <time>2015-04-26T16:07:05Z</time>
      </trkpt>
      <trkpt lat="45.70079" lon="5.66743">
        <ele>242.80573</ele>
        <time>2015-04-26T16:07:10Z</time>
      </trkpt>
      <trkpt lat="45.70072" lon="5.66752">
        <ele>242.5348</ele>
        <time>2015-04-26T16:07:15Z</time>
      </trkpt>
      <trkpt lat="45.70065" lon="5.66761">
        <ele>242.1769</ele>
        <time>2015-04-26T16:07:20Z</time>
      </trkpt>
      <trkpt lat="45.70059" lon="5.6677">
        <ele>241.68246</ele>
        <time>2015-04-26T16:07:25Z</time>
      </trkpt>
      <trkpt lat="45.7005" lon="5.66779">
        <ele>241.27979</ele>
        <time>2015-04-26T16:07:30Z</time>
      </trkpt>
      <trkpt lat="45.70042" lon="5.6679">
        <ele>240.99278</ele>
        <time>2015-04-26T16:07:35Z</time>
      </trkpt>
      <trkpt lat="45.70036" lon="5.668">
        <ele>240.77122</ele>
        <time>2015-04-26T16:07:40Z</time>
      </trkpt>
      <trkpt lat="45.70029" lon="5.66809">
        <ele>240.59718</ele>
        <time>2015-04-26T16:07:45Z</time>
      </trkpt>
      <trkpt lat="45.70022" lon="5.6682">
        <ele>240.46832</ele>
        <time>2015-04-26T16:07:50Z</time>
      </trkpt>
      <trkpt lat="45.70016" lon="5.66828">
        <ele>240.46832</ele>
        <time>2015-04-26T16:07:55Z</time>
      </trkpt>
      <trkpt lat="45.70009" lon="5.66837">
        <ele>240.3103</ele>
        <time>2015-04-26T16:08:00Z</time>
      </trkpt>
      <trkpt lat="45.70002" lon="5.66845">
        <ele>240.3103</ele>
        <time>2015-04-26T16:08:05Z</time>
      </trkpt>
      <trkpt lat="45.69995" lon="5.66854">
        <ele>240.29926</ele>
        <time>2015-04-26T16:08:10Z</time>
      </trkpt>
      <trkpt lat="45.69988" lon="5.66862">
        <ele>240.19444</ele>
        <time>2015-04-26T16:08:15Z</time>
      </trkpt>
      <trkpt lat="45.69981" lon="5.6687">
        <ele>239.98921</ele>
        <time>2015-04-26T16:08:20Z</time>
      </trkpt>
      <trkpt lat="45.69973" lon="5.66877">
        <ele>239.98921</ele>
        <time>2015-04-26T16:08:25Z</time>
      </trkpt>
      <trkpt lat="45.69968" lon="5.66882">
        <ele>239.72093</ele>
        <time>2015-04-26T16:08:30Z</time>
      </trkpt>
      <trkpt lat="45.69962" lon="5.66887">
        <ele>239.72093</ele>
        <time>2015-04-26T16:08:35Z</time>
      </trkpt>
      <trkpt lat="45.69957" lon="5.66895">
        <ele>239.17932</ele>
        <time>2015-04-26T16:08:40Z</time>
      </trkpt>
      <trkpt lat="45.69949" lon="5.66903">
        <ele>238.91974</ele>
        <time>2015-04-26T16:08:45Z</time>
      </trkpt>
      <trkpt lat="45.69943" lon="5.66911">
        <ele>238.91974</ele>
        <time>2015-04-26T16:08:50Z</time>
      </trkpt>
      <trkpt lat="45.69938" lon="5.66919">
        <ele>238.72087</ele>
        <time>2015-04-26T16:08:55Z</time>
      </trkpt>
      <trkpt lat="45.69932" lon="5.66928">
        <ele>238.72087</ele>
        <time>2015-04-26T16:09:00Z</time>
      </trkpt>
      <trkpt lat="45.69927" lon="5.66939">
        <ele>238.3055</ele>
        <time>2015-04-26T16:09:05Z</time>
      </trkpt>
      <trkpt lat="45.69919" lon="5.66946">
        <ele>238.3055</ele>
        <time>2015-04-26T16:09:10Z</time>
      </trkpt>
      <trkpt lat="45.69912" lon="5.66953">
        <ele>237.99371</ele>
        <time>2015-04-26T16:09:15Z</time>
      </trkpt>
      <trkpt lat="45.69905" lon="5.6696">
        <ele>237.99371</ele>
        <time>2015-04-26T16:09:20Z</time>
      </trkpt>
      <trkpt lat="45.69899" lon="5.66962">
        <ele>237.36124</ele>
        <time>2015-04-26T16:09:25Z</time>
      </trkpt>
      <trkpt lat="45.69893" lon="5.66966">
        <ele>237.36124</ele>
        <time>2015-04-26T16:09:30Z</time>
      </trkpt>
      <trkpt lat="45.69885" lon="5.6697">
        <ele>236.37611</ele>
        <time>2015-04-26T16:09:35Z</time>
      </trkpt>
      <trkpt lat="45.69877" lon="5.66973">
        <ele>236.37611</ele>
        <time>2015-04-26T16:09:40Z</time>
      </trkpt>
      <trkpt lat="45.69868" lon="5.66975">
        <ele>235.442</ele>
        <time>2015-04-26T16:09:45Z</time>
      </trkpt>
      <trkpt lat="45.6986" lon="5.66977">
        <ele>235.442</ele>
        <time>2015-04-26T16:09:50Z</time>
      </trkpt>
      <trkpt lat="45.69851" lon="5.66979">
        <ele>234.60124</ele>
        <time>2015-04-26T16:09:55Z</time>
      </trkpt>
      <trkpt lat="45.69844" lon="5.66978">
        <ele>234.60124</ele>
        <time>2015-04-26T16:10:00Z</time>
      </trkpt>
      <trkpt lat="45.69835" lon="5.66978">
        <ele>233.70544</ele>
        <time>2015-04-26T16:10:05Z</time>
      </trkpt>
      <trkpt lat="45.69828" lon="5.66977">
        <ele>233.70544</ele>
        <time>2015-04-26T16:10:10Z</time>
      </trkpt>
      <trkpt lat="45.6982" lon="5.66978">
        <ele>232.94867</ele>
        <time>2015-04-26T16:10:15Z</time>
      </trkpt>
      <trkpt lat="45.69811" lon="5.66978">
        <ele>232.94867</ele>
        <time>2015-04-26T16:10:20Z</time>
      </trkpt>
      <trkpt lat="45.69804" lon="5.66975">
        <ele>232.16438</ele>
        <time>2015-04-26T16:10:25Z</time>
      </trkpt>
      <trkpt lat="45.69796" lon="5.66972">
        <ele>232.16438</ele>
        <time>2015-04-26T16:10:30Z</time>
      </trkpt>
      <trkpt lat="45.69789" lon="5.66969">
        <ele>231.37125</ele>
        <time>2015-04-26T16:10:35Z</time>
      </trkpt>
      <trkpt lat="45.69781" lon="5.66968">
        <ele>231.37125</ele>
        <time>2015-04-26T16:10:40Z</time>
      </trkpt>
      <trkpt lat="45.69774" lon="5.66966">
        <ele>230.52887</ele>
        <time>2015-04-26T16:10:45Z</time>
      </trkpt>
      <trkpt lat="45.69766" lon="5.66964">
        <ele>230.52887</ele>
        <time>2015-04-26T16:10:50Z</time>
      </trkpt>
      <trkpt lat="45.69758" lon="5.66962">
        <ele>229.84491</ele>
        <time>2015-04-26T16:10:55Z</time>
      </trkpt>
      <trkpt lat="45.6975" lon="5.66959">
        <ele>229.84491</ele>
        <time>2015-04-26T16:11:00Z</time>
      </trkpt>
      <trkpt lat="45.69742" lon="5.66956">
        <ele>229.10771</ele>
        <time>2015-04-26T16:11:05Z</time>
      </trkpt>
      <trkpt lat="45.69734" lon="5.66952">
        <ele>229.10771</ele>
        <time>2015-04-26T16:11:10Z</time>
      </trkpt>
      <trkpt lat="45.69725" lon="5.66948">
        <ele>228.46713</ele>
        <time>2015-04-26T16:11:15Z</time>
      </trkpt>
      <trkpt lat="45.69717" lon="5.66944">
        <ele>228.46713</ele>
        <time>2015-04-26T16:11:20Z</time>
      </trkpt>
      <trkpt lat="45.69709" lon="5.66942">
        <ele>227.687</ele>
        <time>2015-04-26T16:11:25Z</time>
      </trkpt>
      <trkpt lat="45.69701" lon="5.66942">
        <ele>227.687</ele>
        <time>2015-04-26T16:11:30Z</time>
      </trkpt>
      <trkpt lat="45.69695" lon="5.66952">
        <ele>227.21173</ele>
        <time>2015-04-26T16:11:35Z</time>
      </trkpt>
      <trkpt lat="45.69689" lon="5.66968">
        <ele>226.80367</ele>
        <time>2015-04-26T16:11:40Z</time>
      </trkpt>
      <trkpt lat="45.6968" lon="5.67001">
        <ele>226.35764</ele>
        <time>2015-04-26T16:11:45Z</time>
      </trkpt>
      <trkpt lat="45.69671" lon="5.67044">
        <ele>226.07889</ele>
        <time>2015-04-26T16:11:50Z</time>
      </trkpt>
      <trkpt lat="45.69661" lon="5.6709">
        <ele>225.79677</ele>
        <time>2015-04-26T16:11:55Z</time>
      </trkpt>
      <trkpt lat="45.69651" lon="5.67136">
        <ele>225.88634</ele>
        <time>2015-04-26T16:12:00Z</time>
      </trkpt>
      <trkpt lat="45.69641" lon="5.67182">
        <ele>226.31934</ele>
        <time>2015-04-26T16:12:05Z</time>
      </trkpt>
      <trkpt lat="45.69635" lon="5.67226">
        <ele>226.70825</ele>
        <time>2015-04-26T16:12:10Z</time>
      </trkpt>
      <trkpt lat="45.69634" lon="5.67257">
        <ele>227.14093</ele>
        <time>2015-04-26T16:12:15Z</time>
      </trkpt>
      <trkpt lat="45.69633" lon="5.67275">
        <ele>227.54005</ele>
        <time>2015-04-26T16:12:20Z</time>
      </trkpt>
      <trkpt lat="45.69631" lon="5.67289">
        <ele>228.007</ele>
        <time>2015-04-26T16:12:25Z</time>
      </trkpt>
      <trkpt lat="45.6963" lon="5.67304">
        <ele>228.46257</ele>
        <time>2015-04-26T16:12:30Z</time>
      </trkpt>
      <trkpt lat="45.6963" lon="5.67315">
        <ele>228.46257</ele>
        <time>2015-04-26T16:12:35Z</time>
      </trkpt>
      <trkpt lat="45.69629" lon="5.67327">
        <ele>228.8046</ele>
        <time>2015-04-26T16:12:40Z</time>
      </trkpt>
      <trkpt lat="45.69628" lon="5.67339">
        <ele>228.8046</ele>
        <time>2015-04-26T16:12:45Z</time>
      </trkpt>
      <trkpt lat="45.69628" lon="5.67351">
        <ele>229.31339</ele>
        <time>2015-04-26T16:12:50Z</time>
      </trkpt>
      <trkpt lat="45.69628" lon="5.67365">
        <ele>229.7871</ele>
        <time>2015-04-26T16:12:55Z</time>
      </trkpt>
      <trkpt lat="45.69628" lon="5.67377">
        <ele>229.7871</ele>
        <time>2015-04-26T16:13:00Z</time>
      </trkpt>
      <trkpt lat="45.69627" lon="5.6739">
        <ele>230.26935</ele>
        <time>2015-04-26T16:13:05Z</time>
      </trkpt>
      <trkpt lat="45.6963" lon="5.67394">
        <ele>230.26935</ele>
        <time>2015-04-26T16:13:10Z</time>
      </trkpt>
      <trkpt lat="45.6963" lon="5.67403">
        <ele>230.35387</ele>
        <time>2015-04-26T16:13:15Z</time>
      </trkpt>
      <trkpt lat="45.69632" lon="5.67417">
        <ele>230.48676</ele>
        <time>2015-04-26T16:13:20Z</time>
      </trkpt>
      <trkpt lat="45.69631" lon="5.6743">
        <ele>230.59125</ele>
        <time>2015-04-26T16:13:25Z</time>
      </trkpt>
      <trkpt lat="45.69631" lon="5.67443">
        <ele>230.78369</ele>
        <time>2015-04-26T16:13:30Z</time>
      </trkpt>
      <trkpt lat="45.69631" lon="5.67458">
        <ele>230.98434</ele>
        <time>2015-04-26T16:13:35Z</time>
      </trkpt>
      <trkpt lat="45.69631" lon="5.67469">
        <ele>230.98434</ele>
        <time>2015-04-26T16:13:40Z</time>
      </trkpt>
      <trkpt lat="45.69631" lon="5.6748">
        <ele>231.0184</ele>
        <time>2015-04-26T16:13:45Z</time>
      </trkpt>
      <trkpt lat="45.69631" lon="5.67495">
        <ele>231.37294</ele>
        <time>2015-04-26T16:13:50Z</time>
      </trkpt>
      <trkpt lat="45.6963" lon="5.67508">
        <ele>231.79222</ele>
        <time>2015-04-26T16:13:55Z</time>
      </trkpt>
      <trkpt lat="45.69629" lon="5.6752">
        <ele>231.79222</ele>
        <time>2015-04-26T16:14:00Z</time>
      </trkpt>
      <trkpt lat="45.69631" lon="5.67531">
        <ele>231.98152</ele>
        <time>2015-04-26T16:14:05Z</time>
      </trkpt>
      <trkpt lat="45.69633" lon="5.67542">
        <ele>231.98152</ele>
        <time>2015-04-26T16:14:10Z</time>
      </trkpt>
      <trkpt lat="45.69633" lon="5.67556">
        <ele>232.12958</ele>
        <time>2015-04-26T16:14:15Z</time>
      </trkpt>
      <trkpt lat="45.69635" lon="5.67569">
        <ele>232.29614</ele>
        <time>2015-04-26T16:14:20Z</time>
      </trkpt>
      <trkpt lat="45.69636" lon="5.67582">
        <ele>232.29614</ele>
        <time>2015-04-26T16:14:25Z</time>
      </trkpt>
      <trkpt lat="45.69637" lon="5.67593">
        <ele>232.52217</ele>
        <time>2015-04-26T16:14:30Z</time>
      </trkpt>
      <trkpt lat="45.69638" lon="5.67604">
        <ele>232.52217</ele>
        <time>2015-04-26T16:14:35Z</time>
      </trkpt>
      <trkpt lat="45.69639" lon="5.67615">
        <ele>232.73013</ele>
        <time>2015-04-26T16:14:40Z</time>
      </trkpt>
      <trkpt lat="45.69643" lon="5.67625">
        <ele>232.73013</ele>
        <time>2015-04-26T16:14:45Z</time>
      </trkpt>
      <trkpt lat="45.69647" lon="5.6763">
        <ele>232.7763</ele>
        <time>2015-04-26T16:14:50Z</time>
      </trkpt>
      <trkpt lat="45.69648" lon="5.67629">
        <ele>232.7763</ele>
        <time>2015-04-26T16:14:55Z</time>
      </trkpt>
      <trkpt lat="45.6965" lon="5.67631">
        <ele>232.7763</ele>
        <time>2015-04-26T16:15:00Z</time>
      </trkpt>
      <trkpt lat="45.69657" lon="5.67642">
        <ele>232.77293</ele>
        <time>2015-04-26T16:15:05Z</time>
      </trkpt>
      <trkpt lat="45.69663" lon="5.67651">
        <ele>232.77293</ele>
        <time>2015-04-26T16:15:10Z</time>
      </trkpt>
      <trkpt lat="45.69666" lon="5.67665">
        <ele>233.04039</ele>
        <time>2015-04-26T16:15:15Z</time>
      </trkpt>
      <trkpt lat="45.69668" lon="5.67678">
        <ele>233.5001</ele>
        <time>2015-04-26T16:15:20Z</time>
      </trkpt>
      <trkpt lat="45.6967" lon="5.6769">
        <ele>233.5001</ele>
        <time>2015-04-26T16:15:25Z</time>
      </trkpt>
      <trkpt lat="45.69671" lon="5.67702">
        <ele>233.93466</ele>
        <time>2015-04-26T16:15:30Z</time>
      </trkpt>
      <trkpt lat="45.69671" lon="5.67717">
        <ele>234.4021</ele>
        <time>2015-04-26T16:15:35Z</time>
      </trkpt>
      <trkpt lat="45.69671" lon="5.67729">
        <ele>234.4021</ele>
        <time>2015-04-26T16:15:40Z</time>
      </trkpt>
      <trkpt lat="45.69674" lon="5.67742">
        <ele>234.81207</ele>
        <time>2015-04-26T16:15:45Z</time>
      </trkpt>
      <trkpt lat="45.69675" lon="5.67754">
        <ele>234.81207</ele>
        <time>2015-04-26T16:15:50Z</time>
      </trkpt>
      <trkpt lat="45.69676" lon="5.67768">
        <ele>235.15309</ele>
        <time>2015-04-26T16:15:55Z</time>
      </trkpt>
      <trkpt lat="45.69678" lon="5.67779">
        <ele>235.15309</ele>
        <time>2015-04-26T16:16:00Z</time>
      </trkpt>
      <trkpt lat="45.6968" lon="5.67793">
        <ele>235.05449</ele>
        <time>2015-04-26T16:16:05Z</time>
      </trkpt>
      <trkpt lat="45.6968" lon="5.67806">
        <ele>234.92345</ele>
        <time>2015-04-26T16:16:10Z</time>
      </trkpt>
      <trkpt lat="45.69681" lon="5.67822">
        <ele>234.86359</ele>
        <time>2015-04-26T16:16:15Z</time>
      </trkpt>
      <trkpt lat="45.69682" lon="5.67834">
        <ele>234.86359</ele>
        <time>2015-04-26T16:16:20Z</time>
      </trkpt>
      <trkpt lat="45.69684" lon="5.67846">
        <ele>234.58163</ele>
        <time>2015-04-26T16:16:25Z</time>
      </trkpt>
      <trkpt lat="45.69681" lon="5.67855">
        <ele>234.58163</ele>
        <time>2015-04-26T16:16:30Z</time>
      </trkpt>
      <trkpt lat="45.69675" lon="5.67854">
        <ele>233.99385</ele>
        <time>2015-04-26T16:16:35Z</time>
      </trkpt>
      <trkpt lat="45.69668" lon="5.67854">
        <ele>233.99385</ele>
        <time>2015-04-26T16:16:40Z</time>
      </trkpt>
      <trkpt lat="45.69658" lon="5.67855">
        <ele>233.00914</ele>
        <time>2015-04-26T16:16:45Z</time>
      </trkpt>
      <trkpt lat="45.69645" lon="5.67858">
        <ele>232.01978</ele>
        <time>2015-04-26T16:16:50Z</time>
      </trkpt>
      <trkpt lat="45.69619" lon="5.6786">
        <ele>231.15865</ele>
        <time>2015-04-26T16:16:55Z</time>
      </trkpt>
      <trkpt lat="45.69592" lon="5.67868">
        <ele>230.1018</ele>
        <time>2015-04-26T16:17:00Z</time>
      </trkpt>
      <trkpt lat="45.69551" lon="5.67864">
        <ele>229.25578</ele>
        <time>2015-04-26T16:17:05Z</time>
      </trkpt>
      <trkpt lat="45.6951" lon="5.67865">
        <ele>228.73721</ele>
        <time>2015-04-26T16:17:10Z</time>
      </trkpt>
      <trkpt lat="45.69472" lon="5.67866">
        <ele>228.50912</ele>
        <time>2015-04-26T16:17:15Z</time>
      </trkpt>
      <trkpt lat="45.69437" lon="5.67867">
        <ele>228.06088</ele>
        <time>2015-04-26T16:17:20Z</time>
      </trkpt>
      <trkpt lat="45.69402" lon="5.67868">
        <ele>227.75577</ele>
        <time>2015-04-26T16:17:25Z</time>
      </trkpt>
      <trkpt lat="45.69368" lon="5.67868">
        <ele>227.58408</ele>
        <time>2015-04-26T16:17:30Z</time>
      </trkpt>
      <trkpt lat="45.69336" lon="5.67864">
        <ele>227.40674</ele>
        <time>2015-04-26T16:17:35Z</time>
      </trkpt>
      <trkpt lat="45.69306" lon="5.67859">
        <ele>227.33986</ele>
        <time>2015-04-26T16:17:40Z</time>
      </trkpt>
      <trkpt lat="45.69281" lon="5.67842">
        <ele>227.54834</ele>
        <time>2015-04-26T16:17:45Z</time>
      </trkpt>
      <trkpt lat="45.69271" lon="5.67813">
        <ele>227.8527</ele>
        <time>2015-04-26T16:17:50Z</time>
      </trkpt>
      <trkpt lat="45.69254" lon="5.67784">
        <ele>228.31696</ele>
        <time>2015-04-26T16:17:55Z</time>
      </trkpt>
      <trkpt lat="45.69228" lon="5.67765">
        <ele>229.0864</ele>
        <time>2015-04-26T16:18:00Z</time>
      </trkpt>
      <trkpt lat="45.69208" lon="5.67754">
        <ele>230.00656</ele>
        <time>2015-04-26T16:18:05Z</time>
      </trkpt>
      <trkpt lat="45.69199" lon="5.67755">
        <ele>230.00656</ele>
        <time>2015-04-26T16:18:10Z</time>
      </trkpt>
      <trkpt lat="45.69193" lon="5.67757">
        <ele>230.84747</ele>
        <time>2015-04-26T16:18:15Z</time>
      </trkpt>
      <trkpt lat="45.69184" lon="5.6776">
        <ele>231.81415</ele>
        <time>2015-04-26T16:18:20Z</time>
      </trkpt>
      <trkpt lat="45.69175" lon="5.67764">
        <ele>232.90889</ele>
        <time>2015-04-26T16:18:25Z</time>
      </trkpt>
      <trkpt lat="45.69166" lon="5.67768">
        <ele>233.87408</ele>
        <time>2015-04-26T16:18:30Z</time>
      </trkpt>
      <trkpt lat="45.69158" lon="5.67772">
        <ele>234.73085</ele>
        <time>2015-04-26T16:18:35Z</time>
      </trkpt>
      <trkpt lat="45.6915" lon="5.67778">
        <ele>234.73085</ele>
        <time>2015-04-26T16:18:40Z</time>
      </trkpt>
      <trkpt lat="45.69142" lon="5.67783">
        <ele>235.71526</ele>
        <time>2015-04-26T16:18:45Z</time>
      </trkpt>
      <trkpt lat="45.69134" lon="5.67785">
        <ele>235.71526</ele>
        <time>2015-04-26T16:18:50Z</time>
      </trkpt>
      <trkpt lat="45.69126" lon="5.67788">
        <ele>236.64217</ele>
        <time>2015-04-26T16:18:55Z</time>
      </trkpt>
      <trkpt lat="45.69118" lon="5.67792">
        <ele>236.64217</ele>
        <time>2015-04-26T16:19:00Z</time>
      </trkpt>
      <trkpt lat="45.69111" lon="5.67795">
        <ele>237.52765</ele>
        <time>2015-04-26T16:19:05Z</time>
      </trkpt>
      <trkpt lat="45.69104" lon="5.67799">
        <ele>237.52765</ele>
        <time>2015-04-26T16:19:10Z</time>
      </trkpt>
      <trkpt lat="45.69095" lon="5.678">
        <ele>238.51642</ele>
        <time>2015-04-26T16:19:15Z</time>
      </trkpt>
      <trkpt lat="45.69088" lon="5.67803">
        <ele>238.51642</ele>
        <time>2015-04-26T16:19:20Z</time>
      </trkpt>
      <trkpt lat="45.69082" lon="5.67806">
        <ele>239.25235</ele>
        <time>2015-04-26T16:19:25Z</time>
      </trkpt>
      <trkpt lat="45.69074" lon="5.67808">
        <ele>239.25235</ele>
        <time>2015-04-26T16:19:30Z</time>
      </trkpt>
      <trkpt lat="45.69067" lon="5.67802">
        <ele>240.12682</ele>
        <time>2015-04-26T16:19:35Z</time>
      </trkpt>
      <trkpt lat="45.6906" lon="5.67797">
        <ele>240.12682</ele>
        <time>2015-04-26T16:19:40Z</time>
      </trkpt>
      <trkpt lat="45.69054" lon="5.67792">
        <ele>240.66626</ele>
        <time>2015-04-26T16:19:45Z</time>
      </trkpt>
      <trkpt lat="45.69046" lon="5.67786">
        <ele>240.66626</ele>
        <time>2015-04-26T16:19:50Z</time>
      </trkpt>
      <trkpt lat="45.69039" lon="5.6778">
        <ele>241.41284</ele>
        <time>2015-04-26T16:19:55Z</time>
      </trkpt>
      <trkpt lat="45.69033" lon="5.67775">
        <ele>241.41284</ele>
        <time>2015-04-26T16:20:00Z</time>
      </trkpt>
      <trkpt lat="45.69026" lon="5.6777">
        <ele>242.03258</ele>
        <time>2015-04-26T16:20:05Z</time>
      </trkpt>
      <trkpt lat="45.6902" lon="5.67764">
        <ele>242.03258</ele>
        <time>2015-04-26T16:20:10Z</time>
      </trkpt>
      <trkpt lat="45.69014" lon="5.6776">
        <ele>242.2164</ele>
        <time>2015-04-26T16:20:15Z</time>
      </trkpt>
      <trkpt lat="45.69006" lon="5.67756">
        <ele>242.2164</ele>
        <time>2015-04-26T16:20:20Z</time>
      </trkpt>
      <trkpt lat="45.68999" lon="5.67751">
        <ele>242.50067</ele>
        <time>2015-04-26T16:20:25Z</time>
      </trkpt>
      <trkpt lat="45.68992" lon="5.67745">
        <ele>242.50067</ele>
        <time>2015-04-26T16:20:30Z</time>
      </trkpt>
      <trkpt lat="45.68984" lon="5.67743">
        <ele>242.90654</ele>
        <time>2015-04-26T16:20:35Z</time>
      </trkpt>
      <trkpt lat="45.68978" lon="5.67747">
        <ele>242.90654</ele>
        <time>2015-04-26T16:20:40Z</time>
      </trkpt>
      <trkpt lat="45.6897" lon="5.67752">
        <ele>243.62628</ele>
        <time>2015-04-26T16:20:45Z</time>
      </trkpt>
      <trkpt lat="45.68964" lon="5.67759">
        <ele>243.62628</ele>
        <time>2015-04-26T16:20:50Z</time>
      </trkpt>
      <trkpt lat="45.68958" lon="5.67765">
        <ele>244.2031</ele>
        <time>2015-04-26T16:20:55Z</time>
      </trkpt>
      <trkpt lat="45.68952" lon="5.67772">
        <ele>244.2031</ele>
        <time>2015-04-26T16:21:00Z</time>
      </trkpt>
      <trkpt lat="45.68945" lon="5.6778">
        <ele>244.38716</ele>
        <time>2015-04-26T16:21:05Z</time>
      </trkpt>
      <trkpt lat="45.68938" lon="5.67785">
        <ele>244.38716</ele>
        <time>2015-04-26T16:21:10Z</time>
      </trkpt>
      <trkpt lat="45.68931" lon="5.6779">
        <ele>244.4525</ele>
        <time>2015-04-26T16:21:15Z</time>
      </trkpt>
      <trkpt lat="45.68924" lon="5.67797">
        <ele>244.4525</ele>
        <time>2015-04-26T16:21:20Z</time>
      </trkpt>
      <trkpt lat="45.68917" lon="5.67804">
        <ele>244.72546</ele>
        <time>2015-04-26T16:21:25Z</time>
      </trkpt>
      <trkpt lat="45.68911" lon="5.6781">
        <ele>244.72546</ele>
        <time>2015-04-26T16:21:30Z</time>
      </trkpt>
      <trkpt lat="45.68904" lon="5.67815">
        <ele>244.96027</ele>
        <time>2015-04-26T16:21:35Z</time>
      </trkpt>
      <trkpt lat="45.68896" lon="5.67822">
        <ele>245.39049</ele>
        <time>2015-04-26T16:21:40Z</time>
      </trkpt>
      <trkpt lat="45.68889" lon="5.6783">
        <ele>245.90056</ele>
        <time>2015-04-26T16:21:45Z</time>
      </trkpt>
      <trkpt lat="45.68883" lon="5.67837">
        <ele>245.90056</ele>
        <time>2015-04-26T16:21:50Z</time>
      </trkpt>
      <trkpt lat="45.68875" lon="5.67843">
        <ele>246.13821</ele>
        <time>2015-04-26T16:21:55Z</time>
      </trkpt>
      <trkpt lat="45.68868" lon="5.67849">
        <ele>246.13821</ele>
        <time>2015-04-26T16:22:00Z</time>
      </trkpt>
      <trkpt lat="45.68861" lon="5.67855">
        <ele>246.41199</ele>
        <time>2015-04-26T16:22:05Z</time>
      </trkpt>
      <trkpt lat="45.68855" lon="5.67863">
        <ele>246.41199</ele>
        <time>2015-04-26T16:22:10Z</time>
      </trkpt>
      <trkpt lat="45.68849" lon="5.67869">
        <ele>246.57529</ele>
        <time>2015-04-26T16:22:15Z</time>
      </trkpt>
      <trkpt lat="45.68843" lon="5.67876">
        <ele>246.57529</ele>
        <time>2015-04-26T16:22:20Z</time>
      </trkpt>
      <trkpt lat="45.68836" lon="5.6788">
        <ele>246.23326</ele>
        <time>2015-04-26T16:22:25Z</time>
      </trkpt>
      <trkpt lat="45.68829" lon="5.67887">
        <ele>246.23326</ele>
        <time>2015-04-26T16:22:30Z</time>
      </trkpt>
      <trkpt lat="45.68824" lon="5.67895">
        <ele>245.82852</ele>
        <time>2015-04-26T16:22:35Z</time>
      </trkpt>
      <trkpt lat="45.68816" lon="5.67901">
        <ele>245.82852</ele>
        <time>2015-04-26T16:22:40Z</time>
      </trkpt>
      <trkpt lat="45.6881" lon="5.67909">
        <ele>245.51193</ele>
        <time>2015-04-26T16:22:45Z</time>
      </trkpt>
      <trkpt lat="45.68802" lon="5.67917">
        <ele>245.26454</ele>
        <time>2015-04-26T16:22:50Z</time>
      </trkpt>
      <trkpt lat="45.68794" lon="5.67923">
        <ele>245.26454</ele>
        <time>2015-04-26T16:22:55Z</time>
      </trkpt>
      <trkpt lat="45.68785" lon="5.67931">
        <ele>245.24152</ele>
        <time>2015-04-26T16:23:00Z</time>
      </trkpt>
      <trkpt lat="45.68778" lon="5.67939">
        <ele>245.28333</ele>
        <time>2015-04-26T16:23:05Z</time>
      </trkpt>
      <trkpt lat="45.68771" lon="5.67947">
        <ele>245.28333</ele>
        <time>2015-04-26T16:23:10Z</time>
      </trkpt>
      <trkpt lat="45.68764" lon="5.67955">
        <ele>245.29968</ele>
        <time>2015-04-26T16:23:15Z</time>
      </trkpt>
      <trkpt lat="45.68757" lon="5.67962">
        <ele>245.29968</ele>
        <time>2015-04-26T16:23:20Z</time>
      </trkpt>
      <trkpt lat="45.6875" lon="5.6797">
        <ele>245.35104</ele>
        <time>2015-04-26T16:23:25Z</time>
      </trkpt>
      <trkpt lat="45.68743" lon="5.67977">
        <ele>245.35104</ele>
        <time>2015-04-26T16:23:30Z</time>
      </trkpt>
      <trkpt lat="45.68736" lon="5.67984">
        <ele>245.45012</ele>
        <time>2015-04-26T16:23:35Z</time>
      </trkpt>
      <trkpt lat="45.68729" lon="5.67991">
        <ele>245.45012</ele>
        <time>2015-04-26T16:23:40Z</time>
      </trkpt>
      <trkpt lat="45.68723" lon="5.67996">
        <ele>245.56528</ele>
        <time>2015-04-26T16:23:45Z</time>
      </trkpt>
      <trkpt lat="45.68715" lon="5.68003">
        <ele>245.55188</ele>
        <time>2015-04-26T16:23:50Z</time>
      </trkpt>
      <trkpt lat="45.68709" lon="5.68007">
        <ele>245.55188</ele>
        <time>2015-04-26T16:23:55Z</time>
      </trkpt>
      <trkpt lat="45.68703" lon="5.68014">
        <ele>245.65094</ele>
        <time>2015-04-26T16:24:00Z</time>
      </trkpt>
      <trkpt lat="45.68696" lon="5.68021">
        <ele>245.65094</ele>
        <time>2015-04-26T16:24:05Z</time>
      </trkpt>
      <trkpt lat="45.68689" lon="5.68027">
        <ele>245.85486</ele>
        <time>2015-04-26T16:24:10Z</time>
      </trkpt>
      <trkpt lat="45.68682" lon="5.68035">
        <ele>245.85486</ele>
        <time>2015-04-26T16:24:15Z</time>
      </trkpt>
      <trkpt lat="45.68675" lon="5.6804">
        <ele>246.0554</ele>
        <time>2015-04-26T16:24:20Z</time>
      </trkpt>
      <trkpt lat="45.68668" lon="5.68047">
        <ele>246.0554</ele>
        <time>2015-04-26T16:24:25Z</time>
      </trkpt>
      <trkpt lat="45.68661" lon="5.68054">
        <ele>246.19551</ele>
        <time>2015-04-26T16:24:30Z</time>
      </trkpt>
      <trkpt lat="45.68654" lon="5.68061">
        <ele>246.19551</ele>
        <time>2015-04-26T16:24:35Z</time>
      </trkpt>
      <trkpt lat="45.68647" lon="5.68067">
        <ele>246.16481</ele>
        <time>2015-04-26T16:24:40Z</time>
      </trkpt>
      <trkpt lat="45.68642" lon="5.68074">
        <ele>246.16481</ele>
        <time>2015-04-26T16:24:45Z</time>
      </trkpt>
      <trkpt lat="45.68634" lon="5.68082">
        <ele>246.13535</ele>
        <time>2015-04-26T16:24:50Z</time>
      </trkpt>
      <trkpt lat="45.68628" lon="5.68088">
        <ele>246.13535</ele>
        <time>2015-04-26T16:24:55Z</time>
      </trkpt>
      <trkpt lat="45.68622" lon="5.68095">
        <ele>246.0359</ele>
        <time>2015-04-26T16:25:00Z</time>
      </trkpt>
      <trkpt lat="45.68616" lon="5.68103">
        <ele>246.0359</ele>
        <time>2015-04-26T16:25:05Z</time>
      </trkpt>
      <trkpt lat="45.68609" lon="5.68112">
        <ele>246.29062</ele>
        <time>2015-04-26T16:25:10Z</time>
      </trkpt>
      <trkpt lat="45.68602" lon="5.68119">
        <ele>246.29062</ele>
        <time>2015-04-26T16:25:15Z</time>
      </trkpt>
      <trkpt lat="45.68593" lon="5.6813">
        <ele>246.55655</ele>
        <time>2015-04-26T16:25:20Z</time>
      </trkpt>
      <trkpt lat="45.68586" lon="5.68138">
        <ele>246.55655</ele>
        <time>2015-04-26T16:25:25Z</time>
      </trkpt>
      <trkpt lat="45.6858" lon="5.68147">
        <ele>246.74643</ele>
        <time>2015-04-26T16:25:30Z</time>
      </trkpt>
      <trkpt lat="45.68572" lon="5.68156">
        <ele>246.92372</ele>
        <time>2015-04-26T16:25:35Z</time>
      </trkpt>
      <trkpt lat="45.68565" lon="5.68165">
        <ele>247.0752</ele>
        <time>2015-04-26T16:25:40Z</time>
      </trkpt>
      <trkpt lat="45.68558" lon="5.68174">
        <ele>247.08774</ele>
        <time>2015-04-26T16:25:45Z</time>
      </trkpt>
      <trkpt lat="45.68551" lon="5.68179">
        <ele>247.08774</ele>
        <time>2015-04-26T16:25:50Z</time>
      </trkpt>
      <trkpt lat="45.68546" lon="5.68186">
        <ele>247.00108</ele>
        <time>2015-04-26T16:25:56Z</time>
      </trkpt>
      <trkpt lat="45.68538" lon="5.68196">
        <ele>246.88107</ele>
        <time>2015-04-26T16:26:01Z</time>
      </trkpt>
      <trkpt lat="45.6853" lon="5.68207">
        <ele>246.7888</ele>
        <time>2015-04-26T16:26:06Z</time>
      </trkpt>
      <trkpt lat="45.68523" lon="5.68216">
        <ele>246.66553</ele>
        <time>2015-04-26T16:26:11Z</time>
      </trkpt>
      <trkpt lat="45.68516" lon="5.68226">
        <ele>246.58652</ele>
        <time>2015-04-26T16:26:15Z</time>
      </trkpt>
      <trkpt lat="45.68508" lon="5.68234">
        <ele>246.50612</ele>
        <time>2015-04-26T16:26:21Z</time>
      </trkpt>
      <trkpt lat="45.68502" lon="5.68241">
        <ele>246.50612</ele>
        <time>2015-04-26T16:26:25Z</time>
      </trkpt>
      <trkpt lat="45.68495" lon="5.6825">
        <ele>246.38202</ele>
        <time>2015-04-26T16:26:30Z</time>
      </trkpt>
      <trkpt lat="45.68488" lon="5.68258">
        <ele>246.38202</ele>
        <time>2015-04-26T16:26:35Z</time>
      </trkpt>
      <trkpt lat="45.68482" lon="5.68265">
        <ele>246.23274</ele>
        <time>2015-04-26T16:26:41Z</time>
      </trkpt>
      <trkpt lat="45.68475" lon="5.68274">
        <ele>245.9746</ele>
        <time>2015-04-26T16:26:47Z</time>
      </trkpt>
      <trkpt lat="45.6847" lon="5.68279">
        <ele>245.9746</ele>
        <time>2015-04-26T16:26:51Z</time>
      </trkpt>
      <trkpt lat="45.68463" lon="5.68284">
        <ele>245.68887</ele>
        <time>2015-04-26T16:26:56Z</time>
      </trkpt>
      <trkpt lat="45.68456" lon="5.6829">
        <ele>245.68887</ele>
        <time>2015-04-26T16:27:00Z</time>
      </trkpt>
      <trkpt lat="45.68447" lon="5.6829">
        <ele>245.49416</ele>
        <time>2015-04-26T16:27:07Z</time>
      </trkpt>
      <trkpt lat="45.68443" lon="5.68287">
        <ele>245.49416</ele>
        <time>2015-04-26T16:27:10Z</time>
      </trkpt>
      <trkpt lat="45.68441" lon="5.68271">
        <ele>245.51445</ele>
        <time>2015-04-26T16:27:15Z</time>
      </trkpt>
      <trkpt lat="45.68434" lon="5.68226">
        <ele>245.7055</ele>
        <time>2015-04-26T16:27:20Z</time>
      </trkpt>
      <trkpt lat="45.68426" lon="5.68173">
        <ele>246.12666</ele>
        <time>2015-04-26T16:27:25Z</time>
      </trkpt>
      <trkpt lat="45.68419" lon="5.68116">
        <ele>246.3567</ele>
        <time>2015-04-26T16:27:30Z</time>
      </trkpt>
      <trkpt lat="45.68412" lon="5.68061">
        <ele>246.82727</ele>
        <time>2015-04-26T16:27:35Z</time>
      </trkpt>
      <trkpt lat="45.68405" lon="5.68013">
        <ele>247.46207</ele>
        <time>2015-04-26T16:27:40Z</time>
      </trkpt>
      <trkpt lat="45.68399" lon="5.67969">
        <ele>248.089</ele>
        <time>2015-04-26T16:27:45Z</time>
      </trkpt>
      <trkpt lat="45.68394" lon="5.67924">
        <ele>248.73604</ele>
        <time>2015-04-26T16:27:51Z</time>
      </trkpt>
      <trkpt lat="45.68391" lon="5.67871">
        <ele>249.31369</ele>
        <time>2015-04-26T16:27:56Z</time>
      </trkpt>
      <trkpt lat="45.68387" lon="5.67842">
        <ele>249.84013</ele>
        <time>2015-04-26T16:28:01Z</time>
      </trkpt>
      <trkpt lat="45.68386" lon="5.67831">
        <ele>249.84013</ele>
        <time>2015-04-26T16:28:06Z</time>
      </trkpt>
      <trkpt lat="45.68384" lon="5.67822">
        <ele>249.77034</ele>
        <time>2015-04-26T16:28:10Z</time>
      </trkpt>
      <trkpt lat="45.68382" lon="5.67816">
        <ele>249.77034</ele>
        <time>2015-04-26T16:28:15Z</time>
      </trkpt>
      <trkpt lat="45.68384" lon="5.67806">
        <ele>249.69623</ele>
        <time>2015-04-26T16:28:20Z</time>
      </trkpt>
      <trkpt lat="45.68383" lon="5.67794">
        <ele>249.69623</ele>
        <time>2015-04-26T16:28:25Z</time>
      </trkpt>
      <trkpt lat="45.68382" lon="5.67781">
        <ele>249.92123</ele>
        <time>2015-04-26T16:28:30Z</time>
      </trkpt>
      <trkpt lat="45.6838" lon="5.6777">
        <ele>249.92123</ele>
        <time>2015-04-26T16:28:35Z</time>
      </trkpt>
      <trkpt lat="45.68379" lon="5.67758">
        <ele>250.22134</ele>
        <time>2015-04-26T16:28:40Z</time>
      </trkpt>
      <trkpt lat="45.68377" lon="5.67747">
        <ele>250.22134</ele>
        <time>2015-04-26T16:28:45Z</time>
      </trkpt>
      <trkpt lat="45.68373" lon="5.67734">
        <ele>250.6193</ele>
        <time>2015-04-26T16:28:51Z</time>
      </trkpt>
      <trkpt lat="45.68373" lon="5.67733">
        <ele>250.6193</ele>
        <time>2015-04-26T16:28:56Z</time>
      </trkpt>
      <trkpt lat="45.68373" lon="5.6773">
        <ele>250.6193</ele>
        <time>2015-04-26T16:29:01Z</time>
      </trkpt>
      <trkpt lat="45.68374" lon="5.67731">
        <ele>250.6193</ele>
        <time>2015-04-26T16:29:07Z</time>
      </trkpt>
      <trkpt lat="45.68374" lon="5.67733">
        <ele>250.6193</ele>
        <time>2015-04-26T16:29:11Z</time>
      </trkpt>
      <trkpt lat="45.68374" lon="5.67734">
        <ele>250.6193</ele>
        <time>2015-04-26T16:29:16Z</time>
      </trkpt>
      <trkpt lat="45.68374" lon="5.67734">
        <ele>250.6193</ele>
        <time>2015-04-26T16:29:21Z</time>
      </trkpt>
      <trkpt lat="45.68369" lon="5.67734">
        <ele>250.9342</ele>
        <time>2015-04-26T16:29:26Z</time>
      </trkpt>
      <trkpt lat="45.68363" lon="5.67735">
        <ele>250.9342</ele>
        <time>2015-04-26T16:29:31Z</time>
      </trkpt>
      <trkpt lat="45.68356" lon="5.67735">
        <ele>251.07072</ele>
        <time>2015-04-26T16:29:35Z</time>
      </trkpt>
      <trkpt lat="45.68348" lon="5.67737">
        <ele>251.07072</ele>
        <time>2015-04-26T16:29:40Z</time>
      </trkpt>
      <trkpt lat="45.68339" lon="5.67738">
        <ele>251.15721</ele>
        <time>2015-04-26T16:29:45Z</time>
      </trkpt>
      <trkpt lat="45.68331" lon="5.6774">
        <ele>251.15721</ele>
        <time>2015-04-26T16:29:50Z</time>
      </trkpt>
      <trkpt lat="45.68323" lon="5.67741">
        <ele>251.25507</ele>
        <time>2015-04-26T16:29:55Z</time>
      </trkpt>
      <trkpt lat="45.68315" lon="5.67742">
        <ele>251.25507</ele>
        <time>2015-04-26T16:30:00Z</time>
      </trkpt>
      <trkpt lat="45.68307" lon="5.67742">
        <ele>251.4356</ele>
        <time>2015-04-26T16:30:05Z</time>
      </trkpt>
      <trkpt lat="45.68299" lon="5.67744">
        <ele>251.4356</ele>
        <time>2015-04-26T16:30:10Z</time>
      </trkpt>
      <trkpt lat="45.68291" lon="5.67743">
        <ele>251.38995</ele>
        <time>2015-04-26T16:30:15Z</time>
      </trkpt>
      <trkpt lat="45.68284" lon="5.67744">
        <ele>251.38995</ele>
        <time>2015-04-26T16:30:20Z</time>
      </trkpt>
      <trkpt lat="45.68277" lon="5.67743">
        <ele>251.26494</ele>
        <time>2015-04-26T16:30:25Z</time>
      </trkpt>
      <trkpt lat="45.68268" lon="5.67744">
        <ele>251.26494</ele>
        <time>2015-04-26T16:30:30Z</time>
      </trkpt>
      <trkpt lat="45.6826" lon="5.67746">
        <ele>250.90857</ele>
        <time>2015-04-26T16:30:35Z</time>
      </trkpt>
      <trkpt lat="45.68252" lon="5.67746">
        <ele>250.90857</ele>
        <time>2015-04-26T16:30:40Z</time>
      </trkpt>
      <trkpt lat="45.68243" lon="5.67747">
        <ele>250.62744</ele>
        <time>2015-04-26T16:30:45Z</time>
      </trkpt>
      <trkpt lat="45.68236" lon="5.67748">
        <ele>250.62744</ele>
        <time>2015-04-26T16:30:50Z</time>
      </trkpt>
      <trkpt lat="45.68227" lon="5.67748">
        <ele>250.25865</ele>
        <time>2015-04-26T16:30:55Z</time>
      </trkpt>
      <trkpt lat="45.68219" lon="5.67749">
        <ele>250.25865</ele>
        <time>2015-04-26T16:31:00Z</time>
      </trkpt>
      <trkpt lat="45.68212" lon="5.67749">
        <ele>249.95415</ele>
        <time>2015-04-26T16:31:05Z</time>
      </trkpt>
      <trkpt lat="45.68203" lon="5.67748">
        <ele>249.95415</ele>
        <time>2015-04-26T16:31:10Z</time>
      </trkpt>
      <trkpt lat="45.68194" lon="5.67749">
        <ele>249.49426</ele>
        <time>2015-04-26T16:31:15Z</time>
      </trkpt>
      <trkpt lat="45.68189" lon="5.67753">
        <ele>249.49426</ele>
        <time>2015-04-26T16:31:20Z</time>
      </trkpt>
      <trkpt lat="45.68186" lon="5.67764">
        <ele>249.05052</ele>
        <time>2015-04-26T16:31:25Z</time>
      </trkpt>
      <trkpt lat="45.68183" lon="5.67777">
        <ele>248.62334</ele>
        <time>2015-04-26T16:31:30Z</time>
      </trkpt>
      <trkpt lat="45.68178" lon="5.67786">
        <ele>248.62334</ele>
        <time>2015-04-26T16:31:35Z</time>
      </trkpt>
      <trkpt lat="45.68171" lon="5.67795">
        <ele>248.42915</ele>
        <time>2015-04-26T16:31:40Z</time>
      </trkpt>
      <trkpt lat="45.68162" lon="5.67803">
        <ele>248.42285</ele>
        <time>2015-04-26T16:31:47Z</time>
      </trkpt>
      <trkpt lat="45.68156" lon="5.67806">
        <ele>248.42285</ele>
        <time>2015-04-26T16:31:50Z</time>
      </trkpt>
      <trkpt lat="45.68148" lon="5.67813">
        <ele>248.23064</ele>
        <time>2015-04-26T16:31:57Z</time>
      </trkpt>
      <trkpt lat="45.68142" lon="5.67817">
        <ele>248.23064</ele>
        <time>2015-04-26T16:32:00Z</time>
      </trkpt>
      <trkpt lat="45.68134" lon="5.67826">
        <ele>248.24162</ele>
        <time>2015-04-26T16:32:05Z</time>
      </trkpt>
      <trkpt lat="45.68126" lon="5.67834">
        <ele>248.34018</ele>
        <time>2015-04-26T16:32:11Z</time>
      </trkpt>
      <trkpt lat="45.6812" lon="5.67838">
        <ele>248.34018</ele>
        <time>2015-04-26T16:32:16Z</time>
      </trkpt>
      <trkpt lat="45.6811" lon="5.67844">
        <ele>248.51982</ele>
        <time>2015-04-26T16:32:21Z</time>
      </trkpt>
      <trkpt lat="45.68106" lon="5.67847">
        <ele>248.51982</ele>
        <time>2015-04-26T16:32:26Z</time>
      </trkpt>
      <trkpt lat="45.68095" lon="5.67854">
        <ele>248.50041</ele>
        <time>2015-04-26T16:32:31Z</time>
      </trkpt>
      <trkpt lat="45.68087" lon="5.67859">
        <ele>248.50041</ele>
        <time>2015-04-26T16:32:36Z</time>
      </trkpt>
      <trkpt lat="45.68081" lon="5.67863">
        <ele>248.54178</ele>
        <time>2015-04-26T16:32:40Z</time>
      </trkpt>
      <trkpt lat="45.68072" lon="5.67869">
        <ele>248.59627</ele>
        <time>2015-04-26T16:32:46Z</time>
      </trkpt>
      <trkpt lat="45.68066" lon="5.67872">
        <ele>248.59627</ele>
        <time>2015-04-26T16:32:51Z</time>
      </trkpt>
      <trkpt lat="45.68058" lon="5.67878">
        <ele>248.54758</ele>
        <time>2015-04-26T16:32:56Z</time>
      </trkpt>
      <trkpt lat="45.68052" lon="5.67882">
        <ele>248.54758</ele>
        <time>2015-04-26T16:33:01Z</time>
      </trkpt>
      <trkpt lat="45.68045" lon="5.67887">
        <ele>248.25941</ele>
        <time>2015-04-26T16:33:05Z</time>
      </trkpt>
      <trkpt lat="45.68035" lon="5.67894">
        <ele>247.9376</ele>
        <time>2015-04-26T16:33:11Z</time>
      </trkpt>
      <trkpt lat="45.68034" lon="5.67896">
        <ele>247.9376</ele>
        <time>2015-04-26T16:33:16Z</time>
      </trkpt>
      <trkpt lat="45.68026" lon="5.67903">
        <ele>247.29741</ele>
        <time>2015-04-26T16:33:21Z</time>
      </trkpt>
      <trkpt lat="45.68014" lon="5.67915">
        <ele>246.75313</ele>
        <time>2015-04-26T16:33:26Z</time>
      </trkpt>
      <trkpt lat="45.68008" lon="5.6792">
        <ele>246.75313</ele>
        <time>2015-04-26T16:33:31Z</time>
      </trkpt>
      <trkpt lat="45.68002" lon="5.67924">
        <ele>246.09755</ele>
        <time>2015-04-26T16:33:36Z</time>
      </trkpt>
      <trkpt lat="45.67995" lon="5.67931">
        <ele>246.09755</ele>
        <time>2015-04-26T16:33:41Z</time>
      </trkpt>
      <trkpt lat="45.67989" lon="5.67934">
        <ele>245.54245</ele>
        <time>2015-04-26T16:33:45Z</time>
      </trkpt>
      <trkpt lat="45.67981" lon="5.67939">
        <ele>245.54245</ele>
        <time>2015-04-26T16:33:51Z</time>
      </trkpt>
      <trkpt lat="45.67974" lon="5.67943">
        <ele>245.0099</ele>
        <time>2015-04-26T16:33:56Z</time>
      </trkpt>
      <trkpt lat="45.67966" lon="5.67948">
        <ele>245.0099</ele>
        <time>2015-04-26T16:34:01Z</time>
      </trkpt>
      <trkpt lat="45.6796" lon="5.67958">
        <ele>244.4421</ele>
        <time>2015-04-26T16:34:06Z</time>
      </trkpt>
      <trkpt lat="45.67953" lon="5.67961">
        <ele>244.4421</ele>
        <time>2015-04-26T16:34:11Z</time>
      </trkpt>
      <trkpt lat="45.67947" lon="5.67967">
        <ele>243.39635</ele>
        <time>2015-04-26T16:34:16Z</time>
      </trkpt>
      <trkpt lat="45.67938" lon="5.67973">
        <ele>242.35733</ele>
        <time>2015-04-26T16:34:20Z</time>
      </trkpt>
      <trkpt lat="45.67928" lon="5.67981">
        <ele>241.38496</ele>
        <time>2015-04-26T16:34:26Z</time>
      </trkpt>
      <trkpt lat="45.67922" lon="5.67987">
        <ele>241.38496</ele>
        <time>2015-04-26T16:34:31Z</time>
      </trkpt>
      <trkpt lat="45.67915" lon="5.67994">
        <ele>240.3904</ele>
        <time>2015-04-26T16:34:35Z</time>
      </trkpt>
      <trkpt lat="45.67909" lon="5.68">
        <ele>240.3904</ele>
        <time>2015-04-26T16:34:41Z</time>
      </trkpt>
      <trkpt lat="45.67902" lon="5.68008">
        <ele>239.47867</ele>
        <time>2015-04-26T16:34:45Z</time>
      </trkpt>
      <trkpt lat="45.67899" lon="5.6801">
        <ele>239.47867</ele>
        <time>2015-04-26T16:34:50Z</time>
      </trkpt>
      <trkpt lat="45.67899" lon="5.6801">
        <ele>239.47867</ele>
        <time>2015-04-26T16:34:55Z</time>
      </trkpt>
      <trkpt lat="45.67901" lon="5.68005">
        <ele>239.47867</ele>
        <time>2015-04-26T16:35:01Z</time>
      </trkpt>
      <trkpt lat="45.679" lon="5.68007">
        <ele>238.74683</ele>
        <time>2015-04-26T16:35:06Z</time>
      </trkpt>
      <trkpt lat="45.679" lon="5.68006">
        <ele>238.74683</ele>
        <time>2015-04-26T16:35:11Z</time>
      </trkpt>
      <trkpt lat="45.67899" lon="5.68007">
        <ele>238.74683</ele>
        <time>2015-04-26T16:35:16Z</time>
      </trkpt>
      <trkpt lat="45.67901" lon="5.68008">
        <ele>238.74683</ele>
        <time>2015-04-26T16:35:21Z</time>
      </trkpt>
      <trkpt lat="45.679" lon="5.68007">
        <ele>238.74683</ele>
        <time>2015-04-26T16:35:26Z</time>
      </trkpt>
      <trkpt lat="45.679" lon="5.68007">
        <ele>238.74683</ele>
        <time>2015-04-26T16:35:31Z</time>
      </trkpt>
      <trkpt lat="45.67898" lon="5.68005">
        <ele>238.74683</ele>
        <time>2015-04-26T16:35:36Z</time>
      </trkpt>
      <trkpt lat="45.67898" lon="5.68006">
        <ele>238.74683</ele>
        <time>2015-04-26T16:35:41Z</time>
      </trkpt>
      <trkpt lat="45.67898" lon="5.68005">
        <ele>238.74683</ele>
        <time>2015-04-26T16:35:46Z</time>
      </trkpt>
      <trkpt lat="45.67898" lon="5.68005">
        <ele>238.74683</ele>
        <time>2015-04-26T16:35:51Z</time>
      </trkpt>
      <trkpt lat="45.67897" lon="5.68004">
        <ele>238.74683</ele>
        <time>2015-04-26T16:35:55Z</time>
      </trkpt>
      <trkpt lat="45.67897" lon="5.68006">
        <ele>238.73096</ele>
        <time>2015-04-26T16:36:00Z</time>
      </trkpt>
      <trkpt lat="45.67897" lon="5.68008">
        <ele>238.73096</ele>
        <time>2015-04-26T16:36:05Z</time>
      </trkpt>
      <trkpt lat="45.67897" lon="5.68006">
        <ele>238.73096</ele>
        <time>2015-04-26T16:36:10Z</time>
      </trkpt>
      <trkpt lat="45.67897" lon="5.68009">
        <ele>238.73096</ele>
        <time>2015-04-26T16:36:16Z</time>
      </trkpt>
      <trkpt lat="45.67896" lon="5.68009">
        <ele>238.73096</ele>
        <time>2015-04-26T16:36:21Z</time>
      </trkpt>
      <trkpt lat="45.67895" lon="5.68008">
        <ele>238.73096</ele>
        <time>2015-04-26T16:36:26Z</time>
      </trkpt>
      <trkpt lat="45.67894" lon="5.68006">
        <ele>238.73096</ele>
        <time>2015-04-26T16:36:31Z</time>
      </trkpt>
      <trkpt lat="45.67893" lon="5.68004">
        <ele>239.6231</ele>
        <time>2015-04-26T16:36:36Z</time>
      </trkpt>
      <trkpt lat="45.67895" lon="5.68006">
        <ele>239.6231</ele>
        <time>2015-04-26T16:36:41Z</time>
      </trkpt>
      <trkpt lat="45.67893" lon="5.68004">
        <ele>239.6231</ele>
        <time>2015-04-26T16:36:47Z</time>
      </trkpt>
      <trkpt lat="45.67891" lon="5.68007">
        <ele>239.6231</ele>
        <time>2015-04-26T16:36:51Z</time>
      </trkpt>
      <trkpt lat="45.67885" lon="5.68014">
        <ele>240.04216</ele>
        <time>2015-04-26T16:36:56Z</time>
      </trkpt>
      <trkpt lat="45.67883" lon="5.68019">
        <ele>240.04216</ele>
        <time>2015-04-26T16:37:01Z</time>
      </trkpt>
      <trkpt lat="45.6788" lon="5.68032">
        <ele>238.76744</ele>
        <time>2015-04-26T16:37:06Z</time>
      </trkpt>
      <trkpt lat="45.67876" lon="5.68039">
        <ele>238.76744</ele>
        <time>2015-04-26T16:37:11Z</time>
      </trkpt>
      <trkpt lat="45.67868" lon="5.68046">
        <ele>237.46838</ele>
        <time>2015-04-26T16:37:16Z</time>
      </trkpt>
      <trkpt lat="45.67862" lon="5.68051">
        <ele>237.46838</ele>
        <time>2015-04-26T16:37:21Z</time>
      </trkpt>
      <trkpt lat="45.67855" lon="5.6805">
        <ele>235.96251</ele>
        <time>2015-04-26T16:37:26Z</time>
      </trkpt>
      <trkpt lat="45.67852" lon="5.6804">
        <ele>235.96251</ele>
        <time>2015-04-26T16:37:32Z</time>
      </trkpt>
      <trkpt lat="45.6785" lon="5.68033">
        <ele>234.67209</ele>
        <time>2015-04-26T16:37:36Z</time>
      </trkpt>
      <trkpt lat="45.67846" lon="5.68027">
        <ele>234.67209</ele>
        <time>2015-04-26T16:37:41Z</time>
      </trkpt>
      <trkpt lat="45.67837" lon="5.68012">
        <ele>233.69952</ele>
        <time>2015-04-26T16:37:47Z</time>
      </trkpt>
      <trkpt lat="45.67831" lon="5.68004">
        <ele>233.69952</ele>
        <time>2015-04-26T16:37:52Z</time>
      </trkpt>
      <trkpt lat="45.67829" lon="5.68001">
        <ele>233.25404</ele>
        <time>2015-04-26T16:37:56Z</time>
      </trkpt>
      <trkpt lat="45.67819" lon="5.67988">
        <ele>233.48474</ele>
        <time>2015-04-26T16:38:01Z</time>
      </trkpt>
      <trkpt lat="45.67815" lon="5.67982">
        <ele>233.48474</ele>
        <time>2015-04-26T16:38:06Z</time>
      </trkpt>
      <trkpt lat="45.67808" lon="5.67975">
        <ele>233.28842</ele>
        <time>2015-04-26T16:38:11Z</time>
      </trkpt>
      <trkpt lat="45.67802" lon="5.67969">
        <ele>233.28842</ele>
        <time>2015-04-26T16:38:16Z</time>
      </trkpt>
      <trkpt lat="45.67796" lon="5.67962">
        <ele>233.09966</ele>
        <time>2015-04-26T16:38:21Z</time>
      </trkpt>
      <trkpt lat="45.67791" lon="5.67957">
        <ele>233.09966</ele>
        <time>2015-04-26T16:38:26Z</time>
      </trkpt>
      <trkpt lat="45.67785" lon="5.67953">
        <ele>233.06157</ele>
        <time>2015-04-26T16:38:31Z</time>
      </trkpt>
      <trkpt lat="45.67777" lon="5.67947">
        <ele>233.2199</ele>
        <time>2015-04-26T16:38:36Z</time>
      </trkpt>
      <trkpt lat="45.67773" lon="5.67941">
        <ele>233.2199</ele>
        <time>2015-04-26T16:38:41Z</time>
      </trkpt>
      <trkpt lat="45.67766" lon="5.67939">
        <ele>233.357</ele>
        <time>2015-04-26T16:38:46Z</time>
      </trkpt>
      <trkpt lat="45.67755" lon="5.67937">
        <ele>233.45862</ele>
        <time>2015-04-26T16:38:51Z</time>
      </trkpt>
      <trkpt lat="45.67748" lon="5.67937">
        <ele>233.45862</ele>
        <time>2015-04-26T16:38:56Z</time>
      </trkpt>
      <trkpt lat="45.67743" lon="5.6794">
        <ele>233.22339</ele>
        <time>2015-04-26T16:39:01Z</time>
      </trkpt>
      <trkpt lat="45.67735" lon="5.6794">
        <ele>233.22339</ele>
        <time>2015-04-26T16:39:06Z</time>
      </trkpt>
      <trkpt lat="45.67728" lon="5.67941">
        <ele>232.66125</ele>
        <time>2015-04-26T16:39:11Z</time>
      </trkpt>
      <trkpt lat="45.67724" lon="5.67948">
        <ele>232.66125</ele>
        <time>2015-04-26T16:39:16Z</time>
      </trkpt>
      <trkpt lat="45.67718" lon="5.6796">
        <ele>232.07054</ele>
        <time>2015-04-26T16:39:21Z</time>
      </trkpt>
      <trkpt lat="45.67714" lon="5.67965">
        <ele>232.07054</ele>
        <time>2015-04-26T16:39:26Z</time>
      </trkpt>
      <trkpt lat="45.67704" lon="5.67969">
        <ele>231.65567</ele>
        <time>2015-04-26T16:39:31Z</time>
      </trkpt>
      <trkpt lat="45.67698" lon="5.6797">
        <ele>231.65567</ele>
        <time>2015-04-26T16:39:36Z</time>
      </trkpt>
      <trkpt lat="45.67692" lon="5.67963">
        <ele>231.01468</ele>
        <time>2015-04-26T16:39:41Z</time>
      </trkpt>
      <trkpt lat="45.67686" lon="5.67962">
        <ele>231.01468</ele>
        <time>2015-04-26T16:39:46Z</time>
      </trkpt>
      <trkpt lat="45.67679" lon="5.67959">
        <ele>230.69809</ele>
        <time>2015-04-26T16:39:51Z</time>
      </trkpt>
      <trkpt lat="45.67672" lon="5.67955">
        <ele>230.69809</ele>
        <time>2015-04-26T16:39:56Z</time>
      </trkpt>
      <trkpt lat="45.67665" lon="5.6795">
        <ele>230.92683</ele>
        <time>2015-04-26T16:40:01Z</time>
      </trkpt>
      <trkpt lat="45.67658" lon="5.67949">
        <ele>230.92683</ele>
        <time>2015-04-26T16:40:06Z</time>
      </trkpt>
      <trkpt lat="45.67655" lon="5.67946">
        <ele>230.96733</ele>
        <time>2015-04-26T16:40:11Z</time>
      </trkpt>
      <trkpt lat="45.67654" lon="5.67949">
        <ele>230.96733</ele>
        <time>2015-04-26T16:40:15Z</time>
      </trkpt>
      <trkpt lat="45.67651" lon="5.67948">
        <ele>230.96733</ele>
        <time>2015-04-26T16:40:21Z</time>
      </trkpt>
      <trkpt lat="45.67651" lon="5.67947">
        <ele>230.96733</ele>
        <time>2015-04-26T16:40:26Z</time>
      </trkpt>
      <trkpt lat="45.67644" lon="5.67944">
        <ele>230.6304</ele>
        <time>2015-04-26T16:40:31Z</time>
      </trkpt>
      <trkpt lat="45.67639" lon="5.67944">
        <ele>230.6304</ele>
        <time>2015-04-26T16:40:36Z</time>
      </trkpt>
      <trkpt lat="45.67631" lon="5.67943">
        <ele>230.3615</ele>
        <time>2015-04-26T16:40:41Z</time>
      </trkpt>
      <trkpt lat="45.67625" lon="5.67943">
        <ele>230.3615</ele>
        <time>2015-04-26T16:40:46Z</time>
      </trkpt>
      <trkpt lat="45.67619" lon="5.67943">
        <ele>230.05437</ele>
        <time>2015-04-26T16:40:51Z</time>
      </trkpt>
      <trkpt lat="45.67613" lon="5.6794">
        <ele>230.05437</ele>
        <time>2015-04-26T16:40:56Z</time>
      </trkpt>
      <trkpt lat="45.67608" lon="5.67938">
        <ele>229.89886</ele>
        <time>2015-04-26T16:41:01Z</time>
      </trkpt>
      <trkpt lat="45.67601" lon="5.6794">
        <ele>229.89886</ele>
        <time>2015-04-26T16:41:06Z</time>
      </trkpt>
      <trkpt lat="45.67601" lon="5.6794">
        <ele>229.89886</ele>
        <time>2015-04-26T16:41:11Z</time>
      </trkpt>
      <trkpt lat="45.67601" lon="5.67939">
        <ele>229.89886</ele>
        <time>2015-04-26T16:41:16Z</time>
      </trkpt>
      <trkpt lat="45.67601" lon="5.6794">
        <ele>229.89886</ele>
        <time>2015-04-26T16:41:22Z</time>
      </trkpt>
      <trkpt lat="45.67602" lon="5.67941">
        <ele>229.63818</ele>
        <time>2015-04-26T16:41:26Z</time>
      </trkpt>
      <trkpt lat="45.67607" lon="5.67945">
        <ele>229.63818</ele>
        <time>2015-04-26T16:41:31Z</time>
      </trkpt>
      <trkpt lat="45.67608" lon="5.67945">
        <ele>229.63818</ele>
        <time>2015-04-26T16:41:36Z</time>
      </trkpt>
      <trkpt lat="45.67608" lon="5.67946">
        <ele>229.63818</ele>
        <time>2015-04-26T16:41:41Z</time>
      </trkpt>
      <trkpt lat="45.67608" lon="5.67946">
        <ele>229.63818</ele>
        <time>2015-04-26T16:41:46Z</time>
      </trkpt>
      <trkpt lat="45.67608" lon="5.67946">
        <ele>229.63818</ele>
        <time>2015-04-26T16:41:51Z</time>
      </trkpt>
      <trkpt lat="45.67606" lon="5.6794">
        <ele>229.68315</ele>
        <time>2015-04-26T16:41:56Z</time>
      </trkpt>
      <trkpt lat="45.67604" lon="5.67939">
        <ele>229.68315</ele>
        <time>2015-04-26T16:42:01Z</time>
      </trkpt>
      <trkpt lat="45.67603" lon="5.67936">
        <ele>229.68315</ele>
        <time>2015-04-26T16:42:06Z</time>
      </trkpt>
      <trkpt lat="45.67605" lon="5.67934">
        <ele>229.68315</ele>
        <time>2015-04-26T16:42:11Z</time>
      </trkpt>
      <trkpt lat="45.67607" lon="5.67936">
        <ele>229.21745</ele>
        <time>2015-04-26T16:42:16Z</time>
      </trkpt>
      <trkpt lat="45.67609" lon="5.67939">
        <ele>229.21745</ele>
        <time>2015-04-26T16:42:21Z</time>
      </trkpt>
      <trkpt lat="45.67609" lon="5.67939">
        <ele>229.21745</ele>
        <time>2015-04-26T16:42:25Z</time>
      </trkpt>
      <trkpt lat="45.67612" lon="5.67936">
        <ele>229.21745</ele>
        <time>2015-04-26T16:42:32Z</time>
      </trkpt>
      <trkpt lat="45.67611" lon="5.67938">
        <ele>229.21745</ele>
        <time>2015-04-26T16:42:36Z</time>
      </trkpt>
      <trkpt lat="45.6761" lon="5.67938">
        <ele>229.21745</ele>
        <time>2015-04-26T16:42:41Z</time>
      </trkpt>
      <trkpt lat="45.67609" lon="5.67939">
        <ele>228.39406</ele>
        <time>2015-04-26T16:42:46Z</time>
      </trkpt>
      <trkpt lat="45.67615" lon="5.67938">
        <ele>228.39406</ele>
        <time>2015-04-26T16:42:51Z</time>
      </trkpt>
      <trkpt lat="45.67616" lon="5.67932">
        <ele>228.06187</ele>
        <time>2015-04-26T16:42:56Z</time>
      </trkpt>
      <trkpt lat="45.67616" lon="5.67932">
        <ele>228.06187</ele>
        <time>2015-04-26T16:43:01Z</time>
      </trkpt>
      <trkpt lat="45.67611" lon="5.67937">
        <ele>228.06187</ele>
        <time>2015-04-26T16:43:06Z</time>
      </trkpt>
      <trkpt lat="45.67609" lon="5.67933">
        <ele>228.06187</ele>
        <time>2015-04-26T16:43:10Z</time>
      </trkpt>
    </trkseg>
  </trk>
</gpx>